<?xml version='1.0' encoding='UTF-8'?><gpx version="1.1" creator="JPX - https://github.com/jenetics/jpx" xmlns="http://www.topografix.com/GPX/1/1"><trk><trkseg><trkpt lat="45.9683093" lon="11.7589899"><ele>298.4</ele><time>2026-04-04T12:27:38.207Z</time></trkpt><trkpt lat="45.9683696" lon="11.7590741"><ele>298.8</ele><time>2026-04-04T12:27:45.207Z</time></trkpt><trkpt lat="45.9684182" lon="11.7591384"><ele>299.2</ele><time>2026-04-04T12:27:48.207Z</time></trkpt><trkpt lat="45.9684693" lon="11.7591936"><ele>299.6</ele><time>2026-04-04T12:27:50.207Z</time></trkpt><trkpt lat="45.9685179" lon="11.7593941"><ele>300.0</ele><time>2026-04-04T12:27:52.207Z</time></trkpt><trkpt lat="45.9685536" lon="11.7595253"><ele>302.4</ele><time>2026-04-04T12:27:54.206Z</time></trkpt><trkpt lat="45.9685902" lon="11.7596535"><ele>304.8</ele><time>2026-04-04T12:27:56.207Z</time></trkpt><trkpt lat="45.9686442" lon="11.7597895"><ele>307.2</ele><time>2026-04-04T12:27:58.207Z</time></trkpt><trkpt lat="45.9687175" lon="11.7599169"><ele>309.6</ele><time>2026-04-04T12:28:00.206Z</time></trkpt><trkpt lat="45.9687788" lon="11.7600404"><ele>312.0</ele><time>2026-04-04T12:28:02.207Z</time></trkpt><trkpt lat="45.9687936" lon="11.7601638"><ele>313.6666666666667</ele><time>2026-04-04T12:28:04.207Z</time></trkpt><trkpt lat="45.968824" lon="11.7602868"><ele>315.3333333333333</ele><time>2026-04-04T12:28:06.207Z</time></trkpt><trkpt lat="45.9688608" lon="11.7603999"><ele>317.0</ele><time>2026-04-04T12:28:08.207Z</time></trkpt><trkpt lat="45.9689197" lon="11.7604457"><ele>318.66666666666663</ele><time>2026-04-04T12:28:10.206Z</time></trkpt><trkpt lat="45.9689837" lon="11.7603965"><ele>320.3333333333333</ele><time>2026-04-04T12:28:12.207Z</time></trkpt><trkpt lat="45.96906" lon="11.7603342"><ele>322.0</ele><time>2026-04-04T12:28:14.207Z</time></trkpt><trkpt lat="45.9691303" lon="11.7602688"><ele>322.0</ele><time>2026-04-04T12:28:16.207Z</time></trkpt><trkpt lat="45.9691889" lon="11.7602261"><ele>322.0</ele><time>2026-04-04T12:28:18.206Z</time></trkpt><trkpt lat="45.9692775" lon="11.7601866"><ele>322.0</ele><time>2026-04-04T12:28:20.207Z</time></trkpt><trkpt lat="45.969388" lon="11.7601031"><ele>322.0</ele><time>2026-04-04T12:28:22.207Z</time></trkpt><trkpt lat="45.9694478" lon="11.7600472"><ele>322.0</ele><time>2026-04-04T12:28:23.207Z</time></trkpt><trkpt lat="45.9695073" lon="11.7600013"><ele>322.0</ele><time>2026-04-04T12:28:24.207Z</time></trkpt><trkpt lat="45.9695657" lon="11.7599601"><ele>322.75</ele><time>2026-04-04T12:28:25.207Z</time></trkpt><trkpt lat="45.9696815" lon="11.7598995"><ele>323.5</ele><time>2026-04-04T12:28:27.207Z</time></trkpt><trkpt lat="45.9697916" lon="11.7598227"><ele>324.25</ele><time>2026-04-04T12:28:29.207Z</time></trkpt><trkpt lat="45.9698957" lon="11.759768"><ele>325.0</ele><time>2026-04-04T12:28:31.207Z</time></trkpt><trkpt lat="45.9699821" lon="11.7597093"><ele>325.6</ele><time>2026-04-04T12:28:33.207Z</time></trkpt><trkpt lat="45.9700755" lon="11.759639"><ele>326.2</ele><time>2026-04-04T12:28:35.207Z</time></trkpt><trkpt lat="45.9701574" lon="11.7595618"><ele>326.79999999999995</ele><time>2026-04-04T12:28:37.207Z</time></trkpt><trkpt lat="45.9702297" lon="11.7595001"><ele>327.4</ele><time>2026-04-04T12:28:39.207Z</time></trkpt><trkpt lat="45.9702904" lon="11.7594585"><ele>328.0</ele><time>2026-04-04T12:28:41.207Z</time></trkpt><trkpt lat="45.9703696" lon="11.7593762"><ele>328.0</ele><time>2026-04-04T12:28:49.207Z</time></trkpt><trkpt lat="45.9704485" lon="11.7593372"><ele>328.0</ele><time>2026-04-04T12:28:52.207Z</time></trkpt><trkpt lat="45.9704503" lon="11.7594297"><ele>328.0</ele><time>2026-04-04T12:28:55.207Z</time></trkpt><trkpt lat="45.9704068" lon="11.7595452"><ele>328.0</ele><time>2026-04-04T12:28:58.206Z</time></trkpt><trkpt lat="45.9703475" lon="11.7596693"><ele>328.0</ele><time>2026-04-04T12:29:00.207Z</time></trkpt><trkpt lat="45.970298" lon="11.7597869"><ele>328.0</ele><time>2026-04-04T12:29:02.207Z</time></trkpt><trkpt lat="45.970232" lon="11.759887"><ele>328.0</ele><time>2026-04-04T12:29:04.207Z</time></trkpt><trkpt lat="45.9701857" lon="11.7599593"><ele>328.0</ele><time>2026-04-04T12:29:05.207Z</time></trkpt><trkpt lat="45.9701228" lon="11.7601093"><ele>328.0</ele><time>2026-04-04T12:29:07.207Z</time></trkpt><trkpt lat="45.9700799" lon="11.7602279"><ele>328.0</ele><time>2026-04-04T12:29:09.207Z</time></trkpt><trkpt lat="45.9700439" lon="11.7603531"><ele>328.0</ele><time>2026-04-04T12:29:11.207Z</time></trkpt><trkpt lat="45.9700256" lon="11.7604993"><ele>330.66666666666663</ele><time>2026-04-04T12:29:13.207Z</time></trkpt><trkpt lat="45.970015" lon="11.7605913"><ele>333.3333333333333</ele><time>2026-04-04T12:29:14.206Z</time></trkpt><trkpt lat="45.9700098" lon="11.7606891"><ele>336.0</ele><time>2026-04-04T12:29:15.206Z</time></trkpt><trkpt lat="45.9699928" lon="11.7608489"><ele>338.6666666666667</ele><time>2026-04-04T12:29:17.207Z</time></trkpt><trkpt lat="45.9699543" lon="11.7610005"><ele>341.33333333333337</ele><time>2026-04-04T12:29:19.207Z</time></trkpt><trkpt lat="45.9699222" lon="11.76109"><ele>344.0</ele><time>2026-04-04T12:29:20.207Z</time></trkpt><trkpt lat="45.9698227" lon="11.7612405"><ele>348.0</ele><time>2026-04-04T12:29:22.207Z</time></trkpt><trkpt lat="45.9697775" lon="11.7613046"><ele>352.0</ele><time>2026-04-04T12:29:24.207Z</time></trkpt><trkpt lat="45.9697621" lon="11.7614537"><ele>356.0</ele><time>2026-04-04T12:29:26.206Z</time></trkpt><trkpt lat="45.9697385" lon="11.7615505"><ele>360.0</ele><time>2026-04-04T12:29:27.206Z</time></trkpt><trkpt lat="45.9697138" lon="11.7616449"><ele>364.0</ele><time>2026-04-04T12:29:28.207Z</time></trkpt><trkpt lat="45.9696809" lon="11.7617248"><ele>368.0</ele><time>2026-04-04T12:29:29.207Z</time></trkpt><trkpt lat="45.9696349" lon="11.7618574"><ele>371.79999999999995</ele><time>2026-04-04T12:29:31.207Z</time></trkpt><trkpt lat="45.9695478" lon="11.7619289"><ele>375.6</ele><time>2026-04-04T12:29:33.207Z</time></trkpt><trkpt lat="45.9695307" lon="11.762088"><ele>379.4</ele><time>2026-04-04T12:29:35.207Z</time></trkpt><trkpt lat="45.9696082" lon="11.7620548"><ele>383.20000000000005</ele><time>2026-04-04T12:29:44.207Z</time></trkpt><trkpt lat="45.9696842" lon="11.7620385"><ele>387.0</ele><time>2026-04-04T12:29:48.207Z</time></trkpt><trkpt lat="45.9697669" lon="11.762035"><ele>387.0</ele><time>2026-04-04T12:29:51.207Z</time></trkpt><trkpt lat="45.9698483" lon="11.7620169"><ele>387.0</ele><time>2026-04-04T12:29:54.207Z</time></trkpt><trkpt lat="45.9699264" lon="11.7619805"><ele>387.0</ele><time>2026-04-04T12:29:57.206Z</time></trkpt><trkpt lat="45.9699923" lon="11.7619088"><ele>387.0</ele><time>2026-04-04T12:30:00.207Z</time></trkpt><trkpt lat="45.9700676" lon="11.7618621"><ele>387.0</ele><time>2026-04-04T12:30:02.207Z</time></trkpt><trkpt lat="45.9701375" lon="11.7617548"><ele>387.0</ele><time>2026-04-04T12:30:04.207Z</time></trkpt><trkpt lat="45.9702043" lon="11.7616624"><ele>389.0</ele><time>2026-04-04T12:30:06.207Z</time></trkpt><trkpt lat="45.9702848" lon="11.7616017"><ele>391.0</ele><time>2026-04-04T12:30:08.207Z</time></trkpt><trkpt lat="45.9703684" lon="11.761565"><ele>393.0</ele><time>2026-04-04T12:30:10.206Z</time></trkpt><trkpt lat="45.9704438" lon="11.7615451"><ele>395.0</ele><time>2026-04-04T12:30:12.207Z</time></trkpt><trkpt lat="45.9705067" lon="11.7615339"><ele>397.0</ele><time>2026-04-04T12:30:14.207Z</time></trkpt><trkpt lat="45.9705898" lon="11.7615526"><ele>399.0</ele><time>2026-04-04T12:30:17.207Z</time></trkpt><trkpt lat="45.9705744" lon="11.7616545"><ele>399.0</ele><time>2026-04-04T12:30:21.207Z</time></trkpt><trkpt lat="45.9706476" lon="11.7617697"><ele>399.0</ele><time>2026-04-04T12:30:25.207Z</time></trkpt><trkpt lat="45.9707666" lon="11.7618523"><ele>399.0</ele><time>2026-04-04T12:30:27.207Z</time></trkpt><trkpt lat="45.9708585" lon="11.7619109"><ele>399.0</ele><time>2026-04-04T12:30:29.207Z</time></trkpt><trkpt lat="45.9709337" lon="11.7619277"><ele>399.0</ele><time>2026-04-04T12:30:31.207Z</time></trkpt><trkpt lat="45.9710294" lon="11.7619"><ele>405.8333333333333</ele><time>2026-04-04T12:30:33.207Z</time></trkpt><trkpt lat="45.9711291" lon="11.7619238"><ele>412.66666666666663</ele><time>2026-04-04T12:30:35.207Z</time></trkpt><trkpt lat="45.9711922" lon="11.761979"><ele>419.5</ele><time>2026-04-04T12:30:37.207Z</time></trkpt><trkpt lat="45.9712407" lon="11.7620637"><ele>426.3333333333333</ele><time>2026-04-04T12:30:39.206Z</time></trkpt><trkpt lat="45.9713084" lon="11.7621231"><ele>433.16666666666663</ele><time>2026-04-04T12:30:42.207Z</time></trkpt><trkpt lat="45.9713746" lon="11.7622073"><ele>440.0</ele><time>2026-04-04T12:30:45.207Z</time></trkpt><trkpt lat="45.9714433" lon="11.762281"><ele>439.99999999999994</ele><time>2026-04-04T12:30:47.207Z</time></trkpt><trkpt lat="45.9715186" lon="11.7623261"><ele>440.0</ele><time>2026-04-04T12:30:50.207Z</time></trkpt><trkpt lat="45.971487" lon="11.7624103"><ele>440.0</ele><time>2026-04-04T12:30:58.207Z</time></trkpt><trkpt lat="45.9714044" lon="11.7624168"><ele>440.0</ele><time>2026-04-04T12:31:00.207Z</time></trkpt><trkpt lat="45.9712887" lon="11.7624475"><ele>439.99999999999994</ele><time>2026-04-04T12:31:02.207Z</time></trkpt><trkpt lat="45.9712006" lon="11.7624615"><ele>440.0</ele><time>2026-04-04T12:31:04.207Z</time></trkpt><trkpt lat="45.9711019" lon="11.7624936"><ele>439.99999999999994</ele><time>2026-04-04T12:31:06.207Z</time></trkpt><trkpt lat="45.9710307" lon="11.7625263"><ele>440.0</ele><time>2026-04-04T12:31:08.206Z</time></trkpt><trkpt lat="45.9710692" lon="11.76266"><ele>440.0</ele><time>2026-04-04T12:31:12.207Z</time></trkpt><trkpt lat="45.9711289" lon="11.762715"><ele>440.0</ele><time>2026-04-04T12:31:13.207Z</time></trkpt><trkpt lat="45.971179" lon="11.7627876"><ele>439.99999999999994</ele><time>2026-04-04T12:31:14.207Z</time></trkpt><trkpt lat="45.9712832" lon="11.7628799"><ele>440.0</ele><time>2026-04-04T12:31:16.207Z</time></trkpt><trkpt lat="45.9713428" lon="11.7629378"><ele>441.0</ele><time>2026-04-04T12:31:17.207Z</time></trkpt><trkpt lat="45.971409" lon="11.7629597"><ele>442.0</ele><time>2026-04-04T12:31:18.206Z</time></trkpt><trkpt lat="45.9714741" lon="11.7629873"><ele>443.0</ele><time>2026-04-04T12:31:20.207Z</time></trkpt><trkpt lat="45.9715368" lon="11.7630509"><ele>444.0</ele><time>2026-04-04T12:31:22.206Z</time></trkpt><trkpt lat="45.9717681" lon="11.7630558"><ele>445.0</ele><time>2026-04-04T12:31:27.207Z</time></trkpt><trkpt lat="45.9719015" lon="11.7630754"><ele>445.0</ele><time>2026-04-04T12:31:29.207Z</time></trkpt><trkpt lat="45.9720029" lon="11.7631123"><ele>445.0</ele><time>2026-04-04T12:31:31.207Z</time></trkpt><trkpt lat="45.9720725" lon="11.7630868"><ele>445.0</ele><time>2026-04-04T12:31:32.207Z</time></trkpt><trkpt lat="45.9721807" lon="11.7631327"><ele>445.0</ele><time>2026-04-04T12:31:34.207Z</time></trkpt><trkpt lat="45.9722917" lon="11.763146"><ele>445.0</ele><time>2026-04-04T12:31:36.207Z</time></trkpt><trkpt lat="45.9723982" lon="11.7631644"><ele>445.0</ele><time>2026-04-04T12:31:38.206Z</time></trkpt><trkpt lat="45.972508" lon="11.7631808"><ele>445.0</ele><time>2026-04-04T12:31:40.206Z</time></trkpt><trkpt lat="45.9725696" lon="11.7632016"><ele>445.0</ele><time>2026-04-04T12:31:41.207Z</time></trkpt><trkpt lat="45.9726881" lon="11.7632605"><ele>445.0</ele><time>2026-04-04T12:31:43.207Z</time></trkpt><trkpt lat="45.9727765" lon="11.7632991"><ele>445.0</ele><time>2026-04-04T12:31:45.207Z</time></trkpt><trkpt lat="45.9729041" lon="11.7633037"><ele>444.8</ele><time>2026-04-04T12:31:47.207Z</time></trkpt><trkpt lat="45.9729849" lon="11.7633115"><ele>444.6</ele><time>2026-04-04T12:31:49.207Z</time></trkpt><trkpt lat="45.9731102" lon="11.7633269"><ele>444.4</ele><time>2026-04-04T12:31:51.206Z</time></trkpt><trkpt lat="45.9732345" lon="11.7632856"><ele>444.2</ele><time>2026-04-04T12:31:53.207Z</time></trkpt><trkpt lat="45.9733406" lon="11.7632809"><ele>444.0</ele><time>2026-04-04T12:31:55.207Z</time></trkpt><trkpt lat="45.9734346" lon="11.7633068"><ele>444.0</ele><time>2026-04-04T12:31:57.206Z</time></trkpt><trkpt lat="45.9735214" lon="11.7633261"><ele>444.0</ele><time>2026-04-04T12:31:59.207Z</time></trkpt><trkpt lat="45.9736149" lon="11.7633274"><ele>444.0</ele><time>2026-04-04T12:32:01.207Z</time></trkpt><trkpt lat="45.9736906" lon="11.7633167"><ele>444.0</ele><time>2026-04-04T12:32:03.207Z</time></trkpt><trkpt lat="45.9737677" lon="11.7633347"><ele>444.0</ele><time>2026-04-04T12:32:06.206Z</time></trkpt><trkpt lat="45.9738324" lon="11.7633378"><ele>444.0</ele><time>2026-04-04T12:32:09.206Z</time></trkpt><trkpt lat="45.9739187" lon="11.7633222"><ele>444.0</ele><time>2026-04-04T12:32:13.207Z</time></trkpt><trkpt lat="45.9739931" lon="11.7632786"><ele>444.0</ele><time>2026-04-04T12:32:16.207Z</time></trkpt><trkpt lat="45.9740724" lon="11.7632536"><ele>444.0</ele><time>2026-04-04T12:32:18.207Z</time></trkpt><trkpt lat="45.9741681" lon="11.763207"><ele>444.0</ele><time>2026-04-04T12:32:20.207Z</time></trkpt><trkpt lat="45.9742544" lon="11.7632227"><ele>444.0</ele><time>2026-04-04T12:32:21.206Z</time></trkpt><trkpt lat="45.9743405" lon="11.7632126"><ele>444.0</ele><time>2026-04-04T12:32:23.207Z</time></trkpt><trkpt lat="45.9744109" lon="11.763297"><ele>444.0</ele><time>2026-04-04T12:32:24.207Z</time></trkpt><trkpt lat="45.9744853" lon="11.7633663"><ele>444.0</ele><time>2026-04-04T12:32:26.207Z</time></trkpt><trkpt lat="45.974555" lon="11.7634126"><ele>444.0</ele><time>2026-04-04T12:32:28.207Z</time></trkpt><trkpt lat="45.9746407" lon="11.7634382"><ele>444.0</ele><time>2026-04-04T12:32:30.207Z</time></trkpt><trkpt lat="45.9747266" lon="11.7634958"><ele>444.0</ele><time>2026-04-04T12:32:33.207Z</time></trkpt><trkpt lat="45.9747818" lon="11.7635411"><ele>444.0</ele><time>2026-04-04T12:32:35.207Z</time></trkpt><trkpt lat="45.9748876" lon="11.7636196"><ele>440.25</ele><time>2026-04-04T12:32:37.207Z</time></trkpt><trkpt lat="45.9749881" lon="11.7636965"><ele>436.5</ele><time>2026-04-04T12:32:39.206Z</time></trkpt><trkpt lat="45.9750852" lon="11.7637959"><ele>432.75</ele><time>2026-04-04T12:32:41.206Z</time></trkpt><trkpt lat="45.9751775" lon="11.7638872"><ele>429.0</ele><time>2026-04-04T12:32:43.207Z</time></trkpt><trkpt lat="45.975281" lon="11.7639816"><ele>429.0</ele><time>2026-04-04T12:32:44.207Z</time></trkpt><trkpt lat="45.9753881" lon="11.7640183"><ele>429.0</ele><time>2026-04-04T12:32:46.207Z</time></trkpt><trkpt lat="45.9754882" lon="11.7640334"><ele>429.0</ele><time>2026-04-04T12:32:48.207Z</time></trkpt><trkpt lat="45.9755922" lon="11.7640672"><ele>429.0</ele><time>2026-04-04T12:32:50.206Z</time></trkpt><trkpt lat="45.9756592" lon="11.7640847"><ele>429.0</ele><time>2026-04-04T12:32:51.207Z</time></trkpt><trkpt lat="45.9757319" lon="11.7640818"><ele>429.0</ele><time>2026-04-04T12:32:53.207Z</time></trkpt><trkpt lat="45.9757942" lon="11.7640984"><ele>429.0</ele><time>2026-04-04T12:32:54.207Z</time></trkpt><trkpt lat="45.9758841" lon="11.7641096"><ele>429.0</ele><time>2026-04-04T12:32:56.207Z</time></trkpt><trkpt lat="45.9759836" lon="11.7641534"><ele>429.0</ele><time>2026-04-04T12:32:59.207Z</time></trkpt><trkpt lat="45.9760437" lon="11.7641831"><ele>429.0</ele><time>2026-04-04T12:33:00.206Z</time></trkpt><trkpt lat="45.976113" lon="11.7641982"><ele>429.0</ele><time>2026-04-04T12:33:01.207Z</time></trkpt><trkpt lat="45.9762063" lon="11.7642577"><ele>425.6</ele><time>2026-04-04T12:33:03.206Z</time></trkpt><trkpt lat="45.9762767" lon="11.7642988"><ele>422.2</ele><time>2026-04-04T12:33:04.207Z</time></trkpt><trkpt lat="45.9763769" lon="11.7643426"><ele>418.8</ele><time>2026-04-04T12:33:06.207Z</time></trkpt><trkpt lat="45.9764966" lon="11.7643706"><ele>415.40000000000003</ele><time>2026-04-04T12:33:08.207Z</time></trkpt><trkpt lat="45.9765705" lon="11.7643837"><ele>412.0</ele><time>2026-04-04T12:33:09.206Z</time></trkpt><trkpt lat="45.9766461" lon="11.7643953"><ele>407.40000000000003</ele><time>2026-04-04T12:33:10.207Z</time></trkpt><trkpt lat="45.9767197" lon="11.7643927"><ele>402.8</ele><time>2026-04-04T12:33:11.207Z</time></trkpt><trkpt lat="45.9767895" lon="11.7644086"><ele>398.2</ele><time>2026-04-04T12:33:12.207Z</time></trkpt><trkpt lat="45.9769206" lon="11.7644544"><ele>393.6</ele><time>2026-04-04T12:33:15.207Z</time></trkpt><trkpt lat="45.9769862" lon="11.7644755"><ele>389.0</ele><time>2026-04-04T12:33:16.207Z</time></trkpt><trkpt lat="45.9771026" lon="11.7644834"><ele>388.99999999999994</ele><time>2026-04-04T12:33:18.207Z</time></trkpt><trkpt lat="45.9771859" lon="11.7645728"><ele>389.0</ele><time>2026-04-04T12:33:20.207Z</time></trkpt><trkpt lat="45.977258" lon="11.7645597"><ele>389.0</ele><time>2026-04-04T12:33:21.207Z</time></trkpt><trkpt lat="45.9773421" lon="11.764573"><ele>389.0</ele><time>2026-04-04T12:33:24.207Z</time></trkpt><trkpt lat="45.9774092" lon="11.7645801"><ele>388.99999999999994</ele><time>2026-04-04T12:33:26.206Z</time></trkpt><trkpt lat="45.9774997" lon="11.7645886"><ele>389.0</ele><time>2026-04-04T12:33:29.207Z</time></trkpt><trkpt lat="45.9775932" lon="11.7646273"><ele>386.2857142857143</ele><time>2026-04-04T12:33:31.206Z</time></trkpt><trkpt lat="45.9776685" lon="11.7646156"><ele>383.57142857142856</ele><time>2026-04-04T12:33:34.207Z</time></trkpt><trkpt lat="45.9777418" lon="11.7645631"><ele>380.85714285714283</ele><time>2026-04-04T12:33:38.207Z</time></trkpt><trkpt lat="45.9778058" lon="11.7645602"><ele>378.1428571428571</ele><time>2026-04-04T12:33:41.207Z</time></trkpt><trkpt lat="45.9778631" lon="11.7645067"><ele>375.42857142857144</ele><time>2026-04-04T12:33:44.207Z</time></trkpt><trkpt lat="45.9779398" lon="11.7645254"><ele>372.71428571428567</ele><time>2026-04-04T12:33:48.207Z</time></trkpt><trkpt lat="45.9779993" lon="11.764567"><ele>370.0</ele><time>2026-04-04T12:33:51.207Z</time></trkpt><trkpt lat="45.978055" lon="11.7646495"><ele>370.0</ele><time>2026-04-04T12:33:55.207Z</time></trkpt><trkpt lat="45.9781161" lon="11.764684"><ele>370.0</ele><time>2026-04-04T12:33:59.207Z</time></trkpt><trkpt lat="45.9782014" lon="11.7646894"><ele>370.0</ele><time>2026-04-04T12:34:03.207Z</time></trkpt><trkpt lat="45.9782643" lon="11.7647567"><ele>370.0</ele><time>2026-04-04T12:34:06.207Z</time></trkpt><trkpt lat="45.9783332" lon="11.7647983"><ele>370.0</ele><time>2026-04-04T12:34:09.206Z</time></trkpt><trkpt lat="45.9784014" lon="11.7648234"><ele>370.0</ele><time>2026-04-04T12:34:12.207Z</time></trkpt><trkpt lat="45.9784784" lon="11.7648156"><ele>367.16666666666663</ele><time>2026-04-04T12:34:16.206Z</time></trkpt><trkpt lat="45.978545" lon="11.7648414"><ele>364.3333333333333</ele><time>2026-04-04T12:34:19.207Z</time></trkpt><trkpt lat="45.9786166" lon="11.7648802"><ele>361.5</ele><time>2026-04-04T12:34:21.207Z</time></trkpt><trkpt lat="45.9786924" lon="11.7649382"><ele>358.6666666666667</ele><time>2026-04-04T12:34:23.207Z</time></trkpt><trkpt lat="45.978763" lon="11.7649893"><ele>355.83333333333337</ele><time>2026-04-04T12:34:26.207Z</time></trkpt><trkpt lat="45.9788303" lon="11.7650531"><ele>353.0</ele><time>2026-04-04T12:34:28.207Z</time></trkpt><trkpt lat="45.9789095" lon="11.7650913"><ele>353.0</ele><time>2026-04-04T12:34:30.206Z</time></trkpt><trkpt lat="45.9789774" lon="11.7651008"><ele>353.0</ele><time>2026-04-04T12:34:32.207Z</time></trkpt><trkpt lat="45.9790465" lon="11.7651473"><ele>353.0</ele><time>2026-04-04T12:34:34.207Z</time></trkpt><trkpt lat="45.9791006" lon="11.765241"><ele>353.0</ele><time>2026-04-04T12:34:37.207Z</time></trkpt><trkpt lat="45.9791443" lon="11.7653305"><ele>353.0</ele><time>2026-04-04T12:34:40.207Z</time></trkpt><trkpt lat="45.9792039" lon="11.7653888"><ele>353.0</ele><time>2026-04-04T12:35:00.207Z</time></trkpt><trkpt lat="45.9792623" lon="11.7654486"><ele>353.0</ele><time>2026-04-04T12:35:06.207Z</time></trkpt><trkpt lat="45.9793496" lon="11.765489"><ele>349.1666666666667</ele><time>2026-04-04T12:35:10.207Z</time></trkpt><trkpt lat="45.9794213" lon="11.7654877"><ele>345.33333333333337</ele><time>2026-04-04T12:35:12.207Z</time></trkpt><trkpt lat="45.9794982" lon="11.7654783"><ele>341.5</ele><time>2026-04-04T12:35:14.207Z</time></trkpt><trkpt lat="45.9795638" lon="11.7654957"><ele>337.6666666666667</ele><time>2026-04-04T12:35:16.207Z</time></trkpt><trkpt lat="45.9796402" lon="11.7655556"><ele>333.8333333333333</ele><time>2026-04-04T12:35:18.207Z</time></trkpt><trkpt lat="45.9797338" lon="11.765642"><ele>330.0</ele><time>2026-04-04T12:35:20.207Z</time></trkpt><trkpt lat="45.9797807" lon="11.7657336"><ele>330.0</ele><time>2026-04-04T12:35:22.207Z</time></trkpt><trkpt lat="45.9798191" lon="11.765806"><ele>330.0</ele><time>2026-04-04T12:35:24.207Z</time></trkpt><trkpt lat="45.9799042" lon="11.7658353"><ele>330.0</ele><time>2026-04-04T12:35:27.207Z</time></trkpt><trkpt lat="45.9800188" lon="11.7658429"><ele>330.0</ele><time>2026-04-04T12:35:29.207Z</time></trkpt><trkpt lat="45.9801048" lon="11.7658654"><ele>330.0</ele><time>2026-04-04T12:35:31.207Z</time></trkpt><trkpt lat="45.9801732" lon="11.7659595"><ele>330.0</ele><time>2026-04-04T12:35:33.207Z</time></trkpt><trkpt lat="45.9802472" lon="11.7660319"><ele>327.1666666666667</ele><time>2026-04-04T12:35:36.207Z</time></trkpt><trkpt lat="45.9803005" lon="11.7661129"><ele>324.3333333333333</ele><time>2026-04-04T12:35:39.207Z</time></trkpt><trkpt lat="45.9803839" lon="11.7661473"><ele>321.5</ele><time>2026-04-04T12:35:42.207Z</time></trkpt><trkpt lat="45.9804557" lon="11.7661745"><ele>318.66666666666663</ele><time>2026-04-04T12:35:44.207Z</time></trkpt><trkpt lat="45.9805391" lon="11.7661938"><ele>315.8333333333333</ele><time>2026-04-04T12:35:47.207Z</time></trkpt><trkpt lat="45.980625" lon="11.7661929"><ele>313.0</ele><time>2026-04-04T12:35:49.206Z</time></trkpt><trkpt lat="45.9807188" lon="11.7662307"><ele>313.0</ele><time>2026-04-04T12:35:51.207Z</time></trkpt><trkpt lat="45.9807992" lon="11.7662656"><ele>313.0</ele><time>2026-04-04T12:35:53.206Z</time></trkpt><trkpt lat="45.9808794" lon="11.7662577"><ele>313.0</ele><time>2026-04-04T12:35:55.207Z</time></trkpt><trkpt lat="45.9809187" lon="11.7663485"><ele>313.0</ele><time>2026-04-04T12:35:58.207Z</time></trkpt><trkpt lat="45.980903" lon="11.7664378"><ele>313.0</ele><time>2026-04-04T12:36:00.207Z</time></trkpt><trkpt lat="45.9808946" lon="11.7665432"><ele>313.0</ele><time>2026-04-04T12:36:02.207Z</time></trkpt><trkpt lat="45.9809003" lon="11.7666728"><ele>314.2</ele><time>2026-04-04T12:36:04.207Z</time></trkpt><trkpt lat="45.9809201" lon="11.766809"><ele>315.4</ele><time>2026-04-04T12:36:06.207Z</time></trkpt><trkpt lat="45.9809935" lon="11.7668971"><ele>316.59999999999997</ele><time>2026-04-04T12:36:08.206Z</time></trkpt><trkpt lat="45.9811204" lon="11.7669349"><ele>317.8</ele><time>2026-04-04T12:36:10.207Z</time></trkpt><trkpt lat="45.9811886" lon="11.7669563"><ele>319.0</ele><time>2026-04-04T12:36:11.207Z</time></trkpt><trkpt lat="45.9812512" lon="11.7669684"><ele>319.0</ele><time>2026-04-04T12:36:12.207Z</time></trkpt><trkpt lat="45.9813145" lon="11.7669826"><ele>319.0</ele><time>2026-04-04T12:36:13.207Z</time></trkpt><trkpt lat="45.9814139" lon="11.7669981"><ele>319.0</ele><time>2026-04-04T12:36:15.207Z</time></trkpt><trkpt lat="45.9815031" lon="11.767003"><ele>319.0</ele><time>2026-04-04T12:36:17.207Z</time></trkpt><trkpt lat="45.9815884" lon="11.7669987"><ele>319.0</ele><time>2026-04-04T12:36:19.207Z</time></trkpt><trkpt lat="45.9816812" lon="11.766985"><ele>319.0</ele><time>2026-04-04T12:36:21.206Z</time></trkpt><trkpt lat="45.9817777" lon="11.7669707"><ele>321.4</ele><time>2026-04-04T12:36:23.207Z</time></trkpt><trkpt lat="45.9818844" lon="11.7669505"><ele>323.79999999999995</ele><time>2026-04-04T12:36:25.207Z</time></trkpt><trkpt lat="45.9819905" lon="11.7669373"><ele>326.20000000000005</ele><time>2026-04-04T12:36:27.207Z</time></trkpt><trkpt lat="45.982096" lon="11.766915"><ele>328.6</ele><time>2026-04-04T12:36:29.207Z</time></trkpt><trkpt lat="45.9821839" lon="11.7668638"><ele>331.0</ele><time>2026-04-04T12:36:31.207Z</time></trkpt><trkpt lat="45.9822973" lon="11.766821"><ele>331.0</ele><time>2026-04-04T12:36:33.207Z</time></trkpt><trkpt lat="45.9823615" lon="11.7668081"><ele>331.0</ele><time>2026-04-04T12:36:34.207Z</time></trkpt><trkpt lat="45.9824706" lon="11.7667937"><ele>331.0</ele><time>2026-04-04T12:36:36.206Z</time></trkpt><trkpt lat="45.9825953" lon="11.766756"><ele>331.0</ele><time>2026-04-04T12:36:38.207Z</time></trkpt><trkpt lat="45.9826572" lon="11.7667365"><ele>331.0</ele><time>2026-04-04T12:36:39.207Z</time></trkpt><trkpt lat="45.9827769" lon="11.766726"><ele>333.75</ele><time>2026-04-04T12:36:41.207Z</time></trkpt><trkpt lat="45.9828941" lon="11.7667136"><ele>336.5</ele><time>2026-04-04T12:36:43.207Z</time></trkpt><trkpt lat="45.9830087" lon="11.7666834"><ele>339.25</ele><time>2026-04-04T12:36:45.207Z</time></trkpt><trkpt lat="45.9831543" lon="11.7666937"><ele>342.0</ele><time>2026-04-04T12:36:47.207Z</time></trkpt><trkpt lat="45.9832402" lon="11.7667004"><ele>342.0</ele><time>2026-04-04T12:36:48.207Z</time></trkpt><trkpt lat="45.9833202" lon="11.7666151"><ele>342.0</ele><time>2026-04-04T12:36:49.207Z</time></trkpt><trkpt lat="45.9834065" lon="11.7665866"><ele>342.0</ele><time>2026-04-04T12:36:50.207Z</time></trkpt><trkpt lat="45.9834672" lon="11.7665454"><ele>342.0</ele><time>2026-04-04T12:36:51.207Z</time></trkpt><trkpt lat="45.9835713" lon="11.7664648"><ele>342.0</ele><time>2026-04-04T12:36:53.207Z</time></trkpt><trkpt lat="45.9836801" lon="11.7664723"><ele>345.1666666666667</ele><time>2026-04-04T12:36:55.207Z</time></trkpt><trkpt lat="45.9837819" lon="11.7664911"><ele>348.3333333333333</ele><time>2026-04-04T12:36:57.207Z</time></trkpt><trkpt lat="45.983868" lon="11.7665024"><ele>351.5</ele><time>2026-04-04T12:36:59.207Z</time></trkpt><trkpt lat="45.9839528" lon="11.7664809"><ele>354.66666666666663</ele><time>2026-04-04T12:37:01.207Z</time></trkpt><trkpt lat="45.9840409" lon="11.766418"><ele>357.8333333333333</ele><time>2026-04-04T12:37:03.207Z</time></trkpt><trkpt lat="45.9841076" lon="11.7664264"><ele>361.0</ele><time>2026-04-04T12:37:05.207Z</time></trkpt><trkpt lat="45.9841645" lon="11.7664672"><ele>367.8</ele><time>2026-04-04T12:37:07.207Z</time></trkpt><trkpt lat="45.9842145" lon="11.766407"><ele>374.6</ele><time>2026-04-04T12:37:20.207Z</time></trkpt><trkpt lat="45.9842808" lon="11.7663738"><ele>381.4</ele><time>2026-04-04T12:37:22.207Z</time></trkpt><trkpt lat="45.984391" lon="11.7663504"><ele>388.2</ele><time>2026-04-04T12:37:24.207Z</time></trkpt><trkpt lat="45.9844715" lon="11.7662827"><ele>395.0</ele><time>2026-04-04T12:37:25.207Z</time></trkpt><trkpt lat="45.984581" lon="11.7661928"><ele>395.0</ele><time>2026-04-04T12:37:27.207Z</time></trkpt><trkpt lat="45.9846388" lon="11.7661129"><ele>395.0</ele><time>2026-04-04T12:37:28.207Z</time></trkpt><trkpt lat="45.9846991" lon="11.766071"><ele>395.0</ele><time>2026-04-04T12:37:29.207Z</time></trkpt><trkpt lat="45.9847643" lon="11.7660423"><ele>395.0</ele><time>2026-04-04T12:37:33.206Z</time></trkpt><trkpt lat="45.9847557" lon="11.7659468"><ele>395.0</ele><time>2026-04-04T12:37:41.207Z</time></trkpt><trkpt lat="45.984685" lon="11.7658946"><ele>395.0</ele><time>2026-04-04T12:37:44.206Z</time></trkpt><trkpt lat="45.9846471" lon="11.765821"><ele>395.0</ele><time>2026-04-04T12:37:47.207Z</time></trkpt><trkpt lat="45.9847388" lon="11.7657772"><ele>390.2</ele><time>2026-04-04T12:37:54.207Z</time></trkpt><trkpt lat="45.9848283" lon="11.7658347"><ele>385.4</ele><time>2026-04-04T12:37:57.207Z</time></trkpt><trkpt lat="45.9848455" lon="11.7656996"><ele>380.6</ele><time>2026-04-04T12:38:03.207Z</time></trkpt><trkpt lat="45.9848136" lon="11.7655473"><ele>375.8</ele><time>2026-04-04T12:38:05.207Z</time></trkpt><trkpt lat="45.9847871" lon="11.7654142"><ele>371.0</ele><time>2026-04-04T12:38:07.207Z</time></trkpt><trkpt lat="45.9847516" lon="11.7653011"><ele>371.0</ele><time>2026-04-04T12:38:09.207Z</time></trkpt><trkpt lat="45.9847285" lon="11.7652012"><ele>371.0</ele><time>2026-04-04T12:38:13.206Z</time></trkpt><trkpt lat="45.9847924" lon="11.7651592"><ele>371.0</ele><time>2026-04-04T12:38:16.207Z</time></trkpt><trkpt lat="45.9848783" lon="11.765095"><ele>371.0</ele><time>2026-04-04T12:38:19.207Z</time></trkpt><trkpt lat="45.9849541" lon="11.7651128"><ele>371.0</ele><time>2026-04-04T12:38:22.207Z</time></trkpt><trkpt lat="45.9850103" lon="11.7651631"><ele>371.0</ele><time>2026-04-04T12:38:24.207Z</time></trkpt><trkpt lat="45.9850638" lon="11.7652406"><ele>374.1666666666667</ele><time>2026-04-04T12:38:27.207Z</time></trkpt><trkpt lat="45.9851519" lon="11.765284"><ele>377.33333333333337</ele><time>2026-04-04T12:38:31.207Z</time></trkpt><trkpt lat="45.9852133" lon="11.7652416"><ele>380.5</ele><time>2026-04-04T12:38:34.206Z</time></trkpt><trkpt lat="45.9852776" lon="11.7652011"><ele>383.6666666666667</ele><time>2026-04-04T12:38:36.207Z</time></trkpt><trkpt lat="45.9853402" lon="11.7651573"><ele>386.8333333333333</ele><time>2026-04-04T12:38:38.207Z</time></trkpt><trkpt lat="45.9854104" lon="11.7651288"><ele>390.0</ele><time>2026-04-04T12:38:40.207Z</time></trkpt><trkpt lat="45.9855003" lon="11.7651391"><ele>393.0</ele><time>2026-04-04T12:38:42.206Z</time></trkpt><trkpt lat="45.9855647" lon="11.7651298"><ele>396.0</ele><time>2026-04-04T12:38:44.206Z</time></trkpt><trkpt lat="45.9856391" lon="11.7651289"><ele>399.0</ele><time>2026-04-04T12:38:46.207Z</time></trkpt><trkpt lat="45.9857374" lon="11.7651242"><ele>402.0</ele><time>2026-04-04T12:38:49.207Z</time></trkpt><trkpt lat="45.9858224" lon="11.7651536"><ele>405.0</ele><time>2026-04-04T12:38:51.206Z</time></trkpt><trkpt lat="45.9859058" lon="11.765169"><ele>408.0</ele><time>2026-04-04T12:38:54.207Z</time></trkpt><trkpt lat="45.9859816" lon="11.7651583"><ele>410.0</ele><time>2026-04-04T12:38:55.206Z</time></trkpt><trkpt lat="45.986105" lon="11.7651676"><ele>412.0</ele><time>2026-04-04T12:38:57.207Z</time></trkpt><trkpt lat="45.9861807" lon="11.7652076"><ele>414.0</ele><time>2026-04-04T12:38:59.207Z</time></trkpt><trkpt lat="45.9862694" lon="11.7652856"><ele>416.0</ele><time>2026-04-04T12:39:02.207Z</time></trkpt><trkpt lat="45.9863289" lon="11.7653207"><ele>418.0</ele><time>2026-04-04T12:39:04.206Z</time></trkpt><trkpt lat="45.9864126" lon="11.7652929"><ele>418.0</ele><time>2026-04-04T12:39:06.206Z</time></trkpt><trkpt lat="45.9865168" lon="11.7652399"><ele>418.0</ele><time>2026-04-04T12:39:08.207Z</time></trkpt><trkpt lat="45.9866096" lon="11.7651937"><ele>418.0</ele><time>2026-04-04T12:39:10.207Z</time></trkpt><trkpt lat="45.9866832" lon="11.7651276"><ele>418.0</ele><time>2026-04-04T12:39:12.207Z</time></trkpt><trkpt lat="45.9867731" lon="11.7650764"><ele>418.0</ele><time>2026-04-04T12:39:14.207Z</time></trkpt><trkpt lat="45.9868722" lon="11.7649914"><ele>425.00000000000006</ele><time>2026-04-04T12:39:16.207Z</time></trkpt><trkpt lat="45.9869475" lon="11.7649606"><ele>432.0</ele><time>2026-04-04T12:39:18.207Z</time></trkpt><trkpt lat="45.9870116" lon="11.7649286"><ele>439.0</ele><time>2026-04-04T12:39:20.207Z</time></trkpt><trkpt lat="45.9870981" lon="11.7648717"><ele>446.0</ele><time>2026-04-04T12:39:22.207Z</time></trkpt><trkpt lat="45.9871895" lon="11.7648362"><ele>453.00000000000006</ele><time>2026-04-04T12:39:24.207Z</time></trkpt><trkpt lat="45.9872461" lon="11.764745"><ele>460.0</ele><time>2026-04-04T12:39:26.207Z</time></trkpt><trkpt lat="45.9872907" lon="11.7646668"><ele>460.0</ele><time>2026-04-04T12:39:28.207Z</time></trkpt><trkpt lat="45.9873699" lon="11.7646017"><ele>460.0</ele><time>2026-04-04T12:39:30.206Z</time></trkpt><trkpt lat="45.9874568" lon="11.7645459"><ele>460.0</ele><time>2026-04-04T12:39:32.207Z</time></trkpt><trkpt lat="45.9875102" lon="11.7644496"><ele>460.0</ele><time>2026-04-04T12:39:34.207Z</time></trkpt><trkpt lat="45.9875948" lon="11.7643732"><ele>460.0</ele><time>2026-04-04T12:39:37.206Z</time></trkpt><trkpt lat="45.9876762" lon="11.76433"><ele>472.0</ele><time>2026-04-04T12:39:39.206Z</time></trkpt><trkpt lat="45.9877696" lon="11.7642989"><ele>484.0</ele><time>2026-04-04T12:39:41.207Z</time></trkpt><trkpt lat="45.9878303" lon="11.7642617"><ele>496.0</ele><time>2026-04-04T12:39:42.207Z</time></trkpt><trkpt lat="45.9880479" lon="11.7642651"><ele>508.0</ele><time>2026-04-04T12:39:47.206Z</time></trkpt><trkpt lat="45.9882935" lon="11.7642517"><ele>510.5</ele><time>2026-04-04T12:39:52.207Z</time></trkpt><trkpt lat="45.9884462" lon="11.76432"><ele>513.0</ele><time>2026-04-04T12:39:55.207Z</time></trkpt><trkpt lat="45.9885322" lon="11.7643443"><ele>515.5</ele><time>2026-04-04T12:39:57.206Z</time></trkpt><trkpt lat="45.9886236" lon="11.7643482"><ele>518.0</ele><time>2026-04-04T12:39:59.207Z</time></trkpt><trkpt lat="45.9888293" lon="11.7643961"><ele>518.0</ele><time>2026-04-04T12:40:04.207Z</time></trkpt><trkpt lat="45.9889914" lon="11.7643706"><ele>518.0</ele><time>2026-04-04T12:40:07.207Z</time></trkpt><trkpt lat="45.9890541" lon="11.7643499"><ele>518.0</ele><time>2026-04-04T12:40:08.207Z</time></trkpt><trkpt lat="45.9891912" lon="11.7643374"><ele>518.0</ele><time>2026-04-04T12:40:11.207Z</time></trkpt><trkpt lat="45.9894032" lon="11.7644289"><ele>514.0</ele><time>2026-04-04T12:40:15.206Z</time></trkpt><trkpt lat="45.9895107" lon="11.764469"><ele>509.99999999999994</ele><time>2026-04-04T12:40:17.206Z</time></trkpt><trkpt lat="45.9896112" lon="11.7644987"><ele>505.99999999999994</ele><time>2026-04-04T12:40:19.207Z</time></trkpt><trkpt lat="45.9896897" lon="11.764546"><ele>502.0</ele><time>2026-04-04T12:40:21.206Z</time></trkpt><trkpt lat="45.9897778" lon="11.7645696"><ele>498.0</ele><time>2026-04-04T12:40:23.207Z</time></trkpt><trkpt lat="45.9898556" lon="11.7645731"><ele>498.0</ele><time>2026-04-04T12:40:25.207Z</time></trkpt><trkpt lat="45.9899203" lon="11.7645281"><ele>498.0</ele><time>2026-04-04T12:40:28.207Z</time></trkpt><trkpt lat="45.9898938" lon="11.7644445"><ele>498.0</ele><time>2026-04-04T12:40:31.206Z</time></trkpt><trkpt lat="45.9899477" lon="11.7643623"><ele>498.0</ele><time>2026-04-04T12:40:34.207Z</time></trkpt><trkpt lat="45.9900358" lon="11.7643383"><ele>498.0</ele><time>2026-04-04T12:40:37.207Z</time></trkpt><trkpt lat="45.9901153" lon="11.7643381"><ele>498.0</ele><time>2026-04-04T12:40:40.207Z</time></trkpt><trkpt lat="45.9901652" lon="11.7644353"><ele>499.3333333333333</ele><time>2026-04-04T12:40:49.207Z</time></trkpt><trkpt lat="45.9902301" lon="11.7644394"><ele>500.66666666666663</ele><time>2026-04-04T12:41:23.207Z</time></trkpt><trkpt lat="45.9903119" lon="11.7644396"><ele>502.0</ele><time>2026-04-04T12:41:52.207Z</time></trkpt><trkpt lat="45.9903849" lon="11.7644762"><ele>503.3333333333333</ele><time>2026-04-04T12:42:13.207Z</time></trkpt><trkpt lat="45.9904576" lon="11.7644588"><ele>504.66666666666663</ele><time>2026-04-04T12:43:17.207Z</time></trkpt><trkpt lat="45.9903883" lon="11.7644088"><ele>506.0</ele><time>2026-04-04T12:45:55.207Z</time></trkpt><trkpt lat="45.9905328" lon="11.7644681"><ele>506.0</ele><time>2026-04-04T12:47:28.207Z</time></trkpt><trkpt lat="45.990599" lon="11.7644537"><ele>506.0</ele><time>2026-04-04T12:47:30.206Z</time></trkpt><trkpt lat="45.9907357" lon="11.7644485"><ele>506.0</ele><time>2026-04-04T12:47:31.207Z</time></trkpt><trkpt lat="45.9908299" lon="11.7644613"><ele>506.0</ele><time>2026-04-04T12:47:34.207Z</time></trkpt><trkpt lat="45.9909528" lon="11.7644733"><ele>506.0</ele><time>2026-04-04T12:47:37.207Z</time></trkpt><trkpt lat="45.9910595" lon="11.764506"><ele>508.16666666666663</ele><time>2026-04-04T12:47:39.207Z</time></trkpt><trkpt lat="45.9911414" lon="11.7645424"><ele>510.3333333333333</ele><time>2026-04-04T12:47:41.206Z</time></trkpt><trkpt lat="45.991211" lon="11.7645126"><ele>512.5</ele><time>2026-04-04T12:47:43.207Z</time></trkpt><trkpt lat="45.9912568" lon="11.7644327"><ele>514.6666666666666</ele><time>2026-04-04T12:47:45.207Z</time></trkpt><trkpt lat="45.991322" lon="11.7643679"><ele>516.8333333333334</ele><time>2026-04-04T12:47:47.207Z</time></trkpt><trkpt lat="45.9913732" lon="11.7642677"><ele>519.0</ele><time>2026-04-04T12:47:49.207Z</time></trkpt><trkpt lat="45.9914711" lon="11.7641484"><ele>521.4</ele><time>2026-04-04T12:47:51.207Z</time></trkpt><trkpt lat="45.991577" lon="11.7640374"><ele>523.8</ele><time>2026-04-04T12:47:53.207Z</time></trkpt><trkpt lat="45.9916431" lon="11.7639574"><ele>526.2</ele><time>2026-04-04T12:47:55.207Z</time></trkpt><trkpt lat="45.9916963" lon="11.7638781"><ele>528.6</ele><time>2026-04-04T12:47:56.207Z</time></trkpt><trkpt lat="45.991741" lon="11.7637569"><ele>531.0</ele><time>2026-04-04T12:47:58.207Z</time></trkpt><trkpt lat="45.9917753" lon="11.7636514"><ele>531.8</ele><time>2026-04-04T12:48:00.207Z</time></trkpt><trkpt lat="45.9918181" lon="11.763515"><ele>532.6</ele><time>2026-04-04T12:48:02.207Z</time></trkpt><trkpt lat="45.9918552" lon="11.7633775"><ele>533.4</ele><time>2026-04-04T12:48:04.206Z</time></trkpt><trkpt lat="45.9919126" lon="11.7632993"><ele>534.2</ele><time>2026-04-04T12:48:06.207Z</time></trkpt><trkpt lat="45.991987" lon="11.7632241"><ele>535.0</ele><time>2026-04-04T12:48:07.207Z</time></trkpt><trkpt lat="45.9920919" lon="11.763166"><ele>535.0</ele><time>2026-04-04T12:48:09.207Z</time></trkpt><trkpt lat="45.9921847" lon="11.7631778"><ele>535.0</ele><time>2026-04-04T12:48:11.207Z</time></trkpt><trkpt lat="45.9922974" lon="11.7631526"><ele>535.0</ele><time>2026-04-04T12:48:13.207Z</time></trkpt><trkpt lat="45.9924029" lon="11.7631067"><ele>535.0</ele><time>2026-04-04T12:48:15.207Z</time></trkpt><trkpt lat="45.9924987" lon="11.7629663"><ele>537.6</ele><time>2026-04-04T12:48:17.207Z</time></trkpt><trkpt lat="45.9925703" lon="11.762841"><ele>540.2</ele><time>2026-04-04T12:48:19.207Z</time></trkpt><trkpt lat="45.9926587" lon="11.7627286"><ele>542.8</ele><time>2026-04-04T12:48:21.206Z</time></trkpt><trkpt lat="45.9927034" lon="11.7626607"><ele>545.4</ele><time>2026-04-04T12:48:22.207Z</time></trkpt><trkpt lat="45.9927949" lon="11.7625261"><ele>548.0</ele><time>2026-04-04T12:48:24.206Z</time></trkpt><trkpt lat="45.9928549" lon="11.7624336"><ele>549.0</ele><time>2026-04-04T12:48:26.206Z</time></trkpt><trkpt lat="45.9928931" lon="11.7622935"><ele>550.0</ele><time>2026-04-04T12:48:28.207Z</time></trkpt><trkpt lat="45.9929135" lon="11.7621964"><ele>551.0</ele><time>2026-04-04T12:48:29.207Z</time></trkpt><trkpt lat="45.9929445" lon="11.7621141"><ele>552.0</ele><time>2026-04-04T12:48:30.207Z</time></trkpt><trkpt lat="45.9930074" lon="11.7620062"><ele>553.0</ele><time>2026-04-04T12:48:32.206Z</time></trkpt><trkpt lat="45.9930889" lon="11.7619233"><ele>554.0</ele><time>2026-04-04T12:48:34.207Z</time></trkpt><trkpt lat="45.9931638" lon="11.7618797"><ele>554.1666666666666</ele><time>2026-04-04T12:48:36.206Z</time></trkpt><trkpt lat="45.9932447" lon="11.7617931"><ele>554.3333333333333</ele><time>2026-04-04T12:48:38.207Z</time></trkpt><trkpt lat="45.9932979" lon="11.7617257"><ele>554.5</ele><time>2026-04-04T12:48:40.207Z</time></trkpt><trkpt lat="45.9933697" lon="11.7615996"><ele>554.6666666666666</ele><time>2026-04-04T12:48:43.207Z</time></trkpt><trkpt lat="45.9934447" lon="11.7615611"><ele>554.8333333333334</ele><time>2026-04-04T12:48:45.207Z</time></trkpt><trkpt lat="45.99351" lon="11.7616257"><ele>555.0</ele><time>2026-04-04T12:48:47.207Z</time></trkpt><trkpt lat="45.993584" lon="11.7616186"><ele>559.2</ele><time>2026-04-04T12:48:50.207Z</time></trkpt><trkpt lat="45.9936526" lon="11.7615936"><ele>563.4</ele><time>2026-04-04T12:48:52.207Z</time></trkpt><trkpt lat="45.9937367" lon="11.7616036"><ele>567.6</ele><time>2026-04-04T12:48:55.207Z</time></trkpt><trkpt lat="45.9938331" lon="11.761602"><ele>571.8</ele><time>2026-04-04T12:48:58.207Z</time></trkpt><trkpt lat="45.9939752" lon="11.761592"><ele>576.0</ele><time>2026-04-04T12:49:00.207Z</time></trkpt><trkpt lat="45.9940827" lon="11.7615087"><ele>579.6666666666666</ele><time>2026-04-04T12:49:02.207Z</time></trkpt><trkpt lat="45.9941726" lon="11.7614335"><ele>583.3333333333334</ele><time>2026-04-04T12:49:04.207Z</time></trkpt><trkpt lat="45.9942485" lon="11.7613765"><ele>587.0</ele><time>2026-04-04T12:49:06.207Z</time></trkpt><trkpt lat="45.9943163" lon="11.7613009"><ele>590.6666666666667</ele><time>2026-04-04T12:49:08.207Z</time></trkpt><trkpt lat="45.994351" lon="11.7611739"><ele>594.3333333333334</ele><time>2026-04-04T12:49:09.207Z</time></trkpt><trkpt lat="45.9943849" lon="11.7610887"><ele>598.0</ele><time>2026-04-04T12:49:10.207Z</time></trkpt><trkpt lat="45.9944242" lon="11.7610063"><ele>598.8333333333334</ele><time>2026-04-04T12:49:11.207Z</time></trkpt><trkpt lat="45.9944822" lon="11.7608841"><ele>599.6666666666667</ele><time>2026-04-04T12:49:13.207Z</time></trkpt><trkpt lat="45.9945303" lon="11.7608228"><ele>600.5</ele><time>2026-04-04T12:49:17.207Z</time></trkpt><trkpt lat="45.9945929" lon="11.760846"><ele>601.3333333333334</ele><time>2026-04-04T12:49:19.206Z</time></trkpt><trkpt lat="45.9946611" lon="11.7607896"><ele>602.1666666666666</ele><time>2026-04-04T12:49:22.207Z</time></trkpt><trkpt lat="45.9946537" lon="11.7605974"><ele>603.0</ele><time>2026-04-04T12:49:24.207Z</time></trkpt><trkpt lat="45.9946796" lon="11.7604238"><ele>603.0</ele><time>2026-04-04T12:49:26.207Z</time></trkpt><trkpt lat="45.99475" lon="11.7603023"><ele>603.0</ele><time>2026-04-04T12:49:28.207Z</time></trkpt><trkpt lat="45.9948128" lon="11.7602125"><ele>603.0</ele><time>2026-04-04T12:49:30.207Z</time></trkpt><trkpt lat="45.9948329" lon="11.7601185"><ele>603.0</ele><time>2026-04-04T12:49:32.206Z</time></trkpt><trkpt lat="45.9948482" lon="11.7600109"><ele>603.0</ele><time>2026-04-04T12:49:35.207Z</time></trkpt><trkpt lat="45.9949446" lon="11.7599594"><ele>603.0</ele><time>2026-04-04T12:49:38.207Z</time></trkpt><trkpt lat="45.9950117" lon="11.7600434"><ele>608.4</ele><time>2026-04-04T12:49:41.207Z</time></trkpt><trkpt lat="45.9950575" lon="11.7601287"><ele>613.8</ele><time>2026-04-04T12:49:43.206Z</time></trkpt><trkpt lat="45.995131" lon="11.7603188"><ele>619.2</ele><time>2026-04-04T12:49:45.207Z</time></trkpt><trkpt lat="45.9951532" lon="11.7604083"><ele>624.6</ele><time>2026-04-04T12:49:46.207Z</time></trkpt><trkpt lat="45.9951809" lon="11.760558"><ele>630.0</ele><time>2026-04-04T12:49:48.207Z</time></trkpt><trkpt lat="45.9952016" lon="11.7607287"><ele>630.0</ele><time>2026-04-04T12:49:50.207Z</time></trkpt><trkpt lat="45.9952302" lon="11.7608891"><ele>630.0</ele><time>2026-04-04T12:49:52.207Z</time></trkpt><trkpt lat="45.9952264" lon="11.7610208"><ele>630.0</ele><time>2026-04-04T12:49:54.207Z</time></trkpt><trkpt lat="45.9952233" lon="11.7611325"><ele>630.0</ele><time>2026-04-04T12:49:55.206Z</time></trkpt><trkpt lat="45.9952684" lon="11.761212"><ele>630.0</ele><time>2026-04-04T12:49:59.207Z</time></trkpt><trkpt lat="45.9953562" lon="11.7611877"><ele>630.0</ele><time>2026-04-04T12:50:14.206Z</time></trkpt><trkpt lat="45.9954227" lon="11.7611811"><ele>628.2</ele><time>2026-04-04T12:50:16.207Z</time></trkpt><trkpt lat="45.9955071" lon="11.7611273"><ele>626.4</ele><time>2026-04-04T12:50:18.207Z</time></trkpt><trkpt lat="45.9956073" lon="11.7610892"><ele>624.6</ele><time>2026-04-04T12:50:20.207Z</time></trkpt><trkpt lat="45.9957267" lon="11.7611164"><ele>622.8</ele><time>2026-04-04T12:50:22.207Z</time></trkpt><trkpt lat="45.9958013" lon="11.761135"><ele>621.0</ele><time>2026-04-04T12:50:23.207Z</time></trkpt><trkpt lat="45.9958655" lon="11.7611739"><ele>626.2</ele><time>2026-04-04T12:50:24.207Z</time></trkpt><trkpt lat="45.9959692" lon="11.7611774"><ele>631.4000000000001</ele><time>2026-04-04T12:50:26.207Z</time></trkpt><trkpt lat="45.9960653" lon="11.7611241"><ele>636.6</ele><time>2026-04-04T12:50:28.207Z</time></trkpt><trkpt lat="45.9961444" lon="11.7610728"><ele>641.8000000000001</ele><time>2026-04-04T12:50:30.207Z</time></trkpt><trkpt lat="45.9962422" lon="11.7609728"><ele>647.0</ele><time>2026-04-04T12:50:59.207Z</time></trkpt><trkpt lat="45.9963093" lon="11.7610206"><ele>647.0</ele><time>2026-04-04T12:51:51.207Z</time></trkpt><trkpt lat="45.9962858" lon="11.7611066"><ele>647.0</ele><time>2026-04-04T12:51:57.207Z</time></trkpt><trkpt lat="45.99622" lon="11.7610792"><ele>647.0</ele><time>2026-04-04T12:52:04.207Z</time></trkpt><trkpt lat="45.9962847" lon="11.7611184"><ele>647.0</ele><time>2026-04-04T12:52:16.206Z</time></trkpt><trkpt lat="45.9963384" lon="11.7612171"><ele>647.0</ele><time>2026-04-04T12:52:20.207Z</time></trkpt><trkpt lat="45.9964123" lon="11.7613143"><ele>647.0</ele><time>2026-04-04T12:52:22.207Z</time></trkpt><trkpt lat="45.9964514" lon="11.7614292"><ele>647.0</ele><time>2026-04-04T12:52:24.207Z</time></trkpt><trkpt lat="45.9965018" lon="11.7615176"><ele>647.0</ele><time>2026-04-04T12:52:25.206Z</time></trkpt><trkpt lat="45.9965554" lon="11.761682"><ele>647.0</ele><time>2026-04-04T12:52:27.207Z</time></trkpt><trkpt lat="45.9966131" lon="11.7617998"><ele>647.0</ele><time>2026-04-04T12:52:29.207Z</time></trkpt><trkpt lat="45.9966549" lon="11.7618722"><ele>647.0</ele><time>2026-04-04T12:52:30.207Z</time></trkpt><trkpt lat="45.9966765" lon="11.7619624"><ele>647.0</ele><time>2026-04-04T12:52:31.207Z</time></trkpt><trkpt lat="45.9967137" lon="11.7620632"><ele>649.1666666666666</ele><time>2026-04-04T12:52:32.206Z</time></trkpt><trkpt lat="45.9967401" lon="11.762166"><ele>651.3333333333333</ele><time>2026-04-04T12:52:33.207Z</time></trkpt><trkpt lat="45.996759" lon="11.7622627"><ele>653.5</ele><time>2026-04-04T12:52:34.207Z</time></trkpt><trkpt lat="45.9967795" lon="11.7623513"><ele>655.6666666666666</ele><time>2026-04-04T12:52:35.207Z</time></trkpt><trkpt lat="45.9967989" lon="11.7624397"><ele>657.8333333333334</ele><time>2026-04-04T12:52:36.207Z</time></trkpt><trkpt lat="45.9968326" lon="11.7625886"><ele>660.0</ele><time>2026-04-04T12:52:38.206Z</time></trkpt><trkpt lat="45.9968777" lon="11.7627372"><ele>660.0</ele><time>2026-04-04T12:52:40.206Z</time></trkpt><trkpt lat="45.9969335" lon="11.7628856"><ele>660.0</ele><time>2026-04-04T12:52:42.206Z</time></trkpt><trkpt lat="45.9969612" lon="11.7629957"><ele>660.0</ele><time>2026-04-04T12:52:44.207Z</time></trkpt><trkpt lat="45.9969668" lon="11.7631201"><ele>660.0</ele><time>2026-04-04T12:52:47.207Z</time></trkpt><trkpt lat="45.9969838" lon="11.7632427"><ele>660.0</ele><time>2026-04-04T12:52:49.207Z</time></trkpt><trkpt lat="45.9970377" lon="11.7633727"><ele>660.0</ele><time>2026-04-04T12:52:51.207Z</time></trkpt><trkpt lat="45.9970693" lon="11.7634885"><ele>660.0</ele><time>2026-04-04T12:52:54.207Z</time></trkpt><trkpt lat="45.9971095" lon="11.7636038"><ele>660.0</ele><time>2026-04-04T12:52:56.206Z</time></trkpt><trkpt lat="45.9971383" lon="11.7637299"><ele>660.0</ele><time>2026-04-04T12:52:58.206Z</time></trkpt><trkpt lat="45.997171" lon="11.7638662"><ele>660.0</ele><time>2026-04-04T12:53:00.207Z</time></trkpt><trkpt lat="45.9971913" lon="11.7640005"><ele>657.4</ele><time>2026-04-04T12:53:01.207Z</time></trkpt><trkpt lat="45.997195" lon="11.7641312"><ele>654.8</ele><time>2026-04-04T12:53:03.207Z</time></trkpt><trkpt lat="45.9972142" lon="11.764277"><ele>652.2</ele><time>2026-04-04T12:53:05.207Z</time></trkpt><trkpt lat="45.9972202" lon="11.7644479"><ele>649.6</ele><time>2026-04-04T12:53:07.207Z</time></trkpt><trkpt lat="45.9972291" lon="11.7646091"><ele>647.0</ele><time>2026-04-04T12:53:09.207Z</time></trkpt><trkpt lat="45.9972358" lon="11.7648028"><ele>645.6666666666666</ele><time>2026-04-04T12:53:11.207Z</time></trkpt><trkpt lat="45.9972449" lon="11.7649388"><ele>644.3333333333333</ele><time>2026-04-04T12:53:13.207Z</time></trkpt><trkpt lat="45.9972348" lon="11.7650487"><ele>643.0</ele><time>2026-04-04T12:53:15.207Z</time></trkpt><trkpt lat="45.9972337" lon="11.7651718"><ele>641.6666666666666</ele><time>2026-04-04T12:53:17.207Z</time></trkpt><trkpt lat="45.997232" lon="11.7653272"><ele>640.3333333333334</ele><time>2026-04-04T12:53:19.207Z</time></trkpt><trkpt lat="45.9972334" lon="11.7654204"><ele>639.0</ele><time>2026-04-04T12:53:20.207Z</time></trkpt><trkpt lat="45.9972235" lon="11.765522"><ele>638.1666666666666</ele><time>2026-04-04T12:53:21.207Z</time></trkpt><trkpt lat="45.9972207" lon="11.7656181"><ele>637.3333333333334</ele><time>2026-04-04T12:53:22.207Z</time></trkpt><trkpt lat="45.9972097" lon="11.7657501"><ele>636.5</ele><time>2026-04-04T12:53:24.207Z</time></trkpt><trkpt lat="45.9972782" lon="11.7657822"><ele>635.6666666666667</ele><time>2026-04-04T12:53:55.207Z</time></trkpt><trkpt lat="45.9973615" lon="11.765753"><ele>634.8333333333334</ele><time>2026-04-04T12:53:58.207Z</time></trkpt><trkpt lat="45.9974579" lon="11.7657211"><ele>634.0</ele><time>2026-04-04T12:54:00.207Z</time></trkpt><trkpt lat="45.9975758" lon="11.765676"><ele>637.1666666666667</ele><time>2026-04-04T12:54:02.206Z</time></trkpt><trkpt lat="45.9976935" lon="11.7656218"><ele>640.3333333333334</ele><time>2026-04-04T12:54:04.207Z</time></trkpt><trkpt lat="45.9977582" lon="11.7655846"><ele>643.5</ele><time>2026-04-04T12:54:05.207Z</time></trkpt><trkpt lat="45.9978264" lon="11.7655462"><ele>646.6666666666666</ele><time>2026-04-04T12:54:06.207Z</time></trkpt><trkpt lat="45.9978887" lon="11.7655293"><ele>649.8333333333333</ele><time>2026-04-04T12:54:07.206Z</time></trkpt><trkpt lat="45.9979379" lon="11.7656004"><ele>653.0</ele><time>2026-04-04T12:54:08.207Z</time></trkpt><trkpt lat="45.9980011" lon="11.7656463"><ele>653.0</ele><time>2026-04-04T12:54:09.207Z</time></trkpt><trkpt lat="45.9980699" lon="11.7656828"><ele>653.0</ele><time>2026-04-04T12:54:10.207Z</time></trkpt><trkpt lat="45.9981372" lon="11.7657107"><ele>653.0</ele><time>2026-04-04T12:54:11.207Z</time></trkpt><trkpt lat="45.9982017" lon="11.765751"><ele>653.0</ele><time>2026-04-04T12:54:12.207Z</time></trkpt><trkpt lat="45.9982671" lon="11.7657944"><ele>653.0</ele><time>2026-04-04T12:54:13.207Z</time></trkpt><trkpt lat="45.9983323" lon="11.7658645"><ele>653.0</ele><time>2026-04-04T12:54:14.207Z</time></trkpt><trkpt lat="45.9984414" lon="11.7658991"><ele>657.2</ele><time>2026-04-04T12:54:16.207Z</time></trkpt><trkpt lat="45.998543" lon="11.7659375"><ele>661.4</ele><time>2026-04-04T12:54:18.207Z</time></trkpt><trkpt lat="45.998652" lon="11.7659234"><ele>665.6</ele><time>2026-04-04T12:54:20.207Z</time></trkpt><trkpt lat="45.9987483" lon="11.7658307"><ele>669.8000000000001</ele><time>2026-04-04T12:54:22.207Z</time></trkpt><trkpt lat="45.9988385" lon="11.7657432"><ele>674.0</ele><time>2026-04-04T12:54:24.207Z</time></trkpt><trkpt lat="45.9988848" lon="11.7656501"><ele>674.0</ele><time>2026-04-04T12:54:25.206Z</time></trkpt><trkpt lat="45.9989246" lon="11.7655708"><ele>674.0</ele><time>2026-04-04T12:54:26.207Z</time></trkpt><trkpt lat="45.9989755" lon="11.7655116"><ele>674.0</ele><time>2026-04-04T12:54:27.207Z</time></trkpt><trkpt lat="45.9990178" lon="11.7654352"><ele>674.0</ele><time>2026-04-04T12:54:28.206Z</time></trkpt><trkpt lat="45.9991171" lon="11.7653321"><ele>674.0</ele><time>2026-04-04T12:54:30.207Z</time></trkpt><trkpt lat="45.9992274" lon="11.7652386"><ele>680.2</ele><time>2026-04-04T12:54:32.207Z</time></trkpt><trkpt lat="45.9993259" lon="11.7651814"><ele>686.4000000000001</ele><time>2026-04-04T12:54:34.207Z</time></trkpt><trkpt lat="45.9994356" lon="11.7651334"><ele>692.6</ele><time>2026-04-04T12:54:36.207Z</time></trkpt><trkpt lat="45.9995146" lon="11.7650507"><ele>698.8</ele><time>2026-04-04T12:54:38.207Z</time></trkpt><trkpt lat="45.9996074" lon="11.764992"><ele>705.0</ele><time>2026-04-04T12:54:40.207Z</time></trkpt><trkpt lat="45.9996698" lon="11.7649562"><ele>705.0</ele><time>2026-04-04T12:54:42.207Z</time></trkpt><trkpt lat="45.9997394" lon="11.7649064"><ele>705.0</ele><time>2026-04-04T12:54:44.207Z</time></trkpt><trkpt lat="45.9998138" lon="11.7648175"><ele>705.0</ele><time>2026-04-04T12:54:46.207Z</time></trkpt><trkpt lat="45.9998656" lon="11.7647206"><ele>705.0</ele><time>2026-04-04T12:54:48.207Z</time></trkpt><trkpt lat="45.9999267" lon="11.7646377"><ele>705.0</ele><time>2026-04-04T12:54:50.207Z</time></trkpt><trkpt lat="45.9999996" lon="11.7645316"><ele>705.0</ele><time>2026-04-04T12:54:52.207Z</time></trkpt><trkpt lat="46.0000112" lon="11.7644068"><ele>708.1428571428571</ele><time>2026-04-04T12:54:54.207Z</time></trkpt><trkpt lat="46.0000163" lon="11.7643154"><ele>711.2857142857142</ele><time>2026-04-04T12:54:55.206Z</time></trkpt><trkpt lat="46.000055" lon="11.764217"><ele>714.4285714285713</ele><time>2026-04-04T12:54:57.207Z</time></trkpt><trkpt lat="46.0000887" lon="11.7641274"><ele>717.5714285714286</ele><time>2026-04-04T12:54:59.207Z</time></trkpt><trkpt lat="46.0001058" lon="11.7640223"><ele>720.7142857142858</ele><time>2026-04-04T12:55:02.207Z</time></trkpt><trkpt lat="46.0000595" lon="11.7639559"><ele>723.8571428571428</ele><time>2026-04-04T12:55:04.206Z</time></trkpt><trkpt lat="46.0000103" lon="11.7638831"><ele>727.0</ele><time>2026-04-04T12:55:06.207Z</time></trkpt><trkpt lat="45.9999873" lon="11.7637717"><ele>727.0</ele><time>2026-04-04T12:55:08.207Z</time></trkpt><trkpt lat="45.9999471" lon="11.7636934"><ele>727.0</ele><time>2026-04-04T12:55:10.207Z</time></trkpt><trkpt lat="45.9999122" lon="11.7636152"><ele>727.0</ele><time>2026-04-04T12:55:12.207Z</time></trkpt><trkpt lat="45.9998657" lon="11.7635143"><ele>727.0</ele><time>2026-04-04T12:55:14.207Z</time></trkpt><trkpt lat="45.9997953" lon="11.7634262"><ele>727.0</ele><time>2026-04-04T12:55:16.207Z</time></trkpt><trkpt lat="45.9997481" lon="11.763349"><ele>727.0</ele><time>2026-04-04T12:55:17.207Z</time></trkpt><trkpt lat="45.9997019" lon="11.7632383"><ele>733.4000000000001</ele><time>2026-04-04T12:55:19.207Z</time></trkpt><trkpt lat="45.9996491" lon="11.7631199"><ele>739.8000000000001</ele><time>2026-04-04T12:55:21.207Z</time></trkpt><trkpt lat="45.999609" lon="11.7629966"><ele>746.2</ele><time>2026-04-04T12:55:23.207Z</time></trkpt><trkpt lat="45.999575" lon="11.7628791"><ele>752.6</ele><time>2026-04-04T12:55:25.207Z</time></trkpt><trkpt lat="45.9995043" lon="11.7627763"><ele>759.0</ele><time>2026-04-04T12:55:27.207Z</time></trkpt><trkpt lat="45.9994452" lon="11.762692"><ele>766.8000000000001</ele><time>2026-04-04T12:55:29.207Z</time></trkpt><trkpt lat="45.9994183" lon="11.7625507"><ele>774.6</ele><time>2026-04-04T12:55:32.207Z</time></trkpt><trkpt lat="45.9993671" lon="11.7624336"><ele>782.4</ele><time>2026-04-04T12:55:34.207Z</time></trkpt><trkpt lat="45.999365" lon="11.7623182"><ele>790.2</ele><time>2026-04-04T12:55:36.207Z</time></trkpt><trkpt lat="45.9993795" lon="11.76218"><ele>798.0</ele><time>2026-04-04T12:55:38.207Z</time></trkpt><trkpt lat="45.9993896" lon="11.762056"><ele>798.0</ele><time>2026-04-04T12:55:40.207Z</time></trkpt><trkpt lat="45.9994149" lon="11.7619481"><ele>798.0</ele><time>2026-04-04T12:55:42.207Z</time></trkpt><trkpt lat="45.9994649" lon="11.761832"><ele>798.0</ele><time>2026-04-04T12:55:44.207Z</time></trkpt><trkpt lat="45.9995054" lon="11.761736"><ele>798.0</ele><time>2026-04-04T12:55:46.207Z</time></trkpt><trkpt lat="45.9995568" lon="11.7616282"><ele>798.0</ele><time>2026-04-04T12:55:48.207Z</time></trkpt><trkpt lat="45.9995979" lon="11.7615126"><ele>798.0</ele><time>2026-04-04T12:55:50.206Z</time></trkpt><trkpt lat="45.9996606" lon="11.7615299"><ele>798.0</ele><time>2026-04-04T12:55:55.206Z</time></trkpt><trkpt lat="45.9997203" lon="11.7616192"><ele>798.0</ele><time>2026-04-04T12:55:57.207Z</time></trkpt><trkpt lat="45.9997706" lon="11.7617276"><ele>798.0</ele><time>2026-04-04T12:55:59.206Z</time></trkpt><trkpt lat="45.9998357" lon="11.7618076"><ele>798.0</ele><time>2026-04-04T12:56:01.207Z</time></trkpt><trkpt lat="45.9999132" lon="11.7618957"><ele>798.0</ele><time>2026-04-04T12:56:03.207Z</time></trkpt><trkpt lat="46.0000385" lon="11.7617298"><ele>801.6666666666666</ele><time>2026-04-04T12:56:12.207Z</time></trkpt><trkpt lat="46.00011" lon="11.7616857"><ele>805.3333333333333</ele><time>2026-04-04T12:56:18.207Z</time></trkpt><trkpt lat="46.0000982" lon="11.7615712"><ele>809.0</ele><time>2026-04-04T12:56:24.206Z</time></trkpt><trkpt lat="46.0001123" lon="11.7614393"><ele>812.6666666666666</ele><time>2026-04-04T12:56:26.207Z</time></trkpt><trkpt lat="46.0001195" lon="11.7613386"><ele>816.3333333333333</ele><time>2026-04-04T12:56:28.207Z</time></trkpt><trkpt lat="46.0001493" lon="11.761241"><ele>820.0</ele><time>2026-04-04T12:56:30.207Z</time></trkpt><trkpt lat="46.0002089" lon="11.7610982"><ele>819.9999999999999</ele><time>2026-04-04T12:56:32.206Z</time></trkpt><trkpt lat="46.0002432" lon="11.7609615"><ele>820.0</ele><time>2026-04-04T12:56:34.207Z</time></trkpt><trkpt lat="46.0002893" lon="11.7608978"><ele>820.0</ele><time>2026-04-04T12:56:36.207Z</time></trkpt><trkpt lat="46.0003552" lon="11.7609259"><ele>820.0</ele><time>2026-04-04T12:56:40.206Z</time></trkpt><trkpt lat="46.0004286" lon="11.7610077"><ele>819.9999999999999</ele><time>2026-04-04T12:56:42.207Z</time></trkpt><trkpt lat="46.0004846" lon="11.7610904"><ele>820.0</ele><time>2026-04-04T12:56:44.207Z</time></trkpt><trkpt lat="46.0005417" lon="11.761143"><ele>819.9999999999999</ele><time>2026-04-04T12:56:46.206Z</time></trkpt><trkpt lat="46.0006332" lon="11.7611683"><ele>820.0</ele><time>2026-04-04T12:56:49.207Z</time></trkpt><trkpt lat="46.0007285" lon="11.7611694"><ele>820.0</ele><time>2026-04-04T12:56:51.207Z</time></trkpt><trkpt lat="46.0008081" lon="11.761118"><ele>820.0</ele><time>2026-04-04T12:56:53.207Z</time></trkpt><trkpt lat="46.0008846" lon="11.7610447"><ele>819.9999999999999</ele><time>2026-04-04T12:56:56.207Z</time></trkpt><trkpt lat="46.0009397" lon="11.7609775"><ele>820.0</ele><time>2026-04-04T12:56:58.207Z</time></trkpt><trkpt lat="46.0009041" lon="11.7608934"><ele>827.8571428571429</ele><time>2026-04-04T12:57:02.207Z</time></trkpt><trkpt lat="46.0008956" lon="11.7608023"><ele>835.7142857142857</ele><time>2026-04-04T12:57:05.207Z</time></trkpt><trkpt lat="46.0009002" lon="11.7607003"><ele>843.5714285714286</ele><time>2026-04-04T12:57:08.207Z</time></trkpt><trkpt lat="46.0008894" lon="11.7606048"><ele>851.4285714285714</ele><time>2026-04-04T12:57:10.207Z</time></trkpt><trkpt lat="46.0009034" lon="11.760502"><ele>859.2857142857142</ele><time>2026-04-04T12:57:12.207Z</time></trkpt><trkpt lat="46.0009197" lon="11.7603505"><ele>867.1428571428571</ele><time>2026-04-04T12:57:14.206Z</time></trkpt><trkpt lat="46.0009065" lon="11.7602581"><ele>875.0</ele><time>2026-04-04T12:57:17.206Z</time></trkpt><trkpt lat="46.0009138" lon="11.7601657"><ele>879.5000000000001</ele><time>2026-04-04T12:57:19.207Z</time></trkpt><trkpt lat="46.0009282" lon="11.7600404"><ele>884.0</ele><time>2026-04-04T12:57:22.207Z</time></trkpt><trkpt lat="46.000945" lon="11.7599464"><ele>888.5</ele><time>2026-04-04T12:57:24.206Z</time></trkpt><trkpt lat="46.0009554" lon="11.7598561"><ele>893.0</ele><time>2026-04-04T12:57:26.207Z</time></trkpt><trkpt lat="46.0009442" lon="11.7597491"><ele>897.5000000000001</ele><time>2026-04-04T12:57:29.206Z</time></trkpt><trkpt lat="46.0009165" lon="11.7596653"><ele>902.0</ele><time>2026-04-04T12:57:31.207Z</time></trkpt><trkpt lat="46.0008913" lon="11.7595379"><ele>902.0000000000001</ele><time>2026-04-04T12:57:34.207Z</time></trkpt><trkpt lat="46.0008779" lon="11.7594296"><ele>902.0</ele><time>2026-04-04T12:57:36.206Z</time></trkpt><trkpt lat="46.0008778" lon="11.7593337"><ele>902.0</ele><time>2026-04-04T12:57:38.207Z</time></trkpt><trkpt lat="46.0008516" lon="11.7592375"><ele>902.0</ele><time>2026-04-04T12:57:40.207Z</time></trkpt><trkpt lat="46.0008446" lon="11.7591131"><ele>902.0000000000001</ele><time>2026-04-04T12:57:43.207Z</time></trkpt><trkpt lat="46.0009181" lon="11.7590098"><ele>902.0</ele><time>2026-04-04T12:57:46.207Z</time></trkpt><trkpt lat="46.0009703" lon="11.7589096"><ele>904.5000000000001</ele><time>2026-04-04T12:57:48.207Z</time></trkpt><trkpt lat="46.0010286" lon="11.7588319"><ele>907.0</ele><time>2026-04-04T12:57:50.207Z</time></trkpt><trkpt lat="46.0011017" lon="11.7587903"><ele>909.5</ele><time>2026-04-04T12:57:52.206Z</time></trkpt><trkpt lat="46.0011824" lon="11.7587359"><ele>912.0</ele><time>2026-04-04T12:57:55.207Z</time></trkpt><trkpt lat="46.0012189" lon="11.7586426"><ele>914.5000000000001</ele><time>2026-04-04T12:57:57.207Z</time></trkpt><trkpt lat="46.0012245" lon="11.7585456"><ele>917.0</ele><time>2026-04-04T12:57:59.207Z</time></trkpt><trkpt lat="46.0012618" lon="11.7584396"><ele>917.0</ele><time>2026-04-04T12:58:02.207Z</time></trkpt><trkpt lat="46.0012854" lon="11.7583394"><ele>917.0</ele><time>2026-04-04T12:58:05.206Z</time></trkpt><trkpt lat="46.0013262" lon="11.7582488"><ele>917.0</ele><time>2026-04-04T12:58:07.207Z</time></trkpt><trkpt lat="46.0013574" lon="11.7581671"><ele>917.0</ele><time>2026-04-04T12:58:09.207Z</time></trkpt><trkpt lat="46.0013872" lon="11.7580775"><ele>917.0</ele><time>2026-04-04T12:58:12.207Z</time></trkpt><trkpt lat="46.0014573" lon="11.7579953"><ele>917.0</ele><time>2026-04-04T12:58:16.207Z</time></trkpt><trkpt lat="46.0015188" lon="11.7579598"><ele>917.0</ele><time>2026-04-04T12:58:19.207Z</time></trkpt><trkpt lat="46.0015598" lon="11.7578878"><ele>917.0000000000001</ele><time>2026-04-04T12:58:22.207Z</time></trkpt><trkpt lat="46.0016028" lon="11.7577961"><ele>917.0</ele><time>2026-04-04T12:58:26.207Z</time></trkpt><trkpt lat="46.0016404" lon="11.7577039"><ele>917.0</ele><time>2026-04-04T12:58:30.207Z</time></trkpt><trkpt lat="46.0016755" lon="11.7575921"><ele>917.0</ele><time>2026-04-04T12:58:34.207Z</time></trkpt><trkpt lat="46.0016807" lon="11.7574827"><ele>917.0000000000001</ele><time>2026-04-04T12:58:37.207Z</time></trkpt><trkpt lat="46.0016898" lon="11.7573769"><ele>917.0</ele><time>2026-04-04T12:58:39.206Z</time></trkpt><trkpt lat="46.0017003" lon="11.7572742"><ele>923.5714285714286</ele><time>2026-04-04T12:58:41.206Z</time></trkpt><trkpt lat="46.0017274" lon="11.7571919"><ele>930.1428571428571</ele><time>2026-04-04T12:58:43.207Z</time></trkpt><trkpt lat="46.0017241" lon="11.7571011"><ele>936.7142857142858</ele><time>2026-04-04T12:58:46.206Z</time></trkpt><trkpt lat="46.0017924" lon="11.7570934"><ele>943.2857142857143</ele><time>2026-04-04T12:58:51.206Z</time></trkpt><trkpt lat="46.0018339" lon="11.7571719"><ele>949.8571428571429</ele><time>2026-04-04T12:58:55.206Z</time></trkpt><trkpt lat="46.0018975" lon="11.7572026"><ele>956.4285714285716</ele><time>2026-04-04T12:58:59.207Z</time></trkpt><trkpt lat="46.0019681" lon="11.757158"><ele>963.0000000000001</ele><time>2026-04-04T12:59:02.207Z</time></trkpt><trkpt lat="46.0020371" lon="11.7570602"><ele>963.0000000000001</ele><time>2026-04-04T12:59:05.207Z</time></trkpt><trkpt lat="46.0020871" lon="11.7569943"><ele>963.0</ele><time>2026-04-04T12:59:07.207Z</time></trkpt><trkpt lat="46.0021392" lon="11.7569264"><ele>963.0000000000001</ele><time>2026-04-04T12:59:09.207Z</time></trkpt><trkpt lat="46.0021976" lon="11.7568539"><ele>963.0000000000001</ele><time>2026-04-04T12:59:11.207Z</time></trkpt><trkpt lat="46.0022411" lon="11.7567726"><ele>963.0</ele><time>2026-04-04T12:59:13.207Z</time></trkpt><trkpt lat="46.0022793" lon="11.7566697"><ele>963.0000000000001</ele><time>2026-04-04T12:59:16.207Z</time></trkpt><trkpt lat="46.0022931" lon="11.7565687"><ele>963.0000000000001</ele><time>2026-04-04T13:00:20.207Z</time></trkpt><trkpt lat="46.0023198" lon="11.7564861"><ele>965.0000000000001</ele><time>2026-04-04T13:00:23.206Z</time></trkpt><trkpt lat="46.0023722" lon="11.7564147"><ele>967.0</ele><time>2026-04-04T13:00:27.207Z</time></trkpt><trkpt lat="46.0024253" lon="11.7563551"><ele>969.0000000000001</ele><time>2026-04-04T13:00:29.207Z</time></trkpt><trkpt lat="46.0024714" lon="11.756285"><ele>971.0000000000001</ele><time>2026-04-04T13:00:32.207Z</time></trkpt><trkpt lat="46.0025349" lon="11.7562394"><ele>973.0</ele><time>2026-04-04T13:00:35.207Z</time></trkpt><trkpt lat="46.002606" lon="11.7561995"><ele>975.0000000000001</ele><time>2026-04-04T13:00:37.207Z</time></trkpt><trkpt lat="46.0026851" lon="11.7562155"><ele>977.0000000000001</ele><time>2026-04-04T13:00:40.207Z</time></trkpt><trkpt lat="46.0027624" lon="11.7562093"><ele>981.2857142857144</ele><time>2026-04-04T13:00:43.206Z</time></trkpt><trkpt lat="46.0028295" lon="11.7562129"><ele>985.5714285714287</ele><time>2026-04-04T13:00:46.207Z</time></trkpt><trkpt lat="46.0028889" lon="11.7562446"><ele>989.8571428571429</ele><time>2026-04-04T13:00:52.207Z</time></trkpt><trkpt lat="46.0029558" lon="11.756272"><ele>994.1428571428572</ele><time>2026-04-04T13:01:01.207Z</time></trkpt><trkpt lat="46.0030067" lon="11.7563385"><ele>998.4285714285716</ele><time>2026-04-04T13:01:05.207Z</time></trkpt><trkpt lat="46.0030754" lon="11.7564281"><ele>1002.7142857142857</ele><time>2026-04-04T13:01:08.207Z</time></trkpt><trkpt lat="46.00315" lon="11.7564417"><ele>1007.0</ele><time>2026-04-04T13:01:10.207Z</time></trkpt><trkpt lat="46.0032207" lon="11.7564748"><ele>1007.0000000000001</ele><time>2026-04-04T13:01:13.207Z</time></trkpt><trkpt lat="46.0032968" lon="11.7564839"><ele>1007.0</ele><time>2026-04-04T13:01:17.206Z</time></trkpt><trkpt lat="46.0033225" lon="11.7563391"><ele>1007.0</ele><time>2026-04-04T13:01:26.206Z</time></trkpt><trkpt lat="46.0033323" lon="11.7562276"><ele>1007.0</ele><time>2026-04-04T13:01:30.207Z</time></trkpt><trkpt lat="46.0033849" lon="11.7561403"><ele>1007.0000000000001</ele><time>2026-04-04T13:01:34.207Z</time></trkpt><trkpt lat="46.0034483" lon="11.7561275"><ele>1007.0</ele><time>2026-04-04T13:01:37.207Z</time></trkpt><trkpt lat="46.0035349" lon="11.7561042"><ele>1012.0000000000001</ele><time>2026-04-04T13:01:40.207Z</time></trkpt><trkpt lat="46.0036083" lon="11.7560575"><ele>1017.0</ele><time>2026-04-04T13:01:44.206Z</time></trkpt><trkpt lat="46.003671" lon="11.7560191"><ele>1022.0</ele><time>2026-04-04T13:01:46.207Z</time></trkpt><trkpt lat="46.0037514" lon="11.7559554"><ele>1027.0</ele><time>2026-04-04T13:01:48.207Z</time></trkpt><trkpt lat="46.0038174" lon="11.7558976"><ele>1032.0</ele><time>2026-04-04T13:01:50.207Z</time></trkpt><trkpt lat="46.0038743" lon="11.7558543"><ele>1037.0</ele><time>2026-04-04T13:01:52.207Z</time></trkpt><trkpt lat="46.0039404" lon="11.7557945"><ele>1039.0</ele><time>2026-04-04T13:01:55.207Z</time></trkpt><trkpt lat="46.0040041" lon="11.7557335"><ele>1041.0</ele><time>2026-04-04T13:01:58.207Z</time></trkpt><trkpt lat="46.0040997" lon="11.7556904"><ele>1043.0</ele><time>2026-04-04T13:02:01.207Z</time></trkpt><trkpt lat="46.0041745" lon="11.7556903"><ele>1045.0</ele><time>2026-04-04T13:02:03.207Z</time></trkpt><trkpt lat="46.0042249" lon="11.7555795"><ele>1047.0</ele><time>2026-04-04T13:02:06.207Z</time></trkpt><trkpt lat="46.0042645" lon="11.7554787"><ele>1049.0</ele><time>2026-04-04T13:02:08.207Z</time></trkpt><trkpt lat="46.0042886" lon="11.7553821"><ele>1054.5</ele><time>2026-04-04T13:02:11.206Z</time></trkpt><trkpt lat="46.0042713" lon="11.7552893"><ele>1060.0</ele><time>2026-04-04T13:02:36.207Z</time></trkpt><trkpt lat="46.0042734" lon="11.7551833"><ele>1065.5</ele><time>2026-04-04T13:02:40.206Z</time></trkpt><trkpt lat="46.0042902" lon="11.7550844"><ele>1071.0</ele><time>2026-04-04T13:02:43.207Z</time></trkpt><trkpt lat="46.00433" lon="11.754974"><ele>1076.5</ele><time>2026-04-04T13:02:46.207Z</time></trkpt><trkpt lat="46.0044023" lon="11.7548957"><ele>1082.0</ele><time>2026-04-04T13:02:48.207Z</time></trkpt><trkpt lat="46.0044706" lon="11.7548583"><ele>1083.0000000000002</ele><time>2026-04-04T13:02:50.207Z</time></trkpt><trkpt lat="46.0045432" lon="11.7548735"><ele>1084.0</ele><time>2026-04-04T13:02:53.207Z</time></trkpt><trkpt lat="46.0046083" lon="11.7549137"><ele>1085.0</ele><time>2026-04-04T13:02:55.207Z</time></trkpt><trkpt lat="46.0046709" lon="11.7549424"><ele>1086.0</ele><time>2026-04-04T13:02:58.207Z</time></trkpt><trkpt lat="46.0047248" lon="11.7548696"><ele>1087.0</ele><time>2026-04-04T13:03:01.207Z</time></trkpt><trkpt lat="46.0047511" lon="11.7547786"><ele>1088.0000000000002</ele><time>2026-04-04T13:03:04.207Z</time></trkpt><trkpt lat="46.004789" lon="11.7546955"><ele>1089.0</ele><time>2026-04-04T13:03:07.206Z</time></trkpt><trkpt lat="46.0048286" lon="11.754599"><ele>1089.0</ele><time>2026-04-04T13:03:11.207Z</time></trkpt><trkpt lat="46.0048395" lon="11.7544792"><ele>1089.0</ele><time>2026-04-04T13:03:15.207Z</time></trkpt><trkpt lat="46.0048856" lon="11.7543954"><ele>1089.0</ele><time>2026-04-04T13:03:18.206Z</time></trkpt><trkpt lat="46.0049713" lon="11.7544009"><ele>1089.0</ele><time>2026-04-04T13:03:21.207Z</time></trkpt><trkpt lat="46.0050431" lon="11.7544149"><ele>1089.0</ele><time>2026-04-04T13:03:23.207Z</time></trkpt><trkpt lat="46.0051294" lon="11.7544008"><ele>1089.0</ele><time>2026-04-04T13:03:25.207Z</time></trkpt><trkpt lat="46.0052009" lon="11.7543755"><ele>1094.5714285714287</ele><time>2026-04-04T13:03:27.207Z</time></trkpt><trkpt lat="46.0052627" lon="11.7543076"><ele>1100.142857142857</ele><time>2026-04-04T13:03:30.207Z</time></trkpt><trkpt lat="46.0053166" lon="11.75419"><ele>1105.7142857142858</ele><time>2026-04-04T13:03:33.207Z</time></trkpt><trkpt lat="46.0053616" lon="11.7541167"><ele>1111.2857142857142</ele><time>2026-04-04T13:03:35.207Z</time></trkpt><trkpt lat="46.005414" lon="11.7540574"><ele>1116.857142857143</ele><time>2026-04-04T13:03:37.207Z</time></trkpt><trkpt lat="46.0054746" lon="11.7540279"><ele>1122.4285714285716</ele><time>2026-04-04T13:03:39.207Z</time></trkpt><trkpt lat="46.0055427" lon="11.7540066"><ele>1128.0</ele><time>2026-04-04T13:03:41.206Z</time></trkpt><trkpt lat="46.0056053" lon="11.7539935"><ele>1128.0</ele><time>2026-04-04T13:03:43.206Z</time></trkpt><trkpt lat="46.0056871" lon="11.7539891"><ele>1128.0</ele><time>2026-04-04T13:03:46.207Z</time></trkpt><trkpt lat="46.0057581" lon="11.7539741"><ele>1128.0</ele><time>2026-04-04T13:03:49.207Z</time></trkpt><trkpt lat="46.0058343" lon="11.75396"><ele>1128.0</ele><time>2026-04-04T13:03:52.207Z</time></trkpt><trkpt lat="46.0058936" lon="11.7539019"><ele>1128.0</ele><time>2026-04-04T13:03:55.207Z</time></trkpt><trkpt lat="46.0059608" lon="11.7538247"><ele>1128.0</ele><time>2026-04-04T13:03:58.207Z</time></trkpt><trkpt lat="46.0060305" lon="11.7537421"><ele>1128.2</ele><time>2026-04-04T13:04:01.207Z</time></trkpt><trkpt lat="46.006102" lon="11.7536856"><ele>1128.4</ele><time>2026-04-04T13:04:04.206Z</time></trkpt><trkpt lat="46.0061624" lon="11.7536356"><ele>1128.6000000000001</ele><time>2026-04-04T13:04:47.207Z</time></trkpt><trkpt lat="46.0062652" lon="11.753598"><ele>1128.8</ele><time>2026-04-04T13:04:49.207Z</time></trkpt><trkpt lat="46.0063326" lon="11.7535759"><ele>1129.0</ele><time>2026-04-04T13:04:50.206Z</time></trkpt><trkpt lat="46.0064686" lon="11.7535294"><ele>1129.0</ele><time>2026-04-04T13:04:52.206Z</time></trkpt><trkpt lat="46.0065377" lon="11.753503"><ele>1129.0</ele><time>2026-04-04T13:04:53.207Z</time></trkpt><trkpt lat="46.0066066" lon="11.7534699"><ele>1129.0</ele><time>2026-04-04T13:04:54.207Z</time></trkpt><trkpt lat="46.006674" lon="11.7534213"><ele>1129.0</ele><time>2026-04-04T13:04:55.207Z</time></trkpt><trkpt lat="46.0067423" lon="11.7533828"><ele>1129.0</ele><time>2026-04-04T13:04:56.207Z</time></trkpt><trkpt lat="46.0068458" lon="11.7533477"><ele>1129.0</ele><time>2026-04-04T13:04:58.207Z</time></trkpt><trkpt lat="46.0069433" lon="11.7532829"><ele>1132.6000000000001</ele><time>2026-04-04T13:05:00.207Z</time></trkpt><trkpt lat="46.0070194" lon="11.7532408"><ele>1136.2</ele><time>2026-04-04T13:05:02.207Z</time></trkpt><trkpt lat="46.0071012" lon="11.7531218"><ele>1139.8000000000002</ele><time>2026-04-04T13:05:04.207Z</time></trkpt><trkpt lat="46.0071609" lon="11.7529947"><ele>1143.4</ele><time>2026-04-04T13:05:06.207Z</time></trkpt><trkpt lat="46.0072017" lon="11.7528721"><ele>1147.0</ele><time>2026-04-04T13:05:08.206Z</time></trkpt><trkpt lat="46.0072506" lon="11.7527665"><ele>1144.2</ele><time>2026-04-04T13:05:10.207Z</time></trkpt><trkpt lat="46.007326" lon="11.752687"><ele>1141.4</ele><time>2026-04-04T13:05:12.207Z</time></trkpt><trkpt lat="46.0074189" lon="11.7526574"><ele>1138.6</ele><time>2026-04-04T13:05:14.206Z</time></trkpt><trkpt lat="46.0075033" lon="11.7526192"><ele>1135.8</ele><time>2026-04-04T13:05:16.207Z</time></trkpt><trkpt lat="46.0075855" lon="11.7525781"><ele>1133.0</ele><time>2026-04-04T13:05:18.207Z</time></trkpt><trkpt lat="46.0076926" lon="11.7525495"><ele>1133.0</ele><time>2026-04-04T13:05:20.207Z</time></trkpt><trkpt lat="46.0077659" lon="11.7524853"><ele>1133.0</ele><time>2026-04-04T13:05:22.207Z</time></trkpt><trkpt lat="46.007834" lon="11.7524338"><ele>1133.0</ele><time>2026-04-04T13:05:23.207Z</time></trkpt><trkpt lat="46.0078983" lon="11.7524015"><ele>1133.0</ele><time>2026-04-04T13:05:24.207Z</time></trkpt><trkpt lat="46.0079645" lon="11.7522958"><ele>1133.0</ele><time>2026-04-04T13:05:26.207Z</time></trkpt><trkpt lat="46.0080195" lon="11.7521708"><ele>1133.0</ele><time>2026-04-04T13:05:28.206Z</time></trkpt><trkpt lat="46.0080876" lon="11.752048"><ele>1133.0</ele><time>2026-04-04T13:05:30.207Z</time></trkpt><trkpt lat="46.0081832" lon="11.7519488"><ele>1133.0</ele><time>2026-04-04T13:05:32.207Z</time></trkpt><trkpt lat="46.0082508" lon="11.7519246"><ele>1133.0</ele><time>2026-04-04T13:05:33.207Z</time></trkpt><trkpt lat="46.0083152" lon="11.7519363"><ele>1133.0</ele><time>2026-04-04T13:05:34.207Z</time></trkpt><trkpt lat="46.0083839" lon="11.7519514"><ele>1133.0</ele><time>2026-04-04T13:05:35.207Z</time></trkpt><trkpt lat="46.0084563" lon="11.7519528"><ele>1133.0</ele><time>2026-04-04T13:05:36.207Z</time></trkpt><trkpt lat="46.0085202" lon="11.751929"><ele>1135.8333333333335</ele><time>2026-04-04T13:05:37.207Z</time></trkpt><trkpt lat="46.0086055" lon="11.7519389"><ele>1138.6666666666667</ele><time>2026-04-04T13:05:38.207Z</time></trkpt><trkpt lat="46.0086945" lon="11.7519553"><ele>1141.5</ele><time>2026-04-04T13:05:39.207Z</time></trkpt><trkpt lat="46.0087833" lon="11.7519532"><ele>1144.3333333333333</ele><time>2026-04-04T13:05:40.207Z</time></trkpt><trkpt lat="46.0088726" lon="11.7519546"><ele>1147.1666666666665</ele><time>2026-04-04T13:05:41.206Z</time></trkpt><trkpt lat="46.0089674" lon="11.7519483"><ele>1150.0</ele><time>2026-04-04T13:05:42.207Z</time></trkpt><trkpt lat="46.0090605" lon="11.7519276"><ele>1150.0</ele><time>2026-04-04T13:05:43.206Z</time></trkpt><trkpt lat="46.0091448" lon="11.7518986"><ele>1150.0</ele><time>2026-04-04T13:05:44.206Z</time></trkpt><trkpt lat="46.0092264" lon="11.7518698"><ele>1150.0</ele><time>2026-04-04T13:05:45.206Z</time></trkpt><trkpt lat="46.0092892" lon="11.7518365"><ele>1150.0</ele><time>2026-04-04T13:05:46.207Z</time></trkpt><trkpt lat="46.0093447" lon="11.7517937"><ele>1150.0</ele><time>2026-04-04T13:05:47.206Z</time></trkpt><trkpt lat="46.0094028" lon="11.7517362"><ele>1150.0</ele><time>2026-04-04T13:05:48.207Z</time></trkpt><trkpt lat="46.0094697" lon="11.7516856"><ele>1150.0</ele><time>2026-04-04T13:05:49.206Z</time></trkpt><trkpt lat="46.009599" lon="11.7516186"><ele>1144.6666666666665</ele><time>2026-04-04T13:05:51.206Z</time></trkpt><trkpt lat="46.0096744" lon="11.7515653"><ele>1139.3333333333333</ele><time>2026-04-04T13:05:52.207Z</time></trkpt><trkpt lat="46.0097663" lon="11.7515139"><ele>1134.0</ele><time>2026-04-04T13:05:54.207Z</time></trkpt><trkpt lat="46.0098274" lon="11.7514532"><ele>1128.6666666666667</ele><time>2026-04-04T13:05:57.206Z</time></trkpt><trkpt lat="46.0098628" lon="11.7513573"><ele>1123.3333333333335</ele><time>2026-04-04T13:06:52.207Z</time></trkpt><trkpt lat="46.0099089" lon="11.7512671"><ele>1118.0</ele><time>2026-04-04T13:06:54.207Z</time></trkpt><trkpt lat="46.0099644" lon="11.7511804"><ele>1119.8333333333335</ele><time>2026-04-04T13:06:56.206Z</time></trkpt><trkpt lat="46.0100596" lon="11.7510504"><ele>1121.6666666666667</ele><time>2026-04-04T13:06:58.207Z</time></trkpt><trkpt lat="46.0101288" lon="11.751034"><ele>1123.5</ele><time>2026-04-04T13:06:59.207Z</time></trkpt><trkpt lat="46.0101994" lon="11.751021"><ele>1125.3333333333333</ele><time>2026-04-04T13:07:00.207Z</time></trkpt><trkpt lat="46.0102671" lon="11.7510192"><ele>1127.1666666666665</ele><time>2026-04-04T13:07:01.207Z</time></trkpt><trkpt lat="46.0103381" lon="11.751015"><ele>1129.0</ele><time>2026-04-04T13:07:02.207Z</time></trkpt><trkpt lat="46.0104101" lon="11.7510119"><ele>1124.8333333333333</ele><time>2026-04-04T13:07:03.206Z</time></trkpt><trkpt lat="46.0105437" lon="11.7509742"><ele>1120.6666666666665</ele><time>2026-04-04T13:07:05.207Z</time></trkpt><trkpt lat="46.0106176" lon="11.7509558"><ele>1116.5</ele><time>2026-04-04T13:07:06.207Z</time></trkpt><trkpt lat="46.0106945" lon="11.7509148"><ele>1112.3333333333333</ele><time>2026-04-04T13:07:07.207Z</time></trkpt><trkpt lat="46.0107581" lon="11.7508823"><ele>1108.1666666666667</ele><time>2026-04-04T13:07:08.207Z</time></trkpt><trkpt lat="46.0108271" lon="11.7508326"><ele>1104.0</ele><time>2026-04-04T13:07:09.206Z</time></trkpt><trkpt lat="46.0109209" lon="11.7507997"><ele>1104.0</ele><time>2026-04-04T13:07:10.206Z</time></trkpt><trkpt lat="46.0109959" lon="11.7507687"><ele>1104.0</ele><time>2026-04-04T13:07:11.207Z</time></trkpt><trkpt lat="46.0110649" lon="11.7507733"><ele>1104.0</ele><time>2026-04-04T13:07:12.206Z</time></trkpt><trkpt lat="46.0111313" lon="11.7507731"><ele>1104.0</ele><time>2026-04-04T13:07:13.206Z</time></trkpt><trkpt lat="46.0112057" lon="11.7507625"><ele>1104.0</ele><time>2026-04-04T13:07:14.207Z</time></trkpt><trkpt lat="46.0112865" lon="11.7507676"><ele>1104.0</ele><time>2026-04-04T13:07:15.207Z</time></trkpt><trkpt lat="46.0113632" lon="11.7507717"><ele>1104.0</ele><time>2026-04-04T13:07:16.207Z</time></trkpt><trkpt lat="46.011446" lon="11.7507953"><ele>1104.0</ele><time>2026-04-04T13:07:17.207Z</time></trkpt><trkpt lat="46.0115258" lon="11.7507897"><ele>1104.0</ele><time>2026-04-04T13:07:18.207Z</time></trkpt><trkpt lat="46.0116126" lon="11.7507842"><ele>1104.0</ele><time>2026-04-04T13:07:19.207Z</time></trkpt><trkpt lat="46.0116897" lon="11.750761"><ele>1104.0</ele><time>2026-04-04T13:07:20.207Z</time></trkpt><trkpt lat="46.0117575" lon="11.7507248"><ele>1104.0</ele><time>2026-04-04T13:07:21.207Z</time></trkpt><trkpt lat="46.0118199" lon="11.7506493"><ele>1104.0</ele><time>2026-04-04T13:07:22.207Z</time></trkpt><trkpt lat="46.0118775" lon="11.7506044"><ele>1105.2</ele><time>2026-04-04T13:07:23.207Z</time></trkpt><trkpt lat="46.0119247" lon="11.7505378"><ele>1106.4</ele><time>2026-04-04T13:07:24.207Z</time></trkpt><trkpt lat="46.0119833" lon="11.7504698"><ele>1107.6</ele><time>2026-04-04T13:07:25.207Z</time></trkpt><trkpt lat="46.0120287" lon="11.7504021"><ele>1108.8</ele><time>2026-04-04T13:07:26.207Z</time></trkpt><trkpt lat="46.0121136" lon="11.7502615"><ele>1110.0</ele><time>2026-04-04T13:07:28.206Z</time></trkpt><trkpt lat="46.0121781" lon="11.7501236"><ele>1109.5714285714287</ele><time>2026-04-04T13:07:30.207Z</time></trkpt><trkpt lat="46.0122399" lon="11.7500026"><ele>1109.142857142857</ele><time>2026-04-04T13:07:32.207Z</time></trkpt><trkpt lat="46.012272" lon="11.7499235"><ele>1108.7142857142858</ele><time>2026-04-04T13:07:33.207Z</time></trkpt><trkpt lat="46.0123241" lon="11.7498685"><ele>1108.2857142857142</ele><time>2026-04-04T13:07:34.207Z</time></trkpt><trkpt lat="46.0123834" lon="11.7498166"><ele>1107.857142857143</ele><time>2026-04-04T13:07:35.207Z</time></trkpt><trkpt lat="46.012445" lon="11.74978"><ele>1107.4285714285716</ele><time>2026-04-04T13:07:36.207Z</time></trkpt><trkpt lat="46.0125055" lon="11.7497359"><ele>1107.0</ele><time>2026-04-04T13:07:37.207Z</time></trkpt><trkpt lat="46.012576" lon="11.7497082"><ele>1107.0</ele><time>2026-04-04T13:07:38.207Z</time></trkpt><trkpt lat="46.0126467" lon="11.7496807"><ele>1107.0</ele><time>2026-04-04T13:07:39.207Z</time></trkpt><trkpt lat="46.0127519" lon="11.7495688"><ele>1107.0</ele><time>2026-04-04T13:07:41.207Z</time></trkpt><trkpt lat="46.0128012" lon="11.7494939"><ele>1107.0</ele><time>2026-04-04T13:07:42.207Z</time></trkpt><trkpt lat="46.0128434" lon="11.7494104"><ele>1107.0</ele><time>2026-04-04T13:07:43.206Z</time></trkpt><trkpt lat="46.0128801" lon="11.7493256"><ele>1107.0</ele><time>2026-04-04T13:07:44.207Z</time></trkpt><trkpt lat="46.0129097" lon="11.7492407"><ele>1100.8</ele><time>2026-04-04T13:07:45.207Z</time></trkpt><trkpt lat="46.012961" lon="11.7490986"><ele>1094.6</ele><time>2026-04-04T13:07:47.207Z</time></trkpt><trkpt lat="46.0129941" lon="11.7489579"><ele>1088.3999999999999</ele><time>2026-04-04T13:07:49.207Z</time></trkpt><trkpt lat="46.0130505" lon="11.7488358"><ele>1082.2</ele><time>2026-04-04T13:07:51.207Z</time></trkpt><trkpt lat="46.0130915" lon="11.7487375"><ele>1076.0</ele><time>2026-04-04T13:07:53.207Z</time></trkpt><trkpt lat="46.0130538" lon="11.7486319"><ele>1073.6666666666667</ele><time>2026-04-04T13:08:02.207Z</time></trkpt><trkpt lat="46.0130079" lon="11.7485289"><ele>1071.3333333333335</ele><time>2026-04-04T13:08:05.207Z</time></trkpt><trkpt lat="46.0130418" lon="11.7484307"><ele>1069.0</ele><time>2026-04-04T13:08:08.207Z</time></trkpt><trkpt lat="46.0130419" lon="11.7483183"><ele>1066.6666666666667</ele><time>2026-04-04T13:08:11.206Z</time></trkpt><trkpt lat="46.0130377" lon="11.7482069"><ele>1064.3333333333333</ele><time>2026-04-04T13:08:14.207Z</time></trkpt><trkpt lat="46.0130435" lon="11.7480856"><ele>1062.0</ele><time>2026-04-04T13:08:16.207Z</time></trkpt><trkpt lat="46.0130497" lon="11.7479562"><ele>1062.0</ele><time>2026-04-04T13:08:18.207Z</time></trkpt><trkpt lat="46.0130761" lon="11.7478715"><ele>1062.0</ele><time>2026-04-04T13:08:20.207Z</time></trkpt><trkpt lat="46.0130987" lon="11.7477657"><ele>1062.0</ele><time>2026-04-04T13:08:22.207Z</time></trkpt><trkpt lat="46.0131282" lon="11.7476216"><ele>1062.0</ele><time>2026-04-04T13:08:24.207Z</time></trkpt><trkpt lat="46.0131396" lon="11.7474739"><ele>1062.0</ele><time>2026-04-04T13:08:26.207Z</time></trkpt><trkpt lat="46.0131033" lon="11.7473504"><ele>1062.0</ele><time>2026-04-04T13:08:28.207Z</time></trkpt><trkpt lat="46.0130816" lon="11.7472337"><ele>1058.4</ele><time>2026-04-04T13:08:31.206Z</time></trkpt><trkpt lat="46.0131133" lon="11.7471105"><ele>1054.8000000000002</ele><time>2026-04-04T13:08:34.207Z</time></trkpt><trkpt lat="46.0131339" lon="11.7470069"><ele>1051.2</ele><time>2026-04-04T13:08:36.207Z</time></trkpt><trkpt lat="46.013143" lon="11.7468447"><ele>1047.6000000000001</ele><time>2026-04-04T13:08:39.207Z</time></trkpt><trkpt lat="46.0131297" lon="11.7467005"><ele>1044.0</ele><time>2026-04-04T13:08:41.207Z</time></trkpt><trkpt lat="46.0131038" lon="11.7465946"><ele>1042.8333333333333</ele><time>2026-04-04T13:08:43.207Z</time></trkpt><trkpt lat="46.0130903" lon="11.7465"><ele>1041.6666666666667</ele><time>2026-04-04T13:08:45.207Z</time></trkpt><trkpt lat="46.0131285" lon="11.7463781"><ele>1040.5</ele><time>2026-04-04T13:08:48.206Z</time></trkpt><trkpt lat="46.0131981" lon="11.7463012"><ele>1039.3333333333335</ele><time>2026-04-04T13:08:50.207Z</time></trkpt><trkpt lat="46.0132801" lon="11.7462688"><ele>1038.1666666666667</ele><time>2026-04-04T13:08:54.207Z</time></trkpt><trkpt lat="46.013342" lon="11.746314"><ele>1037.0</ele><time>2026-04-04T13:09:26.207Z</time></trkpt><trkpt lat="46.0133966" lon="11.7463688"><ele>1037.0</ele><time>2026-04-04T13:09:31.207Z</time></trkpt><trkpt lat="46.0134538" lon="11.7464387"><ele>1037.0</ele><time>2026-04-04T13:09:34.206Z</time></trkpt><trkpt lat="46.0134781" lon="11.7463278"><ele>1037.0</ele><time>2026-04-04T13:09:41.207Z</time></trkpt><trkpt lat="46.0134432" lon="11.7462285"><ele>1037.0</ele><time>2026-04-04T13:09:43.207Z</time></trkpt><trkpt lat="46.0134113" lon="11.7461498"><ele>1037.0</ele><time>2026-04-04T13:09:45.207Z</time></trkpt><trkpt lat="46.0133657" lon="11.7460669"><ele>1037.0</ele><time>2026-04-04T13:09:47.206Z</time></trkpt><trkpt lat="46.0133163" lon="11.7459907"><ele>1037.0</ele><time>2026-04-04T13:09:49.207Z</time></trkpt><trkpt lat="46.0132614" lon="11.7459193"><ele>1031.0</ele><time>2026-04-04T13:09:51.207Z</time></trkpt><trkpt lat="46.0131779" lon="11.7458795"><ele>1025.0</ele><time>2026-04-04T13:09:54.207Z</time></trkpt><trkpt lat="46.0131225" lon="11.7458319"><ele>1019.0</ele><time>2026-04-04T13:09:56.207Z</time></trkpt><trkpt lat="46.0131786" lon="11.7457345"><ele>1013.0</ele><time>2026-04-04T13:10:01.206Z</time></trkpt><trkpt lat="46.0132624" lon="11.7457063"><ele>1007.0</ele><time>2026-04-04T13:10:03.206Z</time></trkpt><trkpt lat="46.013387" lon="11.7456879"><ele>1007.0000000000001</ele><time>2026-04-04T13:10:05.207Z</time></trkpt><trkpt lat="46.0134927" lon="11.7457524"><ele>1007.0</ele><time>2026-04-04T13:10:06.207Z</time></trkpt><trkpt lat="46.0135843" lon="11.7457431"><ele>1007.0</ele><time>2026-04-04T13:10:08.207Z</time></trkpt><trkpt lat="46.0136593" lon="11.7457611"><ele>1007.0</ele><time>2026-04-04T13:10:10.207Z</time></trkpt><trkpt lat="46.0137226" lon="11.7457488"><ele>1007.0000000000001</ele><time>2026-04-04T13:10:12.207Z</time></trkpt><trkpt lat="46.0137874" lon="11.7457357"><ele>1007.0</ele><time>2026-04-04T13:10:15.206Z</time></trkpt><trkpt lat="46.0137704" lon="11.7456383"><ele>1007.0000000000001</ele><time>2026-04-04T13:10:23.207Z</time></trkpt><trkpt lat="46.0137134" lon="11.7455544"><ele>1007.0</ele><time>2026-04-04T13:10:28.207Z</time></trkpt><trkpt lat="46.0137759" lon="11.7455047"><ele>1007.0</ele><time>2026-04-04T13:10:33.207Z</time></trkpt><trkpt lat="46.0138024" lon="11.7453954"><ele>1007.0</ele><time>2026-04-04T13:10:43.207Z</time></trkpt><trkpt lat="46.0137824" lon="11.7452713"><ele>1007.0000000000001</ele><time>2026-04-04T13:10:45.207Z</time></trkpt><trkpt lat="46.0137944" lon="11.7451732"><ele>1007.0</ele><time>2026-04-04T13:10:48.207Z</time></trkpt><trkpt lat="46.0138015" lon="11.7450533"><ele>1001.6666666666667</ele><time>2026-04-04T13:10:51.207Z</time></trkpt><trkpt lat="46.0137997" lon="11.7449305"><ele>996.3333333333334</ele><time>2026-04-04T13:10:54.207Z</time></trkpt><trkpt lat="46.0138003" lon="11.7448385"><ele>991.0</ele><time>2026-04-04T13:10:56.207Z</time></trkpt><trkpt lat="46.0138589" lon="11.7447699"><ele>985.6666666666667</ele><time>2026-04-04T13:10:59.207Z</time></trkpt><trkpt lat="46.0138531" lon="11.7446351"><ele>980.3333333333334</ele><time>2026-04-04T13:11:04.207Z</time></trkpt><trkpt lat="46.0137987" lon="11.7445361"><ele>975.0</ele><time>2026-04-04T13:11:07.207Z</time></trkpt><trkpt lat="46.0137374" lon="11.7445053"><ele>975.0</ele><time>2026-04-04T13:11:10.207Z</time></trkpt><trkpt lat="46.0136687" lon="11.744528"><ele>975.0</ele><time>2026-04-04T13:11:13.207Z</time></trkpt><trkpt lat="46.013595" lon="11.7444913"><ele>975.0</ele><time>2026-04-04T13:11:18.207Z</time></trkpt><trkpt lat="46.0135298" lon="11.7444373"><ele>975.0</ele><time>2026-04-04T13:11:24.207Z</time></trkpt><trkpt lat="46.0134532" lon="11.7443766"><ele>975.0</ele><time>2026-04-04T13:11:27.207Z</time></trkpt><trkpt lat="46.0133771" lon="11.7444273"><ele>975.0</ele><time>2026-04-04T13:11:31.207Z</time></trkpt><trkpt lat="46.0133116" lon="11.7444971"><ele>972.4285714285713</ele><time>2026-04-04T13:11:34.207Z</time></trkpt><trkpt lat="46.0132437" lon="11.744495"><ele>969.8571428571428</ele><time>2026-04-04T13:11:38.206Z</time></trkpt><trkpt lat="46.0131774" lon="11.7444322"><ele>967.2857142857142</ele><time>2026-04-04T13:12:18.207Z</time></trkpt><trkpt lat="46.0131129" lon="11.7444117"><ele>964.7142857142858</ele><time>2026-04-04T13:12:21.207Z</time></trkpt><trkpt lat="46.0130465" lon="11.7443734"><ele>962.1428571428572</ele><time>2026-04-04T13:12:24.207Z</time></trkpt><trkpt lat="46.0129754" lon="11.7443597"><ele>959.5714285714287</ele><time>2026-04-04T13:12:28.207Z</time></trkpt><trkpt lat="46.0129062" lon="11.7443319"><ele>957.0</ele><time>2026-04-04T13:12:31.207Z</time></trkpt><trkpt lat="46.0128345" lon="11.7442941"><ele>952.25</ele><time>2026-04-04T13:12:35.206Z</time></trkpt><trkpt lat="46.0127443" lon="11.7442509"><ele>947.5</ele><time>2026-04-04T13:12:38.207Z</time></trkpt><trkpt lat="46.0126385" lon="11.7442347"><ele>942.75</ele><time>2026-04-04T13:12:41.207Z</time></trkpt><trkpt lat="46.012575" lon="11.7442197"><ele>938.0</ele><time>2026-04-04T13:12:44.207Z</time></trkpt><trkpt lat="46.0131285" lon="11.7463781"><ele>951.5000000000001</ele><time>2026-04-04T13:08:48.206Z</time></trkpt><trkpt lat="46.0131981" lon="11.7463012"><ele>965.0</ele><time>2026-04-04T13:08:50.207Z</time></trkpt><trkpt lat="46.0132801" lon="11.7462688"><ele>978.5</ele><time>2026-04-04T13:08:54.207Z</time></trkpt><trkpt lat="46.013342" lon="11.746314"><ele>992.0</ele><time>2026-04-04T13:09:26.207Z</time></trkpt><trkpt lat="46.0133966" lon="11.7463688"><ele>1005.5000000000001</ele><time>2026-04-04T13:09:31.207Z</time></trkpt><trkpt lat="46.0134538" lon="11.7464387"><ele>1019.0</ele><time>2026-04-04T13:09:34.206Z</time></trkpt><trkpt lat="46.0134781" lon="11.7463278"><ele>1021.5714285714287</ele><time>2026-04-04T13:09:41.207Z</time></trkpt><trkpt lat="46.0134432" lon="11.7462285"><ele>1024.142857142857</ele><time>2026-04-04T13:09:43.207Z</time></trkpt><trkpt lat="46.0134113" lon="11.7461498"><ele>1026.7142857142858</ele><time>2026-04-04T13:09:45.207Z</time></trkpt><trkpt lat="46.0133657" lon="11.7460669"><ele>1029.2857142857142</ele><time>2026-04-04T13:09:47.206Z</time></trkpt><trkpt lat="46.0133163" lon="11.7459907"><ele>1031.857142857143</ele><time>2026-04-04T13:09:49.207Z</time></trkpt><trkpt lat="46.0132614" lon="11.7459193"><ele>1034.4285714285716</ele><time>2026-04-04T13:09:51.207Z</time></trkpt><trkpt lat="46.0131779" lon="11.7458795"><ele>1037.0</ele><time>2026-04-04T13:09:54.207Z</time></trkpt><trkpt lat="46.0131225" lon="11.7458319"><ele>1031.0</ele><time>2026-04-04T13:09:56.207Z</time></trkpt><trkpt lat="46.0131786" lon="11.7457345"><ele>1025.0</ele><time>2026-04-04T13:10:01.206Z</time></trkpt><trkpt lat="46.0132624" lon="11.7457063"><ele>1019.0</ele><time>2026-04-04T13:10:03.206Z</time></trkpt><trkpt lat="46.013387" lon="11.7456879"><ele>1013.0</ele><time>2026-04-04T13:10:05.207Z</time></trkpt><trkpt lat="46.0134927" lon="11.7457524"><ele>1007.0</ele><time>2026-04-04T13:10:06.207Z</time></trkpt><trkpt lat="46.0135843" lon="11.7457431"><ele>1007.0</ele><time>2026-04-04T13:10:08.207Z</time></trkpt><trkpt lat="46.0136593" lon="11.7457611"><ele>1007.0</ele><time>2026-04-04T13:10:10.207Z</time></trkpt><trkpt lat="46.0137226" lon="11.7457488"><ele>1007.0</ele><time>2026-04-04T13:10:12.207Z</time></trkpt><trkpt lat="46.0137874" lon="11.7457357"><ele>1007.0</ele><time>2026-04-04T13:10:15.206Z</time></trkpt><trkpt lat="46.0137704" lon="11.7456383"><ele>1007.0</ele><time>2026-04-04T13:10:23.207Z</time></trkpt><trkpt lat="46.0137134" lon="11.7455544"><ele>1007.0</ele><time>2026-04-04T13:10:28.207Z</time></trkpt><trkpt lat="46.0137759" lon="11.7455047"><ele>1007.0</ele><time>2026-04-04T13:10:33.207Z</time></trkpt><trkpt lat="46.0138024" lon="11.7453954"><ele>1007.0000000000001</ele><time>2026-04-04T13:10:43.207Z</time></trkpt><trkpt lat="46.0137824" lon="11.7452713"><ele>1007.0</ele><time>2026-04-04T13:10:45.207Z</time></trkpt><trkpt lat="46.0137944" lon="11.7451732"><ele>1007.0</ele><time>2026-04-04T13:10:48.207Z</time></trkpt><trkpt lat="46.0138015" lon="11.7450533"><ele>1007.0</ele><time>2026-04-04T13:10:51.207Z</time></trkpt><trkpt lat="46.0137997" lon="11.7449305"><ele>1007.0000000000001</ele><time>2026-04-04T13:10:54.207Z</time></trkpt><trkpt lat="46.0138003" lon="11.7448385"><ele>1007.0</ele><time>2026-04-04T13:10:56.207Z</time></trkpt><trkpt lat="46.0138589" lon="11.7447699"><ele>1001.6666666666667</ele><time>2026-04-04T13:10:59.207Z</time></trkpt><trkpt lat="46.0138531" lon="11.7446351"><ele>996.3333333333334</ele><time>2026-04-04T13:11:04.207Z</time></trkpt><trkpt lat="46.0137987" lon="11.7445361"><ele>991.0</ele><time>2026-04-04T13:11:07.207Z</time></trkpt><trkpt lat="46.0137374" lon="11.7445053"><ele>985.6666666666667</ele><time>2026-04-04T13:11:10.207Z</time></trkpt><trkpt lat="46.0136687" lon="11.744528"><ele>980.3333333333334</ele><time>2026-04-04T13:11:13.207Z</time></trkpt><trkpt lat="46.013595" lon="11.7444913"><ele>975.0</ele><time>2026-04-04T13:11:18.207Z</time></trkpt><trkpt lat="46.0135298" lon="11.7444373"><ele>975.0</ele><time>2026-04-04T13:11:24.207Z</time></trkpt><trkpt lat="46.0134532" lon="11.7443766"><ele>975.0</ele><time>2026-04-04T13:11:27.207Z</time></trkpt><trkpt lat="46.0133771" lon="11.7444273"><ele>975.0</ele><time>2026-04-04T13:11:31.207Z</time></trkpt><trkpt lat="46.0133116" lon="11.7444971"><ele>975.0</ele><time>2026-04-04T13:11:34.207Z</time></trkpt><trkpt lat="46.0132437" lon="11.744495"><ele>975.0</ele><time>2026-04-04T13:11:38.206Z</time></trkpt><trkpt lat="46.0131774" lon="11.7444322"><ele>975.0</ele><time>2026-04-04T13:12:18.207Z</time></trkpt><trkpt lat="46.0131129" lon="11.7444117"><ele>968.8333333333334</ele><time>2026-04-04T13:12:21.207Z</time></trkpt><trkpt lat="46.0130465" lon="11.7443734"><ele>962.6666666666667</ele><time>2026-04-04T13:12:24.207Z</time></trkpt><trkpt lat="46.0129754" lon="11.7443597"><ele>956.5</ele><time>2026-04-04T13:12:28.207Z</time></trkpt><trkpt lat="46.0129062" lon="11.7443319"><ele>950.3333333333334</ele><time>2026-04-04T13:12:31.207Z</time></trkpt><trkpt lat="46.0128345" lon="11.7442941"><ele>944.1666666666667</ele><time>2026-04-04T13:12:35.206Z</time></trkpt><trkpt lat="46.0127443" lon="11.7442509"><ele>938.0</ele><time>2026-04-04T13:12:38.207Z</time></trkpt><trkpt lat="46.0126385" lon="11.7442347"><ele>938.0000000000001</ele><time>2026-04-04T13:12:41.207Z</time></trkpt><trkpt lat="46.012575" lon="11.7442197"><ele>938.0</ele><time>2026-04-04T13:12:44.207Z</time></trkpt><trkpt lat="46.0125062" lon="11.744235"><ele>938.0</ele><time>2026-04-04T13:13:01.207Z</time></trkpt><trkpt lat="46.0124463" lon="11.7441995"><ele>938.0</ele><time>2026-04-04T13:13:03.207Z</time></trkpt><trkpt lat="46.0123835" lon="11.7441803"><ele>938.0000000000001</ele><time>2026-04-04T13:13:05.206Z</time></trkpt><trkpt lat="46.0122989" lon="11.7441584"><ele>938.0</ele><time>2026-04-04T13:13:07.207Z</time></trkpt><trkpt lat="46.0121894" lon="11.7441754"><ele>936.3333333333334</ele><time>2026-04-04T13:13:09.206Z</time></trkpt><trkpt lat="46.012119" lon="11.7441605"><ele>934.6666666666667</ele><time>2026-04-04T13:13:13.206Z</time></trkpt><trkpt lat="46.0121321" lon="11.744057"><ele>933.0</ele><time>2026-04-04T13:13:16.207Z</time></trkpt><trkpt lat="46.0121539" lon="11.7439454"><ele>931.3333333333333</ele><time>2026-04-04T13:13:18.207Z</time></trkpt><trkpt lat="46.0121805" lon="11.7438282"><ele>929.6666666666666</ele><time>2026-04-04T13:13:20.207Z</time></trkpt><trkpt lat="46.0122178" lon="11.7437289"><ele>928.0</ele><time>2026-04-04T13:13:22.207Z</time></trkpt><trkpt lat="46.0122708" lon="11.7436479"><ele>927.9999999999999</ele><time>2026-04-04T13:13:24.206Z</time></trkpt><trkpt lat="46.0123326" lon="11.7435734"><ele>928.0</ele><time>2026-04-04T13:13:26.207Z</time></trkpt><trkpt lat="46.0123782" lon="11.7436475"><ele>928.0</ele><time>2026-04-04T13:13:29.207Z</time></trkpt><trkpt lat="46.0124105" lon="11.7437374"><ele>928.0</ele><time>2026-04-04T13:13:31.207Z</time></trkpt><trkpt lat="46.0124989" lon="11.7437861"><ele>927.9999999999999</ele><time>2026-04-04T13:13:34.207Z</time></trkpt><trkpt lat="46.0125907" lon="11.7438243"><ele>928.0</ele><time>2026-04-04T13:13:38.207Z</time></trkpt><trkpt lat="46.0126664" lon="11.7438435"><ele>930.0</ele><time>2026-04-04T13:13:40.207Z</time></trkpt><trkpt lat="46.0127596" lon="11.7438822"><ele>932.0</ele><time>2026-04-04T13:13:43.207Z</time></trkpt><trkpt lat="46.0128524" lon="11.7439105"><ele>934.0</ele><time>2026-04-04T13:13:45.207Z</time></trkpt><trkpt lat="46.0129473" lon="11.7439279"><ele>936.0</ele><time>2026-04-04T13:13:47.207Z</time></trkpt><trkpt lat="46.0130557" lon="11.7439549"><ele>938.0</ele><time>2026-04-04T13:13:49.207Z</time></trkpt><trkpt lat="46.0131686" lon="11.7440158"><ele>938.0</ele><time>2026-04-04T13:13:51.207Z</time></trkpt><trkpt lat="46.0132632" lon="11.7440589"><ele>938.0</ele><time>2026-04-04T13:13:53.206Z</time></trkpt><trkpt lat="46.0133762" lon="11.7440951"><ele>938.0</ele><time>2026-04-04T13:13:55.207Z</time></trkpt><trkpt lat="46.0134997" lon="11.7440905"><ele>938.0</ele><time>2026-04-04T13:13:56.207Z</time></trkpt><trkpt lat="46.0136321" lon="11.7440528"><ele>942.8333333333334</ele><time>2026-04-04T13:13:58.207Z</time></trkpt><trkpt lat="46.0137078" lon="11.7440423"><ele>947.6666666666667</ele><time>2026-04-04T13:13:59.207Z</time></trkpt><trkpt lat="46.0138141" lon="11.744047"><ele>952.5</ele><time>2026-04-04T13:14:01.207Z</time></trkpt><trkpt lat="46.0138836" lon="11.7440722"><ele>957.3333333333333</ele><time>2026-04-04T13:14:03.206Z</time></trkpt><trkpt lat="46.0139927" lon="11.7440648"><ele>962.1666666666666</ele><time>2026-04-04T13:14:06.206Z</time></trkpt><trkpt lat="46.014056" lon="11.7440495"><ele>967.0</ele><time>2026-04-04T13:14:08.207Z</time></trkpt><trkpt lat="46.0141326" lon="11.7439797"><ele>971.3333333333333</ele><time>2026-04-04T13:14:11.207Z</time></trkpt><trkpt lat="46.0142083" lon="11.7439261"><ele>975.6666666666666</ele><time>2026-04-04T13:14:13.206Z</time></trkpt><trkpt lat="46.0142808" lon="11.7438818"><ele>980.0</ele><time>2026-04-04T13:14:16.207Z</time></trkpt><trkpt lat="46.0143493" lon="11.7438574"><ele>984.3333333333333</ele><time>2026-04-04T13:14:18.207Z</time></trkpt><trkpt lat="46.0144182" lon="11.743912"><ele>988.6666666666666</ele><time>2026-04-04T13:14:21.207Z</time></trkpt><trkpt lat="46.0144944" lon="11.7439754"><ele>993.0</ele><time>2026-04-04T13:14:24.207Z</time></trkpt><trkpt lat="46.0145786" lon="11.7439482"><ele>993.0</ele><time>2026-04-04T13:14:27.207Z</time></trkpt><trkpt lat="46.0146281" lon="11.7438294"><ele>993.0</ele><time>2026-04-04T13:14:29.207Z</time></trkpt><trkpt lat="46.0146909" lon="11.7436496"><ele>993.0</ele><time>2026-04-04T13:14:31.206Z</time></trkpt><trkpt lat="46.0146933" lon="11.7435023"><ele>993.0</ele><time>2026-04-04T13:14:33.207Z</time></trkpt><trkpt lat="46.0146935" lon="11.7433449"><ele>993.0</ele><time>2026-04-04T13:14:35.207Z</time></trkpt><trkpt lat="46.0147314" lon="11.7432635"><ele>997.0</ele><time>2026-04-04T13:14:37.207Z</time></trkpt><trkpt lat="46.0147523" lon="11.7431622"><ele>1001.0</ele><time>2026-04-04T13:14:39.207Z</time></trkpt><trkpt lat="46.0148023" lon="11.7430786"><ele>1005.0</ele><time>2026-04-04T13:14:42.207Z</time></trkpt><trkpt lat="46.0148481" lon="11.7430151"><ele>1009.0</ele><time>2026-04-04T13:14:44.206Z</time></trkpt><trkpt lat="46.0149062" lon="11.7429208"><ele>1013.0</ele><time>2026-04-04T13:14:47.207Z</time></trkpt><trkpt lat="46.0149423" lon="11.742809"><ele>1017.0</ele><time>2026-04-04T13:14:49.207Z</time></trkpt><trkpt lat="46.0149658" lon="11.7426878"><ele>1020.4285714285713</ele><time>2026-04-04T13:14:51.207Z</time></trkpt><trkpt lat="46.0150008" lon="11.7425873"><ele>1023.8571428571428</ele><time>2026-04-04T13:14:53.206Z</time></trkpt><trkpt lat="46.0150508" lon="11.742525"><ele>1027.2857142857142</ele><time>2026-04-04T13:14:55.207Z</time></trkpt><trkpt lat="46.015104" lon="11.7424569"><ele>1030.7142857142858</ele><time>2026-04-04T13:14:57.207Z</time></trkpt><trkpt lat="46.0151644" lon="11.742363"><ele>1034.1428571428573</ele><time>2026-04-04T13:14:59.207Z</time></trkpt><trkpt lat="46.0152135" lon="11.7422865"><ele>1037.5714285714287</ele><time>2026-04-04T13:15:01.207Z</time></trkpt><trkpt lat="46.015261" lon="11.7422092"><ele>1041.0</ele><time>2026-04-04T13:15:03.207Z</time></trkpt><trkpt lat="46.0152479" lon="11.7421096"><ele>1041.0</ele><time>2026-04-04T13:15:07.207Z</time></trkpt><trkpt lat="46.0151821" lon="11.7420525"><ele>1041.0</ele><time>2026-04-04T13:15:10.206Z</time></trkpt><trkpt lat="46.0151145" lon="11.7420384"><ele>1041.0</ele><time>2026-04-04T13:15:12.207Z</time></trkpt><trkpt lat="46.0150415" lon="11.7420504"><ele>1041.0</ele><time>2026-04-04T13:15:14.207Z</time></trkpt><trkpt lat="46.0149783" lon="11.7420639"><ele>1041.0</ele><time>2026-04-04T13:15:16.206Z</time></trkpt><trkpt lat="46.0148764" lon="11.7420906"><ele>1041.0</ele><time>2026-04-04T13:15:19.207Z</time></trkpt><trkpt lat="46.0147972" lon="11.7421059"><ele>1040.3333333333333</ele><time>2026-04-04T13:15:21.207Z</time></trkpt><trkpt lat="46.0147268" lon="11.7421155"><ele>1039.6666666666667</ele><time>2026-04-04T13:15:23.207Z</time></trkpt><trkpt lat="46.0146376" lon="11.7420717"><ele>1039.0</ele><time>2026-04-04T13:15:26.207Z</time></trkpt><trkpt lat="46.0145832" lon="11.742021"><ele>1038.3333333333335</ele><time>2026-04-04T13:15:28.206Z</time></trkpt><trkpt lat="46.0145289" lon="11.7419647"><ele>1037.6666666666667</ele><time>2026-04-04T13:15:30.207Z</time></trkpt><trkpt lat="46.0144793" lon="11.7419083"><ele>1037.0</ele><time>2026-04-04T13:15:32.207Z</time></trkpt><trkpt lat="46.0144064" lon="11.7418281"><ele>1037.0</ele><time>2026-04-04T13:15:35.207Z</time></trkpt><trkpt lat="46.0143364" lon="11.7417669"><ele>1037.0</ele><time>2026-04-04T13:15:38.207Z</time></trkpt><trkpt lat="46.0142773" lon="11.7416794"><ele>1037.0</ele><time>2026-04-04T13:15:41.207Z</time></trkpt><trkpt lat="46.014233" lon="11.7416073"><ele>1037.0</ele><time>2026-04-04T13:15:43.207Z</time></trkpt><trkpt lat="46.0141938" lon="11.7415273"><ele>1037.0</ele><time>2026-04-04T13:15:45.207Z</time></trkpt><trkpt lat="46.0141676" lon="11.7414389"><ele>1037.0</ele><time>2026-04-04T13:15:47.207Z</time></trkpt><trkpt lat="46.0141509" lon="11.7413237"><ele>1036.4</ele><time>2026-04-04T13:15:49.206Z</time></trkpt><trkpt lat="46.0141412" lon="11.7411992"><ele>1035.8000000000002</ele><time>2026-04-04T13:15:51.207Z</time></trkpt><trkpt lat="46.0141364" lon="11.7410626"><ele>1035.2</ele><time>2026-04-04T13:15:53.207Z</time></trkpt><trkpt lat="46.0141077" lon="11.7409249"><ele>1034.6000000000001</ele><time>2026-04-04T13:15:55.207Z</time></trkpt><trkpt lat="46.0140824" lon="11.740771"><ele>1034.0</ele><time>2026-04-04T13:15:57.207Z</time></trkpt><trkpt lat="46.0140643" lon="11.7406808"><ele>1034.0</ele><time>2026-04-04T13:15:58.207Z</time></trkpt><trkpt lat="46.0140147" lon="11.7406201"><ele>1034.0</ele><time>2026-04-04T13:15:59.207Z</time></trkpt><trkpt lat="46.0139292" lon="11.7405111"><ele>1034.0</ele><time>2026-04-04T13:16:01.207Z</time></trkpt><trkpt lat="46.0138709" lon="11.7404744"><ele>1034.0</ele><time>2026-04-04T13:16:02.207Z</time></trkpt><trkpt lat="46.0138015" lon="11.7404645"><ele>1034.0</ele><time>2026-04-04T13:16:03.206Z</time></trkpt><trkpt lat="46.0136731" lon="11.7404667"><ele>1034.0</ele><time>2026-04-04T13:16:05.207Z</time></trkpt><trkpt lat="46.0136059" lon="11.7404715"><ele>1034.0</ele><time>2026-04-04T13:16:06.207Z</time></trkpt><trkpt lat="46.0135401" lon="11.7404853"><ele>1034.0</ele><time>2026-04-04T13:16:07.206Z</time></trkpt><trkpt lat="46.0134764" lon="11.7405068"><ele>1034.0</ele><time>2026-04-04T13:16:08.206Z</time></trkpt><trkpt lat="46.0134142" lon="11.7405366"><ele>1034.0</ele><time>2026-04-04T13:16:09.207Z</time></trkpt><trkpt lat="46.0133097" lon="11.7405942"><ele>1034.0</ele><time>2026-04-04T13:16:11.207Z</time></trkpt><trkpt lat="46.013198" lon="11.7406543"><ele>1034.0</ele><time>2026-04-04T13:16:13.207Z</time></trkpt><trkpt lat="46.0130896" lon="11.7406752"><ele>1032.0</ele><time>2026-04-04T13:16:15.207Z</time></trkpt><trkpt lat="46.0129812" lon="11.7406104"><ele>1030.0</ele><time>2026-04-04T13:16:17.207Z</time></trkpt><trkpt lat="46.0129272" lon="11.7405631"><ele>1028.0</ele><time>2026-04-04T13:16:18.206Z</time></trkpt><trkpt lat="46.0128331" lon="11.7404702"><ele>1026.0</ele><time>2026-04-04T13:16:20.206Z</time></trkpt><trkpt lat="46.0127405" lon="11.7403823"><ele>1024.0</ele><time>2026-04-04T13:16:22.206Z</time></trkpt><trkpt lat="46.0126344" lon="11.7402897"><ele>1022.5</ele><time>2026-04-04T13:16:24.207Z</time></trkpt><trkpt lat="46.012532" lon="11.7402087"><ele>1021.0</ele><time>2026-04-04T13:16:26.206Z</time></trkpt><trkpt lat="46.0124419" lon="11.7401297"><ele>1019.5</ele><time>2026-04-04T13:16:28.207Z</time></trkpt><trkpt lat="46.0123477" lon="11.740032"><ele>1018.0</ele><time>2026-04-04T13:16:30.207Z</time></trkpt><trkpt lat="46.012279" lon="11.7398969"><ele>1017.9999999999999</ele><time>2026-04-04T13:16:32.207Z</time></trkpt><trkpt lat="46.0122322" lon="11.7397285"><ele>1018.0</ele><time>2026-04-04T13:16:34.207Z</time></trkpt><trkpt lat="46.0122139" lon="11.7396407"><ele>1017.9999999999999</ele><time>2026-04-04T13:16:35.207Z</time></trkpt><trkpt lat="46.012197" lon="11.739552"><ele>1017.9999999999999</ele><time>2026-04-04T13:16:36.206Z</time></trkpt><trkpt lat="46.0121813" lon="11.7394634"><ele>1018.0</ele><time>2026-04-04T13:16:37.206Z</time></trkpt><trkpt lat="46.0121606" lon="11.7393762"><ele>1017.9999999999999</ele><time>2026-04-04T13:16:38.206Z</time></trkpt><trkpt lat="46.0121445" lon="11.7392879"><ele>1017.9999999999999</ele><time>2026-04-04T13:16:39.207Z</time></trkpt><trkpt lat="46.012126" lon="11.7391984"><ele>1018.4</ele><time>2026-04-04T13:16:40.207Z</time></trkpt><trkpt lat="46.0120784" lon="11.7390581"><ele>1018.8</ele><time>2026-04-04T13:16:42.207Z</time></trkpt><trkpt lat="46.0120459" lon="11.7389796"><ele>1019.2</ele><time>2026-04-04T13:16:43.206Z</time></trkpt><trkpt lat="46.0119647" lon="11.7388447"><ele>1019.6</ele><time>2026-04-04T13:16:45.207Z</time></trkpt><trkpt lat="46.0119205" lon="11.7387791"><ele>1020.0</ele><time>2026-04-04T13:16:46.207Z</time></trkpt><trkpt lat="46.0118461" lon="11.7386581"><ele>1020.0</ele><time>2026-04-04T13:16:48.207Z</time></trkpt><trkpt lat="46.0117647" lon="11.7385638"><ele>1020.0</ele><time>2026-04-04T13:16:50.207Z</time></trkpt><trkpt lat="46.0116807" lon="11.7384613"><ele>1020.0</ele><time>2026-04-04T13:16:52.207Z</time></trkpt><trkpt lat="46.0115955" lon="11.7383331"><ele>1020.0</ele><time>2026-04-04T13:16:54.207Z</time></trkpt><trkpt lat="46.0115053" lon="11.7382169"><ele>1020.6</ele><time>2026-04-04T13:16:56.207Z</time></trkpt><trkpt lat="46.0114294" lon="11.7381056"><ele>1021.2</ele><time>2026-04-04T13:16:58.207Z</time></trkpt><trkpt lat="46.0113496" lon="11.7379896"><ele>1021.8</ele><time>2026-04-04T13:17:00.207Z</time></trkpt><trkpt lat="46.0112661" lon="11.7378772"><ele>1022.4</ele><time>2026-04-04T13:17:02.206Z</time></trkpt><trkpt lat="46.0111918" lon="11.7377759"><ele>1023.0</ele><time>2026-04-04T13:17:04.206Z</time></trkpt><trkpt lat="46.011124" lon="11.7376771"><ele>1023.0</ele><time>2026-04-04T13:17:06.207Z</time></trkpt><trkpt lat="46.011054" lon="11.7375777"><ele>1023.0</ele><time>2026-04-04T13:17:08.207Z</time></trkpt><trkpt lat="46.0109731" lon="11.7374746"><ele>1023.0</ele><time>2026-04-04T13:17:10.207Z</time></trkpt><trkpt lat="46.0108864" lon="11.7373743"><ele>1023.0</ele><time>2026-04-04T13:17:12.207Z</time></trkpt><trkpt lat="46.0107838" lon="11.7372977"><ele>1023.0</ele><time>2026-04-04T13:17:14.207Z</time></trkpt><trkpt lat="46.010688" lon="11.7372433"><ele>1021.4</ele><time>2026-04-04T13:17:16.207Z</time></trkpt><trkpt lat="46.0105862" lon="11.7372"><ele>1019.8</ele><time>2026-04-04T13:17:18.207Z</time></trkpt><trkpt lat="46.0104766" lon="11.7371729"><ele>1018.2</ele><time>2026-04-04T13:17:20.207Z</time></trkpt><trkpt lat="46.0103819" lon="11.737089"><ele>1016.6</ele><time>2026-04-04T13:17:22.207Z</time></trkpt><trkpt lat="46.0103454" lon="11.7370146"><ele>1015.0</ele><time>2026-04-04T13:17:23.207Z</time></trkpt><trkpt lat="46.0102819" lon="11.7368718"><ele>1014.4</ele><time>2026-04-04T13:17:25.207Z</time></trkpt><trkpt lat="46.0102553" lon="11.7366803"><ele>1013.8</ele><time>2026-04-04T13:17:27.207Z</time></trkpt><trkpt lat="46.010252" lon="11.736512"><ele>1013.2</ele><time>2026-04-04T13:17:29.207Z</time></trkpt><trkpt lat="46.0102394" lon="11.736414"><ele>1012.6</ele><time>2026-04-04T13:17:30.206Z</time></trkpt><trkpt lat="46.0102194" lon="11.7362495"><ele>1012.0</ele><time>2026-04-04T13:17:32.207Z</time></trkpt><trkpt lat="46.0101986" lon="11.7361015"><ele>1012.0</ele><time>2026-04-04T13:17:34.206Z</time></trkpt><trkpt lat="46.010151" lon="11.7359432"><ele>1012.0</ele><time>2026-04-04T13:17:36.207Z</time></trkpt><trkpt lat="46.010117" lon="11.7357983"><ele>1012.0</ele><time>2026-04-04T13:17:38.207Z</time></trkpt><trkpt lat="46.0100956" lon="11.7356342"><ele>1012.0</ele><time>2026-04-04T13:17:40.207Z</time></trkpt><trkpt lat="46.0101165" lon="11.7354736"><ele>1012.0</ele><time>2026-04-04T13:17:42.207Z</time></trkpt><trkpt lat="46.0101681" lon="11.7353286"><ele>1012.0</ele><time>2026-04-04T13:17:44.206Z</time></trkpt><trkpt lat="46.0102043" lon="11.7352021"><ele>1012.0</ele><time>2026-04-04T13:17:46.207Z</time></trkpt><trkpt lat="46.0102286" lon="11.7350464"><ele>1012.0</ele><time>2026-04-04T13:17:48.207Z</time></trkpt><trkpt lat="46.0101866" lon="11.7348774"><ele>1012.0</ele><time>2026-04-04T13:17:50.207Z</time></trkpt><trkpt lat="46.0101565" lon="11.7347774"><ele>1011.8333333333333</ele><time>2026-04-04T13:17:51.207Z</time></trkpt><trkpt lat="46.0101449" lon="11.7346849"><ele>1011.6666666666666</ele><time>2026-04-04T13:17:52.207Z</time></trkpt><trkpt lat="46.0101015" lon="11.734531"><ele>1011.5</ele><time>2026-04-04T13:17:54.207Z</time></trkpt><trkpt lat="46.0100522" lon="11.7344452"><ele>1011.3333333333333</ele><time>2026-04-04T13:17:55.207Z</time></trkpt><trkpt lat="46.0100385" lon="11.7343566"><ele>1011.1666666666666</ele><time>2026-04-04T13:17:56.207Z</time></trkpt><trkpt lat="46.0099979" lon="11.7342059"><ele>1011.0</ele><time>2026-04-04T13:17:58.207Z</time></trkpt><trkpt lat="46.0099736" lon="11.7340401"><ele>1010.6666666666666</ele><time>2026-04-04T13:18:00.206Z</time></trkpt><trkpt lat="46.0099619" lon="11.73394"><ele>1010.3333333333333</ele><time>2026-04-04T13:18:01.207Z</time></trkpt><trkpt lat="46.0099409" lon="11.7338418"><ele>1010.0</ele><time>2026-04-04T13:18:02.207Z</time></trkpt><trkpt lat="46.0099218" lon="11.7337476"><ele>1009.6666666666666</ele><time>2026-04-04T13:18:03.207Z</time></trkpt><trkpt lat="46.0098936" lon="11.7335852"><ele>1009.3333333333333</ele><time>2026-04-04T13:18:05.207Z</time></trkpt><trkpt lat="46.0098612" lon="11.733421"><ele>1009.0</ele><time>2026-04-04T13:18:07.207Z</time></trkpt><trkpt lat="46.0098138" lon="11.7332407"><ele>1008.9999999999999</ele><time>2026-04-04T13:18:09.207Z</time></trkpt><trkpt lat="46.009798" lon="11.7331275"><ele>1009.0</ele><time>2026-04-04T13:18:11.207Z</time></trkpt><trkpt lat="46.0097712" lon="11.7330086"><ele>1009.0</ele><time>2026-04-04T13:18:13.207Z</time></trkpt><trkpt lat="46.0097268" lon="11.7328947"><ele>1009.0</ele><time>2026-04-04T13:18:15.207Z</time></trkpt><trkpt lat="46.0096652" lon="11.7328506"><ele>1008.9999999999999</ele><time>2026-04-04T13:18:17.207Z</time></trkpt><trkpt lat="46.0095913" lon="11.7329151"><ele>1009.0</ele><time>2026-04-04T13:18:19.207Z</time></trkpt><trkpt lat="46.0095229" lon="11.7330046"><ele>1009.0</ele><time>2026-04-04T13:18:21.207Z</time></trkpt><trkpt lat="46.0094434" lon="11.7330773"><ele>1009.0000000000001</ele><time>2026-04-04T13:18:23.207Z</time></trkpt><trkpt lat="46.009341" lon="11.7331185"><ele>1009.0000000000001</ele><time>2026-04-04T13:18:25.206Z</time></trkpt><trkpt lat="46.0092078" lon="11.7331107"><ele>1009.0</ele><time>2026-04-04T13:18:27.206Z</time></trkpt><trkpt lat="46.0091516" lon="11.7330694"><ele>1009.0</ele><time>2026-04-04T13:18:28.207Z</time></trkpt><trkpt lat="46.0090734" lon="11.7329266"><ele>1005.6</ele><time>2026-04-04T13:18:29.207Z</time></trkpt><trkpt lat="46.0090138" lon="11.7328115"><ele>1002.2</ele><time>2026-04-04T13:18:30.206Z</time></trkpt><trkpt lat="46.0089606" lon="11.7326819"><ele>998.8000000000001</ele><time>2026-04-04T13:18:31.207Z</time></trkpt><trkpt lat="46.0089145" lon="11.7325537"><ele>995.4000000000001</ele><time>2026-04-04T13:18:32.207Z</time></trkpt><trkpt lat="46.0088805" lon="11.7324519"><ele>992.0</ele><time>2026-04-04T13:18:33.207Z</time></trkpt><trkpt lat="46.0088368" lon="11.7322858"><ele>992.0</ele><time>2026-04-04T13:18:35.207Z</time></trkpt><trkpt lat="46.0088235" lon="11.7321112"><ele>992.0</ele><time>2026-04-04T13:18:37.207Z</time></trkpt><trkpt lat="46.0088202" lon="11.7319385"><ele>992.0</ele><time>2026-04-04T13:18:39.207Z</time></trkpt><trkpt lat="46.0088271" lon="11.7318413"><ele>992.0</ele><time>2026-04-04T13:18:40.207Z</time></trkpt><trkpt lat="46.0088196" lon="11.7316694"><ele>992.0</ele><time>2026-04-04T13:18:42.207Z</time></trkpt><trkpt lat="46.0088093" lon="11.7315169"><ele>994.1666666666667</ele><time>2026-04-04T13:18:44.207Z</time></trkpt><trkpt lat="46.0088062" lon="11.7314243"><ele>996.3333333333334</ele><time>2026-04-04T13:18:45.207Z</time></trkpt><trkpt lat="46.008808" lon="11.7313313"><ele>998.5</ele><time>2026-04-04T13:18:46.207Z</time></trkpt><trkpt lat="46.0087958" lon="11.7311674"><ele>1000.6666666666667</ele><time>2026-04-04T13:18:48.207Z</time></trkpt><trkpt lat="46.0087919" lon="11.7310324"><ele>1002.8333333333334</ele><time>2026-04-04T13:18:50.207Z</time></trkpt><trkpt lat="46.0087765" lon="11.7309193"><ele>1005.0</ele><time>2026-04-04T13:18:52.207Z</time></trkpt><trkpt lat="46.0087105" lon="11.7308337"><ele>1008.3333333333334</ele><time>2026-04-04T13:18:54.207Z</time></trkpt><trkpt lat="46.00867" lon="11.7307245"><ele>1011.6666666666667</ele><time>2026-04-04T13:18:57.207Z</time></trkpt><trkpt lat="46.0086432" lon="11.7306182"><ele>1015.0</ele><time>2026-04-04T13:19:02.207Z</time></trkpt><trkpt lat="46.008621" lon="11.7305317"><ele>1018.3333333333334</ele><time>2026-04-04T13:19:06.207Z</time></trkpt><trkpt lat="46.0086075" lon="11.7304183"><ele>1021.6666666666667</ele><time>2026-04-04T13:19:09.207Z</time></trkpt><trkpt lat="46.0085894" lon="11.7303003"><ele>1025.0</ele><time>2026-04-04T13:19:13.207Z</time></trkpt><trkpt lat="46.0085445" lon="11.7302008"><ele>1024.9999999999998</ele><time>2026-04-04T13:19:17.206Z</time></trkpt><trkpt lat="46.0085231" lon="11.7300968"><ele>1025.0</ele><time>2026-04-04T13:19:22.207Z</time></trkpt><trkpt lat="46.0084902" lon="11.730183"><ele>1025.0</ele><time>2026-04-04T13:20:08.207Z</time></trkpt><trkpt lat="46.008404" lon="11.7302233"><ele>1025.0</ele><time>2026-04-04T13:20:11.207Z</time></trkpt><trkpt lat="46.0083392" lon="11.7302517"><ele>1025.0</ele><time>2026-04-04T13:20:13.207Z</time></trkpt><trkpt lat="46.0082685" lon="11.7302703"><ele>1024.9999999999998</ele><time>2026-04-04T13:20:15.206Z</time></trkpt><trkpt lat="46.0081937" lon="11.7302818"><ele>1025.0</ele><time>2026-04-04T13:20:17.207Z</time></trkpt><trkpt lat="46.0081079" lon="11.7302698"><ele>1028.8333333333335</ele><time>2026-04-04T13:20:19.207Z</time></trkpt><trkpt lat="46.0080417" lon="11.7302663"><ele>1032.6666666666667</ele><time>2026-04-04T13:20:21.207Z</time></trkpt><trkpt lat="46.0079628" lon="11.7302741"><ele>1036.5</ele><time>2026-04-04T13:20:24.207Z</time></trkpt><trkpt lat="46.0078786" lon="11.7302988"><ele>1040.3333333333333</ele><time>2026-04-04T13:20:27.206Z</time></trkpt><trkpt lat="46.0078118" lon="11.7303238"><ele>1044.1666666666665</ele><time>2026-04-04T13:20:29.207Z</time></trkpt><trkpt lat="46.0077143" lon="11.7303672"><ele>1048.0</ele><time>2026-04-04T13:20:32.207Z</time></trkpt><trkpt lat="46.0076297" lon="11.7304128"><ele>1048.0</ele><time>2026-04-04T13:20:34.207Z</time></trkpt><trkpt lat="46.0075849" lon="11.7304773"><ele>1048.0</ele><time>2026-04-04T13:20:36.207Z</time></trkpt><trkpt lat="46.0075222" lon="11.7305177"><ele>1048.0</ele><time>2026-04-04T13:20:39.207Z</time></trkpt><trkpt lat="46.007467" lon="11.7305772"><ele>1048.0</ele><time>2026-04-04T13:20:42.207Z</time></trkpt><trkpt lat="46.0074115" lon="11.7306256"><ele>1048.0</ele><time>2026-04-04T13:20:44.207Z</time></trkpt><trkpt lat="46.0073398" lon="11.7306351"><ele>1048.0</ele><time>2026-04-04T13:20:47.207Z</time></trkpt><trkpt lat="46.0072643" lon="11.7306794"><ele>1048.0</ele><time>2026-04-04T13:20:50.207Z</time></trkpt><trkpt lat="46.007199" lon="11.7307138"><ele>1053.3333333333333</ele><time>2026-04-04T13:20:52.207Z</time></trkpt><trkpt lat="46.007108" lon="11.7307457"><ele>1058.6666666666665</ele><time>2026-04-04T13:20:54.207Z</time></trkpt><trkpt lat="46.0070344" lon="11.730774"><ele>1064.0</ele><time>2026-04-04T13:20:56.207Z</time></trkpt><trkpt lat="46.0069563" lon="11.7307893"><ele>1069.3333333333333</ele><time>2026-04-04T13:20:58.207Z</time></trkpt><trkpt lat="46.0068854" lon="11.7308178"><ele>1074.6666666666667</ele><time>2026-04-04T13:21:00.207Z</time></trkpt><trkpt lat="46.0067831" lon="11.730825"><ele>1080.0</ele><time>2026-04-04T13:21:02.207Z</time></trkpt><trkpt lat="46.0066666" lon="11.7308172"><ele>1085.6</ele><time>2026-04-04T13:21:04.207Z</time></trkpt><trkpt lat="46.0065619" lon="11.7307925"><ele>1091.2</ele><time>2026-04-04T13:21:06.207Z</time></trkpt><trkpt lat="46.0064437" lon="11.7307898"><ele>1096.8</ele><time>2026-04-04T13:21:08.207Z</time></trkpt><trkpt lat="46.0063732" lon="11.7307869"><ele>1102.4</ele><time>2026-04-04T13:21:09.206Z</time></trkpt><trkpt lat="46.0063003" lon="11.7307938"><ele>1108.0</ele><time>2026-04-04T13:21:10.207Z</time></trkpt><trkpt lat="46.006179" lon="11.7307965"><ele>1108.0</ele><time>2026-04-04T13:21:12.206Z</time></trkpt><trkpt lat="46.0060634" lon="11.7308077"><ele>1108.0</ele><time>2026-04-04T13:21:14.206Z</time></trkpt><trkpt lat="46.005957" lon="11.7307991"><ele>1108.0</ele><time>2026-04-04T13:21:16.207Z</time></trkpt><trkpt lat="46.0058546" lon="11.7308734"><ele>1108.0</ele><time>2026-04-04T13:21:18.207Z</time></trkpt><trkpt lat="46.0057595" lon="11.7308841"><ele>1108.0</ele><time>2026-04-04T13:21:20.207Z</time></trkpt><trkpt lat="46.0056847" lon="11.7309815"><ele>1111.1666666666665</ele><time>2026-04-04T13:21:22.207Z</time></trkpt><trkpt lat="46.0056529" lon="11.7310711"><ele>1114.3333333333333</ele><time>2026-04-04T13:21:23.207Z</time></trkpt><trkpt lat="46.0055955" lon="11.7311917"><ele>1117.5</ele><time>2026-04-04T13:21:25.207Z</time></trkpt><trkpt lat="46.0055695" lon="11.7312796"><ele>1120.6666666666667</ele><time>2026-04-04T13:21:26.206Z</time></trkpt><trkpt lat="46.0055255" lon="11.7314664"><ele>1123.8333333333335</ele><time>2026-04-04T13:21:28.207Z</time></trkpt><trkpt lat="46.0055024" lon="11.7315516"><ele>1127.0</ele><time>2026-04-04T13:21:29.207Z</time></trkpt><trkpt lat="46.0054422" lon="11.7317046"><ele>1127.0</ele><time>2026-04-04T13:21:31.207Z</time></trkpt><trkpt lat="46.0053393" lon="11.7317895"><ele>1127.0</ele><time>2026-04-04T13:21:33.207Z</time></trkpt><trkpt lat="46.0052176" lon="11.7318364"><ele>1127.0</ele><time>2026-04-04T13:21:35.207Z</time></trkpt><trkpt lat="46.0050952" lon="11.7318855"><ele>1127.0</ele><time>2026-04-04T13:21:37.207Z</time></trkpt><trkpt lat="46.0049754" lon="11.7319617"><ele>1128.6</ele><time>2026-04-04T13:21:39.207Z</time></trkpt><trkpt lat="46.0048638" lon="11.7320387"><ele>1130.2</ele><time>2026-04-04T13:21:41.206Z</time></trkpt><trkpt lat="46.00477" lon="11.7321167"><ele>1131.8</ele><time>2026-04-04T13:21:43.206Z</time></trkpt><trkpt lat="46.0046995" lon="11.7322027"><ele>1133.4</ele><time>2026-04-04T13:21:45.207Z</time></trkpt><trkpt lat="46.0046504" lon="11.7323355"><ele>1135.0</ele><time>2026-04-04T13:21:47.207Z</time></trkpt><trkpt lat="46.0046121" lon="11.7324672"><ele>1135.0</ele><time>2026-04-04T13:21:49.207Z</time></trkpt><trkpt lat="46.0045485" lon="11.7325778"><ele>1135.0</ele><time>2026-04-04T13:21:51.206Z</time></trkpt><trkpt lat="46.0044675" lon="11.7326665"><ele>1135.0</ele><time>2026-04-04T13:21:53.207Z</time></trkpt><trkpt lat="46.0043913" lon="11.7327436"><ele>1135.0</ele><time>2026-04-04T13:21:55.207Z</time></trkpt><trkpt lat="46.0042961" lon="11.7328084"><ele>1135.0</ele><time>2026-04-04T13:21:57.207Z</time></trkpt><trkpt lat="46.0041962" lon="11.7328615"><ele>1133.4</ele><time>2026-04-04T13:21:59.206Z</time></trkpt><trkpt lat="46.0040988" lon="11.7329197"><ele>1131.8</ele><time>2026-04-04T13:22:01.206Z</time></trkpt><trkpt lat="46.0039956" lon="11.7329761"><ele>1130.2</ele><time>2026-04-04T13:22:03.207Z</time></trkpt><trkpt lat="46.0038966" lon="11.7330327"><ele>1128.6</ele><time>2026-04-04T13:22:05.207Z</time></trkpt><trkpt lat="46.0037906" lon="11.7330864"><ele>1127.0</ele><time>2026-04-04T13:22:07.206Z</time></trkpt><trkpt lat="46.0036856" lon="11.7331371"><ele>1127.0</ele><time>2026-04-04T13:22:09.207Z</time></trkpt><trkpt lat="46.0035788" lon="11.7331535"><ele>1127.0</ele><time>2026-04-04T13:22:11.206Z</time></trkpt><trkpt lat="46.0034668" lon="11.7331333"><ele>1127.0</ele><time>2026-04-04T13:22:13.207Z</time></trkpt><trkpt lat="46.0033522" lon="11.7331073"><ele>1127.0</ele><time>2026-04-04T13:22:15.207Z</time></trkpt><trkpt lat="46.0032481" lon="11.7330711"><ele>1127.0</ele><time>2026-04-04T13:22:17.207Z</time></trkpt><trkpt lat="46.0031889" lon="11.7330256"><ele>1126.8333333333335</ele><time>2026-04-04T13:22:20.207Z</time></trkpt><trkpt lat="46.0031643" lon="11.7329291"><ele>1126.6666666666667</ele><time>2026-04-04T13:22:56.207Z</time></trkpt><trkpt lat="46.003197" lon="11.732832"><ele>1126.5</ele><time>2026-04-04T13:22:59.207Z</time></trkpt><trkpt lat="46.0032136" lon="11.7327207"><ele>1126.3333333333333</ele><time>2026-04-04T13:23:02.207Z</time></trkpt><trkpt lat="46.0032254" lon="11.7326048"><ele>1126.1666666666665</ele><time>2026-04-04T13:23:05.207Z</time></trkpt><trkpt lat="46.0031878" lon="11.7326842"><ele>1126.0</ele><time>2026-04-04T13:25:05.207Z</time></trkpt><trkpt lat="46.0031876" lon="11.7327952"><ele>1124.8333333333333</ele><time>2026-04-04T13:25:08.206Z</time></trkpt><trkpt lat="46.0031821" lon="11.7328876"><ele>1123.6666666666665</ele><time>2026-04-04T13:25:10.206Z</time></trkpt><trkpt lat="46.0031717" lon="11.7329911"><ele>1122.5</ele><time>2026-04-04T13:25:12.207Z</time></trkpt><trkpt lat="46.0031528" lon="11.7331038"><ele>1121.3333333333333</ele><time>2026-04-04T13:25:14.206Z</time></trkpt><trkpt lat="46.0031107" lon="11.733237"><ele>1120.1666666666667</ele><time>2026-04-04T13:25:16.207Z</time></trkpt><trkpt lat="46.0030892" lon="11.733378"><ele>1119.0</ele><time>2026-04-04T13:25:18.206Z</time></trkpt><trkpt lat="46.0030641" lon="11.7335261"><ele>1117.0</ele><time>2026-04-04T13:25:20.207Z</time></trkpt><trkpt lat="46.0030382" lon="11.7336551"><ele>1115.0</ele><time>2026-04-04T13:25:22.207Z</time></trkpt><trkpt lat="46.003021" lon="11.7337843"><ele>1113.0</ele><time>2026-04-04T13:25:24.207Z</time></trkpt><trkpt lat="46.0030123" lon="11.7339234"><ele>1111.0</ele><time>2026-04-04T13:25:26.207Z</time></trkpt><trkpt lat="46.0029941" lon="11.7340696"><ele>1109.0</ele><time>2026-04-04T13:25:28.207Z</time></trkpt><trkpt lat="46.0029793" lon="11.7342304"><ele>1106.75</ele><time>2026-04-04T13:25:30.206Z</time></trkpt><trkpt lat="46.0029532" lon="11.7344027"><ele>1104.5</ele><time>2026-04-04T13:25:32.207Z</time></trkpt><trkpt lat="46.0029241" lon="11.734561"><ele>1102.25</ele><time>2026-04-04T13:25:34.207Z</time></trkpt><trkpt lat="46.0028972" lon="11.7347304"><ele>1100.0</ele><time>2026-04-04T13:25:36.207Z</time></trkpt><trkpt lat="46.0028594" lon="11.7348942"><ele>1100.0</ele><time>2026-04-04T13:25:38.207Z</time></trkpt><trkpt lat="46.0028331" lon="11.7349854"><ele>1100.0</ele><time>2026-04-04T13:25:39.207Z</time></trkpt><trkpt lat="46.0028293" lon="11.7350785"><ele>1100.0</ele><time>2026-04-04T13:25:40.207Z</time></trkpt><trkpt lat="46.0028477" lon="11.7351953"><ele>1100.0</ele><time>2026-04-04T13:25:42.207Z</time></trkpt><trkpt lat="46.0028676" lon="11.7353144"><ele>1100.0</ele><time>2026-04-04T13:25:44.207Z</time></trkpt><trkpt lat="46.0028731" lon="11.7354214"><ele>1100.0</ele><time>2026-04-04T13:25:46.207Z</time></trkpt><trkpt lat="46.0028957" lon="11.7355302"><ele>1098.8333333333335</ele><time>2026-04-04T13:25:50.206Z</time></trkpt><trkpt lat="46.0029452" lon="11.7356113"><ele>1097.6666666666667</ele><time>2026-04-04T13:25:52.207Z</time></trkpt><trkpt lat="46.0030147" lon="11.7357407"><ele>1096.5</ele><time>2026-04-04T13:25:54.207Z</time></trkpt><trkpt lat="46.0030772" lon="11.7357999"><ele>1095.3333333333333</ele><time>2026-04-04T13:25:56.207Z</time></trkpt><trkpt lat="46.0031441" lon="11.735841"><ele>1094.1666666666665</ele><time>2026-04-04T13:25:58.207Z</time></trkpt><trkpt lat="46.0032125" lon="11.7358892"><ele>1093.0</ele><time>2026-04-04T13:26:00.206Z</time></trkpt><trkpt lat="46.0032835" lon="11.735942"><ele>1093.8</ele><time>2026-04-04T13:26:02.207Z</time></trkpt><trkpt lat="46.0033541" lon="11.7360011"><ele>1094.6</ele><time>2026-04-04T13:26:04.206Z</time></trkpt><trkpt lat="46.003449" lon="11.7360734"><ele>1095.4</ele><time>2026-04-04T13:26:07.207Z</time></trkpt><trkpt lat="46.0035375" lon="11.7361226"><ele>1096.2</ele><time>2026-04-04T13:26:09.207Z</time></trkpt><trkpt lat="46.0036146" lon="11.7361558"><ele>1097.0</ele><time>2026-04-04T13:26:10.207Z</time></trkpt><trkpt lat="46.0037439" lon="11.7362427"><ele>1094.5</ele><time>2026-04-04T13:26:13.207Z</time></trkpt><trkpt lat="46.0038401" lon="11.736283"><ele>1092.0</ele><time>2026-04-04T13:26:15.207Z</time></trkpt><trkpt lat="46.0039299" lon="11.7363043"><ele>1089.5</ele><time>2026-04-04T13:26:17.207Z</time></trkpt><trkpt lat="46.0040043" lon="11.7362919"><ele>1087.0</ele><time>2026-04-04T13:26:19.207Z</time></trkpt><trkpt lat="46.0040785" lon="11.7362437"><ele>1084.5</ele><time>2026-04-04T13:26:21.207Z</time></trkpt><trkpt lat="46.0041467" lon="11.7361731"><ele>1082.0</ele><time>2026-04-04T13:26:23.206Z</time></trkpt><trkpt lat="46.0041948" lon="11.7360911"><ele>1082.2</ele><time>2026-04-04T13:26:25.207Z</time></trkpt><trkpt lat="46.0042488" lon="11.7359893"><ele>1082.4</ele><time>2026-04-04T13:26:27.207Z</time></trkpt><trkpt lat="46.0043341" lon="11.7358713"><ele>1082.6</ele><time>2026-04-04T13:26:29.207Z</time></trkpt><trkpt lat="46.0044021" lon="11.7357562"><ele>1082.8</ele><time>2026-04-04T13:26:30.207Z</time></trkpt><trkpt lat="46.004462" lon="11.7356874"><ele>1083.0</ele><time>2026-04-04T13:26:32.207Z</time></trkpt><trkpt lat="46.0045219" lon="11.7355789"><ele>1083.0</ele><time>2026-04-04T13:26:34.207Z</time></trkpt><trkpt lat="46.0045884" lon="11.7355029"><ele>1083.0</ele><time>2026-04-04T13:26:36.207Z</time></trkpt><trkpt lat="46.0046641" lon="11.7354362"><ele>1083.0</ele><time>2026-04-04T13:26:38.206Z</time></trkpt><trkpt lat="46.0047824" lon="11.7352906"><ele>1083.0</ele><time>2026-04-04T13:26:40.207Z</time></trkpt><trkpt lat="46.0048538" lon="11.7352153"><ele>1083.0</ele><time>2026-04-04T13:26:42.207Z</time></trkpt><trkpt lat="46.0049009" lon="11.7351481"><ele>1085.2</ele><time>2026-04-04T13:26:43.207Z</time></trkpt><trkpt lat="46.0049709" lon="11.7350229"><ele>1087.4</ele><time>2026-04-04T13:26:45.206Z</time></trkpt><trkpt lat="46.0050083" lon="11.7348949"><ele>1089.6000000000001</ele><time>2026-04-04T13:26:48.207Z</time></trkpt><trkpt lat="46.0050278" lon="11.7347785"><ele>1091.8</ele><time>2026-04-04T13:26:50.207Z</time></trkpt><trkpt lat="46.0050425" lon="11.7346613"><ele>1094.0</ele><time>2026-04-04T13:26:52.206Z</time></trkpt><trkpt lat="46.0050999" lon="11.7345439"><ele>1089.4</ele><time>2026-04-04T13:26:55.207Z</time></trkpt><trkpt lat="46.0052267" lon="11.7344164"><ele>1084.8000000000002</ele><time>2026-04-04T13:26:57.207Z</time></trkpt><trkpt lat="46.0052848" lon="11.7343703"><ele>1080.1999999999998</ele><time>2026-04-04T13:26:58.206Z</time></trkpt><trkpt lat="46.0053478" lon="11.734317"><ele>1075.6</ele><time>2026-04-04T13:26:59.206Z</time></trkpt><trkpt lat="46.0054225" lon="11.7342591"><ele>1071.0</ele><time>2026-04-04T13:27:00.207Z</time></trkpt><trkpt lat="46.0055018" lon="11.7342208"><ele>1071.0</ele><time>2026-04-04T13:27:02.207Z</time></trkpt><trkpt lat="46.0056309" lon="11.7341548"><ele>1071.0</ele><time>2026-04-04T13:27:04.207Z</time></trkpt><trkpt lat="46.0057343" lon="11.7340915"><ele>1071.0</ele><time>2026-04-04T13:27:06.206Z</time></trkpt><trkpt lat="46.0058067" lon="11.7340367"><ele>1071.0</ele><time>2026-04-04T13:27:08.207Z</time></trkpt><trkpt lat="46.0058847" lon="11.7339438"><ele>1071.0</ele><time>2026-04-04T13:27:10.206Z</time></trkpt><trkpt lat="46.0059418" lon="11.7338522"><ele>1066.5</ele><time>2026-04-04T13:27:12.207Z</time></trkpt><trkpt lat="46.0060028" lon="11.7337243"><ele>1062.0</ele><time>2026-04-04T13:27:14.207Z</time></trkpt><trkpt lat="46.0061189" lon="11.733573"><ele>1057.5</ele><time>2026-04-04T13:27:17.206Z</time></trkpt><trkpt lat="46.0061677" lon="11.7334388"><ele>1053.0</ele><time>2026-04-04T13:27:19.206Z</time></trkpt><trkpt lat="46.0062553" lon="11.7333569"><ele>1053.0</ele><time>2026-04-04T13:27:21.207Z</time></trkpt><trkpt lat="46.0063419" lon="11.7333069"><ele>1053.0</ele><time>2026-04-04T13:27:22.207Z</time></trkpt><trkpt lat="46.006417" lon="11.7332607"><ele>1053.0</ele><time>2026-04-04T13:27:23.207Z</time></trkpt><trkpt lat="46.0064748" lon="11.7332222"><ele>1053.0</ele><time>2026-04-04T13:27:24.207Z</time></trkpt><trkpt lat="46.0065766" lon="11.7331731"><ele>1053.0</ele><time>2026-04-04T13:27:25.207Z</time></trkpt><trkpt lat="46.0066382" lon="11.733146"><ele>1053.0</ele><time>2026-04-04T13:27:26.207Z</time></trkpt><trkpt lat="46.006705" lon="11.7331186"><ele>1049.6666666666667</ele><time>2026-04-04T13:27:27.207Z</time></trkpt><trkpt lat="46.0067763" lon="11.733022"><ele>1046.3333333333333</ele><time>2026-04-04T13:27:30.207Z</time></trkpt><trkpt lat="46.006839" lon="11.732971"><ele>1043.0</ele><time>2026-04-04T13:27:32.207Z</time></trkpt><trkpt lat="46.0068836" lon="11.7329025"><ele>1039.6666666666665</ele><time>2026-04-04T13:27:34.207Z</time></trkpt><trkpt lat="46.0069315" lon="11.7328234"><ele>1036.3333333333333</ele><time>2026-04-04T13:27:37.207Z</time></trkpt><trkpt lat="46.0069607" lon="11.73273"><ele>1033.0</ele><time>2026-04-04T13:27:41.207Z</time></trkpt><trkpt lat="46.0070075" lon="11.7326503"><ele>1033.0</ele><time>2026-04-04T13:27:43.207Z</time></trkpt><trkpt lat="46.0070843" lon="11.7325892"><ele>1033.0</ele><time>2026-04-04T13:27:45.207Z</time></trkpt><trkpt lat="46.0071777" lon="11.7325505"><ele>1033.0</ele><time>2026-04-04T13:27:48.207Z</time></trkpt><trkpt lat="46.0072759" lon="11.7325354"><ele>1033.0</ele><time>2026-04-04T13:27:50.207Z</time></trkpt><trkpt lat="46.0073632" lon="11.7325706"><ele>1033.0</ele><time>2026-04-04T13:27:52.206Z</time></trkpt><trkpt lat="46.0074266" lon="11.7326105"><ele>1033.0</ele><time>2026-04-04T13:27:54.207Z</time></trkpt><trkpt lat="46.0074879" lon="11.7326349"><ele>1025.6</ele><time>2026-04-04T13:27:56.207Z</time></trkpt><trkpt lat="46.0075739" lon="11.7326526"><ele>1018.1999999999999</ele><time>2026-04-04T13:27:58.207Z</time></trkpt><trkpt lat="46.0076712" lon="11.7326431"><ele>1010.8</ele><time>2026-04-04T13:28:00.207Z</time></trkpt><trkpt lat="46.0077618" lon="11.7325842"><ele>1003.4</ele><time>2026-04-04T13:28:03.207Z</time></trkpt><trkpt lat="46.0078595" lon="11.7325359"><ele>996.0</ele><time>2026-04-04T13:28:05.207Z</time></trkpt><trkpt lat="46.007949" lon="11.7324833"><ele>996.0</ele><time>2026-04-04T13:28:07.207Z</time></trkpt><trkpt lat="46.0080163" lon="11.7324987"><ele>996.0</ele><time>2026-04-04T13:28:09.207Z</time></trkpt><trkpt lat="46.0080524" lon="11.7326168"><ele>996.0</ele><time>2026-04-04T13:28:12.207Z</time></trkpt><trkpt lat="46.0080644" lon="11.7327073"><ele>996.0</ele><time>2026-04-04T13:28:14.207Z</time></trkpt><trkpt lat="46.0080797" lon="11.7327992"><ele>996.0</ele><time>2026-04-04T13:28:16.207Z</time></trkpt><trkpt lat="46.0080863" lon="11.7329256"><ele>996.0</ele><time>2026-04-04T13:28:18.206Z</time></trkpt><trkpt lat="46.0080824" lon="11.7330459"><ele>991.8</ele><time>2026-04-04T13:28:20.207Z</time></trkpt><trkpt lat="46.0080724" lon="11.7331442"><ele>987.5999999999999</ele><time>2026-04-04T13:28:22.207Z</time></trkpt><trkpt lat="46.008023" lon="11.7333058"><ele>983.4</ele><time>2026-04-04T13:28:24.207Z</time></trkpt><trkpt lat="46.0080192" lon="11.7334066"><ele>979.2</ele><time>2026-04-04T13:28:25.207Z</time></trkpt><trkpt lat="46.0079957" lon="11.7335743"><ele>975.0</ele><time>2026-04-04T13:28:27.207Z</time></trkpt><trkpt lat="46.0080113" lon="11.7337189"><ele>972.6666666666666</ele><time>2026-04-04T13:28:30.207Z</time></trkpt><trkpt lat="46.0080221" lon="11.7338587"><ele>970.3333333333333</ele><time>2026-04-04T13:28:32.207Z</time></trkpt><trkpt lat="46.0080302" lon="11.7339874"><ele>968.0</ele><time>2026-04-04T13:28:34.207Z</time></trkpt><trkpt lat="46.0080371" lon="11.7340784"><ele>965.6666666666666</ele><time>2026-04-04T13:28:36.207Z</time></trkpt><trkpt lat="46.0080442" lon="11.7341718"><ele>963.3333333333333</ele><time>2026-04-04T13:28:37.207Z</time></trkpt><trkpt lat="46.0080435" lon="11.7342926"><ele>961.0</ele><time>2026-04-04T13:28:39.207Z</time></trkpt><trkpt lat="46.0080344" lon="11.7344061"><ele>958.4</ele><time>2026-04-04T13:28:41.207Z</time></trkpt><trkpt lat="46.0080019" lon="11.7345456"><ele>955.8</ele><time>2026-04-04T13:28:43.207Z</time></trkpt><trkpt lat="46.0079855" lon="11.7346393"><ele>953.1999999999999</ele><time>2026-04-04T13:28:44.207Z</time></trkpt><trkpt lat="46.0079363" lon="11.7347871"><ele>950.5999999999999</ele><time>2026-04-04T13:28:46.207Z</time></trkpt><trkpt lat="46.0079051" lon="11.734927"><ele>948.0</ele><time>2026-04-04T13:28:48.207Z</time></trkpt><trkpt lat="46.0078859" lon="11.7350728"><ele>943.2</ele><time>2026-04-04T13:28:50.207Z</time></trkpt><trkpt lat="46.0078649" lon="11.7352229"><ele>938.4</ele><time>2026-04-04T13:28:52.207Z</time></trkpt><trkpt lat="46.0078539" lon="11.7353869"><ele>933.6000000000001</ele><time>2026-04-04T13:28:54.207Z</time></trkpt><trkpt lat="46.0078699" lon="11.7355301"><ele>928.8000000000001</ele><time>2026-04-04T13:28:56.207Z</time></trkpt><trkpt lat="46.0078332" lon="11.7356376"><ele>924.0</ele><time>2026-04-04T13:29:21.207Z</time></trkpt><trkpt lat="46.0078179" lon="11.7357402"><ele>924.0</ele><time>2026-04-04T13:29:22.207Z</time></trkpt><trkpt lat="46.0077986" lon="11.7358314"><ele>924.0</ele><time>2026-04-04T13:29:23.206Z</time></trkpt><trkpt lat="46.0077788" lon="11.7359241"><ele>924.0</ele><time>2026-04-04T13:29:24.207Z</time></trkpt><trkpt lat="46.0077648" lon="11.7360249"><ele>924.0</ele><time>2026-04-04T13:29:25.207Z</time></trkpt><trkpt lat="46.0077424" lon="11.736118"><ele>924.0</ele><time>2026-04-04T13:29:26.207Z</time></trkpt><trkpt lat="46.0077185" lon="11.736212"><ele>924.0</ele><time>2026-04-04T13:29:27.207Z</time></trkpt><trkpt lat="46.0076682" lon="11.7363597"><ele>922.1666666666666</ele><time>2026-04-04T13:29:29.207Z</time></trkpt><trkpt lat="46.007641" lon="11.7364465"><ele>920.3333333333333</ele><time>2026-04-04T13:29:30.207Z</time></trkpt><trkpt lat="46.0075829" lon="11.7365889"><ele>918.5</ele><time>2026-04-04T13:29:32.207Z</time></trkpt><trkpt lat="46.0075444" lon="11.7366607"><ele>916.6666666666666</ele><time>2026-04-04T13:29:33.207Z</time></trkpt><trkpt lat="46.0074914" lon="11.7367632"><ele>914.8333333333333</ele><time>2026-04-04T13:29:35.207Z</time></trkpt><trkpt lat="46.0074399" lon="11.736828"><ele>913.0</ele><time>2026-04-04T13:29:37.206Z</time></trkpt><trkpt lat="46.0073644" lon="11.7369738"><ele>913.0</ele><time>2026-04-04T13:29:39.207Z</time></trkpt><trkpt lat="46.007304" lon="11.7371233"><ele>913.0</ele><time>2026-04-04T13:29:41.207Z</time></trkpt><trkpt lat="46.0072439" lon="11.7372719"><ele>913.0</ele><time>2026-04-04T13:29:43.207Z</time></trkpt><trkpt lat="46.0071994" lon="11.7374142"><ele>913.0</ele><time>2026-04-04T13:29:45.207Z</time></trkpt><trkpt lat="46.0071607" lon="11.7375545"><ele>913.0</ele><time>2026-04-04T13:29:47.206Z</time></trkpt><trkpt lat="46.0071154" lon="11.7376983"><ele>913.0</ele><time>2026-04-04T13:29:49.207Z</time></trkpt><trkpt lat="46.0070456" lon="11.737816"><ele>913.0</ele><time>2026-04-04T13:29:51.207Z</time></trkpt><trkpt lat="46.0070103" lon="11.7378954"><ele>913.0</ele><time>2026-04-04T13:29:52.206Z</time></trkpt><trkpt lat="46.0069187" lon="11.7380101"><ele>913.0</ele><time>2026-04-04T13:29:54.206Z</time></trkpt><trkpt lat="46.0068512" lon="11.7381489"><ele>907.8333333333333</ele><time>2026-04-04T13:29:56.207Z</time></trkpt><trkpt lat="46.0068224" lon="11.7382388"><ele>902.6666666666666</ele><time>2026-04-04T13:29:57.207Z</time></trkpt><trkpt lat="46.0067586" lon="11.7383777"><ele>897.5</ele><time>2026-04-04T13:29:59.207Z</time></trkpt><trkpt lat="46.0067199" lon="11.7384594"><ele>892.3333333333333</ele><time>2026-04-04T13:30:00.206Z</time></trkpt><trkpt lat="46.0066813" lon="11.7385387"><ele>887.1666666666666</ele><time>2026-04-04T13:30:01.207Z</time></trkpt><trkpt lat="46.0066193" lon="11.7386657"><ele>882.0</ele><time>2026-04-04T13:30:03.206Z</time></trkpt><trkpt lat="46.0065499" lon="11.7388001"><ele>882.0</ele><time>2026-04-04T13:30:05.206Z</time></trkpt><trkpt lat="46.0065072" lon="11.7388784"><ele>882.0</ele><time>2026-04-04T13:30:06.207Z</time></trkpt><trkpt lat="46.0064237" lon="11.739"><ele>882.0</ele><time>2026-04-04T13:30:08.207Z</time></trkpt><trkpt lat="46.0063597" lon="11.7391598"><ele>882.0</ele><time>2026-04-04T13:30:10.207Z</time></trkpt><trkpt lat="46.0063014" lon="11.7392913"><ele>882.0</ele><time>2026-04-04T13:30:12.207Z</time></trkpt><trkpt lat="46.0062438" lon="11.7394162"><ele>876.0</ele><time>2026-04-04T13:30:14.207Z</time></trkpt><trkpt lat="46.0062133" lon="11.7395745"><ele>870.0</ele><time>2026-04-04T13:30:16.207Z</time></trkpt><trkpt lat="46.0061619" lon="11.7397164"><ele>864.0</ele><time>2026-04-04T13:30:18.207Z</time></trkpt><trkpt lat="46.006108" lon="11.7398572"><ele>858.0</ele><time>2026-04-04T13:30:20.206Z</time></trkpt><trkpt lat="46.0060767" lon="11.7399675"><ele>852.0</ele><time>2026-04-04T13:30:22.207Z</time></trkpt><trkpt lat="46.0060492" lon="11.7400806"><ele>852.0</ele><time>2026-04-04T13:30:24.207Z</time></trkpt><trkpt lat="46.0059956" lon="11.740172"><ele>852.0</ele><time>2026-04-04T13:30:26.207Z</time></trkpt><trkpt lat="46.0059008" lon="11.7402809"><ele>852.0</ele><time>2026-04-04T13:30:28.206Z</time></trkpt><trkpt lat="46.0058167" lon="11.7403776"><ele>852.0</ele><time>2026-04-04T13:30:30.207Z</time></trkpt><trkpt lat="46.0057574" lon="11.7404557"><ele>852.0</ele><time>2026-04-04T13:30:32.207Z</time></trkpt><trkpt lat="46.0056922" lon="11.7405787"><ele>851.3333333333334</ele><time>2026-04-04T13:30:34.207Z</time></trkpt><trkpt lat="46.005635" lon="11.7406448"><ele>850.6666666666667</ele><time>2026-04-04T13:30:35.207Z</time></trkpt><trkpt lat="46.0055876" lon="11.7407226"><ele>850.0</ele><time>2026-04-04T13:30:36.206Z</time></trkpt><trkpt lat="46.005518" lon="11.7408165"><ele>849.3333333333334</ele><time>2026-04-04T13:30:38.207Z</time></trkpt><trkpt lat="46.0054748" lon="11.7409251"><ele>848.6666666666667</ele><time>2026-04-04T13:30:40.207Z</time></trkpt><trkpt lat="46.0054428" lon="11.7410083"><ele>848.0</ele><time>2026-04-04T13:30:41.207Z</time></trkpt><trkpt lat="46.0054081" lon="11.7410871"><ele>843.0</ele><time>2026-04-04T13:30:42.206Z</time></trkpt><trkpt lat="46.0053282" lon="11.7411835"><ele>838.0</ele><time>2026-04-04T13:30:44.206Z</time></trkpt><trkpt lat="46.0052944" lon="11.7413024"><ele>833.0</ele><time>2026-04-04T13:30:46.207Z</time></trkpt><trkpt lat="46.0052468" lon="11.7414671"><ele>828.0</ele><time>2026-04-04T13:30:48.207Z</time></trkpt><trkpt lat="46.0052131" lon="11.7415977"><ele>823.0</ele><time>2026-04-04T13:30:50.206Z</time></trkpt><trkpt lat="46.0051232" lon="11.7417293"><ele>822.9999999999999</ele><time>2026-04-04T13:30:52.206Z</time></trkpt><trkpt lat="46.0050715" lon="11.7418328"><ele>823.0</ele><time>2026-04-04T13:30:53.207Z</time></trkpt><trkpt lat="46.005027" lon="11.7419011"><ele>823.0</ele><time>2026-04-04T13:30:54.207Z</time></trkpt><trkpt lat="46.0049819" lon="11.7419864"><ele>823.0</ele><time>2026-04-04T13:30:55.207Z</time></trkpt><trkpt lat="46.0049289" lon="11.7420814"><ele>822.9999999999999</ele><time>2026-04-04T13:30:56.207Z</time></trkpt><trkpt lat="46.0048952" lon="11.7421605"><ele>823.0</ele><time>2026-04-04T13:30:57.207Z</time></trkpt><trkpt lat="46.0048278" lon="11.7423103"><ele>825.0</ele><time>2026-04-04T13:30:59.207Z</time></trkpt><trkpt lat="46.0047991" lon="11.7424241"><ele>827.0</ele><time>2026-04-04T13:31:01.207Z</time></trkpt><trkpt lat="46.0047747" lon="11.7425457"><ele>829.0</ele><time>2026-04-04T13:31:03.207Z</time></trkpt><trkpt lat="46.0047469" lon="11.7426328"><ele>831.0</ele><time>2026-04-04T13:31:04.207Z</time></trkpt><trkpt lat="46.0046992" lon="11.7427822"><ele>833.0</ele><time>2026-04-04T13:31:06.207Z</time></trkpt><trkpt lat="46.0046736" lon="11.7429184"><ele>825.0</ele><time>2026-04-04T13:31:08.207Z</time></trkpt><trkpt lat="46.0046756" lon="11.743082"><ele>817.0</ele><time>2026-04-04T13:31:10.207Z</time></trkpt><trkpt lat="46.0046705" lon="11.7432244"><ele>809.0</ele><time>2026-04-04T13:31:12.207Z</time></trkpt><trkpt lat="46.0046557" lon="11.7434127"><ele>801.0</ele><time>2026-04-04T13:31:14.207Z</time></trkpt><trkpt lat="46.0046337" lon="11.743514"><ele>793.0</ele><time>2026-04-04T13:31:15.207Z</time></trkpt><trkpt lat="46.004622" lon="11.7436102"><ele>785.8333333333333</ele><time>2026-04-04T13:31:16.206Z</time></trkpt><trkpt lat="46.0045344" lon="11.7437177"><ele>778.6666666666666</ele><time>2026-04-04T13:31:17.207Z</time></trkpt><trkpt lat="46.0044598" lon="11.7437935"><ele>771.5</ele><time>2026-04-04T13:31:19.207Z</time></trkpt><trkpt lat="46.0044074" lon="11.7438452"><ele>764.3333333333333</ele><time>2026-04-04T13:31:21.207Z</time></trkpt><trkpt lat="46.0043466" lon="11.7438699"><ele>757.1666666666666</ele><time>2026-04-04T13:31:25.207Z</time></trkpt><trkpt lat="46.004263" lon="11.7439022"><ele>750.0</ele><time>2026-04-04T13:31:32.207Z</time></trkpt><trkpt lat="46.0041521" lon="11.74391"><ele>745.25</ele><time>2026-04-04T13:31:34.207Z</time></trkpt><trkpt lat="46.0039828" lon="11.7439159"><ele>740.5</ele><time>2026-04-04T13:31:36.206Z</time></trkpt><trkpt lat="46.0038828" lon="11.743897"><ele>735.75</ele><time>2026-04-04T13:31:37.207Z</time></trkpt><trkpt lat="46.0037865" lon="11.7438485"><ele>731.0</ele><time>2026-04-04T13:31:38.207Z</time></trkpt><trkpt lat="46.0036937" lon="11.7438114"><ele>731.0</ele><time>2026-04-04T13:31:39.207Z</time></trkpt><trkpt lat="46.0036021" lon="11.7437718"><ele>731.0</ele><time>2026-04-04T13:31:40.206Z</time></trkpt><trkpt lat="46.0035211" lon="11.7437063"><ele>731.0</ele><time>2026-04-04T13:31:41.207Z</time></trkpt><trkpt lat="46.0034474" lon="11.7436233"><ele>731.0</ele><time>2026-04-04T13:31:42.207Z</time></trkpt><trkpt lat="46.0033742" lon="11.743553"><ele>731.0</ele><time>2026-04-04T13:31:43.207Z</time></trkpt><trkpt lat="46.0033001" lon="11.7434802"><ele>734.1666666666666</ele><time>2026-04-04T13:31:44.207Z</time></trkpt><trkpt lat="46.0032247" lon="11.7434127"><ele>737.3333333333333</ele><time>2026-04-04T13:31:45.206Z</time></trkpt><trkpt lat="46.0031525" lon="11.7433385"><ele>740.5</ele><time>2026-04-04T13:31:46.207Z</time></trkpt><trkpt lat="46.0030689" lon="11.7433025"><ele>743.6666666666666</ele><time>2026-04-04T13:31:47.207Z</time></trkpt><trkpt lat="46.0029997" lon="11.7432812"><ele>746.8333333333334</ele><time>2026-04-04T13:31:48.207Z</time></trkpt><trkpt lat="46.0029218" lon="11.7432909"><ele>750.0</ele><time>2026-04-04T13:31:50.207Z</time></trkpt><trkpt lat="46.0028328" lon="11.743338"><ele>750.0</ele><time>2026-04-04T13:31:52.207Z</time></trkpt><trkpt lat="46.0027605" lon="11.7433252"><ele>750.0</ele><time>2026-04-04T13:31:53.207Z</time></trkpt><trkpt lat="46.0026971" lon="11.7433163"><ele>750.0</ele><time>2026-04-04T13:31:54.207Z</time></trkpt><trkpt lat="46.0026321" lon="11.7433009"><ele>750.0</ele><time>2026-04-04T13:31:55.206Z</time></trkpt><trkpt lat="46.002567" lon="11.7433028"><ele>750.0</ele><time>2026-04-04T13:31:56.207Z</time></trkpt><trkpt lat="46.0024887" lon="11.743311"><ele>750.0</ele><time>2026-04-04T13:31:57.207Z</time></trkpt><trkpt lat="46.0024021" lon="11.7433016"><ele>750.0</ele><time>2026-04-04T13:31:59.207Z</time></trkpt><trkpt lat="46.0023416" lon="11.7432609"><ele>744.2</ele><time>2026-04-04T13:32:00.207Z</time></trkpt><trkpt lat="46.0022328" lon="11.7431803"><ele>738.4</ele><time>2026-04-04T13:32:02.206Z</time></trkpt><trkpt lat="46.0021316" lon="11.7431098"><ele>732.5999999999999</ele><time>2026-04-04T13:32:04.207Z</time></trkpt><trkpt lat="46.0020659" lon="11.743122"><ele>726.8</ele><time>2026-04-04T13:32:05.207Z</time></trkpt><trkpt lat="46.0019626" lon="11.7430811"><ele>721.0</ele><time>2026-04-04T13:32:07.207Z</time></trkpt><trkpt lat="46.001829" lon="11.7430756"><ele>721.0</ele><time>2026-04-04T13:32:09.207Z</time></trkpt><trkpt lat="46.0017166" lon="11.743071"><ele>721.0</ele><time>2026-04-04T13:32:11.207Z</time></trkpt><trkpt lat="46.0015808" lon="11.743077"><ele>721.0</ele><time>2026-04-04T13:32:13.207Z</time></trkpt><trkpt lat="46.0014817" lon="11.7430786"><ele>721.0</ele><time>2026-04-04T13:32:15.207Z</time></trkpt><trkpt lat="46.0014018" lon="11.7430512"><ele>721.0</ele><time>2026-04-04T13:32:17.207Z</time></trkpt><trkpt lat="46.0012953" lon="11.743029"><ele>718.0</ele><time>2026-04-04T13:32:19.207Z</time></trkpt><trkpt lat="46.0012044" lon="11.7430033"><ele>715.0</ele><time>2026-04-04T13:32:21.207Z</time></trkpt><trkpt lat="46.0011" lon="11.742985"><ele>712.0</ele><time>2026-04-04T13:32:23.206Z</time></trkpt><trkpt lat="46.0010109" lon="11.7429687"><ele>709.0</ele><time>2026-04-04T13:32:27.207Z</time></trkpt><trkpt lat="46.000935" lon="11.7429341"><ele>706.0</ele><time>2026-04-04T13:32:29.207Z</time></trkpt><trkpt lat="46.0008304" lon="11.7429127"><ele>707.25</ele><time>2026-04-04T13:32:31.207Z</time></trkpt><trkpt lat="46.0006956" lon="11.7428504"><ele>708.5</ele><time>2026-04-04T13:32:32.207Z</time></trkpt><trkpt lat="46.0005933" lon="11.7427915"><ele>709.75</ele><time>2026-04-04T13:32:34.207Z</time></trkpt><trkpt lat="46.000476" lon="11.7427082"><ele>711.0</ele><time>2026-04-04T13:32:36.207Z</time></trkpt><trkpt lat="46.0003971" lon="11.7426812"><ele>711.0</ele><time>2026-04-04T13:32:37.207Z</time></trkpt><trkpt lat="46.0003332" lon="11.7426818"><ele>711.0</ele><time>2026-04-04T13:32:38.207Z</time></trkpt><trkpt lat="46.0002677" lon="11.7426689"><ele>711.0</ele><time>2026-04-04T13:32:39.207Z</time></trkpt><trkpt lat="46.0001838" lon="11.7426196"><ele>711.0</ele><time>2026-04-04T13:32:41.207Z</time></trkpt><trkpt lat="46.0000816" lon="11.7425918"><ele>711.0</ele><time>2026-04-04T13:32:43.207Z</time></trkpt><trkpt lat="46.0000181" lon="11.7425838"><ele>711.0</ele><time>2026-04-04T13:32:44.206Z</time></trkpt><trkpt lat="45.9999558" lon="11.7425692"><ele>711.0</ele><time>2026-04-04T13:32:45.207Z</time></trkpt><trkpt lat="45.9998373" lon="11.7425724"><ele>711.0</ele><time>2026-04-04T13:32:47.207Z</time></trkpt><trkpt lat="45.9997345" lon="11.7425954"><ele>711.0</ele><time>2026-04-04T13:32:49.207Z</time></trkpt><trkpt lat="45.9996325" lon="11.7425866"><ele>711.0</ele><time>2026-04-04T13:32:51.207Z</time></trkpt><trkpt lat="45.999549" lon="11.7425613"><ele>711.0</ele><time>2026-04-04T13:32:53.207Z</time></trkpt><trkpt lat="45.9994647" lon="11.7425474"><ele>711.0</ele><time>2026-04-04T13:32:54.207Z</time></trkpt><trkpt lat="45.9993661" lon="11.7425284"><ele>711.0</ele><time>2026-04-04T13:32:56.207Z</time></trkpt><trkpt lat="45.9992436" lon="11.7425313"><ele>711.0</ele><time>2026-04-04T13:32:58.206Z</time></trkpt><trkpt lat="45.9991236" lon="11.7425391"><ele>711.0</ele><time>2026-04-04T13:33:00.207Z</time></trkpt><trkpt lat="45.9990107" lon="11.7426335"><ele>710.0</ele><time>2026-04-04T13:33:02.206Z</time></trkpt><trkpt lat="45.9989536" lon="11.7427245"><ele>709.0</ele><time>2026-04-04T13:33:04.207Z</time></trkpt><trkpt lat="45.9989139" lon="11.742818"><ele>708.0</ele><time>2026-04-04T13:33:07.207Z</time></trkpt><trkpt lat="45.9988324" lon="11.7427951"><ele>707.0</ele><time>2026-04-04T13:33:11.207Z</time></trkpt><trkpt lat="45.9987752" lon="11.7427332"><ele>706.0</ele><time>2026-04-04T13:33:13.207Z</time></trkpt><trkpt lat="45.9986974" lon="11.7426681"><ele>705.0</ele><time>2026-04-04T13:33:16.207Z</time></trkpt><trkpt lat="45.9986173" lon="11.7425889"><ele>705.0</ele><time>2026-04-04T13:33:19.207Z</time></trkpt><trkpt lat="45.9985376" lon="11.7424955"><ele>705.0</ele><time>2026-04-04T13:33:21.207Z</time></trkpt><trkpt lat="45.9984511" lon="11.7424182"><ele>705.0</ele><time>2026-04-04T13:33:23.207Z</time></trkpt><trkpt lat="45.9983897" lon="11.7423236"><ele>705.0</ele><time>2026-04-04T13:33:25.207Z</time></trkpt><trkpt lat="45.9983111" lon="11.7421513"><ele>705.0</ele><time>2026-04-04T13:33:27.207Z</time></trkpt><trkpt lat="45.9982896" lon="11.7420608"><ele>705.8</ele><time>2026-04-04T13:33:28.207Z</time></trkpt><trkpt lat="45.9982732" lon="11.7419559"><ele>706.6</ele><time>2026-04-04T13:33:29.207Z</time></trkpt><trkpt lat="45.9982491" lon="11.7418568"><ele>707.4000000000001</ele><time>2026-04-04T13:33:30.207Z</time></trkpt><trkpt lat="45.9982356" lon="11.7416995"><ele>708.2</ele><time>2026-04-04T13:33:32.206Z</time></trkpt><trkpt lat="45.9982128" lon="11.7415836"><ele>709.0</ele><time>2026-04-04T13:33:33.206Z</time></trkpt><trkpt lat="45.9982034" lon="11.7414083"><ele>709.0</ele><time>2026-04-04T13:33:35.207Z</time></trkpt><trkpt lat="45.9981736" lon="11.7413023"><ele>709.0</ele><time>2026-04-04T13:33:36.207Z</time></trkpt><trkpt lat="45.9981529" lon="11.7411327"><ele>709.0</ele><time>2026-04-04T13:33:38.207Z</time></trkpt><trkpt lat="45.998101" lon="11.7410397"><ele>709.0</ele><time>2026-04-04T13:33:39.207Z</time></trkpt><trkpt lat="45.998002" lon="11.741016"><ele>709.0</ele><time>2026-04-04T13:33:41.207Z</time></trkpt><trkpt lat="45.9979339" lon="11.7409835"><ele>713.3333333333334</ele><time>2026-04-04T13:33:43.207Z</time></trkpt><trkpt lat="45.9978674" lon="11.7408983"><ele>717.6666666666667</ele><time>2026-04-04T13:33:45.207Z</time></trkpt><trkpt lat="45.9978027" lon="11.740851"><ele>722.0</ele><time>2026-04-04T13:33:47.207Z</time></trkpt><trkpt lat="45.9977296" lon="11.7408173"><ele>726.3333333333334</ele><time>2026-04-04T13:33:49.207Z</time></trkpt><trkpt lat="45.9976673" lon="11.7407706"><ele>730.6666666666666</ele><time>2026-04-04T13:33:51.207Z</time></trkpt><trkpt lat="45.9975858" lon="11.7407142"><ele>735.0</ele><time>2026-04-04T13:33:53.207Z</time></trkpt><trkpt lat="45.9975304" lon="11.7406619"><ele>731.2</ele><time>2026-04-04T13:33:55.207Z</time></trkpt><trkpt lat="45.997485" lon="11.740597"><ele>727.4</ele><time>2026-04-04T13:33:57.207Z</time></trkpt><trkpt lat="45.9974278" lon="11.7404884"><ele>723.5999999999999</ele><time>2026-04-04T13:33:59.206Z</time></trkpt><trkpt lat="45.9973539" lon="11.7404165"><ele>719.8</ele><time>2026-04-04T13:34:01.207Z</time></trkpt><trkpt lat="45.9972565" lon="11.7403793"><ele>716.0</ele><time>2026-04-04T13:34:03.207Z</time></trkpt><trkpt lat="45.9971345" lon="11.7403283"><ele>716.0</ele><time>2026-04-04T13:34:05.207Z</time></trkpt><trkpt lat="45.9970238" lon="11.7402423"><ele>716.0</ele><time>2026-04-04T13:34:07.207Z</time></trkpt><trkpt lat="45.996966" lon="11.7401749"><ele>716.0</ele><time>2026-04-04T13:34:08.206Z</time></trkpt><trkpt lat="45.9968753" lon="11.740118"><ele>716.0</ele><time>2026-04-04T13:34:10.207Z</time></trkpt><trkpt lat="45.9967901" lon="11.7400362"><ele>716.0</ele><time>2026-04-04T13:34:12.207Z</time></trkpt><trkpt lat="45.9967447" lon="11.7399662"><ele>717.3333333333333</ele><time>2026-04-04T13:34:13.206Z</time></trkpt><trkpt lat="45.9966726" lon="11.7398647"><ele>718.6666666666666</ele><time>2026-04-04T13:34:15.206Z</time></trkpt><trkpt lat="45.9966473" lon="11.7397514"><ele>720.0</ele><time>2026-04-04T13:34:17.207Z</time></trkpt><trkpt lat="45.9966276" lon="11.739664"><ele>721.3333333333334</ele><time>2026-04-04T13:34:18.207Z</time></trkpt><trkpt lat="45.9966371" lon="11.7395254"><ele>722.6666666666667</ele><time>2026-04-04T13:34:20.207Z</time></trkpt><trkpt lat="45.9966382" lon="11.7394304"><ele>724.0</ele><time>2026-04-04T13:34:22.206Z</time></trkpt><trkpt lat="45.9966334" lon="11.7393042"><ele>728.0</ele><time>2026-04-04T13:34:25.207Z</time></trkpt><trkpt lat="45.9966363" lon="11.739166"><ele>732.0</ele><time>2026-04-04T13:34:27.207Z</time></trkpt><trkpt lat="45.996652" lon="11.7390403"><ele>736.0</ele><time>2026-04-04T13:34:29.206Z</time></trkpt><trkpt lat="45.9966526" lon="11.7389247"><ele>740.0</ele><time>2026-04-04T13:34:30.207Z</time></trkpt><trkpt lat="45.9966988" lon="11.738789"><ele>744.0</ele><time>2026-04-04T13:34:32.207Z</time></trkpt><trkpt lat="45.9967401" lon="11.7386553"><ele>760.0</ele><time>2026-04-04T13:34:34.207Z</time></trkpt><trkpt lat="45.9967418" lon="11.7385463"><ele>776.0</ele><time>2026-04-04T13:34:36.207Z</time></trkpt><trkpt lat="45.9967525" lon="11.7384009"><ele>792.0</ele><time>2026-04-04T13:34:38.206Z</time></trkpt><trkpt lat="45.9967406" lon="11.7382501"><ele>808.0</ele><time>2026-04-04T13:34:40.207Z</time></trkpt><trkpt lat="45.9967369" lon="11.7381104"><ele>824.0</ele><time>2026-04-04T13:34:42.207Z</time></trkpt><trkpt lat="45.9967243" lon="11.7379591"><ele>824.0</ele><time>2026-04-04T13:34:44.207Z</time></trkpt><trkpt lat="45.9967403" lon="11.7378187"><ele>824.0</ele><time>2026-04-04T13:34:46.207Z</time></trkpt><trkpt lat="45.9967393" lon="11.7376745"><ele>824.0</ele><time>2026-04-04T13:34:48.207Z</time></trkpt><trkpt lat="45.9967261" lon="11.7375417"><ele>824.0</ele><time>2026-04-04T13:34:50.206Z</time></trkpt><trkpt lat="45.9967268" lon="11.737394"><ele>824.0</ele><time>2026-04-04T13:34:52.207Z</time></trkpt><trkpt lat="45.996707" lon="11.7372724"><ele>828.25</ele><time>2026-04-04T13:34:54.207Z</time></trkpt><trkpt lat="45.9966974" lon="11.737163"><ele>832.5</ele><time>2026-04-04T13:34:55.207Z</time></trkpt><trkpt lat="45.9966807" lon="11.736989"><ele>836.75</ele><time>2026-04-04T13:34:57.207Z</time></trkpt><trkpt lat="45.9966863" lon="11.7367995"><ele>841.0</ele><time>2026-04-04T13:34:59.206Z</time></trkpt><trkpt lat="45.9966032" lon="11.7366542"><ele>833.4999999999999</ele><time>2026-04-04T13:35:01.207Z</time></trkpt><trkpt lat="45.9965661" lon="11.7365643"><ele>826.0</ele><time>2026-04-04T13:35:02.207Z</time></trkpt><trkpt lat="45.9965241" lon="11.7364798"><ele>818.5</ele><time>2026-04-04T13:35:03.207Z</time></trkpt><trkpt lat="45.996498" lon="11.7363824"><ele>811.0</ele><time>2026-04-04T13:35:04.207Z</time></trkpt><trkpt lat="45.9964374" lon="11.7362878"><ele>803.4999999999999</ele><time>2026-04-04T13:35:05.206Z</time></trkpt><trkpt lat="45.9963859" lon="11.7361422"><ele>796.0</ele><time>2026-04-04T13:35:07.207Z</time></trkpt><trkpt lat="45.9963681" lon="11.7360149"><ele>796.0</ele><time>2026-04-04T13:35:09.207Z</time></trkpt><trkpt lat="45.9963534" lon="11.7358967"><ele>796.0</ele><time>2026-04-04T13:35:11.207Z</time></trkpt><trkpt lat="45.9963242" lon="11.7357223"><ele>796.0</ele><time>2026-04-04T13:35:13.207Z</time></trkpt><trkpt lat="45.996358" lon="11.7356246"><ele>796.0</ele><time>2026-04-04T13:35:15.207Z</time></trkpt><trkpt lat="45.9963831" lon="11.7354927"><ele>796.0</ele><time>2026-04-04T13:35:17.207Z</time></trkpt><trkpt lat="45.9963939" lon="11.7353492"><ele>796.1666666666666</ele><time>2026-04-04T13:35:19.207Z</time></trkpt><trkpt lat="45.9964049" lon="11.7352194"><ele>796.3333333333333</ele><time>2026-04-04T13:35:21.207Z</time></trkpt><trkpt lat="45.9964055" lon="11.7351052"><ele>796.5</ele><time>2026-04-04T13:35:23.207Z</time></trkpt><trkpt lat="45.9964412" lon="11.7350153"><ele>796.6666666666667</ele><time>2026-04-04T13:35:25.207Z</time></trkpt><trkpt lat="45.9965061" lon="11.7349523"><ele>796.8333333333334</ele><time>2026-04-04T13:35:27.207Z</time></trkpt><trkpt lat="45.9965778" lon="11.7348881"><ele>797.0</ele><time>2026-04-04T13:35:30.206Z</time></trkpt><trkpt lat="45.9965525" lon="11.7347637"><ele>797.0000000000001</ele><time>2026-04-04T13:35:35.207Z</time></trkpt><trkpt lat="45.9965467" lon="11.7346634"><ele>797.0</ele><time>2026-04-04T13:35:37.207Z</time></trkpt><trkpt lat="45.996562" lon="11.7345341"><ele>797.0</ele><time>2026-04-04T13:35:39.207Z</time></trkpt><trkpt lat="45.9965892" lon="11.7344188"><ele>797.0</ele><time>2026-04-04T13:35:42.207Z</time></trkpt><trkpt lat="45.9966089" lon="11.7343268"><ele>797.0000000000001</ele><time>2026-04-04T13:35:44.207Z</time></trkpt><trkpt lat="45.996664" lon="11.7342206"><ele>797.0</ele><time>2026-04-04T13:35:47.207Z</time></trkpt><trkpt lat="45.9966888" lon="11.7341154"><ele>808.0</ele><time>2026-04-04T13:35:50.207Z</time></trkpt><trkpt lat="45.9966943" lon="11.7340239"><ele>819.0</ele><time>2026-04-04T13:35:52.207Z</time></trkpt><trkpt lat="45.9967053" lon="11.7338695"><ele>830.0</ele><time>2026-04-04T13:35:54.207Z</time></trkpt><trkpt lat="45.996706" lon="11.7337028"><ele>841.0</ele><time>2026-04-04T13:35:56.207Z</time></trkpt><trkpt lat="45.9966946" lon="11.733546"><ele>852.0</ele><time>2026-04-04T13:35:58.207Z</time></trkpt><trkpt lat="45.9966879" lon="11.7333861"><ele>853.1666666666666</ele><time>2026-04-04T13:36:00.206Z</time></trkpt><trkpt lat="45.9967012" lon="11.7332579"><ele>854.3333333333333</ele><time>2026-04-04T13:36:02.207Z</time></trkpt><trkpt lat="45.996728" lon="11.733171"><ele>855.5</ele><time>2026-04-04T13:36:04.207Z</time></trkpt><trkpt lat="45.996765" lon="11.7330744"><ele>856.6666666666666</ele><time>2026-04-04T13:36:06.206Z</time></trkpt><trkpt lat="45.9967956" lon="11.7329633"><ele>857.8333333333333</ele><time>2026-04-04T13:36:08.207Z</time></trkpt><trkpt lat="45.9968308" lon="11.7328518"><ele>859.0</ele><time>2026-04-04T13:36:11.207Z</time></trkpt><trkpt lat="45.9968542" lon="11.7327328"><ele>857.8571428571428</ele><time>2026-04-04T13:36:14.207Z</time></trkpt><trkpt lat="45.9968372" lon="11.732617"><ele>856.7142857142857</ele><time>2026-04-04T13:36:17.206Z</time></trkpt><trkpt lat="45.9968237" lon="11.7325103"><ele>855.5714285714286</ele><time>2026-04-04T13:36:20.207Z</time></trkpt><trkpt lat="45.9968276" lon="11.7324116"><ele>854.4285714285713</ele><time>2026-04-04T13:36:22.206Z</time></trkpt><trkpt lat="45.996842" lon="11.7323136"><ele>853.2857142857143</ele><time>2026-04-04T13:36:24.206Z</time></trkpt><trkpt lat="45.996883" lon="11.7322083"><ele>852.1428571428571</ele><time>2026-04-04T13:36:27.207Z</time></trkpt><trkpt lat="45.9969195" lon="11.7321256"><ele>851.0</ele><time>2026-04-04T13:36:29.207Z</time></trkpt><trkpt lat="45.9969598" lon="11.7320487"><ele>851.0000000000001</ele><time>2026-04-04T13:36:31.206Z</time></trkpt><trkpt lat="45.9970177" lon="11.7319701"><ele>851.0</ele><time>2026-04-04T13:36:33.206Z</time></trkpt><trkpt lat="45.9970148" lon="11.7318642"><ele>851.0</ele><time>2026-04-04T13:36:35.207Z</time></trkpt><trkpt lat="45.9970127" lon="11.7317487"><ele>851.0</ele><time>2026-04-04T13:36:38.206Z</time></trkpt><trkpt lat="45.9970574" lon="11.7315996"><ele>851.0000000000001</ele><time>2026-04-04T13:36:41.207Z</time></trkpt><trkpt lat="45.9970818" lon="11.7315127"><ele>851.0</ele><time>2026-04-04T13:36:42.207Z</time></trkpt><trkpt lat="45.9971039" lon="11.7313679"><ele>849.1666666666667</ele><time>2026-04-04T13:36:44.207Z</time></trkpt><trkpt lat="45.9971088" lon="11.73125"><ele>847.3333333333334</ele><time>2026-04-04T13:36:46.207Z</time></trkpt><trkpt lat="45.9971284" lon="11.7311226"><ele>845.5</ele><time>2026-04-04T13:36:48.207Z</time></trkpt><trkpt lat="45.9971628" lon="11.7310363"><ele>843.6666666666667</ele><time>2026-04-04T13:36:50.207Z</time></trkpt><trkpt lat="45.9970898" lon="11.7310054"><ele>841.8333333333334</ele><time>2026-04-04T13:36:55.207Z</time></trkpt><trkpt lat="45.9970177" lon="11.7309775"><ele>840.0</ele><time>2026-04-04T13:36:57.206Z</time></trkpt><trkpt lat="45.9969451" lon="11.7309076"><ele>840.0</ele><time>2026-04-04T13:36:59.207Z</time></trkpt><trkpt lat="45.9968796" lon="11.7308566"><ele>840.0</ele><time>2026-04-04T13:37:01.207Z</time></trkpt><trkpt lat="45.9968061" lon="11.7308278"><ele>840.0</ele><time>2026-04-04T13:37:03.207Z</time></trkpt><trkpt lat="45.9967372" lon="11.7308256"><ele>840.0</ele><time>2026-04-04T13:37:05.207Z</time></trkpt><trkpt lat="45.9966731" lon="11.7308221"><ele>840.0</ele><time>2026-04-04T13:37:07.207Z</time></trkpt><trkpt lat="45.9966135" lon="11.7307872"><ele>840.0</ele><time>2026-04-04T13:37:09.206Z</time></trkpt><trkpt lat="45.9965488" lon="11.7307086"><ele>840.0</ele><time>2026-04-04T13:37:11.207Z</time></trkpt><trkpt lat="45.9964781" lon="11.7306211"><ele>835.8333333333334</ele><time>2026-04-04T13:37:13.207Z</time></trkpt><trkpt lat="45.9964024" lon="11.7305697"><ele>831.6666666666667</ele><time>2026-04-04T13:37:15.207Z</time></trkpt><trkpt lat="45.9963205" lon="11.7305607"><ele>827.5</ele><time>2026-04-04T13:37:17.207Z</time></trkpt><trkpt lat="45.9962342" lon="11.7305391"><ele>823.3333333333334</ele><time>2026-04-04T13:37:19.207Z</time></trkpt><trkpt lat="45.9961543" lon="11.7305032"><ele>819.1666666666667</ele><time>2026-04-04T13:37:21.207Z</time></trkpt><trkpt lat="45.9960885" lon="11.7304284"><ele>815.0</ele><time>2026-04-04T13:37:23.206Z</time></trkpt><trkpt lat="45.9960299" lon="11.7303167"><ele>816.3333333333334</ele><time>2026-04-04T13:37:25.207Z</time></trkpt><trkpt lat="45.9959773" lon="11.7302187"><ele>817.6666666666667</ele><time>2026-04-04T13:37:27.206Z</time></trkpt><trkpt lat="45.9959217" lon="11.7301276"><ele>819.0</ele><time>2026-04-04T13:37:29.207Z</time></trkpt><trkpt lat="45.9958676" lon="11.7300504"><ele>820.3333333333333</ele><time>2026-04-04T13:37:30.207Z</time></trkpt><trkpt lat="45.9958193" lon="11.7299791"><ele>821.6666666666666</ele><time>2026-04-04T13:37:31.207Z</time></trkpt><trkpt lat="45.9957852" lon="11.7298938"><ele>823.0</ele><time>2026-04-04T13:37:33.207Z</time></trkpt><trkpt lat="45.9957578" lon="11.7298033"><ele>822.9999999999999</ele><time>2026-04-04T13:37:35.207Z</time></trkpt><trkpt lat="45.9957129" lon="11.7297168"><ele>823.0</ele><time>2026-04-04T13:37:39.207Z</time></trkpt><trkpt lat="45.9957114" lon="11.7296162"><ele>823.0</ele><time>2026-04-04T13:37:41.207Z</time></trkpt><trkpt lat="45.9957032" lon="11.7295139"><ele>823.0</ele><time>2026-04-04T13:37:43.207Z</time></trkpt><trkpt lat="45.9956698" lon="11.7293851"><ele>822.9999999999999</ele><time>2026-04-04T13:37:46.207Z</time></trkpt><trkpt lat="45.9956419" lon="11.729297"><ele>823.0</ele><time>2026-04-04T13:37:48.207Z</time></trkpt><trkpt lat="45.9956259" lon="11.7291793"><ele>827.8333333333333</ele><time>2026-04-04T13:37:51.207Z</time></trkpt><trkpt lat="45.9956202" lon="11.7290614"><ele>832.6666666666666</ele><time>2026-04-04T13:37:54.207Z</time></trkpt><trkpt lat="45.9956329" lon="11.7289502"><ele>837.5</ele><time>2026-04-04T13:37:57.207Z</time></trkpt><trkpt lat="45.9956426" lon="11.7288459"><ele>842.3333333333333</ele><time>2026-04-04T13:37:59.207Z</time></trkpt><trkpt lat="45.9956194" lon="11.7287536"><ele>847.1666666666666</ele><time>2026-04-04T13:38:03.207Z</time></trkpt><trkpt lat="45.9955719" lon="11.7286817"><ele>852.0</ele><time>2026-04-04T13:38:13.206Z</time></trkpt><trkpt lat="45.9955365" lon="11.7285659"><ele>856.5</ele><time>2026-04-04T13:38:17.207Z</time></trkpt><trkpt lat="45.9955032" lon="11.7284811"><ele>861.0</ele><time>2026-04-04T13:38:20.206Z</time></trkpt><trkpt lat="45.9954668" lon="11.7283726"><ele>865.5</ele><time>2026-04-04T13:38:24.207Z</time></trkpt><trkpt lat="45.9954017" lon="11.7282932"><ele>870.0</ele><time>2026-04-04T13:38:26.207Z</time></trkpt><trkpt lat="45.9953376" lon="11.7282111"><ele>874.5</ele><time>2026-04-04T13:38:28.207Z</time></trkpt><trkpt lat="45.995284" lon="11.7280758"><ele>879.0</ele><time>2026-04-04T13:38:30.207Z</time></trkpt><trkpt lat="45.9952506" lon="11.7279271"><ele>879.0</ele><time>2026-04-04T13:38:32.207Z</time></trkpt><trkpt lat="45.9952179" lon="11.7277874"><ele>879.0</ele><time>2026-04-04T13:38:34.207Z</time></trkpt><trkpt lat="45.9951882" lon="11.7276446"><ele>879.0</ele><time>2026-04-04T13:38:36.207Z</time></trkpt><trkpt lat="45.9951438" lon="11.7275521"><ele>879.0</ele><time>2026-04-04T13:38:38.207Z</time></trkpt><trkpt lat="45.9950766" lon="11.7275273"><ele>879.0</ele><time>2026-04-04T13:38:40.207Z</time></trkpt><trkpt lat="45.9950132" lon="11.7275049"><ele>879.0</ele><time>2026-04-04T13:38:43.207Z</time></trkpt><trkpt lat="45.9949637" lon="11.7273824"><ele>880.0</ele><time>2026-04-04T13:38:46.207Z</time></trkpt><trkpt lat="45.9949264" lon="11.727266"><ele>881.0</ele><time>2026-04-04T13:38:48.207Z</time></trkpt><trkpt lat="45.9948853" lon="11.7271621"><ele>882.0</ele><time>2026-04-04T13:38:50.207Z</time></trkpt><trkpt lat="45.9948435" lon="11.7270542"><ele>883.0</ele><time>2026-04-04T13:38:52.207Z</time></trkpt><trkpt lat="45.9947975" lon="11.7269635"><ele>884.0</ele><time>2026-04-04T13:38:54.207Z</time></trkpt><trkpt lat="45.9947319" lon="11.7269173"><ele>885.0</ele><time>2026-04-04T13:38:56.207Z</time></trkpt><trkpt lat="45.9946544" lon="11.726863"><ele>885.0</ele><time>2026-04-04T13:38:59.206Z</time></trkpt><trkpt lat="45.9945951" lon="11.7267811"><ele>885.0</ele><time>2026-04-04T13:39:02.207Z</time></trkpt><trkpt lat="45.9945382" lon="11.7267115"><ele>885.0</ele><time>2026-04-04T13:39:05.207Z</time></trkpt><trkpt lat="45.9944941" lon="11.726614"><ele>885.0</ele><time>2026-04-04T13:39:08.206Z</time></trkpt><trkpt lat="45.9944899" lon="11.7264742"><ele>885.0</ele><time>2026-04-04T13:39:11.207Z</time></trkpt><trkpt lat="45.9945022" lon="11.7263622"><ele>885.0</ele><time>2026-04-04T13:39:14.207Z</time></trkpt><trkpt lat="45.9945276" lon="11.7262668"><ele>885.0</ele><time>2026-04-04T13:39:16.207Z</time></trkpt><trkpt lat="45.9945167" lon="11.7261434"><ele>885.0</ele><time>2026-04-04T13:39:19.207Z</time></trkpt><trkpt lat="45.9944679" lon="11.7260654"><ele>885.0</ele><time>2026-04-04T13:39:21.207Z</time></trkpt><trkpt lat="45.9944232" lon="11.7259927"><ele>885.0</ele><time>2026-04-04T13:39:23.206Z</time></trkpt><trkpt lat="45.9943985" lon="11.7258981"><ele>885.0</ele><time>2026-04-04T13:39:26.207Z</time></trkpt><trkpt lat="45.9944248" lon="11.7257851"><ele>885.0</ele><time>2026-04-04T13:39:29.207Z</time></trkpt><trkpt lat="45.994438" lon="11.7256853"><ele>888.6666666666666</ele><time>2026-04-04T13:39:31.207Z</time></trkpt><trkpt lat="45.9944513" lon="11.7255942"><ele>892.3333333333333</ele><time>2026-04-04T13:39:33.207Z</time></trkpt><trkpt lat="45.9944746" lon="11.7254858"><ele>896.0</ele><time>2026-04-04T13:39:36.207Z</time></trkpt><trkpt lat="45.9944345" lon="11.7254102"><ele>899.6666666666666</ele><time>2026-04-04T13:39:41.207Z</time></trkpt><trkpt lat="45.9944223" lon="11.725303"><ele>903.3333333333333</ele><time>2026-04-04T13:40:22.207Z</time></trkpt><trkpt lat="45.9944637" lon="11.7253727"><ele>907.0</ele><time>2026-04-04T13:41:20.206Z</time></trkpt><trkpt lat="45.994447" lon="11.7252218"><ele>906.9999999999999</ele><time>2026-04-04T13:44:08.207Z</time></trkpt><trkpt lat="45.9944699" lon="11.7253101"><ele>907.0</ele><time>2026-04-04T13:45:21.207Z</time></trkpt><trkpt lat="45.9944393" lon="11.7254061"><ele>907.0</ele><time>2026-04-04T13:48:05.207Z</time></trkpt><trkpt lat="45.9943861" lon="11.7253434"><ele>907.0</ele><time>2026-04-04T13:52:24.206Z</time></trkpt><trkpt lat="45.9944331" lon="11.7252564"><ele>906.9999999999999</ele><time>2026-04-04T13:52:33.207Z</time></trkpt><trkpt lat="45.9944761" lon="11.7251377"><ele>907.0</ele><time>2026-04-04T13:52:37.207Z</time></trkpt><trkpt lat="45.9944989" lon="11.7250104"><ele>909.8</ele><time>2026-04-04T13:52:39.207Z</time></trkpt><trkpt lat="45.9945091" lon="11.7248684"><ele>912.6</ele><time>2026-04-04T13:52:41.207Z</time></trkpt><trkpt lat="45.9945017" lon="11.7247676"><ele>915.3999999999999</ele><time>2026-04-04T13:52:42.207Z</time></trkpt><trkpt lat="45.9944828" lon="11.7246347"><ele>918.1999999999999</ele><time>2026-04-04T13:52:44.206Z</time></trkpt><trkpt lat="45.9944723" lon="11.7244416"><ele>921.0</ele><time>2026-04-04T13:52:46.207Z</time></trkpt><trkpt lat="45.994465" lon="11.7243342"><ele>923.8</ele><time>2026-04-04T13:52:47.207Z</time></trkpt><trkpt lat="45.9944847" lon="11.7241689"><ele>926.5999999999999</ele><time>2026-04-04T13:52:49.207Z</time></trkpt><trkpt lat="45.9944411" lon="11.7240534"><ele>929.4</ele><time>2026-04-04T13:52:52.207Z</time></trkpt><trkpt lat="45.9944399" lon="11.7239352"><ele>932.2</ele><time>2026-04-04T13:52:53.207Z</time></trkpt><trkpt lat="45.9944314" lon="11.7238395"><ele>935.0</ele><time>2026-04-04T13:52:54.206Z</time></trkpt><trkpt lat="45.9943839" lon="11.7237226"><ele>935.0</ele><time>2026-04-04T13:52:56.207Z</time></trkpt><trkpt lat="45.9943157" lon="11.7235995"><ele>935.0</ele><time>2026-04-04T13:52:58.207Z</time></trkpt><trkpt lat="45.9942372" lon="11.7234564"><ele>935.0</ele><time>2026-04-04T13:53:00.207Z</time></trkpt><trkpt lat="45.9941524" lon="11.7233613"><ele>935.0</ele><time>2026-04-04T13:53:02.207Z</time></trkpt><trkpt lat="45.9940671" lon="11.7232481"><ele>933.4</ele><time>2026-04-04T13:53:04.207Z</time></trkpt><trkpt lat="45.9940182" lon="11.723144"><ele>931.8</ele><time>2026-04-04T13:53:06.207Z</time></trkpt><trkpt lat="45.9939438" lon="11.7230533"><ele>930.2</ele><time>2026-04-04T13:53:08.206Z</time></trkpt><trkpt lat="45.9939188" lon="11.7229125"><ele>928.6</ele><time>2026-04-04T13:53:10.207Z</time></trkpt><trkpt lat="45.9938765" lon="11.7227941"><ele>927.0</ele><time>2026-04-04T13:53:12.207Z</time></trkpt><trkpt lat="45.993795" lon="11.7226758"><ele>927.0</ele><time>2026-04-04T13:53:14.207Z</time></trkpt><trkpt lat="45.9937179" lon="11.7225836"><ele>927.0</ele><time>2026-04-04T13:53:16.206Z</time></trkpt><trkpt lat="45.9936169" lon="11.7224747"><ele>927.0</ele><time>2026-04-04T13:53:18.207Z</time></trkpt><trkpt lat="45.9935678" lon="11.7224142"><ele>927.0</ele><time>2026-04-04T13:53:19.207Z</time></trkpt><trkpt lat="45.9934699" lon="11.7223126"><ele>927.0</ele><time>2026-04-04T13:53:21.207Z</time></trkpt><trkpt lat="45.9934209" lon="11.7222485"><ele>927.0</ele><time>2026-04-04T13:53:22.207Z</time></trkpt><trkpt lat="45.9933756" lon="11.7221575"><ele>927.0</ele><time>2026-04-04T13:53:23.207Z</time></trkpt><trkpt lat="45.9933449" lon="11.7220752"><ele>927.0</ele><time>2026-04-04T13:53:24.207Z</time></trkpt><trkpt lat="45.9932826" lon="11.7219473"><ele>927.0</ele><time>2026-04-04T13:53:26.207Z</time></trkpt><trkpt lat="45.9932387" lon="11.7218649"><ele>927.0</ele><time>2026-04-04T13:53:27.207Z</time></trkpt><trkpt lat="45.9931782" lon="11.7217217"><ele>927.0</ele><time>2026-04-04T13:53:29.206Z</time></trkpt><trkpt lat="45.9931607" lon="11.7216297"><ele>927.2</ele><time>2026-04-04T13:53:30.206Z</time></trkpt><trkpt lat="45.9931476" lon="11.7214849"><ele>927.4000000000001</ele><time>2026-04-04T13:53:32.207Z</time></trkpt><trkpt lat="45.9931721" lon="11.7213519"><ele>927.5999999999999</ele><time>2026-04-04T13:53:34.207Z</time></trkpt><trkpt lat="45.9931162" lon="11.7212534"><ele>927.8</ele><time>2026-04-04T13:53:36.207Z</time></trkpt><trkpt lat="45.9930877" lon="11.721169"><ele>928.0</ele><time>2026-04-04T13:53:38.207Z</time></trkpt><trkpt lat="45.993033" lon="11.7210499"><ele>935.4</ele><time>2026-04-04T13:53:40.207Z</time></trkpt><trkpt lat="45.9929303" lon="11.7209666"><ele>942.8</ele><time>2026-04-04T13:53:42.207Z</time></trkpt><trkpt lat="45.9928678" lon="11.7209128"><ele>950.2</ele><time>2026-04-04T13:53:43.207Z</time></trkpt><trkpt lat="45.9927827" lon="11.7208334"><ele>957.6</ele><time>2026-04-04T13:53:45.207Z</time></trkpt><trkpt lat="45.9927231" lon="11.7207991"><ele>965.0</ele><time>2026-04-04T13:53:46.206Z</time></trkpt><trkpt lat="45.9926622" lon="11.7206742"><ele>965.0</ele><time>2026-04-04T13:53:48.207Z</time></trkpt><trkpt lat="45.9926022" lon="11.7205487"><ele>965.0</ele><time>2026-04-04T13:53:50.207Z</time></trkpt><trkpt lat="45.9925392" lon="11.7204287"><ele>965.0</ele><time>2026-04-04T13:53:52.207Z</time></trkpt><trkpt lat="45.9924926" lon="11.7203016"><ele>965.0</ele><time>2026-04-04T13:53:54.207Z</time></trkpt><trkpt lat="45.9924477" lon="11.7201926"><ele>965.0</ele><time>2026-04-04T13:53:56.207Z</time></trkpt><trkpt lat="45.9924086" lon="11.720077"><ele>962.6</ele><time>2026-04-04T13:53:58.207Z</time></trkpt><trkpt lat="45.9923525" lon="11.7199166"><ele>960.2</ele><time>2026-04-04T13:54:00.207Z</time></trkpt><trkpt lat="45.9923141" lon="11.7197953"><ele>957.8</ele><time>2026-04-04T13:54:02.207Z</time></trkpt><trkpt lat="45.9922715" lon="11.7196544"><ele>955.4</ele><time>2026-04-04T13:54:04.206Z</time></trkpt><trkpt lat="45.9922556" lon="11.7195355"><ele>953.0</ele><time>2026-04-04T13:54:07.206Z</time></trkpt><trkpt lat="45.9922195" lon="11.7194176"><ele>959.0</ele><time>2026-04-04T13:54:09.206Z</time></trkpt><trkpt lat="45.992174" lon="11.7193278"><ele>965.0</ele><time>2026-04-04T13:54:11.207Z</time></trkpt><trkpt lat="45.9921107" lon="11.7192105"><ele>971.0</ele><time>2026-04-04T13:54:13.206Z</time></trkpt><trkpt lat="45.9920429" lon="11.7191111"><ele>977.0</ele><time>2026-04-04T13:54:15.207Z</time></trkpt><trkpt lat="45.9919812" lon="11.7189595"><ele>983.0</ele><time>2026-04-04T13:54:17.207Z</time></trkpt><trkpt lat="45.9919688" lon="11.7188113"><ele>983.0000000000001</ele><time>2026-04-04T13:54:19.207Z</time></trkpt><trkpt lat="45.9919422" lon="11.7187021"><ele>983.0</ele><time>2026-04-04T13:54:21.207Z</time></trkpt><trkpt lat="45.9919017" lon="11.7185792"><ele>983.0</ele><time>2026-04-04T13:54:23.207Z</time></trkpt><trkpt lat="45.9918416" lon="11.7184618"><ele>983.0</ele><time>2026-04-04T13:54:25.207Z</time></trkpt><trkpt lat="45.9917996" lon="11.7183775"><ele>983.0000000000001</ele><time>2026-04-04T13:54:27.207Z</time></trkpt><trkpt lat="45.9917588" lon="11.7182493"><ele>983.0</ele><time>2026-04-04T13:54:29.207Z</time></trkpt><trkpt lat="45.9916919" lon="11.7181437"><ele>983.8333333333334</ele><time>2026-04-04T13:54:31.207Z</time></trkpt><trkpt lat="45.9916618" lon="11.718044"><ele>984.6666666666667</ele><time>2026-04-04T13:54:33.206Z</time></trkpt><trkpt lat="45.9916495" lon="11.7179369"><ele>985.5</ele><time>2026-04-04T13:54:35.207Z</time></trkpt><trkpt lat="45.9916265" lon="11.7178398"><ele>986.3333333333333</ele><time>2026-04-04T13:54:37.207Z</time></trkpt><trkpt lat="45.9915722" lon="11.7177367"><ele>987.1666666666666</ele><time>2026-04-04T13:54:40.207Z</time></trkpt><trkpt lat="45.9915334" lon="11.7176621"><ele>988.0</ele><time>2026-04-04T13:54:43.207Z</time></trkpt><trkpt lat="45.9914732" lon="11.7175898"><ele>987.9999999999999</ele><time>2026-04-04T13:54:46.207Z</time></trkpt><trkpt lat="45.9914234" lon="11.7175105"><ele>988.0</ele><time>2026-04-04T13:54:49.207Z</time></trkpt><trkpt lat="45.9913639" lon="11.717442"><ele>988.0</ele><time>2026-04-04T13:54:52.206Z</time></trkpt><trkpt lat="45.9913173" lon="11.7173626"><ele>988.0</ele><time>2026-04-04T13:54:55.207Z</time></trkpt><trkpt lat="45.9912687" lon="11.7172681"><ele>987.9999999999999</ele><time>2026-04-04T13:54:58.207Z</time></trkpt><trkpt lat="45.9912164" lon="11.7171725"><ele>988.0</ele><time>2026-04-04T13:55:01.207Z</time></trkpt><trkpt lat="45.991162" lon="11.7170995"><ele>988.0</ele><time>2026-04-04T13:55:03.207Z</time></trkpt><trkpt lat="45.9910963" lon="11.7169916"><ele>988.0</ele><time>2026-04-04T13:55:06.207Z</time></trkpt><trkpt lat="45.9910284" lon="11.7168549"><ele>988.0</ele><time>2026-04-04T13:55:08.207Z</time></trkpt><trkpt lat="45.9909761" lon="11.7167305"><ele>988.0</ele><time>2026-04-04T13:55:09.206Z</time></trkpt><trkpt lat="45.9909459" lon="11.716616"><ele>988.0</ele><time>2026-04-04T13:55:11.207Z</time></trkpt><trkpt lat="45.9909236" lon="11.7164733"><ele>988.1666666666666</ele><time>2026-04-04T13:55:14.207Z</time></trkpt><trkpt lat="45.9908932" lon="11.7163698"><ele>988.3333333333333</ele><time>2026-04-04T13:55:16.207Z</time></trkpt><trkpt lat="45.9908631" lon="11.7162782"><ele>988.5</ele><time>2026-04-04T13:55:18.207Z</time></trkpt><trkpt lat="45.990822" lon="11.7161835"><ele>988.6666666666667</ele><time>2026-04-04T13:55:20.207Z</time></trkpt><trkpt lat="45.9907797" lon="11.7161148"><ele>988.8333333333334</ele><time>2026-04-04T13:55:22.206Z</time></trkpt><trkpt lat="45.9906988" lon="11.7160475"><ele>989.0</ele><time>2026-04-04T13:55:25.207Z</time></trkpt><trkpt lat="45.9906317" lon="11.7159543"><ele>992.6666666666667</ele><time>2026-04-04T13:55:28.207Z</time></trkpt><trkpt lat="45.9905945" lon="11.7158799"><ele>996.3333333333334</ele><time>2026-04-04T13:55:30.207Z</time></trkpt><trkpt lat="45.9905693" lon="11.7157902"><ele>1000.0</ele><time>2026-04-04T13:55:32.207Z</time></trkpt><trkpt lat="45.990546" lon="11.7156785"><ele>1003.6666666666667</ele><time>2026-04-04T13:55:34.207Z</time></trkpt><trkpt lat="45.9905369" lon="11.7155652"><ele>1007.3333333333334</ele><time>2026-04-04T13:55:36.207Z</time></trkpt><trkpt lat="45.9905292" lon="11.715445"><ele>1011.0</ele><time>2026-04-04T13:55:38.206Z</time></trkpt><trkpt lat="45.9905241" lon="11.7153287"><ele>1009.4</ele><time>2026-04-04T13:55:40.207Z</time></trkpt><trkpt lat="45.9905298" lon="11.7152007"><ele>1007.8</ele><time>2026-04-04T13:55:43.206Z</time></trkpt><trkpt lat="45.990581" lon="11.7150936"><ele>1006.1999999999999</ele><time>2026-04-04T13:55:45.207Z</time></trkpt><trkpt lat="45.9906903" lon="11.7150687"><ele>1004.5999999999999</ele><time>2026-04-04T13:55:47.207Z</time></trkpt><trkpt lat="45.9907797" lon="11.7149965"><ele>1003.0</ele><time>2026-04-04T13:55:49.207Z</time></trkpt><trkpt lat="45.9908084" lon="11.7149138"><ele>1003.0</ele><time>2026-04-04T13:55:51.207Z</time></trkpt><trkpt lat="45.9908335" lon="11.7148101"><ele>1003.0</ele><time>2026-04-04T13:55:53.207Z</time></trkpt><trkpt lat="45.9909152" lon="11.7147697"><ele>1003.0</ele><time>2026-04-04T13:55:56.207Z</time></trkpt><trkpt lat="45.9909754" lon="11.714741"><ele>1003.0</ele><time>2026-04-04T13:55:59.207Z</time></trkpt><trkpt lat="45.9910588" lon="11.7146936"><ele>1003.0</ele><time>2026-04-04T13:56:09.207Z</time></trkpt><trkpt lat="45.9912016" lon="11.7146721"><ele>1007.8</ele><time>2026-04-04T13:56:11.207Z</time></trkpt><trkpt lat="45.9913195" lon="11.7146778"><ele>1012.5999999999999</ele><time>2026-04-04T13:56:13.207Z</time></trkpt><trkpt lat="45.9914201" lon="11.7146673"><ele>1017.4000000000001</ele><time>2026-04-04T13:56:15.207Z</time></trkpt><trkpt lat="45.9915103" lon="11.7146634"><ele>1022.2</ele><time>2026-04-04T13:56:16.207Z</time></trkpt><trkpt lat="45.9915872" lon="11.7146266"><ele>1027.0</ele><time>2026-04-04T13:56:17.207Z</time></trkpt><trkpt lat="45.9916781" lon="11.7145894"><ele>1025.0</ele><time>2026-04-04T13:56:18.207Z</time></trkpt><trkpt lat="45.9917535" lon="11.7145608"><ele>1023.0</ele><time>2026-04-04T13:56:19.207Z</time></trkpt><trkpt lat="45.9918419" lon="11.7145039"><ele>1021.0</ele><time>2026-04-04T13:56:23.207Z</time></trkpt><trkpt lat="45.9919158" lon="11.7144641"><ele>1019.0</ele><time>2026-04-04T13:56:25.207Z</time></trkpt><trkpt lat="45.991984" lon="11.7144182"><ele>1016.9999999999999</ele><time>2026-04-04T13:56:27.207Z</time></trkpt><trkpt lat="45.9920612" lon="11.7143885"><ele>1015.0</ele><time>2026-04-04T13:56:30.207Z</time></trkpt><trkpt lat="45.9919904" lon="11.7143755"><ele>1015.0</ele><time>2026-04-04T13:56:41.207Z</time></trkpt><trkpt lat="45.9919177" lon="11.714328"><ele>1015.0</ele><time>2026-04-04T13:56:44.207Z</time></trkpt><trkpt lat="45.9918557" lon="11.7142859"><ele>1015.0</ele><time>2026-04-04T13:56:46.207Z</time></trkpt><trkpt lat="45.9917917" lon="11.7142609"><ele>1015.0</ele><time>2026-04-04T13:56:48.207Z</time></trkpt><trkpt lat="45.9917068" lon="11.7142774"><ele>1015.0</ele><time>2026-04-04T13:56:52.207Z</time></trkpt><trkpt lat="45.9916593" lon="11.7141991"><ele>1015.0</ele><time>2026-04-04T13:56:56.207Z</time></trkpt><trkpt lat="45.9915837" lon="11.7141978"><ele>1015.0</ele><time>2026-04-04T13:56:58.207Z</time></trkpt><trkpt lat="45.9914999" lon="11.7142173"><ele>1012.4999999999999</ele><time>2026-04-04T13:57:00.207Z</time></trkpt><trkpt lat="45.9914263" lon="11.7142139"><ele>1010.0</ele><time>2026-04-04T13:57:02.207Z</time></trkpt><trkpt lat="45.991333" lon="11.7142128"><ele>1007.5</ele><time>2026-04-04T13:57:05.207Z</time></trkpt><trkpt lat="45.991269" lon="11.7142358"><ele>1005.0</ele><time>2026-04-04T13:57:07.207Z</time></trkpt><trkpt lat="45.9911902" lon="11.7142684"><ele>1002.4999999999999</ele><time>2026-04-04T13:57:09.207Z</time></trkpt><trkpt lat="45.9911061" lon="11.7142873"><ele>1000.0</ele><time>2026-04-04T13:57:11.207Z</time></trkpt><trkpt lat="45.9910373" lon="11.7142856"><ele>1000.0</ele><time>2026-04-04T13:57:13.207Z</time></trkpt><trkpt lat="45.9908899" lon="11.7142749"><ele>1000.0</ele><time>2026-04-04T13:57:15.207Z</time></trkpt><trkpt lat="45.9908102" lon="11.7142852"><ele>1000.0</ele><time>2026-04-04T13:57:17.207Z</time></trkpt><trkpt lat="45.9907191" lon="11.7142983"><ele>1000.0</ele><time>2026-04-04T13:57:19.207Z</time></trkpt><trkpt lat="45.9906065" lon="11.7142914"><ele>1000.0</ele><time>2026-04-04T13:57:21.207Z</time></trkpt><trkpt lat="45.9905359" lon="11.71428"><ele>1000.4285714285713</ele><time>2026-04-04T13:57:22.207Z</time></trkpt><trkpt lat="45.9904508" lon="11.714288"><ele>1000.8571428571429</ele><time>2026-04-04T13:57:24.206Z</time></trkpt><trkpt lat="45.9904197" lon="11.7143698"><ele>1001.2857142857142</ele><time>2026-04-04T13:57:32.207Z</time></trkpt><trkpt lat="45.9903666" lon="11.7144204"><ele>1001.7142857142857</ele><time>2026-04-04T13:57:40.206Z</time></trkpt><trkpt lat="45.9903005" lon="11.7144168"><ele>1002.1428571428571</ele><time>2026-04-04T13:57:43.207Z</time></trkpt><trkpt lat="45.9902293" lon="11.7143829"><ele>1002.5714285714286</ele><time>2026-04-04T13:57:46.206Z</time></trkpt><trkpt lat="45.9902" lon="11.7142787"><ele>1003.0</ele><time>2026-04-04T13:57:49.207Z</time></trkpt><trkpt lat="45.9901393" lon="11.7142246"><ele>1001.8571428571428</ele><time>2026-04-04T13:57:52.207Z</time></trkpt><trkpt lat="45.9900555" lon="11.7142036"><ele>1000.7142857142856</ele><time>2026-04-04T13:57:56.207Z</time></trkpt><trkpt lat="45.9899891" lon="11.7141653"><ele>999.5714285714286</ele><time>2026-04-04T13:57:59.207Z</time></trkpt><trkpt lat="45.9899211" lon="11.7141676"><ele>998.4285714285713</ele><time>2026-04-04T13:58:02.207Z</time></trkpt><trkpt lat="45.9898565" lon="11.7141568"><ele>997.2857142857142</ele><time>2026-04-04T13:58:05.207Z</time></trkpt><trkpt lat="45.9897775" lon="11.7141756"><ele>996.1428571428571</ele><time>2026-04-04T13:58:08.207Z</time></trkpt><trkpt lat="45.9897085" lon="11.7142071"><ele>995.0</ele><time>2026-04-04T13:58:11.207Z</time></trkpt><trkpt lat="45.9896731" lon="11.7141312"><ele>990.8333333333334</ele><time>2026-04-04T13:59:23.206Z</time></trkpt><trkpt lat="45.98962" lon="11.7140571"><ele>986.6666666666667</ele><time>2026-04-04T13:59:28.207Z</time></trkpt><trkpt lat="45.9895405" lon="11.7140542"><ele>982.5</ele><time>2026-04-04T13:59:31.207Z</time></trkpt><trkpt lat="45.9894434" lon="11.714026"><ele>978.3333333333333</ele><time>2026-04-04T13:59:33.206Z</time></trkpt><trkpt lat="45.9893713" lon="11.7139552"><ele>974.1666666666666</ele><time>2026-04-04T13:59:35.206Z</time></trkpt><trkpt lat="45.9892837" lon="11.7139291"><ele>970.0</ele><time>2026-04-04T13:59:38.207Z</time></trkpt><trkpt lat="45.9892173" lon="11.7139104"><ele>968.7142857142858</ele><time>2026-04-04T13:59:40.206Z</time></trkpt><trkpt lat="45.9891519" lon="11.7138686"><ele>967.4285714285714</ele><time>2026-04-04T13:59:43.207Z</time></trkpt><trkpt lat="45.9891036" lon="11.7137967"><ele>966.1428571428571</ele><time>2026-04-04T13:59:45.207Z</time></trkpt><trkpt lat="45.9890251" lon="11.7137554"><ele>964.8571428571429</ele><time>2026-04-04T13:59:47.207Z</time></trkpt><trkpt lat="45.9889539" lon="11.7137201"><ele>963.5714285714284</ele><time>2026-04-04T13:59:50.206Z</time></trkpt><trkpt lat="45.9888961" lon="11.7136677"><ele>962.2857142857142</ele><time>2026-04-04T13:59:54.207Z</time></trkpt><trkpt lat="45.988872" lon="11.7135774"><ele>961.0</ele><time>2026-04-04T13:59:58.207Z</time></trkpt><trkpt lat="45.9888333" lon="11.7134879"><ele>960.9999999999999</ele><time>2026-04-04T14:00:03.206Z</time></trkpt><trkpt lat="45.9887493" lon="11.7134266"><ele>961.0</ele><time>2026-04-04T14:00:07.206Z</time></trkpt><trkpt lat="45.9886825" lon="11.7134174"><ele>961.0</ele><time>2026-04-04T14:00:09.206Z</time></trkpt><trkpt lat="45.9886178" lon="11.7134601"><ele>961.0</ele><time>2026-04-04T14:00:12.206Z</time></trkpt><trkpt lat="45.9885342" lon="11.7134722"><ele>960.9999999999999</ele><time>2026-04-04T14:00:16.207Z</time></trkpt><trkpt lat="45.9884575" lon="11.7134511"><ele>961.0</ele><time>2026-04-04T14:00:20.207Z</time></trkpt><trkpt lat="45.9883785" lon="11.7134233"><ele>952.9999999999999</ele><time>2026-04-04T14:00:23.207Z</time></trkpt><trkpt lat="45.9882993" lon="11.713431"><ele>945.0</ele><time>2026-04-04T14:00:26.206Z</time></trkpt><trkpt lat="45.9882289" lon="11.7135145"><ele>937.0</ele><time>2026-04-04T14:00:29.207Z</time></trkpt><trkpt lat="45.9881775" lon="11.7135912"><ele>929.0</ele><time>2026-04-04T14:00:31.206Z</time></trkpt><trkpt lat="45.988113" lon="11.7136355"><ele>920.9999999999999</ele><time>2026-04-04T14:00:33.207Z</time></trkpt><trkpt lat="45.9880508" lon="11.7136515"><ele>913.0</ele><time>2026-04-04T14:00:35.207Z</time></trkpt><trkpt lat="45.9879813" lon="11.7136762"><ele>912.9999999999999</ele><time>2026-04-04T14:00:37.207Z</time></trkpt><trkpt lat="45.9879017" lon="11.7136312"><ele>913.0</ele><time>2026-04-04T14:00:39.207Z</time></trkpt><trkpt lat="45.9878433" lon="11.7135727"><ele>913.0</ele><time>2026-04-04T14:00:41.207Z</time></trkpt><trkpt lat="45.9877734" lon="11.7135367"><ele>913.0</ele><time>2026-04-04T14:00:43.207Z</time></trkpt><trkpt lat="45.9876979" lon="11.7135714"><ele>912.9999999999999</ele><time>2026-04-04T14:00:45.207Z</time></trkpt><trkpt lat="45.9876222" lon="11.7136108"><ele>913.0</ele><time>2026-04-04T14:00:49.206Z</time></trkpt><trkpt lat="45.9875297" lon="11.7136271"><ele>909.6666666666666</ele><time>2026-04-04T14:00:52.207Z</time></trkpt><trkpt lat="45.9874405" lon="11.7136119"><ele>906.3333333333333</ele><time>2026-04-04T14:00:55.207Z</time></trkpt><trkpt lat="45.9873753" lon="11.7135823"><ele>903.0</ele><time>2026-04-04T14:00:57.207Z</time></trkpt><trkpt lat="45.9872996" lon="11.7136334"><ele>899.6666666666667</ele><time>2026-04-04T14:00:59.207Z</time></trkpt><trkpt lat="45.987224" lon="11.7136829"><ele>896.3333333333334</ele><time>2026-04-04T14:01:01.207Z</time></trkpt><trkpt lat="45.987145" lon="11.7136428"><ele>893.0</ele><time>2026-04-04T14:01:04.206Z</time></trkpt><trkpt lat="45.9871157" lon="11.7135266"><ele>893.0000000000001</ele><time>2026-04-04T14:01:07.207Z</time></trkpt><trkpt lat="45.9870823" lon="11.7134407"><ele>893.0</ele><time>2026-04-04T14:01:09.206Z</time></trkpt><trkpt lat="45.9869911" lon="11.7133977"><ele>893.0</ele><time>2026-04-04T14:01:12.206Z</time></trkpt><trkpt lat="45.9869102" lon="11.7133905"><ele>893.0</ele><time>2026-04-04T14:01:13.207Z</time></trkpt><trkpt lat="45.9868208" lon="11.7133371"><ele>893.0000000000001</ele><time>2026-04-04T14:01:15.207Z</time></trkpt><trkpt lat="45.9867566" lon="11.7133226"><ele>893.0</ele><time>2026-04-04T14:01:17.207Z</time></trkpt><trkpt lat="45.9866479" lon="11.7133154"><ele>885.6666666666667</ele><time>2026-04-04T14:01:19.207Z</time></trkpt><trkpt lat="45.9865574" lon="11.7133705"><ele>878.3333333333334</ele><time>2026-04-04T14:01:21.206Z</time></trkpt><trkpt lat="45.9864695" lon="11.7133476"><ele>871.0</ele><time>2026-04-04T14:01:23.207Z</time></trkpt><trkpt lat="45.9864068" lon="11.7132839"><ele>863.6666666666667</ele><time>2026-04-04T14:01:25.206Z</time></trkpt><trkpt lat="45.9863489" lon="11.7132183"><ele>856.3333333333334</ele><time>2026-04-04T14:01:27.207Z</time></trkpt><trkpt lat="45.9863057" lon="11.7131378"><ele>849.0</ele><time>2026-04-04T14:01:29.207Z</time></trkpt><trkpt lat="45.9862495" lon="11.7130938"><ele>849.0</ele><time>2026-04-04T14:01:32.207Z</time></trkpt><trkpt lat="45.9861775" lon="11.7130201"><ele>849.0</ele><time>2026-04-04T14:01:36.207Z</time></trkpt><trkpt lat="45.9861021" lon="11.7129727"><ele>849.0</ele><time>2026-04-04T14:01:40.207Z</time></trkpt><trkpt lat="45.9860083" lon="11.7129682"><ele>849.0</ele><time>2026-04-04T14:01:43.207Z</time></trkpt><trkpt lat="45.9859461" lon="11.7129186"><ele>849.0</ele><time>2026-04-04T14:01:46.207Z</time></trkpt><trkpt lat="45.9859009" lon="11.7128527"><ele>849.0</ele><time>2026-04-04T14:01:49.207Z</time></trkpt><trkpt lat="45.9858248" lon="11.7127875"><ele>846.6666666666666</ele><time>2026-04-04T14:01:53.206Z</time></trkpt><trkpt lat="45.98574" lon="11.7127553"><ele>844.3333333333333</ele><time>2026-04-04T14:01:56.207Z</time></trkpt><trkpt lat="45.9856454" lon="11.7127468"><ele>842.0</ele><time>2026-04-04T14:01:59.206Z</time></trkpt><trkpt lat="45.9855602" lon="11.7127211"><ele>839.6666666666666</ele><time>2026-04-04T14:02:01.207Z</time></trkpt><trkpt lat="45.985471" lon="11.712702"><ele>837.3333333333333</ele><time>2026-04-04T14:02:03.206Z</time></trkpt><trkpt lat="45.9853963" lon="11.7127025"><ele>835.0</ele><time>2026-04-04T14:02:05.207Z</time></trkpt><trkpt lat="45.985316" lon="11.7126951"><ele>834.9999999999999</ele><time>2026-04-04T14:02:07.207Z</time></trkpt><trkpt lat="45.9852165" lon="11.7126559"><ele>835.0</ele><time>2026-04-04T14:02:09.207Z</time></trkpt><trkpt lat="45.9851396" lon="11.7126296"><ele>835.0</ele><time>2026-04-04T14:02:11.207Z</time></trkpt><trkpt lat="45.9850664" lon="11.7125873"><ele>835.0</ele><time>2026-04-04T14:02:14.207Z</time></trkpt><trkpt lat="45.9849854" lon="11.7126025"><ele>834.9999999999999</ele><time>2026-04-04T14:02:16.207Z</time></trkpt><trkpt lat="45.9849127" lon="11.7125319"><ele>835.0</ele><time>2026-04-04T14:02:19.207Z</time></trkpt><trkpt lat="45.9848233" lon="11.7125145"><ele>827.3333333333333</ele><time>2026-04-04T14:02:22.207Z</time></trkpt><trkpt lat="45.9847487" lon="11.7124827"><ele>819.6666666666666</ele><time>2026-04-04T14:02:24.207Z</time></trkpt><trkpt lat="45.984666" lon="11.7124173"><ele>812.0</ele><time>2026-04-04T14:02:27.207Z</time></trkpt><trkpt lat="45.9846025" lon="11.7123733"><ele>804.3333333333333</ele><time>2026-04-04T14:02:30.207Z</time></trkpt><trkpt lat="45.9846186" lon="11.7124611"><ele>796.6666666666666</ele><time>2026-04-04T14:02:34.206Z</time></trkpt><trkpt lat="45.9846714" lon="11.7125566"><ele>789.0</ele><time>2026-04-04T14:02:37.206Z</time></trkpt><trkpt lat="45.9847165" lon="11.7126666"><ele>784.1666666666666</ele><time>2026-04-04T14:02:39.206Z</time></trkpt><trkpt lat="45.9847478" lon="11.712748"><ele>779.3333333333334</ele><time>2026-04-04T14:02:42.207Z</time></trkpt><trkpt lat="45.9847441" lon="11.7128897"><ele>774.5</ele><time>2026-04-04T14:02:45.206Z</time></trkpt><trkpt lat="45.9847614" lon="11.7130038"><ele>769.6666666666667</ele><time>2026-04-04T14:02:47.207Z</time></trkpt><trkpt lat="45.9848041" lon="11.7131006"><ele>764.8333333333334</ele><time>2026-04-04T14:02:50.207Z</time></trkpt><trkpt lat="45.9848565" lon="11.7131633"><ele>760.0</ele><time>2026-04-04T14:02:53.206Z</time></trkpt><trkpt lat="45.9848516" lon="11.7132551"><ele>760.0</ele><time>2026-04-04T14:02:57.207Z</time></trkpt><trkpt lat="45.9847619" lon="11.7132439"><ele>760.0</ele><time>2026-04-04T14:03:00.207Z</time></trkpt><trkpt lat="45.9846989" lon="11.713245"><ele>760.0</ele><time>2026-04-04T14:03:02.207Z</time></trkpt><trkpt lat="45.9846132" lon="11.7132749"><ele>760.0</ele><time>2026-04-04T14:03:04.207Z</time></trkpt><trkpt lat="45.9845362" lon="11.7132794"><ele>760.0</ele><time>2026-04-04T14:03:06.206Z</time></trkpt><trkpt lat="45.9844881" lon="11.7132199"><ele>760.0</ele><time>2026-04-04T14:05:22.207Z</time></trkpt><trkpt lat="45.9844173" lon="11.7131926"><ele>760.0</ele><time>2026-04-04T14:05:24.206Z</time></trkpt><trkpt lat="45.9843336" lon="11.7131708"><ele>760.0</ele><time>2026-04-04T14:05:27.207Z</time></trkpt><trkpt lat="45.9842689" lon="11.713153"><ele>760.0</ele><time>2026-04-04T14:05:30.207Z</time></trkpt><trkpt lat="45.9842077" lon="11.7131055"><ele>760.0</ele><time>2026-04-04T14:05:35.207Z</time></trkpt><trkpt lat="45.9841435" lon="11.7130869"><ele>760.0</ele><time>2026-04-04T14:05:39.207Z</time></trkpt><trkpt lat="45.9840925" lon="11.7131543"><ele>760.0</ele><time>2026-04-04T14:05:45.207Z</time></trkpt><trkpt lat="45.9840259" lon="11.7131058"><ele>760.0</ele><time>2026-04-04T14:05:48.207Z</time></trkpt><trkpt lat="45.9839418" lon="11.713123"><ele>752.6666666666667</ele><time>2026-04-04T14:05:51.207Z</time></trkpt><trkpt lat="45.9838752" lon="11.7131275"><ele>745.3333333333334</ele><time>2026-04-04T14:05:53.207Z</time></trkpt><trkpt lat="45.9838023" lon="11.7131207"><ele>738.0</ele><time>2026-04-04T14:05:55.206Z</time></trkpt><trkpt lat="45.9837186" lon="11.7131206"><ele>730.6666666666666</ele><time>2026-04-04T14:05:58.207Z</time></trkpt><trkpt lat="45.9836333" lon="11.7130889"><ele>723.3333333333333</ele><time>2026-04-04T14:06:01.207Z</time></trkpt><trkpt lat="45.9835637" lon="11.7131128"><ele>716.0</ele><time>2026-04-04T14:06:03.207Z</time></trkpt><trkpt lat="45.9834823" lon="11.7130631"><ele>716.0000000000001</ele><time>2026-04-04T14:06:06.207Z</time></trkpt><trkpt lat="45.9834195" lon="11.7129995"><ele>716.0</ele><time>2026-04-04T14:06:09.207Z</time></trkpt><trkpt lat="45.983356" lon="11.7129755"><ele>716.0</ele><time>2026-04-04T14:06:12.207Z</time></trkpt><trkpt lat="45.9833006" lon="11.7130467"><ele>716.0</ele><time>2026-04-04T14:06:17.207Z</time></trkpt><trkpt lat="45.9832429" lon="11.7131024"><ele>716.0</ele><time>2026-04-04T14:06:22.207Z</time></trkpt><trkpt lat="45.9831857" lon="11.7131608"><ele>716.0000000000001</ele><time>2026-04-04T14:06:26.207Z</time></trkpt><trkpt lat="45.9831085" lon="11.7131464"><ele>716.0</ele><time>2026-04-04T14:06:29.206Z</time></trkpt><trkpt lat="45.9830122" lon="11.7131538"><ele>709.3333333333333</ele><time>2026-04-04T14:06:31.206Z</time></trkpt><trkpt lat="45.9829246" lon="11.7131397"><ele>702.6666666666666</ele><time>2026-04-04T14:06:33.207Z</time></trkpt><trkpt lat="45.9828568" lon="11.7131292"><ele>696.0</ele><time>2026-04-04T14:06:36.207Z</time></trkpt><trkpt lat="45.9827582" lon="11.7131524"><ele>689.3333333333334</ele><time>2026-04-04T14:06:39.207Z</time></trkpt><trkpt lat="45.9826976" lon="11.7131251"><ele>682.6666666666667</ele><time>2026-04-04T14:06:41.207Z</time></trkpt><trkpt lat="45.9826292" lon="11.71306"><ele>676.0</ele><time>2026-04-04T14:06:45.207Z</time></trkpt><trkpt lat="45.9825819" lon="11.7129697"><ele>676.0</ele><time>2026-04-04T14:06:48.206Z</time></trkpt><trkpt lat="45.9825648" lon="11.7128777"><ele>676.0</ele><time>2026-04-04T14:06:50.207Z</time></trkpt><trkpt lat="45.9825333" lon="11.7127923"><ele>676.0</ele><time>2026-04-04T14:06:52.207Z</time></trkpt><trkpt lat="45.9824928" lon="11.7127228"><ele>676.0</ele><time>2026-04-04T14:06:54.207Z</time></trkpt><trkpt lat="45.9824254" lon="11.7127049"><ele>676.0</ele><time>2026-04-04T14:06:57.207Z</time></trkpt><trkpt lat="45.982361" lon="11.7127466"><ele>676.0</ele><time>2026-04-04T14:07:01.207Z</time></trkpt><trkpt lat="45.9822967" lon="11.712812"><ele>676.0</ele><time>2026-04-04T14:07:06.206Z</time></trkpt><trkpt lat="45.9822593" lon="11.712886"><ele>669.5</ele><time>2026-04-04T14:07:09.207Z</time></trkpt><trkpt lat="45.9821991" lon="11.7129505"><ele>663.0</ele><time>2026-04-04T14:07:11.207Z</time></trkpt><trkpt lat="45.9821459" lon="11.7130011"><ele>656.5</ele><time>2026-04-04T14:07:13.207Z</time></trkpt><trkpt lat="45.9820975" lon="11.7130758"><ele>650.0</ele><time>2026-04-04T14:07:15.207Z</time></trkpt><trkpt lat="45.9820174" lon="11.7131579"><ele>643.5</ele><time>2026-04-04T14:07:17.207Z</time></trkpt><trkpt lat="45.9819282" lon="11.7131689"><ele>637.0</ele><time>2026-04-04T14:07:19.207Z</time></trkpt><trkpt lat="45.9818287" lon="11.7132118"><ele>637.0</ele><time>2026-04-04T14:07:21.207Z</time></trkpt><trkpt lat="45.9817372" lon="11.7131701"><ele>637.0</ele><time>2026-04-04T14:07:23.207Z</time></trkpt><trkpt lat="45.9816732" lon="11.7130751"><ele>637.0</ele><time>2026-04-04T14:07:25.206Z</time></trkpt><trkpt lat="45.9816214" lon="11.7129901"><ele>637.0</ele><time>2026-04-04T14:07:27.207Z</time></trkpt><trkpt lat="45.9815734" lon="11.7129165"><ele>637.0</ele><time>2026-04-04T14:07:29.206Z</time></trkpt><trkpt lat="45.9815212" lon="11.7127928"><ele>637.0</ele><time>2026-04-04T14:07:31.207Z</time></trkpt><trkpt lat="45.9815089" lon="11.7126263"><ele>633.1666666666667</ele><time>2026-04-04T14:07:33.207Z</time></trkpt><trkpt lat="45.9815436" lon="11.7124996"><ele>629.3333333333334</ele><time>2026-04-04T14:07:35.207Z</time></trkpt><trkpt lat="45.981543" lon="11.7123917"><ele>625.5</ele><time>2026-04-04T14:07:36.206Z</time></trkpt><trkpt lat="45.9814443" lon="11.7124328"><ele>621.6666666666666</ele><time>2026-04-04T14:07:41.207Z</time></trkpt><trkpt lat="45.9813934" lon="11.7124898"><ele>617.8333333333333</ele><time>2026-04-04T14:07:43.207Z</time></trkpt><trkpt lat="45.9813238" lon="11.7125697"><ele>614.0</ele><time>2026-04-04T14:07:46.219Z</time></trkpt><trkpt lat="45.9812803" lon="11.7126551"><ele>614.0</ele><time>2026-04-04T14:07:49.232Z</time></trkpt><trkpt lat="45.981234" lon="11.7127194"><ele>614.0</ele><time>2026-04-04T14:07:51.217Z</time></trkpt><trkpt lat="45.9811836" lon="11.7127875"><ele>614.0</ele><time>2026-04-04T14:07:53.217Z</time></trkpt><trkpt lat="45.981096" lon="11.7128395"><ele>614.0</ele><time>2026-04-04T14:07:56.216Z</time></trkpt><trkpt lat="45.9810196" lon="11.712848"><ele>614.0</ele><time>2026-04-04T14:07:58.217Z</time></trkpt><trkpt lat="45.9809548" lon="11.7128119"><ele>614.0</ele><time>2026-04-04T14:08:01.217Z</time></trkpt><trkpt lat="45.9808816" lon="11.7127672"><ele>609.8333333333333</ele><time>2026-04-04T14:08:04.217Z</time></trkpt><trkpt lat="45.9808051" lon="11.712687"><ele>605.6666666666666</ele><time>2026-04-04T14:08:07.217Z</time></trkpt><trkpt lat="45.9807355" lon="11.7126327"><ele>601.5</ele><time>2026-04-04T14:08:09.217Z</time></trkpt><trkpt lat="45.9806485" lon="11.7125728"><ele>597.3333333333334</ele><time>2026-04-04T14:08:10.216Z</time></trkpt><trkpt lat="45.980594" lon="11.7125251"><ele>593.1666666666667</ele><time>2026-04-04T14:08:11.217Z</time></trkpt><trkpt lat="45.9805322" lon="11.7124694"><ele>589.0</ele><time>2026-04-04T14:08:12.217Z</time></trkpt><trkpt lat="45.9804461" lon="11.7123671"><ele>589.0</ele><time>2026-04-04T14:08:14.217Z</time></trkpt><trkpt lat="45.9804194" lon="11.7122391"><ele>589.0</ele><time>2026-04-04T14:08:16.217Z</time></trkpt><trkpt lat="45.9803523" lon="11.7122444"><ele>589.0</ele><time>2026-04-04T14:08:18.217Z</time></trkpt><trkpt lat="45.9803071" lon="11.7123085"><ele>589.0</ele><time>2026-04-04T14:08:21.217Z</time></trkpt><trkpt lat="45.9802415" lon="11.7123405"><ele>589.0</ele><time>2026-04-04T14:08:27.217Z</time></trkpt><trkpt lat="45.9801854" lon="11.7124036"><ele>589.0</ele><time>2026-04-04T14:08:29.216Z</time></trkpt><trkpt lat="45.9801251" lon="11.7124933"><ele>589.0</ele><time>2026-04-04T14:08:32.217Z</time></trkpt><trkpt lat="45.9800552" lon="11.7125633"><ele>589.0</ele><time>2026-04-04T14:08:35.217Z</time></trkpt><trkpt lat="45.9799929" lon="11.7126202"><ele>589.0</ele><time>2026-04-04T14:08:37.217Z</time></trkpt><trkpt lat="45.9798956" lon="11.7126597"><ele>589.0</ele><time>2026-04-04T14:08:40.217Z</time></trkpt><trkpt lat="45.9798143" lon="11.7126753"><ele>589.0</ele><time>2026-04-04T14:08:42.217Z</time></trkpt><trkpt lat="45.9797638" lon="11.7127547"><ele>589.0</ele><time>2026-04-04T14:08:44.217Z</time></trkpt><trkpt lat="45.9798088" lon="11.7128268"><ele>579.6666666666667</ele><time>2026-04-04T14:08:48.217Z</time></trkpt><trkpt lat="45.9798366" lon="11.7129725"><ele>570.3333333333334</ele><time>2026-04-04T14:08:58.217Z</time></trkpt><trkpt lat="45.9798349" lon="11.7130869"><ele>561.0</ele><time>2026-04-04T14:09:00.217Z</time></trkpt><trkpt lat="45.9797952" lon="11.7131636"><ele>551.6666666666666</ele><time>2026-04-04T14:09:02.217Z</time></trkpt><trkpt lat="45.9797358" lon="11.7132599"><ele>542.3333333333333</ele><time>2026-04-04T14:09:05.217Z</time></trkpt><trkpt lat="45.9796799" lon="11.713311"><ele>533.0</ele><time>2026-04-04T14:09:10.217Z</time></trkpt><trkpt lat="45.9796027" lon="11.7133432"><ele>533.0</ele><time>2026-04-04T14:09:13.217Z</time></trkpt><trkpt lat="45.9795269" lon="11.7133801"><ele>533.0</ele><time>2026-04-04T14:09:15.217Z</time></trkpt><trkpt lat="45.9794515" lon="11.7134514"><ele>533.0</ele><time>2026-04-04T14:09:18.217Z</time></trkpt><trkpt lat="45.9794048" lon="11.7135379"><ele>533.0</ele><time>2026-04-04T14:09:21.217Z</time></trkpt><trkpt lat="45.979327" lon="11.7136038"><ele>533.0</ele><time>2026-04-04T14:09:24.217Z</time></trkpt><trkpt lat="45.9792464" lon="11.7136563"><ele>533.0</ele><time>2026-04-04T14:09:27.217Z</time></trkpt><trkpt lat="45.9791692" lon="11.7136633"><ele>527.1999999999999</ele><time>2026-04-04T14:09:30.217Z</time></trkpt><trkpt lat="45.9791081" lon="11.7135816"><ele>521.4</ele><time>2026-04-04T14:09:33.216Z</time></trkpt><trkpt lat="45.9791015" lon="11.7134478"><ele>515.5999999999999</ele><time>2026-04-04T14:09:36.216Z</time></trkpt><trkpt lat="45.9790547" lon="11.7133633"><ele>509.79999999999995</ele><time>2026-04-04T14:09:41.217Z</time></trkpt><trkpt lat="45.9789612" lon="11.7134301"><ele>504.0</ele><time>2026-04-04T14:09:43.216Z</time></trkpt><trkpt lat="45.9789197" lon="11.7135569"><ele>499.6</ele><time>2026-04-04T14:09:45.217Z</time></trkpt><trkpt lat="45.9788519" lon="11.7136609"><ele>495.2</ele><time>2026-04-04T14:09:47.217Z</time></trkpt><trkpt lat="45.9787655" lon="11.7137656"><ele>490.80000000000007</ele><time>2026-04-04T14:09:49.217Z</time></trkpt><trkpt lat="45.978692" lon="11.7138591"><ele>486.40000000000003</ele><time>2026-04-04T14:09:51.217Z</time></trkpt><trkpt lat="45.9786293" lon="11.7139087"><ele>482.0</ele><time>2026-04-04T14:09:53.217Z</time></trkpt><trkpt lat="45.978591" lon="11.714025"><ele>481.99999999999994</ele><time>2026-04-04T14:09:55.217Z</time></trkpt><trkpt lat="45.978528" lon="11.7141111"><ele>482.0</ele><time>2026-04-04T14:09:57.217Z</time></trkpt><trkpt lat="45.978482" lon="11.7142045"><ele>482.0</ele><time>2026-04-04T14:09:59.217Z</time></trkpt><trkpt lat="45.9784383" lon="11.7143021"><ele>482.0</ele><time>2026-04-04T14:10:02.217Z</time></trkpt><trkpt lat="45.9783876" lon="11.7143897"><ele>481.99999999999994</ele><time>2026-04-04T14:10:05.217Z</time></trkpt><trkpt lat="45.9783561" lon="11.7144693"><ele>482.0</ele><time>2026-04-04T14:10:07.217Z</time></trkpt><trkpt lat="45.9783415" lon="11.7145597"><ele>472.6</ele><time>2026-04-04T14:10:08.216Z</time></trkpt><trkpt lat="45.9783035" lon="11.7146813"><ele>463.20000000000005</ele><time>2026-04-04T14:10:10.216Z</time></trkpt><trkpt lat="45.9782566" lon="11.7147871"><ele>453.8</ele><time>2026-04-04T14:10:12.217Z</time></trkpt><trkpt lat="45.9781733" lon="11.7147159"><ele>444.4</ele><time>2026-04-04T14:10:47.217Z</time></trkpt><trkpt lat="45.9780929" lon="11.7147942"><ele>435.0</ele><time>2026-04-04T14:10:51.216Z</time></trkpt><trkpt lat="45.9781744" lon="11.7148207"><ele>435.0</ele><time>2026-04-04T14:10:58.217Z</time></trkpt><trkpt lat="45.9781303" lon="11.7150146"><ele>435.0</ele><time>2026-04-04T14:11:01.217Z</time></trkpt><trkpt lat="45.9780899" lon="11.7150859"><ele>435.0</ele><time>2026-04-04T14:11:02.217Z</time></trkpt><trkpt lat="45.9780311" lon="11.7151431"><ele>435.0</ele><time>2026-04-04T14:11:03.217Z</time></trkpt><trkpt lat="45.9779705" lon="11.7152756"><ele>435.0</ele><time>2026-04-04T14:11:05.217Z</time></trkpt><trkpt lat="45.9779347" lon="11.715361"><ele>432.7142857142857</ele><time>2026-04-04T14:11:07.217Z</time></trkpt><trkpt lat="45.9779044" lon="11.7154474"><ele>430.42857142857144</ele><time>2026-04-04T14:11:09.217Z</time></trkpt><trkpt lat="45.9778551" lon="11.7155294"><ele>428.1428571428571</ele><time>2026-04-04T14:11:12.217Z</time></trkpt><trkpt lat="45.9778367" lon="11.7156243"><ele>425.8571428571429</ele><time>2026-04-04T14:11:14.217Z</time></trkpt><trkpt lat="45.9778304" lon="11.7157416"><ele>423.57142857142856</ele><time>2026-04-04T14:11:16.217Z</time></trkpt><trkpt lat="45.9778369" lon="11.7158421"><ele>421.2857142857143</ele><time>2026-04-04T14:11:19.217Z</time></trkpt><trkpt lat="45.977847" lon="11.7159511"><ele>419.0</ele><time>2026-04-04T14:11:22.217Z</time></trkpt><trkpt lat="45.9778375" lon="11.7160417"><ele>416.8333333333333</ele><time>2026-04-04T14:11:24.217Z</time></trkpt><trkpt lat="45.9778171" lon="11.7161455"><ele>414.66666666666663</ele><time>2026-04-04T14:11:26.217Z</time></trkpt><trkpt lat="45.9777905" lon="11.7162584"><ele>412.5</ele><time>2026-04-04T14:11:28.217Z</time></trkpt><trkpt lat="45.9777375" lon="11.7163716"><ele>410.33333333333337</ele><time>2026-04-04T14:11:31.217Z</time></trkpt><trkpt lat="45.9777038" lon="11.7164894"><ele>408.1666666666667</ele><time>2026-04-04T14:11:33.217Z</time></trkpt><trkpt lat="45.9776726" lon="11.7166022"><ele>406.0</ele><time>2026-04-04T14:11:35.217Z</time></trkpt><trkpt lat="45.9776496" lon="11.7167003"><ele>406.0</ele><time>2026-04-04T14:11:37.217Z</time></trkpt><trkpt lat="45.9776305" lon="11.7168348"><ele>406.0</ele><time>2026-04-04T14:11:40.217Z</time></trkpt><trkpt lat="45.9776198" lon="11.7169454"><ele>406.0</ele><time>2026-04-04T14:11:42.217Z</time></trkpt><trkpt lat="45.9775992" lon="11.7170968"><ele>406.0</ele><time>2026-04-04T14:11:45.217Z</time></trkpt><trkpt lat="45.9775895" lon="11.7172633"><ele>406.0</ele><time>2026-04-04T14:11:47.217Z</time></trkpt><trkpt lat="45.977548" lon="11.7173955"><ele>403.0</ele><time>2026-04-04T14:11:49.217Z</time></trkpt><trkpt lat="45.9775259" lon="11.7175944"><ele>400.0</ele><time>2026-04-04T14:11:51.217Z</time></trkpt><trkpt lat="45.9775135" lon="11.7177015"><ele>397.0</ele><time>2026-04-04T14:11:52.217Z</time></trkpt><trkpt lat="45.9775026" lon="11.7178057"><ele>394.0</ele><time>2026-04-04T14:11:53.217Z</time></trkpt><trkpt lat="45.9774979" lon="11.7179277"><ele>391.0</ele><time>2026-04-04T14:11:54.217Z</time></trkpt><trkpt lat="45.9775008" lon="11.7180439"><ele>388.6666666666667</ele><time>2026-04-04T14:11:55.216Z</time></trkpt><trkpt lat="45.9775075" lon="11.7181602"><ele>386.33333333333337</ele><time>2026-04-04T14:11:56.217Z</time></trkpt><trkpt lat="45.9775225" lon="11.7182733"><ele>384.0</ele><time>2026-04-04T14:11:57.217Z</time></trkpt><trkpt lat="45.9775207" lon="11.7183861"><ele>381.6666666666667</ele><time>2026-04-04T14:11:59.217Z</time></trkpt><trkpt lat="45.9775167" lon="11.718547"><ele>379.33333333333337</ele><time>2026-04-04T14:12:01.217Z</time></trkpt><trkpt lat="45.9775121" lon="11.7186405"><ele>377.0</ele><time>2026-04-04T14:12:02.216Z</time></trkpt><trkpt lat="45.9774884" lon="11.7187272"><ele>374.6</ele><time>2026-04-04T14:12:03.217Z</time></trkpt><trkpt lat="45.9774887" lon="11.7188718"><ele>372.20000000000005</ele><time>2026-04-04T14:12:05.217Z</time></trkpt><trkpt lat="45.9774952" lon="11.7190621"><ele>369.8</ele><time>2026-04-04T14:12:07.217Z</time></trkpt><trkpt lat="45.977511" lon="11.7192246"><ele>367.4</ele><time>2026-04-04T14:12:09.217Z</time></trkpt><trkpt lat="45.9775262" lon="11.7193679"><ele>365.0</ele><time>2026-04-04T14:12:11.217Z</time></trkpt><trkpt lat="45.9775193" lon="11.719479"><ele>363.1666666666667</ele><time>2026-04-04T14:12:12.217Z</time></trkpt><trkpt lat="45.9775146" lon="11.7196359"><ele>361.33333333333337</ele><time>2026-04-04T14:12:14.217Z</time></trkpt><trkpt lat="45.9775155" lon="11.7197508"><ele>359.5</ele><time>2026-04-04T14:12:16.217Z</time></trkpt><trkpt lat="45.9774902" lon="11.7198669"><ele>357.6666666666667</ele><time>2026-04-04T14:12:53.217Z</time></trkpt><trkpt lat="45.9775041" lon="11.7199622"><ele>355.8333333333333</ele><time>2026-04-04T14:12:55.217Z</time></trkpt><trkpt lat="45.9775453" lon="11.7200789"><ele>354.0</ele><time>2026-04-04T14:12:57.217Z</time></trkpt><trkpt lat="45.9776171" lon="11.7202081"><ele>353.5</ele><time>2026-04-04T14:12:59.216Z</time></trkpt><trkpt lat="45.9777001" lon="11.7202998"><ele>353.0</ele><time>2026-04-04T14:13:01.217Z</time></trkpt><trkpt lat="45.9777513" lon="11.7203634"><ele>352.5</ele><time>2026-04-04T14:13:02.217Z</time></trkpt><trkpt lat="45.9778081" lon="11.7204042"><ele>352.0</ele><time>2026-04-04T14:13:04.216Z</time></trkpt><trkpt lat="45.9778994" lon="11.7205049"><ele>351.5</ele><time>2026-04-04T14:13:06.217Z</time></trkpt><trkpt lat="45.9779477" lon="11.7205677"><ele>351.0</ele><time>2026-04-04T14:13:07.216Z</time></trkpt><trkpt lat="45.9779845" lon="11.7206966"><ele>351.0</ele><time>2026-04-04T14:13:09.217Z</time></trkpt><trkpt lat="45.9780117" lon="11.7208078"><ele>351.0</ele><time>2026-04-04T14:13:11.217Z</time></trkpt><trkpt lat="45.9780242" lon="11.7209186"><ele>351.0</ele><time>2026-04-04T14:13:13.217Z</time></trkpt><trkpt lat="45.9780515" lon="11.721005"><ele>351.0</ele><time>2026-04-04T14:13:15.217Z</time></trkpt><trkpt lat="45.9780606" lon="11.7211305"><ele>351.0</ele><time>2026-04-04T14:13:18.217Z</time></trkpt><trkpt lat="45.9780375" lon="11.7212356"><ele>351.0</ele><time>2026-04-04T14:13:20.217Z</time></trkpt><trkpt lat="45.9780038" lon="11.7213417"><ele>355.0</ele><time>2026-04-04T14:13:22.216Z</time></trkpt><trkpt lat="45.97798" lon="11.7214393"><ele>359.0</ele><time>2026-04-04T14:13:25.217Z</time></trkpt><trkpt lat="45.9779288" lon="11.7216038"><ele>363.0</ele><time>2026-04-04T14:13:27.217Z</time></trkpt><trkpt lat="45.9779186" lon="11.7217352"><ele>367.0</ele><time>2026-04-04T14:13:29.217Z</time></trkpt><trkpt lat="45.9779413" lon="11.7218677"><ele>371.0</ele><time>2026-04-04T14:13:32.217Z</time></trkpt><trkpt lat="45.9779758" lon="11.7219484"><ele>371.0</ele><time>2026-04-04T14:13:35.217Z</time></trkpt><trkpt lat="45.9780274" lon="11.7218879"><ele>371.0</ele><time>2026-04-04T14:15:13.217Z</time></trkpt><trkpt lat="45.9780131" lon="11.7217876"><ele>371.0</ele><time>2026-04-04T14:17:10.217Z</time></trkpt><trkpt lat="45.978006" lon="11.7216813"><ele>371.0</ele><time>2026-04-04T14:17:12.217Z</time></trkpt><trkpt lat="45.9779512" lon="11.7215345"><ele>371.0</ele><time>2026-04-04T14:17:14.217Z</time></trkpt><trkpt lat="45.9779456" lon="11.7213883"><ele>371.0</ele><time>2026-04-04T14:17:16.217Z</time></trkpt><trkpt lat="45.9779726" lon="11.7212806"><ele>371.0</ele><time>2026-04-04T14:17:18.217Z</time></trkpt><trkpt lat="45.9780101" lon="11.7211835"><ele>371.0</ele><time>2026-04-04T14:17:20.217Z</time></trkpt><trkpt lat="45.9780087" lon="11.7210575"><ele>371.0</ele><time>2026-04-04T14:17:22.217Z</time></trkpt><trkpt lat="45.977997" lon="11.7209442"><ele>371.0</ele><time>2026-04-04T14:17:23.217Z</time></trkpt><trkpt lat="45.9779503" lon="11.7207983"><ele>371.0</ele><time>2026-04-04T14:17:25.217Z</time></trkpt><trkpt lat="45.9779283" lon="11.720685"><ele>371.0</ele><time>2026-04-04T14:17:27.216Z</time></trkpt><trkpt lat="45.9779259" lon="11.7207792"><ele>371.0</ele><time>2026-04-04T14:17:33.217Z</time></trkpt><trkpt lat="45.9779461" lon="11.7208754"><ele>371.0</ele><time>2026-04-04T14:17:38.217Z</time></trkpt><trkpt lat="45.9779672" lon="11.7210045"><ele>371.0</ele><time>2026-04-04T14:17:41.217Z</time></trkpt><trkpt lat="45.9779739" lon="11.7211362"><ele>371.0</ele><time>2026-04-04T14:17:43.217Z</time></trkpt><trkpt lat="45.9779467" lon="11.7212353"><ele>371.0</ele><time>2026-04-04T14:17:45.216Z</time></trkpt><trkpt lat="45.9779304" lon="11.7213651"><ele>371.0</ele><time>2026-04-04T14:17:48.217Z</time></trkpt><trkpt lat="45.9779112" lon="11.7215178"><ele>371.0</ele><time>2026-04-04T14:17:50.217Z</time></trkpt><trkpt lat="45.977903" lon="11.7216137"><ele>371.0</ele><time>2026-04-04T14:17:51.217Z</time></trkpt><trkpt lat="45.9779345" lon="11.7217039"><ele>371.0</ele><time>2026-04-04T14:17:53.216Z</time></trkpt><trkpt lat="45.9779243" lon="11.7218325"><ele>371.0</ele><time>2026-04-04T14:17:55.217Z</time></trkpt><trkpt lat="45.9779626" lon="11.7219057"><ele>371.0</ele><time>2026-04-04T14:17:57.216Z</time></trkpt><trkpt lat="45.9779893" lon="11.7219982"><ele>371.0</ele><time>2026-04-04T14:18:01.217Z</time></trkpt><trkpt lat="45.977999" lon="11.7220955"><ele>371.0</ele><time>2026-04-04T14:18:07.217Z</time></trkpt><trkpt lat="45.9779435" lon="11.7221468"><ele>376.6</ele><time>2026-04-04T14:19:26.216Z</time></trkpt><trkpt lat="45.9779222" lon="11.7222349"><ele>382.20000000000005</ele><time>2026-04-04T14:20:07.217Z</time></trkpt><trkpt lat="45.9778479" lon="11.7222899"><ele>387.79999999999995</ele><time>2026-04-04T14:20:09.217Z</time></trkpt><trkpt lat="45.9777686" lon="11.722319"><ele>393.4</ele><time>2026-04-04T14:20:11.216Z</time></trkpt><trkpt lat="45.9776774" lon="11.72231"><ele>399.0</ele><time>2026-04-04T14:20:13.217Z</time></trkpt><trkpt lat="45.9775473" lon="11.7223349"><ele>401.6</ele><time>2026-04-04T14:20:15.217Z</time></trkpt><trkpt lat="45.9773962" lon="11.7223201"><ele>404.2</ele><time>2026-04-04T14:20:17.217Z</time></trkpt><trkpt lat="45.9772905" lon="11.7223326"><ele>406.8</ele><time>2026-04-04T14:20:19.217Z</time></trkpt><trkpt lat="45.9772054" lon="11.7223668"><ele>409.40000000000003</ele><time>2026-04-04T14:20:21.217Z</time></trkpt><trkpt lat="45.9771732" lon="11.722463"><ele>412.0</ele><time>2026-04-04T14:20:24.216Z</time></trkpt><trkpt lat="45.9771744" lon="11.7225759"><ele>412.00000000000006</ele><time>2026-04-04T14:20:27.217Z</time></trkpt><trkpt lat="45.9772332" lon="11.7227196"><ele>412.0</ele><time>2026-04-04T14:20:28.217Z</time></trkpt><trkpt lat="45.9772474" lon="11.7228102"><ele>412.0</ele><time>2026-04-04T14:20:29.217Z</time></trkpt><trkpt lat="45.9772658" lon="11.7229772"><ele>412.0</ele><time>2026-04-04T14:20:31.217Z</time></trkpt><trkpt lat="45.9772862" lon="11.7230638"><ele>412.00000000000006</ele><time>2026-04-04T14:20:32.217Z</time></trkpt><trkpt lat="45.9772975" lon="11.7231604"><ele>412.0</ele><time>2026-04-04T14:20:33.217Z</time></trkpt><trkpt lat="45.9772911" lon="11.7233118"><ele>415.6666666666667</ele><time>2026-04-04T14:20:35.217Z</time></trkpt><trkpt lat="45.9772407" lon="11.7234126"><ele>419.33333333333337</ele><time>2026-04-04T14:20:37.217Z</time></trkpt><trkpt lat="45.9771367" lon="11.7235188"><ele>423.0</ele><time>2026-04-04T14:20:39.217Z</time></trkpt><trkpt lat="45.9770541" lon="11.7235608"><ele>426.66666666666663</ele><time>2026-04-04T14:20:41.217Z</time></trkpt><trkpt lat="45.9769925" lon="11.7235836"><ele>430.3333333333333</ele><time>2026-04-04T14:20:43.217Z</time></trkpt><trkpt lat="45.9769263" lon="11.72358"><ele>434.0</ele><time>2026-04-04T14:20:45.217Z</time></trkpt><trkpt lat="45.9768645" lon="11.723562"><ele>434.3333333333333</ele><time>2026-04-04T14:20:50.216Z</time></trkpt><trkpt lat="45.9766055" lon="11.7234327"><ele>434.66666666666663</ele><time>2026-04-04T14:21:56.217Z</time></trkpt><trkpt lat="45.9765388" lon="11.7234154"><ele>435.0</ele><time>2026-04-04T14:21:57.217Z</time></trkpt><trkpt lat="45.9764496" lon="11.7233182"><ele>435.0</ele><time>2026-04-04T14:21:59.217Z</time></trkpt><trkpt lat="45.9763845" lon="11.7232031"><ele>435.0</ele><time>2026-04-04T14:22:00.217Z</time></trkpt><trkpt lat="45.9763353" lon="11.7231026"><ele>435.0</ele><time>2026-04-04T14:22:01.216Z</time></trkpt><trkpt lat="45.9762546" lon="11.7230164"><ele>435.0</ele><time>2026-04-04T14:22:02.216Z</time></trkpt><trkpt lat="45.9761987" lon="11.7229285"><ele>435.0</ele><time>2026-04-04T14:22:03.217Z</time></trkpt><trkpt lat="45.9761366" lon="11.7228704"><ele>435.0</ele><time>2026-04-04T14:22:04.216Z</time></trkpt><trkpt lat="45.9760637" lon="11.7228305"><ele>435.0</ele><time>2026-04-04T14:22:05.217Z</time></trkpt><trkpt lat="45.9759908" lon="11.7227805"><ele>435.0</ele><time>2026-04-04T14:22:06.217Z</time></trkpt><trkpt lat="45.975931" lon="11.7227309"><ele>435.0</ele><time>2026-04-04T14:22:07.217Z</time></trkpt><trkpt lat="45.9758697" lon="11.7226804"><ele>435.0</ele><time>2026-04-04T14:22:08.217Z</time></trkpt><trkpt lat="45.9758118" lon="11.7226266"><ele>435.0</ele><time>2026-04-04T14:22:09.217Z</time></trkpt><trkpt lat="45.975752" lon="11.722575"><ele>435.0</ele><time>2026-04-04T14:22:10.216Z</time></trkpt><trkpt lat="45.975637" lon="11.7225024"><ele>433.0</ele><time>2026-04-04T14:22:12.217Z</time></trkpt><trkpt lat="45.9755208" lon="11.7224125"><ele>431.0</ele><time>2026-04-04T14:22:14.216Z</time></trkpt><trkpt lat="45.9753899" lon="11.7223212"><ele>429.0</ele><time>2026-04-04T14:22:16.217Z</time></trkpt><trkpt lat="45.9753223" lon="11.7222792"><ele>427.0</ele><time>2026-04-04T14:22:17.217Z</time></trkpt><trkpt lat="45.975243" lon="11.7222563"><ele>425.0</ele><time>2026-04-04T14:22:18.216Z</time></trkpt><trkpt lat="45.9751623" lon="11.7222389"><ele>425.0</ele><time>2026-04-04T14:22:19.217Z</time></trkpt><trkpt lat="45.975087" lon="11.7222405"><ele>425.0</ele><time>2026-04-04T14:22:20.217Z</time></trkpt><trkpt lat="45.9749942" lon="11.7222802"><ele>425.0</ele><time>2026-04-04T14:22:21.217Z</time></trkpt><trkpt lat="45.9749024" lon="11.7222921"><ele>425.0</ele><time>2026-04-04T14:22:22.217Z</time></trkpt><trkpt lat="45.9748057" lon="11.7223064"><ele>425.0</ele><time>2026-04-04T14:22:23.217Z</time></trkpt><trkpt lat="45.9747101" lon="11.7223108"><ele>425.6</ele><time>2026-04-04T14:22:24.217Z</time></trkpt><trkpt lat="45.9746051" lon="11.7223018"><ele>426.2</ele><time>2026-04-04T14:22:25.217Z</time></trkpt><trkpt lat="45.9745061" lon="11.7222732"><ele>426.79999999999995</ele><time>2026-04-04T14:22:26.216Z</time></trkpt><trkpt lat="45.9744109" lon="11.7222518"><ele>427.4</ele><time>2026-04-04T14:22:27.217Z</time></trkpt><trkpt lat="45.9743214" lon="11.7222223"><ele>428.0</ele><time>2026-04-04T14:22:28.217Z</time></trkpt><trkpt lat="45.9742432" lon="11.7221979"><ele>428.99999999999994</ele><time>2026-04-04T14:22:29.217Z</time></trkpt><trkpt lat="45.9741606" lon="11.7221938"><ele>430.0</ele><time>2026-04-04T14:22:30.217Z</time></trkpt><trkpt lat="45.9740871" lon="11.7221761"><ele>431.0</ele><time>2026-04-04T14:22:31.217Z</time></trkpt><trkpt lat="45.9740172" lon="11.7221809"><ele>432.0</ele><time>2026-04-04T14:22:32.217Z</time></trkpt><trkpt lat="45.9739251" lon="11.7221706"><ele>432.99999999999994</ele><time>2026-04-04T14:22:33.217Z</time></trkpt><trkpt lat="45.973839" lon="11.7221663"><ele>434.0</ele><time>2026-04-04T14:22:34.217Z</time></trkpt><trkpt lat="45.9737494" lon="11.7222138"><ele>433.99999999999994</ele><time>2026-04-04T14:22:35.217Z</time></trkpt><trkpt lat="45.9736733" lon="11.7222321"><ele>434.0</ele><time>2026-04-04T14:22:36.216Z</time></trkpt><trkpt lat="45.9735946" lon="11.7222275"><ele>434.0</ele><time>2026-04-04T14:22:37.217Z</time></trkpt><trkpt lat="45.9735219" lon="11.7222488"><ele>434.0</ele><time>2026-04-04T14:22:38.217Z</time></trkpt><trkpt lat="45.9734492" lon="11.7222347"><ele>433.99999999999994</ele><time>2026-04-04T14:22:40.217Z</time></trkpt><trkpt lat="45.9733789" lon="11.7222075"><ele>434.0</ele><time>2026-04-04T14:22:42.217Z</time></trkpt><trkpt lat="45.9732928" lon="11.7221845"><ele>432.8333333333333</ele><time>2026-04-04T14:22:44.217Z</time></trkpt><trkpt lat="45.9731685" lon="11.7221968"><ele>431.66666666666663</ele><time>2026-04-04T14:22:46.217Z</time></trkpt><trkpt lat="45.9730956" lon="11.722214"><ele>430.5</ele><time>2026-04-04T14:22:47.217Z</time></trkpt><trkpt lat="45.9730207" lon="11.7222357"><ele>429.33333333333337</ele><time>2026-04-04T14:22:48.217Z</time></trkpt><trkpt lat="45.9729574" lon="11.7222445"><ele>428.1666666666667</ele><time>2026-04-04T14:22:49.217Z</time></trkpt><trkpt lat="45.972877" lon="11.7222669"><ele>427.0</ele><time>2026-04-04T14:22:50.217Z</time></trkpt><trkpt lat="45.9727737" lon="11.7222696"><ele>427.0</ele><time>2026-04-04T14:22:52.216Z</time></trkpt><trkpt lat="45.9726564" lon="11.7222823"><ele>427.00000000000006</ele><time>2026-04-04T14:22:53.217Z</time></trkpt><trkpt lat="45.9725804" lon="11.7222674"><ele>427.00000000000006</ele><time>2026-04-04T14:22:55.216Z</time></trkpt><trkpt lat="45.9725052" lon="11.7222721"><ele>427.0</ele><time>2026-04-04T14:22:57.217Z</time></trkpt><trkpt lat="45.9724027" lon="11.7222518"><ele>427.0</ele><time>2026-04-04T14:23:00.217Z</time></trkpt><trkpt lat="45.972287" lon="11.7222676"><ele>425.42857142857144</ele><time>2026-04-04T14:23:02.217Z</time></trkpt><trkpt lat="45.9722094" lon="11.7222962"><ele>423.8571428571429</ele><time>2026-04-04T14:23:03.217Z</time></trkpt><trkpt lat="45.9721776" lon="11.7223859"><ele>422.2857142857143</ele><time>2026-04-04T14:23:05.217Z</time></trkpt><trkpt lat="45.9721462" lon="11.7224688"><ele>420.7142857142857</ele><time>2026-04-04T14:23:07.217Z</time></trkpt><trkpt lat="45.9721863" lon="11.722545"><ele>419.14285714285717</ele><time>2026-04-04T14:23:09.217Z</time></trkpt><trkpt lat="45.972239" lon="11.7226205"><ele>417.57142857142856</ele><time>2026-04-04T14:23:14.216Z</time></trkpt><trkpt lat="45.9723047" lon="11.7226558"><ele>416.0</ele><time>2026-04-04T14:23:18.217Z</time></trkpt><trkpt lat="45.9723635" lon="11.7227033"><ele>420.1428571428571</ele><time>2026-04-04T14:23:20.217Z</time></trkpt><trkpt lat="45.972427" lon="11.722768"><ele>424.28571428571433</ele><time>2026-04-04T14:23:23.217Z</time></trkpt><trkpt lat="45.9724798" lon="11.7228218"><ele>428.42857142857144</ele><time>2026-04-04T14:23:26.217Z</time></trkpt><trkpt lat="45.9725369" lon="11.7228838"><ele>432.57142857142856</ele><time>2026-04-04T14:23:29.217Z</time></trkpt><trkpt lat="45.9725974" lon="11.7229626"><ele>436.71428571428567</ele><time>2026-04-04T14:23:33.217Z</time></trkpt><trkpt lat="45.9726578" lon="11.7229977"><ele>440.8571428571429</ele><time>2026-04-04T14:23:37.217Z</time></trkpt><trkpt lat="45.9727288" lon="11.7230036"><ele>445.0</ele><time>2026-04-04T14:23:41.217Z</time></trkpt><trkpt lat="45.9727754" lon="11.7230985"><ele>447.50000000000006</ele><time>2026-04-04T14:23:46.217Z</time></trkpt><trkpt lat="45.9728496" lon="11.723183"><ele>450.0</ele><time>2026-04-04T14:23:50.216Z</time></trkpt><trkpt lat="45.9729411" lon="11.7232158"><ele>452.5</ele><time>2026-04-04T14:23:52.216Z</time></trkpt><trkpt lat="45.9730044" lon="11.7232854"><ele>455.0</ele><time>2026-04-04T14:23:55.217Z</time></trkpt><trkpt lat="45.9730761" lon="11.7233347"><ele>457.50000000000006</ele><time>2026-04-04T14:23:59.217Z</time></trkpt><trkpt lat="45.9731596" lon="11.7233742"><ele>460.0</ele><time>2026-04-04T14:24:03.217Z</time></trkpt><trkpt lat="45.9732355" lon="11.7234312"><ele>460.00000000000006</ele><time>2026-04-04T14:24:06.217Z</time></trkpt><trkpt lat="45.9733181" lon="11.7234789"><ele>460.0</ele><time>2026-04-04T14:24:09.217Z</time></trkpt><trkpt lat="45.9734095" lon="11.7235208"><ele>460.0</ele><time>2026-04-04T14:24:12.216Z</time></trkpt><trkpt lat="45.9734677" lon="11.7235986"><ele>460.0</ele><time>2026-04-04T14:24:14.217Z</time></trkpt><trkpt lat="45.9735348" lon="11.7236315"><ele>460.00000000000006</ele><time>2026-04-04T14:24:18.217Z</time></trkpt><trkpt lat="45.9736076" lon="11.7236648"><ele>460.0</ele><time>2026-04-04T14:24:21.216Z</time></trkpt><trkpt lat="45.9736877" lon="11.7236782"><ele>465.8571428571428</ele><time>2026-04-04T14:24:59.217Z</time></trkpt><trkpt lat="45.9737796" lon="11.7237284"><ele>471.71428571428567</ele><time>2026-04-04T14:25:03.217Z</time></trkpt><trkpt lat="45.9738513" lon="11.7237487"><ele>477.57142857142856</ele><time>2026-04-04T14:25:05.217Z</time></trkpt><trkpt lat="45.9739173" lon="11.7237582"><ele>483.4285714285714</ele><time>2026-04-04T14:25:07.217Z</time></trkpt><trkpt lat="45.9739888" lon="11.7237676"><ele>489.2857142857142</ele><time>2026-04-04T14:25:09.217Z</time></trkpt><trkpt lat="45.9740526" lon="11.7237751"><ele>495.14285714285717</ele><time>2026-04-04T14:25:11.217Z</time></trkpt><trkpt lat="45.9741198" lon="11.7237989"><ele>501.0</ele><time>2026-04-04T14:25:13.217Z</time></trkpt><trkpt lat="45.974166" lon="11.7238615"><ele>500.57142857142856</ele><time>2026-04-04T14:25:16.217Z</time></trkpt><trkpt lat="45.9741903" lon="11.7239859"><ele>500.1428571428571</ele><time>2026-04-04T14:25:19.217Z</time></trkpt><trkpt lat="45.974217" lon="11.7240911"><ele>499.71428571428567</ele><time>2026-04-04T14:25:23.217Z</time></trkpt><trkpt lat="45.9742361" lon="11.7241862"><ele>499.2857142857143</ele><time>2026-04-04T14:25:26.217Z</time></trkpt><trkpt lat="45.9742444" lon="11.7242779"><ele>498.8571428571428</ele><time>2026-04-04T14:25:29.217Z</time></trkpt><trkpt lat="45.9742579" lon="11.7243669"><ele>498.4285714285714</ele><time>2026-04-04T14:25:32.217Z</time></trkpt><trkpt lat="45.9742603" lon="11.7244792"><ele>498.0</ele><time>2026-04-04T14:25:35.217Z</time></trkpt><trkpt lat="45.9742505" lon="11.7245824"><ele>501.85714285714283</ele><time>2026-04-04T14:25:38.216Z</time></trkpt><trkpt lat="45.9742267" lon="11.7246922"><ele>505.71428571428567</ele><time>2026-04-04T14:25:41.217Z</time></trkpt><trkpt lat="45.9741619" lon="11.724751"><ele>509.57142857142856</ele><time>2026-04-04T14:25:43.217Z</time></trkpt><trkpt lat="45.9741018" lon="11.7247824"><ele>513.4285714285714</ele><time>2026-04-04T14:25:45.217Z</time></trkpt><trkpt lat="45.9740597" lon="11.7248563"><ele>517.2857142857142</ele><time>2026-04-04T14:25:47.217Z</time></trkpt><trkpt lat="45.9740873" lon="11.7249416"><ele>521.1428571428571</ele><time>2026-04-04T14:25:50.217Z</time></trkpt><trkpt lat="45.9741528" lon="11.7249554"><ele>525.0</ele><time>2026-04-04T14:25:54.217Z</time></trkpt><trkpt lat="45.9742221" lon="11.7249137"><ele>525.1666666666666</ele><time>2026-04-04T14:25:59.217Z</time></trkpt><trkpt lat="45.9743067" lon="11.7248947"><ele>525.3333333333334</ele><time>2026-04-04T14:26:13.217Z</time></trkpt><trkpt lat="45.9743751" lon="11.7248841"><ele>525.5</ele><time>2026-04-04T14:26:15.217Z</time></trkpt><trkpt lat="45.9744814" lon="11.7248912"><ele>525.6666666666667</ele><time>2026-04-04T14:26:18.217Z</time></trkpt><trkpt lat="45.9745516" lon="11.7249217"><ele>525.8333333333334</ele><time>2026-04-04T14:26:20.216Z</time></trkpt><trkpt lat="45.9746162" lon="11.7249623"><ele>526.0</ele><time>2026-04-04T14:26:22.217Z</time></trkpt><trkpt lat="45.9746756" lon="11.7249969"><ele>526.0</ele><time>2026-04-04T14:26:24.217Z</time></trkpt><trkpt lat="45.9747543" lon="11.7250102"><ele>526.0</ele><time>2026-04-04T14:26:27.217Z</time></trkpt><trkpt lat="45.9748314" lon="11.725072"><ele>526.0</ele><time>2026-04-04T14:26:30.217Z</time></trkpt><trkpt lat="45.9748311" lon="11.7251763"><ele>526.0</ele><time>2026-04-04T14:26:34.217Z</time></trkpt><trkpt lat="45.9748333" lon="11.7252979"><ele>526.0</ele><time>2026-04-04T14:26:37.216Z</time></trkpt><trkpt lat="45.9748254" lon="11.7253983"><ele>526.0</ele><time>2026-04-04T14:26:39.217Z</time></trkpt><trkpt lat="45.9748264" lon="11.7255148"><ele>529.8333333333334</ele><time>2026-04-04T14:26:41.217Z</time></trkpt><trkpt lat="45.9748406" lon="11.7256524"><ele>533.6666666666667</ele><time>2026-04-04T14:26:43.217Z</time></trkpt><trkpt lat="45.9748437" lon="11.7257623"><ele>537.5</ele><time>2026-04-04T14:26:45.216Z</time></trkpt><trkpt lat="45.9748548" lon="11.7258824"><ele>541.3333333333334</ele><time>2026-04-04T14:26:47.216Z</time></trkpt><trkpt lat="45.9748693" lon="11.7260198"><ele>545.1666666666666</ele><time>2026-04-04T14:26:50.216Z</time></trkpt><trkpt lat="45.9749025" lon="11.7261157"><ele>549.0</ele><time>2026-04-04T14:26:52.217Z</time></trkpt><trkpt lat="45.9749512" lon="11.7261991"><ele>555.4</ele><time>2026-04-04T14:26:54.216Z</time></trkpt><trkpt lat="45.9749824" lon="11.7263072"><ele>561.8</ele><time>2026-04-04T14:26:57.217Z</time></trkpt><trkpt lat="45.9750156" lon="11.7263979"><ele>568.2</ele><time>2026-04-04T14:26:59.217Z</time></trkpt><trkpt lat="45.9750743" lon="11.7265245"><ele>574.6</ele><time>2026-04-04T14:27:08.217Z</time></trkpt><trkpt lat="45.9749866" lon="11.7265771"><ele>581.0</ele><time>2026-04-04T14:27:11.217Z</time></trkpt><trkpt lat="45.9748829" lon="11.7266038"><ele>581.4285714285714</ele><time>2026-04-04T14:27:13.217Z</time></trkpt><trkpt lat="45.9748072" lon="11.7266559"><ele>581.8571428571429</ele><time>2026-04-04T14:27:15.217Z</time></trkpt><trkpt lat="45.9747398" lon="11.7266877"><ele>582.2857142857142</ele><time>2026-04-04T14:27:17.217Z</time></trkpt><trkpt lat="45.9746528" lon="11.7267012"><ele>582.7142857142858</ele><time>2026-04-04T14:27:19.217Z</time></trkpt><trkpt lat="45.9745918" lon="11.7267392"><ele>583.1428571428571</ele><time>2026-04-04T14:27:22.217Z</time></trkpt><trkpt lat="45.9745319" lon="11.7267829"><ele>583.5714285714286</ele><time>2026-04-04T14:27:26.217Z</time></trkpt><trkpt lat="45.9744624" lon="11.726808"><ele>584.0</ele><time>2026-04-04T14:27:28.217Z</time></trkpt><trkpt lat="45.9743968" lon="11.7268362"><ele>584.0</ele><time>2026-04-04T14:27:30.217Z</time></trkpt><trkpt lat="45.9743127" lon="11.7268799"><ele>584.0</ele><time>2026-04-04T14:27:33.216Z</time></trkpt><trkpt lat="45.9743278" lon="11.7269936"><ele>584.0</ele><time>2026-04-04T14:27:38.217Z</time></trkpt><trkpt lat="45.9743851" lon="11.7270433"><ele>584.0</ele><time>2026-04-04T14:27:42.217Z</time></trkpt><trkpt lat="45.9744466" lon="11.7270767"><ele>584.0</ele><time>2026-04-04T14:27:46.216Z</time></trkpt><trkpt lat="45.9745029" lon="11.7271204"><ele>584.0</ele><time>2026-04-04T14:27:49.216Z</time></trkpt><trkpt lat="45.9745746" lon="11.727144"><ele>584.0</ele><time>2026-04-04T14:27:52.217Z</time></trkpt><trkpt lat="45.974638" lon="11.7272159"><ele>587.7142857142857</ele><time>2026-04-04T14:27:56.217Z</time></trkpt><trkpt lat="45.9746238" lon="11.7273088"><ele>591.4285714285714</ele><time>2026-04-04T14:27:59.217Z</time></trkpt><trkpt lat="45.9745571" lon="11.7273143"><ele>595.1428571428571</ele><time>2026-04-04T14:28:01.217Z</time></trkpt><trkpt lat="45.9744888" lon="11.7273183"><ele>598.8571428571429</ele><time>2026-04-04T14:28:04.216Z</time></trkpt><trkpt lat="45.9744111" lon="11.7273582"><ele>602.5714285714286</ele><time>2026-04-04T14:28:09.217Z</time></trkpt><trkpt lat="45.9743595" lon="11.7274365"><ele>606.2857142857143</ele><time>2026-04-04T14:28:13.217Z</time></trkpt><trkpt lat="45.9742872" lon="11.727503"><ele>610.0</ele><time>2026-04-04T14:28:17.217Z</time></trkpt><trkpt lat="45.9742264" lon="11.7275516"><ele>610.0</ele><time>2026-04-04T14:28:21.217Z</time></trkpt><trkpt lat="45.9741925" lon="11.7276328"><ele>610.0</ele><time>2026-04-04T14:28:24.217Z</time></trkpt><trkpt lat="45.9741479" lon="11.7277197"><ele>610.0</ele><time>2026-04-04T14:28:27.217Z</time></trkpt><trkpt lat="45.9741043" lon="11.7278147"><ele>610.0</ele><time>2026-04-04T14:28:30.216Z</time></trkpt><trkpt lat="45.9740708" lon="11.7279233"><ele>610.0</ele><time>2026-04-04T14:28:33.217Z</time></trkpt><trkpt lat="45.97404" lon="11.7280082"><ele>610.0</ele><time>2026-04-04T14:28:35.217Z</time></trkpt><trkpt lat="45.9740062" lon="11.728094"><ele>610.0</ele><time>2026-04-04T14:28:37.217Z</time></trkpt><trkpt lat="45.9739698" lon="11.7281797"><ele>612.6666666666667</ele><time>2026-04-04T14:28:39.217Z</time></trkpt><trkpt lat="45.9739461" lon="11.7283119"><ele>615.3333333333334</ele><time>2026-04-04T14:28:42.217Z</time></trkpt><trkpt lat="45.9739387" lon="11.7284291"><ele>618.0</ele><time>2026-04-04T14:28:44.217Z</time></trkpt><trkpt lat="45.9739358" lon="11.7285559"><ele>620.6666666666666</ele><time>2026-04-04T14:28:46.217Z</time></trkpt><trkpt lat="45.9739689" lon="11.7286373"><ele>623.3333333333333</ele><time>2026-04-04T14:28:49.216Z</time></trkpt><trkpt lat="45.9740245" lon="11.7287073"><ele>626.0</ele><time>2026-04-04T14:28:53.217Z</time></trkpt><trkpt lat="45.9741032" lon="11.7287871"><ele>629.8333333333333</ele><time>2026-04-04T14:28:57.217Z</time></trkpt><trkpt lat="45.9741589" lon="11.7288715"><ele>633.6666666666666</ele><time>2026-04-04T14:29:00.217Z</time></trkpt><trkpt lat="45.974201" lon="11.7289454"><ele>637.5</ele><time>2026-04-04T14:29:03.217Z</time></trkpt><trkpt lat="45.9742611" lon="11.72901"><ele>641.3333333333334</ele><time>2026-04-04T14:29:05.217Z</time></trkpt><trkpt lat="45.9743055" lon="11.7291036"><ele>645.1666666666667</ele><time>2026-04-04T14:29:09.217Z</time></trkpt><trkpt lat="45.9743722" lon="11.7291605"><ele>649.0</ele><time>2026-04-04T14:29:12.217Z</time></trkpt><trkpt lat="45.974415" lon="11.7292621"><ele>649.0</ele><time>2026-04-04T14:29:15.217Z</time></trkpt><trkpt lat="45.9744386" lon="11.7293575"><ele>649.0</ele><time>2026-04-04T14:29:18.217Z</time></trkpt><trkpt lat="45.9744689" lon="11.729449"><ele>649.0</ele><time>2026-04-04T14:29:21.217Z</time></trkpt><trkpt lat="45.9744641" lon="11.7295625"><ele>649.0</ele><time>2026-04-04T14:29:24.217Z</time></trkpt><trkpt lat="45.974447" lon="11.7296693"><ele>649.0</ele><time>2026-04-04T14:29:26.217Z</time></trkpt><trkpt lat="45.9744401" lon="11.7297988"><ele>649.0</ele><time>2026-04-04T14:29:28.217Z</time></trkpt><trkpt lat="45.9744349" lon="11.7299495"><ele>651.6</ele><time>2026-04-04T14:29:30.217Z</time></trkpt><trkpt lat="45.9744276" lon="11.7300928"><ele>654.2</ele><time>2026-04-04T14:29:32.217Z</time></trkpt><trkpt lat="45.9744006" lon="11.7302311"><ele>656.8000000000001</ele><time>2026-04-04T14:29:34.217Z</time></trkpt><trkpt lat="45.9743548" lon="11.7303532"><ele>659.4000000000001</ele><time>2026-04-04T14:29:36.217Z</time></trkpt><trkpt lat="45.9743018" lon="11.7304244"><ele>662.0</ele><time>2026-04-04T14:29:38.217Z</time></trkpt><trkpt lat="45.9742184" lon="11.7304231"><ele>664.3333333333333</ele><time>2026-04-04T14:29:40.215Z</time></trkpt><trkpt lat="45.9741598" lon="11.7303799"><ele>666.6666666666666</ele><time>2026-04-04T14:29:43.217Z</time></trkpt><trkpt lat="45.9740913" lon="11.7303508"><ele>669.0</ele><time>2026-04-04T14:29:48.217Z</time></trkpt><trkpt lat="45.9739984" lon="11.7303074"><ele>671.3333333333334</ele><time>2026-04-04T14:29:51.217Z</time></trkpt><trkpt lat="45.9739183" lon="11.7302552"><ele>673.6666666666667</ele><time>2026-04-04T14:29:54.216Z</time></trkpt><trkpt lat="45.9738288" lon="11.7302506"><ele>676.0</ele><time>2026-04-04T14:29:57.217Z</time></trkpt><trkpt lat="45.9737543" lon="11.7302723"><ele>676.0</ele><time>2026-04-04T14:30:00.217Z</time></trkpt><trkpt lat="45.9737076" lon="11.7303592"><ele>676.0</ele><time>2026-04-04T14:30:05.217Z</time></trkpt><trkpt lat="45.9736853" lon="11.7304745"><ele>676.0</ele><time>2026-04-04T14:30:09.216Z</time></trkpt><trkpt lat="45.9736871" lon="11.7305944"><ele>676.0</ele><time>2026-04-04T14:30:12.217Z</time></trkpt><trkpt lat="45.9736849" lon="11.7306997"><ele>676.0</ele><time>2026-04-04T14:30:15.217Z</time></trkpt><trkpt lat="45.9736432" lon="11.7307802"><ele>676.0</ele><time>2026-04-04T14:30:18.217Z</time></trkpt><trkpt lat="45.9736035" lon="11.7308737"><ele>676.0</ele><time>2026-04-04T14:30:20.217Z</time></trkpt><trkpt lat="45.9735736" lon="11.7309543"><ele>676.0</ele><time>2026-04-04T14:30:22.217Z</time></trkpt><trkpt lat="45.9735406" lon="11.7310401"><ele>676.0</ele><time>2026-04-04T14:30:24.216Z</time></trkpt><trkpt lat="45.9734922" lon="11.7311379"><ele>676.0</ele><time>2026-04-04T14:30:27.217Z</time></trkpt><trkpt lat="45.9734112" lon="11.7311603"><ele>676.0</ele><time>2026-04-04T14:30:30.217Z</time></trkpt><trkpt lat="45.9733405" lon="11.7311814"><ele>676.0</ele><time>2026-04-04T14:30:32.217Z</time></trkpt><trkpt lat="45.9732639" lon="11.731222"><ele>679.0</ele><time>2026-04-04T14:30:34.217Z</time></trkpt><trkpt lat="45.9732027" lon="11.7312469"><ele>682.0</ele><time>2026-04-04T14:30:36.217Z</time></trkpt><trkpt lat="45.9730615" lon="11.7313095"><ele>685.0</ele><time>2026-04-04T14:30:38.217Z</time></trkpt><trkpt lat="45.9729829" lon="11.7313295"><ele>688.0</ele><time>2026-04-04T14:30:40.217Z</time></trkpt><trkpt lat="45.9729189" lon="11.7313596"><ele>691.0</ele><time>2026-04-04T14:30:42.217Z</time></trkpt><trkpt lat="45.9728431" lon="11.731396"><ele>694.0</ele><time>2026-04-04T14:30:45.216Z</time></trkpt><trkpt lat="45.9727916" lon="11.731457"><ele>694.0</ele><time>2026-04-04T14:30:48.217Z</time></trkpt><trkpt lat="45.9727301" lon="11.7315121"><ele>694.0</ele><time>2026-04-04T14:30:51.217Z</time></trkpt><trkpt lat="45.972658" lon="11.7315465"><ele>694.0</ele><time>2026-04-04T14:30:53.217Z</time></trkpt><trkpt lat="45.9725764" lon="11.7315992"><ele>694.0</ele><time>2026-04-04T14:30:55.216Z</time></trkpt><trkpt lat="45.9724914" lon="11.7316207"><ele>694.0</ele><time>2026-04-04T14:30:57.217Z</time></trkpt><trkpt lat="45.9723939" lon="11.731597"><ele>694.0</ele><time>2026-04-04T14:30:59.216Z</time></trkpt><trkpt lat="45.9722976" lon="11.7315898"><ele>694.3333333333334</ele><time>2026-04-04T14:31:01.217Z</time></trkpt><trkpt lat="45.972211" lon="11.7316111"><ele>694.6666666666667</ele><time>2026-04-04T14:31:03.216Z</time></trkpt><trkpt lat="45.9721211" lon="11.7316397"><ele>695.0</ele><time>2026-04-04T14:31:05.217Z</time></trkpt><trkpt lat="45.9720364" lon="11.7317008"><ele>695.3333333333334</ele><time>2026-04-04T14:31:07.217Z</time></trkpt><trkpt lat="45.9719578" lon="11.7317339"><ele>695.6666666666666</ele><time>2026-04-04T14:31:09.217Z</time></trkpt><trkpt lat="45.9718779" lon="11.73175"><ele>696.0</ele><time>2026-04-04T14:31:11.216Z</time></trkpt><trkpt lat="45.9717948" lon="11.7317701"><ele>696.0</ele><time>2026-04-04T14:31:13.217Z</time></trkpt><trkpt lat="45.9717248" lon="11.7317751"><ele>696.0</ele><time>2026-04-04T14:31:15.217Z</time></trkpt><trkpt lat="45.9716551" lon="11.7317848"><ele>696.0</ele><time>2026-04-04T14:31:17.217Z</time></trkpt><trkpt lat="45.9715748" lon="11.7317908"><ele>696.0</ele><time>2026-04-04T14:31:19.217Z</time></trkpt><trkpt lat="45.9714636" lon="11.7317807"><ele>696.0</ele><time>2026-04-04T14:31:21.217Z</time></trkpt><trkpt lat="45.9713526" lon="11.7317709"><ele>696.0</ele><time>2026-04-04T14:31:23.217Z</time></trkpt><trkpt lat="45.9712566" lon="11.7317335"><ele>696.4</ele><time>2026-04-04T14:31:25.217Z</time></trkpt><trkpt lat="45.9711603" lon="11.7317133"><ele>696.8</ele><time>2026-04-04T14:31:27.217Z</time></trkpt><trkpt lat="45.9710589" lon="11.7316992"><ele>697.1999999999999</ele><time>2026-04-04T14:31:29.217Z</time></trkpt><trkpt lat="45.9709552" lon="11.7317048"><ele>697.5999999999999</ele><time>2026-04-04T14:31:31.217Z</time></trkpt><trkpt lat="45.9708387" lon="11.7317123"><ele>698.0</ele><time>2026-04-04T14:31:33.217Z</time></trkpt><trkpt lat="45.9707205" lon="11.7317404"><ele>698.0</ele><time>2026-04-04T14:31:35.217Z</time></trkpt><trkpt lat="45.9706148" lon="11.7317108"><ele>698.0</ele><time>2026-04-04T14:31:37.217Z</time></trkpt><trkpt lat="45.9704975" lon="11.7317071"><ele>698.0</ele><time>2026-04-04T14:31:39.217Z</time></trkpt><trkpt lat="45.9703871" lon="11.7317541"><ele>698.0</ele><time>2026-04-04T14:31:41.217Z</time></trkpt><trkpt lat="45.9703279" lon="11.7318078"><ele>698.0</ele><time>2026-04-04T14:31:42.217Z</time></trkpt><trkpt lat="45.9702632" lon="11.7318466"><ele>698.0</ele><time>2026-04-04T14:31:43.217Z</time></trkpt><trkpt lat="45.9701897" lon="11.7318606"><ele>698.0</ele><time>2026-04-04T14:31:44.217Z</time></trkpt><trkpt lat="45.9701148" lon="11.7318926"><ele>698.0</ele><time>2026-04-04T14:31:45.217Z</time></trkpt><trkpt lat="45.9700436" lon="11.7319127"><ele>698.0</ele><time>2026-04-04T14:31:46.217Z</time></trkpt><trkpt lat="45.9699704" lon="11.7319095"><ele>698.0</ele><time>2026-04-04T14:31:47.217Z</time></trkpt><trkpt lat="45.9698255" lon="11.7318857"><ele>698.0</ele><time>2026-04-04T14:31:49.216Z</time></trkpt><trkpt lat="45.9697356" lon="11.7318909"><ele>697.8</ele><time>2026-04-04T14:31:50.217Z</time></trkpt><trkpt lat="45.9696426" lon="11.7318821"><ele>697.5999999999999</ele><time>2026-04-04T14:31:51.217Z</time></trkpt><trkpt lat="45.9695469" lon="11.7318683"><ele>697.4000000000001</ele><time>2026-04-04T14:31:52.216Z</time></trkpt><trkpt lat="45.9694207" lon="11.7318185"><ele>697.2</ele><time>2026-04-04T14:31:54.217Z</time></trkpt><trkpt lat="45.969352" lon="11.7317994"><ele>697.0</ele><time>2026-04-04T14:31:55.217Z</time></trkpt><trkpt lat="45.9692576" lon="11.7317627"><ele>697.0</ele><time>2026-04-04T14:31:57.217Z</time></trkpt><trkpt lat="45.9691891" lon="11.7317489"><ele>697.0</ele><time>2026-04-04T14:31:58.216Z</time></trkpt><trkpt lat="45.9690865" lon="11.7317308"><ele>697.0</ele><time>2026-04-04T14:32:00.216Z</time></trkpt><trkpt lat="45.9690115" lon="11.7316984"><ele>697.0</ele><time>2026-04-04T14:32:01.216Z</time></trkpt><trkpt lat="45.9689325" lon="11.7316494"><ele>697.0</ele><time>2026-04-04T14:32:02.217Z</time></trkpt><trkpt lat="45.9688482" lon="11.7316126"><ele>697.0</ele><time>2026-04-04T14:32:03.217Z</time></trkpt><trkpt lat="45.9687677" lon="11.7315642"><ele>697.0</ele><time>2026-04-04T14:32:04.217Z</time></trkpt><trkpt lat="45.9686951" lon="11.7315191"><ele>697.0</ele><time>2026-04-04T14:32:05.216Z</time></trkpt><trkpt lat="45.9686352" lon="11.7314771"><ele>697.0</ele><time>2026-04-04T14:32:06.217Z</time></trkpt><trkpt lat="45.968571" lon="11.73144"><ele>697.0</ele><time>2026-04-04T14:32:07.216Z</time></trkpt><trkpt lat="45.9685084" lon="11.7313993"><ele>697.0</ele><time>2026-04-04T14:32:08.217Z</time></trkpt><trkpt lat="45.9684571" lon="11.7313442"><ele>697.0</ele><time>2026-04-04T14:32:09.217Z</time></trkpt><trkpt lat="45.9684031" lon="11.731297"><ele>697.0</ele><time>2026-04-04T14:32:10.217Z</time></trkpt><trkpt lat="45.9682923" lon="11.7312032"><ele>697.2</ele><time>2026-04-04T14:32:12.217Z</time></trkpt><trkpt lat="45.968232" lon="11.7311628"><ele>697.4000000000001</ele><time>2026-04-04T14:32:13.217Z</time></trkpt><trkpt lat="45.9681692" lon="11.7311295"><ele>697.5999999999999</ele><time>2026-04-04T14:32:14.217Z</time></trkpt><trkpt lat="45.9680516" lon="11.731091"><ele>697.8</ele><time>2026-04-04T14:32:16.217Z</time></trkpt><trkpt lat="45.9679373" lon="11.7310428"><ele>698.0</ele><time>2026-04-04T14:32:18.217Z</time></trkpt><trkpt lat="45.967823" lon="11.7310143"><ele>695.3333333333333</ele><time>2026-04-04T14:32:20.217Z</time></trkpt><trkpt lat="45.9677094" lon="11.7309892"><ele>692.6666666666666</ele><time>2026-04-04T14:32:22.217Z</time></trkpt><trkpt lat="45.9676436" lon="11.730982"><ele>690.0</ele><time>2026-04-04T14:32:23.216Z</time></trkpt><trkpt lat="45.9675786" lon="11.7309749"><ele>687.3333333333334</ele><time>2026-04-04T14:32:24.217Z</time></trkpt><trkpt lat="45.9675146" lon="11.730968"><ele>684.6666666666667</ele><time>2026-04-04T14:32:25.217Z</time></trkpt><trkpt lat="45.9674471" lon="11.7309473"><ele>682.0</ele><time>2026-04-04T14:32:26.217Z</time></trkpt><trkpt lat="45.967375" lon="11.7309222"><ele>682.0</ele><time>2026-04-04T14:32:27.217Z</time></trkpt><trkpt lat="45.9672996" lon="11.7308961"><ele>682.0</ele><time>2026-04-04T14:32:28.217Z</time></trkpt><trkpt lat="45.9672275" lon="11.730861"><ele>682.0</ele><time>2026-04-04T14:32:29.217Z</time></trkpt><trkpt lat="45.9671558" lon="11.730808"><ele>682.0</ele><time>2026-04-04T14:32:30.217Z</time></trkpt><trkpt lat="45.9670902" lon="11.7307397"><ele>682.0</ele><time>2026-04-04T14:32:31.217Z</time></trkpt><trkpt lat="45.9670276" lon="11.7306816"><ele>682.0</ele><time>2026-04-04T14:32:32.217Z</time></trkpt><trkpt lat="45.9669645" lon="11.7306247"><ele>682.0</ele><time>2026-04-04T14:32:33.216Z</time></trkpt><trkpt lat="45.9669003" lon="11.7305685"><ele>682.0</ele><time>2026-04-04T14:32:34.217Z</time></trkpt><trkpt lat="45.9668407" lon="11.7305137"><ele>682.0</ele><time>2026-04-04T14:32:35.217Z</time></trkpt><trkpt lat="45.9667768" lon="11.7304563"><ele>682.0</ele><time>2026-04-04T14:32:36.217Z</time></trkpt><trkpt lat="45.9666806" lon="11.7303878"><ele>682.0</ele><time>2026-04-04T14:32:38.217Z</time></trkpt><trkpt lat="45.9666009" lon="11.7303035"><ele>682.0</ele><time>2026-04-04T14:32:40.216Z</time></trkpt><trkpt lat="45.9665221" lon="11.7301939"><ele>680.7142857142857</ele><time>2026-04-04T14:32:42.217Z</time></trkpt><trkpt lat="45.9664503" lon="11.7301472"><ele>679.4285714285714</ele><time>2026-04-04T14:32:44.216Z</time></trkpt><trkpt lat="45.9664039" lon="11.7300772"><ele>678.1428571428571</ele><time>2026-04-04T14:35:02.217Z</time></trkpt><trkpt lat="45.9664622" lon="11.7301141"><ele>676.8571428571429</ele><time>2026-04-04T14:36:26.217Z</time></trkpt><trkpt lat="45.9663996" lon="11.7300814"><ele>675.5714285714286</ele><time>2026-04-04T14:43:22.217Z</time></trkpt><trkpt lat="45.9664403" lon="11.7299953"><ele>674.2857142857143</ele><time>2026-04-04T14:43:25.217Z</time></trkpt><trkpt lat="45.9664729" lon="11.7299006"><ele>673.0</ele><time>2026-04-04T14:43:27.217Z</time></trkpt><trkpt lat="45.9664571" lon="11.7297995"><ele>673.0</ele><time>2026-04-04T14:43:30.217Z</time></trkpt><trkpt lat="45.9663774" lon="11.7297969"><ele>673.0</ele><time>2026-04-04T14:43:34.217Z</time></trkpt><trkpt lat="45.9663182" lon="11.7298761"><ele>673.0</ele><time>2026-04-04T14:43:36.217Z</time></trkpt><trkpt lat="45.9662622" lon="11.7298279"><ele>673.0</ele><time>2026-04-04T14:43:39.217Z</time></trkpt><trkpt lat="45.9661678" lon="11.7297459"><ele>673.0</ele><time>2026-04-04T14:43:41.217Z</time></trkpt><trkpt lat="45.9660852" lon="11.7296204"><ele>673.0</ele><time>2026-04-04T14:43:43.217Z</time></trkpt><trkpt lat="45.9660566" lon="11.7294773"><ele>673.0</ele><time>2026-04-04T14:43:45.217Z</time></trkpt><trkpt lat="45.9660198" lon="11.7293239"><ele>673.0</ele><time>2026-04-04T14:43:47.217Z</time></trkpt><trkpt lat="45.9660033" lon="11.7291907"><ele>673.0</ele><time>2026-04-04T14:43:49.217Z</time></trkpt><trkpt lat="45.9660181" lon="11.7291024"><ele>673.0</ele><time>2026-04-04T14:43:51.216Z</time></trkpt><trkpt lat="45.9659899" lon="11.7289932"><ele>673.6666666666667</ele><time>2026-04-04T14:43:53.217Z</time></trkpt><trkpt lat="45.9659683" lon="11.7288751"><ele>674.3333333333334</ele><time>2026-04-04T14:43:55.216Z</time></trkpt><trkpt lat="45.9659586" lon="11.7287557"><ele>675.0</ele><time>2026-04-04T14:43:58.217Z</time></trkpt><trkpt lat="45.9659404" lon="11.7286432"><ele>675.6666666666666</ele><time>2026-04-04T14:44:01.217Z</time></trkpt><trkpt lat="45.9659202" lon="11.7285234"><ele>676.3333333333333</ele><time>2026-04-04T14:44:04.217Z</time></trkpt><trkpt lat="45.9659066" lon="11.728418"><ele>677.0</ele><time>2026-04-04T14:44:06.217Z</time></trkpt><trkpt lat="45.9658968" lon="11.7283165"><ele>678.0</ele><time>2026-04-04T14:44:08.217Z</time></trkpt><trkpt lat="45.9658829" lon="11.7281952"><ele>679.0</ele><time>2026-04-04T14:44:10.217Z</time></trkpt><trkpt lat="45.9658697" lon="11.7280773"><ele>680.0</ele><time>2026-04-04T14:44:12.217Z</time></trkpt><trkpt lat="45.965857" lon="11.7279651"><ele>681.0</ele><time>2026-04-04T14:44:14.217Z</time></trkpt><trkpt lat="45.9658303" lon="11.7278408"><ele>682.0</ele><time>2026-04-04T14:44:16.217Z</time></trkpt><trkpt lat="45.9658031" lon="11.7277459"><ele>683.0</ele><time>2026-04-04T14:44:17.217Z</time></trkpt><trkpt lat="45.9657921" lon="11.727654"><ele>688.3333333333333</ele><time>2026-04-04T14:44:18.217Z</time></trkpt><trkpt lat="45.9657873" lon="11.7274884"><ele>693.6666666666666</ele><time>2026-04-04T14:44:20.217Z</time></trkpt><trkpt lat="45.9657744" lon="11.7273475"><ele>699.0</ele><time>2026-04-04T14:44:22.217Z</time></trkpt><trkpt lat="45.9657239" lon="11.727245"><ele>704.3333333333334</ele><time>2026-04-04T14:44:24.217Z</time></trkpt><trkpt lat="45.9656712" lon="11.7271748"><ele>709.6666666666667</ele><time>2026-04-04T14:44:25.217Z</time></trkpt><trkpt lat="45.9656184" lon="11.7271158"><ele>715.0</ele><time>2026-04-04T14:44:26.217Z</time></trkpt><trkpt lat="45.9655717" lon="11.7270462"><ele>715.0</ele><time>2026-04-04T14:44:27.217Z</time></trkpt><trkpt lat="45.9655207" lon="11.726979"><ele>715.0</ele><time>2026-04-04T14:44:28.217Z</time></trkpt><trkpt lat="45.965477" lon="11.7269065"><ele>715.0</ele><time>2026-04-04T14:44:29.217Z</time></trkpt><trkpt lat="45.9654362" lon="11.7268354"><ele>715.0</ele><time>2026-04-04T14:44:30.217Z</time></trkpt><trkpt lat="45.9653541" lon="11.7267459"><ele>715.0</ele><time>2026-04-04T14:44:32.217Z</time></trkpt><trkpt lat="45.9653087" lon="11.7266257"><ele>715.0</ele><time>2026-04-04T14:44:34.217Z</time></trkpt><trkpt lat="45.9652541" lon="11.7264813"><ele>712.3333333333334</ele><time>2026-04-04T14:44:36.217Z</time></trkpt><trkpt lat="45.9652117" lon="11.7263228"><ele>709.6666666666667</ele><time>2026-04-04T14:44:38.217Z</time></trkpt><trkpt lat="45.9651893" lon="11.7262366"><ele>707.0</ele><time>2026-04-04T14:44:39.217Z</time></trkpt><trkpt lat="45.9651726" lon="11.7261441"><ele>704.3333333333334</ele><time>2026-04-04T14:44:40.217Z</time></trkpt><trkpt lat="45.9651291" lon="11.7260158"><ele>701.6666666666666</ele><time>2026-04-04T14:44:42.217Z</time></trkpt><trkpt lat="45.9650891" lon="11.7259283"><ele>699.0</ele><time>2026-04-04T14:44:43.217Z</time></trkpt><trkpt lat="45.9650575" lon="11.7258498"><ele>701.0</ele><time>2026-04-04T14:44:44.217Z</time></trkpt><trkpt lat="45.9650214" lon="11.7257597"><ele>703.0</ele><time>2026-04-04T14:44:45.217Z</time></trkpt><trkpt lat="45.9649758" lon="11.7256725"><ele>705.0</ele><time>2026-04-04T14:44:46.217Z</time></trkpt><trkpt lat="45.9649337" lon="11.7255878"><ele>707.0</ele><time>2026-04-04T14:44:47.217Z</time></trkpt><trkpt lat="45.964893" lon="11.7255121"><ele>709.0</ele><time>2026-04-04T14:44:48.217Z</time></trkpt><trkpt lat="45.9648229" lon="11.7253923"><ele>711.0</ele><time>2026-04-04T14:44:50.217Z</time></trkpt><trkpt lat="45.9647739" lon="11.7253081"><ele>711.0</ele><time>2026-04-04T14:44:51.217Z</time></trkpt><trkpt lat="45.9647257" lon="11.7252453"><ele>711.0</ele><time>2026-04-04T14:44:52.217Z</time></trkpt><trkpt lat="45.9646822" lon="11.7251664"><ele>711.0</ele><time>2026-04-04T14:44:53.217Z</time></trkpt><trkpt lat="45.9645952" lon="11.7250379"><ele>711.0</ele><time>2026-04-04T14:44:55.217Z</time></trkpt><trkpt lat="45.9645245" lon="11.7249015"><ele>711.0</ele><time>2026-04-04T14:44:57.217Z</time></trkpt><trkpt lat="45.96447" lon="11.7247933"><ele>707.4285714285714</ele><time>2026-04-04T14:44:59.217Z</time></trkpt><trkpt lat="45.9644338" lon="11.7247134"><ele>703.8571428571429</ele><time>2026-04-04T14:45:01.217Z</time></trkpt><trkpt lat="45.9643754" lon="11.7246446"><ele>700.2857142857142</ele><time>2026-04-04T14:45:05.217Z</time></trkpt><trkpt lat="45.9643407" lon="11.7245586"><ele>696.7142857142858</ele><time>2026-04-04T14:45:07.217Z</time></trkpt><trkpt lat="45.9643232" lon="11.7244578"><ele>693.1428571428571</ele><time>2026-04-04T14:45:09.217Z</time></trkpt><trkpt lat="45.9643209" lon="11.7243656"><ele>689.5714285714286</ele><time>2026-04-04T14:45:11.217Z</time></trkpt><trkpt lat="45.9643172" lon="11.724237"><ele>686.0</ele><time>2026-04-04T14:45:14.216Z</time></trkpt><trkpt lat="45.9642935" lon="11.7241378"><ele>685.8</ele><time>2026-04-04T14:45:17.217Z</time></trkpt><trkpt lat="45.9642516" lon="11.724019"><ele>685.5999999999999</ele><time>2026-04-04T14:45:19.217Z</time></trkpt><trkpt lat="45.964195" lon="11.7237804"><ele>685.4</ele><time>2026-04-04T14:45:21.217Z</time></trkpt><trkpt lat="45.9641759" lon="11.7236715"><ele>685.2</ele><time>2026-04-04T14:45:23.217Z</time></trkpt><trkpt lat="45.9641528" lon="11.7235865"><ele>685.0</ele><time>2026-04-04T14:45:25.217Z</time></trkpt><trkpt lat="45.9640996" lon="11.7235013"><ele>679.4</ele><time>2026-04-04T14:45:28.217Z</time></trkpt><trkpt lat="45.9640061" lon="11.723368"><ele>673.8</ele><time>2026-04-04T14:45:30.217Z</time></trkpt><trkpt lat="45.9639707" lon="11.7232532"><ele>668.2</ele><time>2026-04-04T14:45:33.217Z</time></trkpt><trkpt lat="45.9638881" lon="11.7231532"><ele>662.6</ele><time>2026-04-04T14:45:35.217Z</time></trkpt><trkpt lat="45.963856" lon="11.7230728"><ele>657.0</ele><time>2026-04-04T14:45:38.217Z</time></trkpt><trkpt lat="45.9638191" lon="11.7229685"><ele>657.0</ele><time>2026-04-04T14:45:41.217Z</time></trkpt><trkpt lat="45.9637991" lon="11.7228752"><ele>657.0</ele><time>2026-04-04T14:45:44.217Z</time></trkpt><trkpt lat="45.9637967" lon="11.7227791"><ele>657.0</ele><time>2026-04-04T14:45:47.217Z</time></trkpt><trkpt lat="45.9637726" lon="11.7226582"><ele>657.0</ele><time>2026-04-04T14:45:50.217Z</time></trkpt><trkpt lat="45.9638335" lon="11.7226961"><ele>657.0</ele><time>2026-04-04T14:46:00.217Z</time></trkpt><trkpt lat="45.96395" lon="11.7227994"><ele>657.0</ele><time>2026-04-04T14:46:07.217Z</time></trkpt><trkpt lat="45.9640605" lon="11.7228722"><ele>657.0</ele><time>2026-04-04T14:46:09.216Z</time></trkpt><trkpt lat="45.9641283" lon="11.7228944"><ele>657.0</ele><time>2026-04-04T14:46:10.217Z</time></trkpt><trkpt lat="45.9642044" lon="11.7229438"><ele>657.0</ele><time>2026-04-04T14:46:11.217Z</time></trkpt><trkpt lat="45.9642843" lon="11.7229924"><ele>657.0</ele><time>2026-04-04T14:46:12.216Z</time></trkpt><trkpt lat="45.9643428" lon="11.7230593"><ele>657.0</ele><time>2026-04-04T14:46:13.216Z</time></trkpt><trkpt lat="45.9644134" lon="11.7231125"><ele>657.0</ele><time>2026-04-04T14:46:14.217Z</time></trkpt><trkpt lat="45.964477" lon="11.7231607"><ele>651.6666666666666</ele><time>2026-04-04T14:46:15.217Z</time></trkpt><trkpt lat="45.9645609" lon="11.7231853"><ele>646.3333333333334</ele><time>2026-04-04T14:46:16.217Z</time></trkpt><trkpt lat="45.9646334" lon="11.7232109"><ele>641.0</ele><time>2026-04-04T14:46:17.217Z</time></trkpt><trkpt lat="45.9647028" lon="11.7232584"><ele>635.6666666666667</ele><time>2026-04-04T14:46:19.217Z</time></trkpt><trkpt lat="45.9646588" lon="11.7231771"><ele>630.3333333333334</ele><time>2026-04-04T14:46:26.217Z</time></trkpt><trkpt lat="45.9646519" lon="11.723055"><ele>625.0</ele><time>2026-04-04T14:46:29.217Z</time></trkpt><trkpt lat="45.9646215" lon="11.7229574"><ele>625.0</ele><time>2026-04-04T14:46:31.217Z</time></trkpt><trkpt lat="45.9645867" lon="11.7228455"><ele>625.0</ele><time>2026-04-04T14:46:33.217Z</time></trkpt><trkpt lat="45.9644472" lon="11.7226895"><ele>625.0</ele><time>2026-04-04T14:46:34.217Z</time></trkpt><trkpt lat="45.9643904" lon="11.7225916"><ele>625.0</ele><time>2026-04-04T14:46:36.217Z</time></trkpt><trkpt lat="45.9643246" lon="11.7225351"><ele>625.0</ele><time>2026-04-04T14:46:37.216Z</time></trkpt><trkpt lat="45.9642512" lon="11.7225021"><ele>624.2</ele><time>2026-04-04T14:46:40.217Z</time></trkpt><trkpt lat="45.9641985" lon="11.7224266"><ele>623.4</ele><time>2026-04-04T14:46:44.217Z</time></trkpt><trkpt lat="45.9641302" lon="11.722309"><ele>622.6</ele><time>2026-04-04T14:46:46.217Z</time></trkpt><trkpt lat="45.9640666" lon="11.7221702"><ele>621.8</ele><time>2026-04-04T14:46:48.217Z</time></trkpt><trkpt lat="45.9640265" lon="11.7220405"><ele>621.0</ele><time>2026-04-04T14:46:50.217Z</time></trkpt><trkpt lat="45.9639938" lon="11.7219585"><ele>615.6666666666666</ele><time>2026-04-04T14:46:51.217Z</time></trkpt><trkpt lat="45.9639478" lon="11.7218044"><ele>610.3333333333334</ele><time>2026-04-04T14:46:53.217Z</time></trkpt><trkpt lat="45.9638904" lon="11.7217139"><ele>605.0</ele><time>2026-04-04T14:46:55.217Z</time></trkpt><trkpt lat="45.9638278" lon="11.7216416"><ele>599.6666666666667</ele><time>2026-04-04T14:46:57.217Z</time></trkpt><trkpt lat="45.9638099" lon="11.7215199"><ele>594.3333333333334</ele><time>2026-04-04T14:46:59.217Z</time></trkpt><trkpt lat="45.9637951" lon="11.7214288"><ele>589.0</ele><time>2026-04-04T14:47:00.217Z</time></trkpt><trkpt lat="45.9637415" lon="11.7213299"><ele>589.0</ele><time>2026-04-04T14:47:04.217Z</time></trkpt><trkpt lat="45.963704" lon="11.7212514"><ele>589.0</ele><time>2026-04-04T14:47:06.217Z</time></trkpt><trkpt lat="45.9636648" lon="11.7211696"><ele>589.0</ele><time>2026-04-04T14:47:08.217Z</time></trkpt><trkpt lat="45.9636193" lon="11.721091"><ele>589.0</ele><time>2026-04-04T14:47:10.217Z</time></trkpt><trkpt lat="45.9635684" lon="11.7210295"><ele>589.0</ele><time>2026-04-04T14:47:13.216Z</time></trkpt><trkpt lat="45.963514" lon="11.7209833"><ele>589.0</ele><time>2026-04-04T14:47:16.216Z</time></trkpt><trkpt lat="45.9634405" lon="11.7208608"><ele>589.0</ele><time>2026-04-04T14:47:18.217Z</time></trkpt><trkpt lat="45.9633688" lon="11.7207629"><ele>587.3333333333334</ele><time>2026-04-04T14:47:20.217Z</time></trkpt><trkpt lat="45.9633091" lon="11.7206675"><ele>585.6666666666667</ele><time>2026-04-04T14:47:23.217Z</time></trkpt><trkpt lat="45.9632715" lon="11.7205559"><ele>584.0</ele><time>2026-04-04T14:47:25.217Z</time></trkpt><trkpt lat="45.9632328" lon="11.7204472"><ele>582.3333333333334</ele><time>2026-04-04T14:47:27.217Z</time></trkpt><trkpt lat="45.9631871" lon="11.7203488"><ele>580.6666666666666</ele><time>2026-04-04T14:47:29.217Z</time></trkpt><trkpt lat="45.9631418" lon="11.7202452"><ele>579.0</ele><time>2026-04-04T14:47:31.217Z</time></trkpt><trkpt lat="45.9630828" lon="11.720171"><ele>572.8</ele><time>2026-04-04T14:47:33.217Z</time></trkpt><trkpt lat="45.9630309" lon="11.720111"><ele>566.5999999999999</ele><time>2026-04-04T14:47:35.217Z</time></trkpt><trkpt lat="45.9629649" lon="11.7200335"><ele>560.4</ele><time>2026-04-04T14:47:37.217Z</time></trkpt><trkpt lat="45.9628653" lon="11.7199397"><ele>554.1999999999999</ele><time>2026-04-04T14:47:39.217Z</time></trkpt><trkpt lat="45.9627556" lon="11.719851"><ele>548.0</ele><time>2026-04-04T14:47:41.217Z</time></trkpt><trkpt lat="45.9626527" lon="11.7197918"><ele>548.0</ele><time>2026-04-04T14:47:43.217Z</time></trkpt><trkpt lat="45.962576" lon="11.7197409"><ele>548.0</ele><time>2026-04-04T14:47:45.217Z</time></trkpt><trkpt lat="45.9625099" lon="11.7196791"><ele>548.0</ele><time>2026-04-04T14:47:47.216Z</time></trkpt><trkpt lat="45.96246" lon="11.7196133"><ele>548.0</ele><time>2026-04-04T14:47:49.217Z</time></trkpt><trkpt lat="45.9624105" lon="11.7195464"><ele>548.0</ele><time>2026-04-04T14:48:26.217Z</time></trkpt><trkpt lat="45.9623888" lon="11.7194374"><ele>548.0</ele><time>2026-04-04T14:49:03.217Z</time></trkpt><trkpt lat="45.9623773" lon="11.7193322"><ele>545.6666666666666</ele><time>2026-04-04T14:49:09.217Z</time></trkpt><trkpt lat="45.9623372" lon="11.7192383"><ele>543.3333333333333</ele><time>2026-04-04T14:49:40.217Z</time></trkpt><trkpt lat="45.962285" lon="11.7191469"><ele>541.0</ele><time>2026-04-04T14:49:50.216Z</time></trkpt><trkpt lat="45.9622776" lon="11.7190446"><ele>538.6666666666666</ele><time>2026-04-04T14:49:56.217Z</time></trkpt><trkpt lat="45.9622325" lon="11.718975"><ele>536.3333333333334</ele><time>2026-04-04T14:49:59.217Z</time></trkpt><trkpt lat="45.9621549" lon="11.718878"><ele>534.0</ele><time>2026-04-04T14:50:02.216Z</time></trkpt><trkpt lat="45.9620833" lon="11.7188132"><ele>534.0</ele><time>2026-04-04T14:50:04.217Z</time></trkpt><trkpt lat="45.9620271" lon="11.7187456"><ele>534.0</ele><time>2026-04-04T14:50:06.217Z</time></trkpt><trkpt lat="45.961953" lon="11.7186774"><ele>534.0</ele><time>2026-04-04T14:50:09.217Z</time></trkpt><trkpt lat="45.9618871" lon="11.7186298"><ele>534.0</ele><time>2026-04-04T14:50:13.217Z</time></trkpt><trkpt lat="45.9618202" lon="11.718611"><ele>534.0</ele><time>2026-04-04T14:50:18.217Z</time></trkpt><trkpt lat="45.9617695" lon="11.7186725"><ele>534.0</ele><time>2026-04-04T14:50:21.216Z</time></trkpt><trkpt lat="45.9617642" lon="11.7187888"><ele>534.0000000000001</ele><time>2026-04-04T14:50:23.217Z</time></trkpt><trkpt lat="45.9617749" lon="11.7188924"><ele>534.0</ele><time>2026-04-04T14:50:25.217Z</time></trkpt><trkpt lat="45.9618297" lon="11.7189738"><ele>534.0</ele><time>2026-04-04T14:50:27.217Z</time></trkpt><trkpt lat="45.9618764" lon="11.7190694"><ele>534.0</ele><time>2026-04-04T14:50:29.216Z</time></trkpt><trkpt lat="45.9619246" lon="11.7191564"><ele>534.0</ele><time>2026-04-04T14:50:31.216Z</time></trkpt><trkpt lat="45.9619638" lon="11.7192304"><ele>534.0000000000001</ele><time>2026-04-04T14:50:33.216Z</time></trkpt><trkpt lat="45.9620044" lon="11.7193124"><ele>534.0</ele><time>2026-04-04T14:50:35.217Z</time></trkpt><trkpt lat="45.9620518" lon="11.7194184"><ele>538.3333333333334</ele><time>2026-04-04T14:50:37.217Z</time></trkpt><trkpt lat="45.9621033" lon="11.7195102"><ele>542.6666666666666</ele><time>2026-04-04T14:50:39.217Z</time></trkpt><trkpt lat="45.9621612" lon="11.7196013"><ele>547.0</ele><time>2026-04-04T14:50:41.216Z</time></trkpt><trkpt lat="45.96218" lon="11.7196918"><ele>551.3333333333333</ele><time>2026-04-04T14:50:43.217Z</time></trkpt><trkpt lat="45.9621187" lon="11.7197469"><ele>555.6666666666666</ele><time>2026-04-04T14:50:47.217Z</time></trkpt><trkpt lat="45.9620715" lon="11.7198185"><ele>560.0</ele><time>2026-04-04T14:50:51.217Z</time></trkpt><trkpt lat="45.9620184" lon="11.7198958"><ele>560.0</ele><time>2026-04-04T14:50:54.217Z</time></trkpt><trkpt lat="45.9619762" lon="11.7199711"><ele>560.0</ele><time>2026-04-04T14:50:56.217Z</time></trkpt><trkpt lat="45.9619434" lon="11.7200657"><ele>560.0</ele><time>2026-04-04T14:50:58.217Z</time></trkpt><trkpt lat="45.9619163" lon="11.7201563"><ele>560.0</ele><time>2026-04-04T14:51:00.217Z</time></trkpt><trkpt lat="45.9619138" lon="11.7202586"><ele>560.0</ele><time>2026-04-04T14:51:02.217Z</time></trkpt><trkpt lat="45.961915" lon="11.7203516"><ele>560.0</ele><time>2026-04-04T14:51:04.217Z</time></trkpt><trkpt lat="45.9619445" lon="11.7204716"><ele>560.0</ele><time>2026-04-04T14:51:07.216Z</time></trkpt><trkpt lat="45.9620244" lon="11.720545"><ele>564.3333333333333</ele><time>2026-04-04T14:51:10.217Z</time></trkpt><trkpt lat="45.9620997" lon="11.7205661"><ele>568.6666666666666</ele><time>2026-04-04T14:51:12.217Z</time></trkpt><trkpt lat="45.9621851" lon="11.7205897"><ele>573.0</ele><time>2026-04-04T14:51:14.217Z</time></trkpt><trkpt lat="45.9622601" lon="11.7206142"><ele>577.3333333333334</ele><time>2026-04-04T14:51:16.217Z</time></trkpt><trkpt lat="45.9623279" lon="11.7206276"><ele>581.6666666666667</ele><time>2026-04-04T14:51:18.217Z</time></trkpt><trkpt lat="45.9623885" lon="11.7206543"><ele>586.0</ele><time>2026-04-04T14:51:20.216Z</time></trkpt><trkpt lat="45.9624599" lon="11.7206981"><ele>584.6</ele><time>2026-04-04T14:51:22.217Z</time></trkpt><trkpt lat="45.9625569" lon="11.7207495"><ele>583.2</ele><time>2026-04-04T14:51:23.217Z</time></trkpt><trkpt lat="45.9626317" lon="11.7207845"><ele>581.8</ele><time>2026-04-04T14:51:24.217Z</time></trkpt><trkpt lat="45.9627272" lon="11.7208695"><ele>580.4</ele><time>2026-04-04T14:51:26.217Z</time></trkpt><trkpt lat="45.9628269" lon="11.7209743"><ele>579.0</ele><time>2026-04-04T14:51:28.217Z</time></trkpt><trkpt lat="45.9628544" lon="11.7210946"><ele>583.8</ele><time>2026-04-04T14:51:30.217Z</time></trkpt><trkpt lat="45.9629033" lon="11.7212073"><ele>588.5999999999999</ele><time>2026-04-04T14:51:32.217Z</time></trkpt><trkpt lat="45.9629347" lon="11.7212884"><ele>593.4</ele><time>2026-04-04T14:51:34.216Z</time></trkpt><trkpt lat="45.962977" lon="11.721382"><ele>598.1999999999999</ele><time>2026-04-04T14:51:36.216Z</time></trkpt><trkpt lat="45.9630418" lon="11.721519"><ele>603.0</ele><time>2026-04-04T14:51:38.216Z</time></trkpt><trkpt lat="45.9630903" lon="11.7216498"><ele>603.0</ele><time>2026-04-04T14:51:40.216Z</time></trkpt><trkpt lat="45.9631288" lon="11.7217502"><ele>603.0</ele><time>2026-04-04T14:51:42.216Z</time></trkpt><trkpt lat="45.9631389" lon="11.7218607"><ele>603.0</ele><time>2026-04-04T14:51:45.217Z</time></trkpt><trkpt lat="45.9631027" lon="11.7219789"><ele>603.0</ele><time>2026-04-04T14:51:48.217Z</time></trkpt><trkpt lat="45.9630961" lon="11.7221076"><ele>603.0</ele><time>2026-04-04T14:51:51.217Z</time></trkpt><trkpt lat="45.9631238" lon="11.7222148"><ele>603.0</ele><time>2026-04-04T14:51:53.216Z</time></trkpt><trkpt lat="45.9631898" lon="11.7222868"><ele>608.3333333333334</ele><time>2026-04-04T14:51:57.217Z</time></trkpt><trkpt lat="45.9632132" lon="11.7223966"><ele>613.6666666666666</ele><time>2026-04-04T14:52:02.217Z</time></trkpt><trkpt lat="45.9631778" lon="11.7224776"><ele>619.0</ele><time>2026-04-04T14:52:07.216Z</time></trkpt><trkpt lat="45.9631226" lon="11.7225513"><ele>624.3333333333333</ele><time>2026-04-04T14:52:11.217Z</time></trkpt><trkpt lat="45.9630681" lon="11.7226127"><ele>629.6666666666666</ele><time>2026-04-04T14:52:14.217Z</time></trkpt><trkpt lat="45.9629998" lon="11.7227027"><ele>635.0</ele><time>2026-04-04T14:52:17.217Z</time></trkpt><trkpt lat="45.9630324" lon="11.7228059"><ele>640.0</ele><time>2026-04-04T14:52:22.217Z</time></trkpt><trkpt lat="45.9630213" lon="11.722908"><ele>645.0</ele><time>2026-04-04T14:52:25.217Z</time></trkpt><trkpt lat="45.9629677" lon="11.7229787"><ele>650.0</ele><time>2026-04-04T14:52:28.217Z</time></trkpt><trkpt lat="45.9629258" lon="11.7230727"><ele>655.0</ele><time>2026-04-04T14:52:31.217Z</time></trkpt><trkpt lat="45.9628809" lon="11.7231713"><ele>660.0</ele><time>2026-04-04T14:52:34.217Z</time></trkpt><trkpt lat="45.9628276" lon="11.7232677"><ele>665.0</ele><time>2026-04-04T14:52:37.217Z</time></trkpt><trkpt lat="45.9627632" lon="11.7233302"><ele>665.0</ele><time>2026-04-04T14:52:40.217Z</time></trkpt><trkpt lat="45.9627072" lon="11.723388"><ele>665.0</ele><time>2026-04-04T14:52:44.217Z</time></trkpt><trkpt lat="45.9626463" lon="11.7234441"><ele>665.0</ele><time>2026-04-04T14:52:47.224Z</time></trkpt><trkpt lat="45.9625764" lon="11.7234938"><ele>665.0</ele><time>2026-04-04T14:52:50.224Z</time></trkpt><trkpt lat="45.9625179" lon="11.7235454"><ele>665.0</ele><time>2026-04-04T14:52:52.219Z</time></trkpt><trkpt lat="45.9624482" lon="11.7236249"><ele>665.0</ele><time>2026-04-04T14:52:55.219Z</time></trkpt><trkpt lat="45.9623858" lon="11.7236865"><ele>670.5</ele><time>2026-04-04T14:52:58.219Z</time></trkpt><trkpt lat="45.9623172" lon="11.7237117"><ele>676.0</ele><time>2026-04-04T14:53:12.219Z</time></trkpt><trkpt lat="45.9622484" lon="11.7237582"><ele>681.5</ele><time>2026-04-04T14:53:15.219Z</time></trkpt><trkpt lat="45.9621998" lon="11.7238487"><ele>687.0</ele><time>2026-04-04T14:53:17.219Z</time></trkpt><trkpt lat="45.9621523" lon="11.7239459"><ele>692.5</ele><time>2026-04-04T14:53:20.219Z</time></trkpt><trkpt lat="45.9621247" lon="11.7240439"><ele>698.0</ele><time>2026-04-04T14:53:23.219Z</time></trkpt><trkpt lat="45.9620976" lon="11.7241707"><ele>697.9999999999999</ele><time>2026-04-04T14:53:26.218Z</time></trkpt><trkpt lat="45.9620715" lon="11.7242601"><ele>698.0</ele><time>2026-04-04T14:53:28.218Z</time></trkpt><trkpt lat="45.9620538" lon="11.7243678"><ele>698.0</ele><time>2026-04-04T14:53:31.219Z</time></trkpt><trkpt lat="45.9620824" lon="11.7244671"><ele>698.0</ele><time>2026-04-04T14:53:34.219Z</time></trkpt><trkpt lat="45.9620598" lon="11.7245639"><ele>698.0</ele><time>2026-04-04T14:53:38.219Z</time></trkpt><trkpt lat="45.962004" lon="11.7246455"><ele>697.9999999999999</ele><time>2026-04-04T14:53:41.218Z</time></trkpt><trkpt lat="45.9619774" lon="11.7247463"><ele>698.0</ele><time>2026-04-04T14:53:44.219Z</time></trkpt><trkpt lat="45.9619702" lon="11.7248493"><ele>703.8333333333333</ele><time>2026-04-04T14:53:47.219Z</time></trkpt><trkpt lat="45.9619451" lon="11.724964"><ele>709.6666666666666</ele><time>2026-04-04T14:53:50.219Z</time></trkpt><trkpt lat="45.9619193" lon="11.7250617"><ele>715.5</ele><time>2026-04-04T14:53:53.219Z</time></trkpt><trkpt lat="45.9619081" lon="11.7251769"><ele>721.3333333333334</ele><time>2026-04-04T14:53:58.219Z</time></trkpt><trkpt lat="45.9619113" lon="11.7252792"><ele>727.1666666666667</ele><time>2026-04-04T14:54:02.219Z</time></trkpt><trkpt lat="45.9619296" lon="11.7253732"><ele>733.0</ele><time>2026-04-04T14:54:05.219Z</time></trkpt><trkpt lat="45.9620031" lon="11.7253933"><ele>733.0</ele><time>2026-04-04T14:54:10.219Z</time></trkpt><trkpt lat="45.9620623" lon="11.7253247"><ele>733.0</ele><time>2026-04-04T14:54:12.219Z</time></trkpt><trkpt lat="45.9621459" lon="11.7252635"><ele>733.0</ele><time>2026-04-04T14:54:15.219Z</time></trkpt><trkpt lat="45.9622283" lon="11.725204"><ele>733.0</ele><time>2026-04-04T14:54:18.219Z</time></trkpt><trkpt lat="45.9622889" lon="11.7251673"><ele>733.0</ele><time>2026-04-04T14:54:21.219Z</time></trkpt><trkpt lat="45.9623663" lon="11.7251489"><ele>733.0</ele><time>2026-04-04T14:54:24.219Z</time></trkpt><trkpt lat="45.9624435" lon="11.7251461"><ele>732.9999999999999</ele><time>2026-04-04T14:54:28.219Z</time></trkpt><trkpt lat="45.9625125" lon="11.725127"><ele>733.0</ele><time>2026-04-04T14:54:31.219Z</time></trkpt><trkpt lat="45.9625923" lon="11.7251194"><ele>733.0</ele><time>2026-04-04T14:54:35.219Z</time></trkpt><trkpt lat="45.9626638" lon="11.7251222"><ele>733.0</ele><time>2026-04-04T14:54:39.219Z</time></trkpt><trkpt lat="45.9627302" lon="11.7251534"><ele>733.0</ele><time>2026-04-04T14:54:44.218Z</time></trkpt><trkpt lat="45.9627063" lon="11.7252606"><ele>732.9999999999999</ele><time>2026-04-04T14:54:49.219Z</time></trkpt><trkpt lat="45.9626715" lon="11.7253452"><ele>733.0</ele><time>2026-04-04T14:54:54.219Z</time></trkpt><trkpt lat="45.9626482" lon="11.7254393"><ele>738.6666666666667</ele><time>2026-04-04T14:54:58.218Z</time></trkpt><trkpt lat="45.9626462" lon="11.7255425"><ele>744.3333333333334</ele><time>2026-04-04T14:55:02.219Z</time></trkpt><trkpt lat="45.9626606" lon="11.725678"><ele>750.0</ele><time>2026-04-04T14:55:07.219Z</time></trkpt><trkpt lat="45.9626963" lon="11.7257831"><ele>755.6666666666666</ele><time>2026-04-04T14:55:11.219Z</time></trkpt><trkpt lat="45.9627326" lon="11.7258753"><ele>761.3333333333333</ele><time>2026-04-04T14:55:14.218Z</time></trkpt><trkpt lat="45.9627459" lon="11.7259787"><ele>767.0</ele><time>2026-04-04T14:55:17.219Z</time></trkpt><trkpt lat="45.9628104" lon="11.7263203"><ele>769.5</ele><time>2026-04-04T14:55:18.219Z</time></trkpt><trkpt lat="45.9628308" lon="11.7264708"><ele>772.0</ele><time>2026-04-04T14:55:21.219Z</time></trkpt><trkpt lat="45.9628546" lon="11.7265655"><ele>774.5</ele><time>2026-04-04T14:55:23.218Z</time></trkpt><trkpt lat="45.9628644" lon="11.7266766"><ele>777.0</ele><time>2026-04-04T14:55:26.219Z</time></trkpt><trkpt lat="45.9628608" lon="11.7267951"><ele>779.5000000000001</ele><time>2026-04-04T14:55:30.219Z</time></trkpt><trkpt lat="45.962875" lon="11.7268849"><ele>782.0</ele><time>2026-04-04T14:55:32.219Z</time></trkpt><trkpt lat="45.9628764" lon="11.7269842"><ele>783.5000000000001</ele><time>2026-04-04T14:55:35.219Z</time></trkpt><trkpt lat="45.9628356" lon="11.7270814"><ele>785.0</ele><time>2026-04-04T14:55:37.219Z</time></trkpt><trkpt lat="45.962802" lon="11.7272021"><ele>786.5</ele><time>2026-04-04T14:55:40.219Z</time></trkpt><trkpt lat="45.9627596" lon="11.7273104"><ele>788.0</ele><time>2026-04-04T14:55:49.219Z</time></trkpt><trkpt lat="45.9627417" lon="11.7274195"><ele>789.5000000000001</ele><time>2026-04-04T14:55:54.219Z</time></trkpt><trkpt lat="45.9627529" lon="11.7275392"><ele>791.0</ele><time>2026-04-04T14:55:57.219Z</time></trkpt><trkpt lat="45.9627682" lon="11.7276453"><ele>791.0</ele><time>2026-04-04T14:55:59.218Z</time></trkpt><trkpt lat="45.962766" lon="11.7278393"><ele>791.0</ele><time>2026-04-04T14:56:01.219Z</time></trkpt><trkpt lat="45.9627286" lon="11.7279984"><ele>791.0</ele><time>2026-04-04T14:56:03.219Z</time></trkpt><trkpt lat="45.9626448" lon="11.7281194"><ele>791.0</ele><time>2026-04-04T14:56:05.219Z</time></trkpt><trkpt lat="45.962558" lon="11.728215"><ele>790.8</ele><time>2026-04-04T14:56:07.218Z</time></trkpt><trkpt lat="45.9625117" lon="11.7282811"><ele>790.5999999999999</ele><time>2026-04-04T14:56:08.219Z</time></trkpt><trkpt lat="45.9624288" lon="11.7283935"><ele>790.4</ele><time>2026-04-04T14:56:10.219Z</time></trkpt><trkpt lat="45.9623481" lon="11.7284309"><ele>790.2</ele><time>2026-04-04T14:56:12.219Z</time></trkpt><trkpt lat="45.9622836" lon="11.7285006"><ele>790.0</ele><time>2026-04-04T14:56:14.219Z</time></trkpt><trkpt lat="45.9621841" lon="11.728595"><ele>789.9999999999999</ele><time>2026-04-04T14:56:16.219Z</time></trkpt><trkpt lat="45.9620801" lon="11.7286447"><ele>790.0</ele><time>2026-04-04T14:56:18.218Z</time></trkpt><trkpt lat="45.962019" lon="11.7286847"><ele>790.0</ele><time>2026-04-04T14:56:19.218Z</time></trkpt><trkpt lat="45.9619684" lon="11.7287554"><ele>790.0</ele><time>2026-04-04T14:56:20.219Z</time></trkpt><trkpt lat="45.9619043" lon="11.7288166"><ele>789.9999999999999</ele><time>2026-04-04T14:56:21.219Z</time></trkpt><trkpt lat="45.9618417" lon="11.7288724"><ele>790.0</ele><time>2026-04-04T14:56:22.219Z</time></trkpt><trkpt lat="45.9617871" lon="11.7289255"><ele>791.2</ele><time>2026-04-04T14:56:23.219Z</time></trkpt><trkpt lat="45.9616724" lon="11.7289973"><ele>792.4</ele><time>2026-04-04T14:56:25.219Z</time></trkpt><trkpt lat="45.9616042" lon="11.7290261"><ele>793.5999999999999</ele><time>2026-04-04T14:56:27.219Z</time></trkpt><trkpt lat="45.9615523" lon="11.7291093"><ele>794.8</ele><time>2026-04-04T14:56:29.219Z</time></trkpt><trkpt lat="45.9614798" lon="11.7292134"><ele>796.0</ele><time>2026-04-04T14:56:31.219Z</time></trkpt><trkpt lat="45.9614103" lon="11.7292763"><ele>795.9999999999999</ele><time>2026-04-04T14:56:33.218Z</time></trkpt><trkpt lat="45.9613093" lon="11.7293058"><ele>796.0</ele><time>2026-04-04T14:56:35.219Z</time></trkpt><trkpt lat="45.9612376" lon="11.7293605"><ele>796.0</ele><time>2026-04-04T14:56:36.218Z</time></trkpt><trkpt lat="45.9611427" lon="11.7293748"><ele>796.0</ele><time>2026-04-04T14:56:38.219Z</time></trkpt><trkpt lat="45.9610757" lon="11.7294066"><ele>795.9999999999999</ele><time>2026-04-04T14:56:40.218Z</time></trkpt><trkpt lat="45.9610229" lon="11.7294664"><ele>796.0</ele><time>2026-04-04T14:56:42.219Z</time></trkpt><trkpt lat="45.9609273" lon="11.7295457"><ele>798.1999999999999</ele><time>2026-04-04T14:56:44.219Z</time></trkpt><trkpt lat="45.9608426" lon="11.7295876"><ele>800.4</ele><time>2026-04-04T14:56:46.219Z</time></trkpt><trkpt lat="45.9607456" lon="11.7296234"><ele>802.6</ele><time>2026-04-04T14:56:48.219Z</time></trkpt><trkpt lat="45.9606475" lon="11.7296983"><ele>804.8</ele><time>2026-04-04T14:56:50.219Z</time></trkpt><trkpt lat="45.9605597" lon="11.729737"><ele>807.0</ele><time>2026-04-04T14:56:52.219Z</time></trkpt><trkpt lat="45.9604811" lon="11.7297427"><ele>807.0</ele><time>2026-04-04T14:56:54.218Z</time></trkpt><trkpt lat="45.9603981" lon="11.7297845"><ele>807.0</ele><time>2026-04-04T14:56:56.219Z</time></trkpt><trkpt lat="45.9603254" lon="11.7298577"><ele>807.0</ele><time>2026-04-04T14:56:59.219Z</time></trkpt><trkpt lat="45.9602524" lon="11.7298925"><ele>807.0</ele><time>2026-04-04T14:57:02.219Z</time></trkpt><trkpt lat="45.9601876" lon="11.7299338"><ele>807.0</ele><time>2026-04-04T14:57:04.219Z</time></trkpt><trkpt lat="45.9601126" lon="11.7299465"><ele>807.0</ele><time>2026-04-04T14:57:06.218Z</time></trkpt><trkpt lat="45.9600212" lon="11.7299644"><ele>806.3333333333334</ele><time>2026-04-04T14:57:08.219Z</time></trkpt><trkpt lat="45.9599436" lon="11.7299505"><ele>805.6666666666667</ele><time>2026-04-04T14:57:10.219Z</time></trkpt><trkpt lat="45.9598737" lon="11.7299768"><ele>805.0</ele><time>2026-04-04T14:57:12.219Z</time></trkpt><trkpt lat="45.9598106" lon="11.7300234"><ele>804.3333333333334</ele><time>2026-04-04T14:57:17.218Z</time></trkpt><trkpt lat="45.9597669" lon="11.7300961"><ele>803.6666666666667</ele><time>2026-04-04T14:57:19.218Z</time></trkpt><trkpt lat="45.9597328" lon="11.730198"><ele>803.0</ele><time>2026-04-04T14:57:21.218Z</time></trkpt><trkpt lat="45.9597331" lon="11.7303289"><ele>803.0000000000001</ele><time>2026-04-04T14:57:24.219Z</time></trkpt><trkpt lat="45.9597453" lon="11.7304504"><ele>803.0</ele><time>2026-04-04T14:57:27.219Z</time></trkpt><trkpt lat="45.9597304" lon="11.7305417"><ele>803.0</ele><time>2026-04-04T14:57:29.219Z</time></trkpt><trkpt lat="45.9596888" lon="11.7306502"><ele>803.0</ele><time>2026-04-04T14:57:31.219Z</time></trkpt><trkpt lat="45.9596505" lon="11.7307632"><ele>803.0000000000001</ele><time>2026-04-04T14:57:33.218Z</time></trkpt><trkpt lat="45.9596097" lon="11.7308865"><ele>803.0</ele><time>2026-04-04T14:57:35.218Z</time></trkpt><trkpt lat="45.9595631" lon="11.7310023"><ele>802.0000000000001</ele><time>2026-04-04T14:57:36.218Z</time></trkpt><trkpt lat="45.9595458" lon="11.7311022"><ele>801.0</ele><time>2026-04-04T14:57:38.219Z</time></trkpt><trkpt lat="45.9594801" lon="11.7312041"><ele>800.0</ele><time>2026-04-04T14:57:42.219Z</time></trkpt><trkpt lat="45.959437" lon="11.7312872"><ele>799.0</ele><time>2026-04-04T14:57:44.219Z</time></trkpt><trkpt lat="45.9594188" lon="11.7314003"><ele>798.0000000000001</ele><time>2026-04-04T14:57:47.219Z</time></trkpt><trkpt lat="45.9593962" lon="11.7315141"><ele>797.0</ele><time>2026-04-04T14:57:49.219Z</time></trkpt><trkpt lat="45.959367" lon="11.7316377"><ele>797.0</ele><time>2026-04-04T14:57:51.219Z</time></trkpt><trkpt lat="45.9593392" lon="11.731725"><ele>797.0</ele><time>2026-04-04T14:57:53.218Z</time></trkpt><trkpt lat="45.9593211" lon="11.7318131"><ele>797.0</ele><time>2026-04-04T14:57:55.219Z</time></trkpt><trkpt lat="45.9592856" lon="11.7319255"><ele>797.0</ele><time>2026-04-04T14:57:58.219Z</time></trkpt><trkpt lat="45.9592477" lon="11.7320026"><ele>797.0</ele><time>2026-04-04T14:58:00.219Z</time></trkpt><trkpt lat="45.9591982" lon="11.7320808"><ele>797.0</ele><time>2026-04-04T14:58:03.219Z</time></trkpt><trkpt lat="45.9591354" lon="11.7321323"><ele>797.0</ele><time>2026-04-04T14:58:06.219Z</time></trkpt><trkpt lat="45.9590743" lon="11.7322167"><ele>796.7142857142857</ele><time>2026-04-04T14:58:10.219Z</time></trkpt><trkpt lat="45.959036" lon="11.7322943"><ele>796.4285714285714</ele><time>2026-04-04T14:58:13.218Z</time></trkpt><trkpt lat="45.9590016" lon="11.7323747"><ele>796.1428571428571</ele><time>2026-04-04T14:58:15.219Z</time></trkpt><trkpt lat="45.9589523" lon="11.7324587"><ele>795.8571428571429</ele><time>2026-04-04T14:58:17.218Z</time></trkpt><trkpt lat="45.9588946" lon="11.7325361"><ele>795.5714285714287</ele><time>2026-04-04T14:58:19.219Z</time></trkpt><trkpt lat="45.958853" lon="11.732623"><ele>795.2857142857143</ele><time>2026-04-04T14:58:22.219Z</time></trkpt><trkpt lat="45.9588138" lon="11.7326939"><ele>795.0</ele><time>2026-04-04T14:58:25.219Z</time></trkpt><trkpt lat="45.958744" lon="11.732772"><ele>793.25</ele><time>2026-04-04T14:58:31.219Z</time></trkpt><trkpt lat="45.9586573" lon="11.7328211"><ele>791.5</ele><time>2026-04-04T14:58:34.219Z</time></trkpt><trkpt lat="45.95849" lon="11.7328487"><ele>789.75</ele><time>2026-04-04T14:58:36.219Z</time></trkpt><trkpt lat="45.9583656" lon="11.732948"><ele>788.0</ele><time>2026-04-04T14:58:38.219Z</time></trkpt><trkpt lat="45.958326" lon="11.7330282"><ele>787.8571428571429</ele><time>2026-04-04T14:58:39.219Z</time></trkpt><trkpt lat="45.9582829" lon="11.7331119"><ele>787.7142857142858</ele><time>2026-04-04T14:58:40.219Z</time></trkpt><trkpt lat="45.9582441" lon="11.7332004"><ele>787.5714285714286</ele><time>2026-04-04T14:58:41.219Z</time></trkpt><trkpt lat="45.9581984" lon="11.733287"><ele>787.4285714285714</ele><time>2026-04-04T14:58:42.219Z</time></trkpt><trkpt lat="45.9581622" lon="11.7333755"><ele>787.2857142857142</ele><time>2026-04-04T14:58:43.218Z</time></trkpt><trkpt lat="45.9581252" lon="11.7334619"><ele>787.1428571428571</ele><time>2026-04-04T14:58:44.219Z</time></trkpt><trkpt lat="45.9580833" lon="11.7335476"><ele>787.0</ele><time>2026-04-04T14:58:45.219Z</time></trkpt><trkpt lat="45.9580302" lon="11.7335982"><ele>786.1666666666666</ele><time>2026-04-04T14:58:46.219Z</time></trkpt><trkpt lat="45.9579801" lon="11.7336735"><ele>785.3333333333333</ele><time>2026-04-04T14:58:47.218Z</time></trkpt><trkpt lat="45.9578934" lon="11.7337553"><ele>784.5</ele><time>2026-04-04T14:58:49.219Z</time></trkpt><trkpt lat="45.9577797" lon="11.7337482"><ele>783.6666666666667</ele><time>2026-04-04T14:58:51.219Z</time></trkpt><trkpt lat="45.9577078" lon="11.733727"><ele>782.8333333333334</ele><time>2026-04-04T14:58:52.219Z</time></trkpt><trkpt lat="45.9576361" lon="11.7337005"><ele>782.0</ele><time>2026-04-04T14:58:53.219Z</time></trkpt><trkpt lat="45.9575633" lon="11.7336807"><ele>781.2</ele><time>2026-04-04T14:58:54.219Z</time></trkpt><trkpt lat="45.9574572" lon="11.7336124"><ele>780.4000000000001</ele><time>2026-04-04T14:58:56.219Z</time></trkpt><trkpt lat="45.9573605" lon="11.7335509"><ele>779.5999999999999</ele><time>2026-04-04T14:58:58.219Z</time></trkpt><trkpt lat="45.9572894" lon="11.7335084"><ele>778.8</ele><time>2026-04-04T14:58:59.219Z</time></trkpt><trkpt lat="45.9572299" lon="11.7334782"><ele>778.0</ele><time>2026-04-04T14:59:00.219Z</time></trkpt><trkpt lat="45.9570915" lon="11.7334062"><ele>777.9999999999999</ele><time>2026-04-04T14:59:02.218Z</time></trkpt><trkpt lat="45.9570354" lon="11.7333556"><ele>778.0</ele><time>2026-04-04T14:59:03.219Z</time></trkpt><trkpt lat="45.9569724" lon="11.7333348"><ele>778.0</ele><time>2026-04-04T14:59:04.219Z</time></trkpt><trkpt lat="45.9568292" lon="11.7333755"><ele>778.0</ele><time>2026-04-04T14:59:06.219Z</time></trkpt><trkpt lat="45.9567387" lon="11.7334094"><ele>777.9999999999999</ele><time>2026-04-04T14:59:07.219Z</time></trkpt><trkpt lat="45.9566684" lon="11.7334251"><ele>778.0</ele><time>2026-04-04T14:59:08.219Z</time></trkpt><trkpt lat="45.9565328" lon="11.7334714"><ele>777.4999999999999</ele><time>2026-04-04T14:59:10.218Z</time></trkpt><trkpt lat="45.9564248" lon="11.7334679"><ele>777.0</ele><time>2026-04-04T14:59:11.219Z</time></trkpt><trkpt lat="45.9563648" lon="11.7333936"><ele>776.5</ele><time>2026-04-04T14:59:12.218Z</time></trkpt><trkpt lat="45.9563174" lon="11.7333168"><ele>776.0</ele><time>2026-04-04T14:59:13.218Z</time></trkpt><trkpt lat="45.9562516" lon="11.7332517"><ele>775.4999999999999</ele><time>2026-04-04T14:59:14.218Z</time></trkpt><trkpt lat="45.956174" lon="11.7331411"><ele>775.0</ele><time>2026-04-04T14:59:15.219Z</time></trkpt><trkpt lat="45.9561091" lon="11.732983"><ele>774.9999999999999</ele><time>2026-04-04T14:59:16.219Z</time></trkpt><trkpt lat="45.9560618" lon="11.7328753"><ele>775.0</ele><time>2026-04-04T14:59:17.219Z</time></trkpt><trkpt lat="45.9560053" lon="11.7328131"><ele>775.0</ele><time>2026-04-04T14:59:18.218Z</time></trkpt><trkpt lat="45.955941" lon="11.7327292"><ele>775.0</ele><time>2026-04-04T14:59:19.219Z</time></trkpt><trkpt lat="45.9558784" lon="11.7326736"><ele>774.9999999999999</ele><time>2026-04-04T14:59:20.219Z</time></trkpt><trkpt lat="45.9557966" lon="11.732591"><ele>775.0</ele><time>2026-04-04T14:59:21.218Z</time></trkpt><trkpt lat="45.955733" lon="11.7325647"><ele>768.6666666666666</ele><time>2026-04-04T14:59:22.219Z</time></trkpt><trkpt lat="45.9556488" lon="11.73249"><ele>762.3333333333333</ele><time>2026-04-04T14:59:23.219Z</time></trkpt><trkpt lat="45.9555542" lon="11.7324573"><ele>756.0</ele><time>2026-04-04T14:59:24.218Z</time></trkpt><trkpt lat="45.955473" lon="11.7324797"><ele>749.6666666666666</ele><time>2026-04-04T14:59:25.219Z</time></trkpt><trkpt lat="45.9553996" lon="11.7325312"><ele>743.3333333333333</ele><time>2026-04-04T14:59:26.218Z</time></trkpt><trkpt lat="45.9553355" lon="11.7325428"><ele>737.0</ele><time>2026-04-04T14:59:27.218Z</time></trkpt><trkpt lat="45.9552669" lon="11.7325918"><ele>737.0</ele><time>2026-04-04T14:59:29.219Z</time></trkpt><trkpt lat="45.9551666" lon="11.7327153"><ele>737.0</ele><time>2026-04-04T14:59:31.218Z</time></trkpt><trkpt lat="45.9550883" lon="11.7327804"><ele>737.0</ele><time>2026-04-04T14:59:32.219Z</time></trkpt><trkpt lat="45.9549965" lon="11.7328488"><ele>737.0</ele><time>2026-04-04T14:59:33.219Z</time></trkpt><trkpt lat="45.9549407" lon="11.7329354"><ele>737.0</ele><time>2026-04-04T14:59:34.219Z</time></trkpt><trkpt lat="45.9548923" lon="11.7330156"><ele>740.0</ele><time>2026-04-04T14:59:35.218Z</time></trkpt><trkpt lat="45.9548333" lon="11.733072"><ele>743.0</ele><time>2026-04-04T14:59:36.218Z</time></trkpt><trkpt lat="45.9547706" lon="11.7331146"><ele>746.0</ele><time>2026-04-04T14:59:37.219Z</time></trkpt><trkpt lat="45.9546899" lon="11.7331686"><ele>749.0</ele><time>2026-04-04T14:59:39.219Z</time></trkpt><trkpt lat="45.9546075" lon="11.7331433"><ele>752.0</ele><time>2026-04-04T14:59:42.219Z</time></trkpt><trkpt lat="45.9545308" lon="11.7330754"><ele>755.0</ele><time>2026-04-04T14:59:45.219Z</time></trkpt><trkpt lat="45.9544603" lon="11.7330306"><ele>755.0</ele><time>2026-04-04T14:59:47.219Z</time></trkpt><trkpt lat="45.9544015" lon="11.7329789"><ele>755.0</ele><time>2026-04-04T14:59:52.219Z</time></trkpt><trkpt lat="45.9543287" lon="11.7329232"><ele>755.0</ele><time>2026-04-04T14:59:57.219Z</time></trkpt><trkpt lat="45.9542613" lon="11.732896"><ele>755.0</ele><time>2026-04-04T15:00:01.219Z</time></trkpt><trkpt lat="45.9541983" lon="11.7328639"><ele>755.0</ele><time>2026-04-04T15:00:06.219Z</time></trkpt><trkpt lat="45.9541443" lon="11.7328125"><ele>755.0</ele><time>2026-04-04T15:00:13.219Z</time></trkpt><trkpt lat="45.9540901" lon="11.7327474"><ele>755.0</ele><time>2026-04-04T15:00:16.219Z</time></trkpt><trkpt lat="45.9540207" lon="11.7326768"><ele>746.1666666666666</ele><time>2026-04-04T15:00:18.219Z</time></trkpt><trkpt lat="45.9539657" lon="11.7326025"><ele>737.3333333333333</ele><time>2026-04-04T15:00:20.219Z</time></trkpt><trkpt lat="45.9539145" lon="11.7325314"><ele>728.5</ele><time>2026-04-04T15:00:23.219Z</time></trkpt><trkpt lat="45.9538765" lon="11.7324545"><ele>719.6666666666666</ele><time>2026-04-04T15:00:25.219Z</time></trkpt><trkpt lat="45.9538272" lon="11.7323534"><ele>710.8333333333334</ele><time>2026-04-04T15:00:28.219Z</time></trkpt><trkpt lat="45.9537873" lon="11.7322508"><ele>702.0</ele><time>2026-04-04T15:00:30.219Z</time></trkpt><trkpt lat="45.9537293" lon="11.7321673"><ele>702.0</ele><time>2026-04-04T15:00:33.219Z</time></trkpt><trkpt lat="45.9536739" lon="11.7321022"><ele>702.0</ele><time>2026-04-04T15:00:37.218Z</time></trkpt><trkpt lat="45.9536222" lon="11.7320406"><ele>702.0</ele><time>2026-04-04T15:00:40.218Z</time></trkpt><trkpt lat="45.9535594" lon="11.7319691"><ele>702.0</ele><time>2026-04-04T15:00:44.219Z</time></trkpt><trkpt lat="45.9535044" lon="11.7318531"><ele>702.0</ele><time>2026-04-04T15:00:47.219Z</time></trkpt><trkpt lat="45.9534948" lon="11.731735"><ele>702.0</ele><time>2026-04-04T15:00:50.219Z</time></trkpt><trkpt lat="45.9535398" lon="11.7316467"><ele>696.5</ele><time>2026-04-04T15:00:53.218Z</time></trkpt><trkpt lat="45.9536048" lon="11.7315774"><ele>691.0</ele><time>2026-04-04T15:00:55.219Z</time></trkpt><trkpt lat="45.9536861" lon="11.7315138"><ele>685.5</ele><time>2026-04-04T15:00:58.218Z</time></trkpt><trkpt lat="45.9537051" lon="11.7314197"><ele>680.0</ele><time>2026-04-04T15:01:01.219Z</time></trkpt><trkpt lat="45.9536381" lon="11.7313779"><ele>674.5</ele><time>2026-04-04T15:01:06.219Z</time></trkpt><trkpt lat="45.9536246" lon="11.7312802"><ele>669.0</ele><time>2026-04-04T15:01:12.219Z</time></trkpt><trkpt lat="45.9537278" lon="11.7312173"><ele>669.0</ele><time>2026-04-04T15:01:21.219Z</time></trkpt><trkpt lat="45.9536779" lon="11.7311531"><ele>669.0</ele><time>2026-04-04T15:01:24.219Z</time></trkpt><trkpt lat="45.9536125" lon="11.7310775"><ele>669.0</ele><time>2026-04-04T15:01:27.219Z</time></trkpt><trkpt lat="45.9535817" lon="11.7309806"><ele>669.0</ele><time>2026-04-04T15:01:31.219Z</time></trkpt><trkpt lat="45.9536554" lon="11.7309462"><ele>669.0</ele><time>2026-04-04T15:01:34.219Z</time></trkpt><trkpt lat="45.9537186" lon="11.7308623"><ele>669.0</ele><time>2026-04-04T15:01:36.219Z</time></trkpt><trkpt lat="45.9537308" lon="11.7307515"><ele>663.5</ele><time>2026-04-04T15:01:38.219Z</time></trkpt><trkpt lat="45.9537053" lon="11.730647"><ele>658.0</ele><time>2026-04-04T15:01:41.219Z</time></trkpt><trkpt lat="45.9536784" lon="11.7305577"><ele>652.5</ele><time>2026-04-04T15:01:43.219Z</time></trkpt><trkpt lat="45.953611" lon="11.730477"><ele>647.0</ele><time>2026-04-04T15:01:46.218Z</time></trkpt><trkpt lat="45.9535326" lon="11.7304216"><ele>641.5</ele><time>2026-04-04T15:01:49.219Z</time></trkpt><trkpt lat="45.9534376" lon="11.7303956"><ele>636.0</ele><time>2026-04-04T15:01:51.219Z</time></trkpt><trkpt lat="45.9533477" lon="11.7303549"><ele>636.0</ele><time>2026-04-04T15:01:53.219Z</time></trkpt><trkpt lat="45.9532796" lon="11.7303251"><ele>636.0</ele><time>2026-04-04T15:01:55.219Z</time></trkpt><trkpt lat="45.9532011" lon="11.7302982"><ele>636.0</ele><time>2026-04-04T15:01:58.219Z</time></trkpt><trkpt lat="45.9531307" lon="11.7302657"><ele>636.0</ele><time>2026-04-04T15:02:01.219Z</time></trkpt><trkpt lat="45.953058" lon="11.7302196"><ele>636.0</ele><time>2026-04-04T15:02:03.219Z</time></trkpt><trkpt lat="45.9529711" lon="11.7301651"><ele>636.0</ele><time>2026-04-04T15:02:05.219Z</time></trkpt><trkpt lat="45.9528963" lon="11.7301042"><ele>630.6666666666666</ele><time>2026-04-04T15:02:07.218Z</time></trkpt><trkpt lat="45.9528182" lon="11.7300429"><ele>625.3333333333334</ele><time>2026-04-04T15:02:09.218Z</time></trkpt><trkpt lat="45.9527358" lon="11.7299822"><ele>620.0</ele><time>2026-04-04T15:02:11.219Z</time></trkpt><trkpt lat="45.9526469" lon="11.7299406"><ele>614.6666666666667</ele><time>2026-04-04T15:02:13.218Z</time></trkpt><trkpt lat="45.9525701" lon="11.7299466"><ele>609.3333333333334</ele><time>2026-04-04T15:02:15.219Z</time></trkpt><trkpt lat="45.9524968" lon="11.7299466"><ele>604.0</ele><time>2026-04-04T15:02:17.218Z</time></trkpt><trkpt lat="45.9524207" lon="11.729948"><ele>603.8571428571429</ele><time>2026-04-04T15:02:19.219Z</time></trkpt><trkpt lat="45.9523449" lon="11.7299574"><ele>603.7142857142858</ele><time>2026-04-04T15:02:21.218Z</time></trkpt><trkpt lat="45.9522762" lon="11.7299685"><ele>603.5714285714287</ele><time>2026-04-04T15:02:24.219Z</time></trkpt><trkpt lat="45.9522134" lon="11.7299517"><ele>603.4285714285714</ele><time>2026-04-04T15:02:27.219Z</time></trkpt><trkpt lat="45.9521729" lon="11.7298721"><ele>603.2857142857142</ele><time>2026-04-04T15:02:29.219Z</time></trkpt><trkpt lat="45.9521317" lon="11.7297918"><ele>603.1428571428572</ele><time>2026-04-04T15:02:32.219Z</time></trkpt><trkpt lat="45.9520544" lon="11.729779"><ele>603.0</ele><time>2026-04-04T15:02:36.219Z</time></trkpt><trkpt lat="45.9519724" lon="11.7298312"><ele>603.0</ele><time>2026-04-04T15:02:40.219Z</time></trkpt><trkpt lat="45.9519077" lon="11.729859"><ele>603.0</ele><time>2026-04-04T15:02:42.218Z</time></trkpt><trkpt lat="45.9518421" lon="11.7299097"><ele>603.0</ele><time>2026-04-04T15:02:44.219Z</time></trkpt><trkpt lat="45.9517566" lon="11.729969"><ele>603.0</ele><time>2026-04-04T15:02:46.219Z</time></trkpt><trkpt lat="45.9517052" lon="11.7298598"><ele>603.0</ele><time>2026-04-04T15:02:49.218Z</time></trkpt><trkpt lat="45.9517358" lon="11.7297552"><ele>603.0</ele><time>2026-04-04T15:02:52.219Z</time></trkpt><trkpt lat="45.9516824" lon="11.7298123"><ele>598.8</ele><time>2026-04-04T15:03:18.219Z</time></trkpt><trkpt lat="45.9516031" lon="11.7299063"><ele>594.5999999999999</ele><time>2026-04-04T15:03:22.219Z</time></trkpt><trkpt lat="45.9515212" lon="11.7299934"><ele>590.4000000000001</ele><time>2026-04-04T15:03:24.218Z</time></trkpt><trkpt lat="45.9514392" lon="11.73007"><ele>586.2</ele><time>2026-04-04T15:03:26.219Z</time></trkpt><trkpt lat="45.9513639" lon="11.7301355"><ele>582.0</ele><time>2026-04-04T15:03:28.219Z</time></trkpt><trkpt lat="45.9512678" lon="11.7302182"><ele>585.5</ele><time>2026-04-04T15:03:30.218Z</time></trkpt><trkpt lat="45.9511641" lon="11.7303244"><ele>589.0</ele><time>2026-04-04T15:03:32.219Z</time></trkpt><trkpt lat="45.9511083" lon="11.7303944"><ele>592.5</ele><time>2026-04-04T15:03:33.219Z</time></trkpt><trkpt lat="45.9510554" lon="11.7304676"><ele>596.0</ele><time>2026-04-04T15:03:34.218Z</time></trkpt><trkpt lat="45.9509997" lon="11.7305379"><ele>599.5</ele><time>2026-04-04T15:03:35.219Z</time></trkpt><trkpt lat="45.950954" lon="11.7306056"><ele>603.0</ele><time>2026-04-04T15:03:36.219Z</time></trkpt><trkpt lat="45.9509148" lon="11.7306766"><ele>601.2857142857143</ele><time>2026-04-04T15:03:37.218Z</time></trkpt><trkpt lat="45.9508692" lon="11.7307523"><ele>599.5714285714286</ele><time>2026-04-04T15:03:39.219Z</time></trkpt><trkpt lat="45.9508035" lon="11.7307602"><ele>597.8571428571429</ele><time>2026-04-04T15:03:44.219Z</time></trkpt><trkpt lat="45.9507398" lon="11.730757"><ele>596.1428571428571</ele><time>2026-04-04T15:03:47.219Z</time></trkpt><trkpt lat="45.9506631" lon="11.7307728"><ele>594.4285714285714</ele><time>2026-04-04T15:03:54.219Z</time></trkpt><trkpt lat="45.950584" lon="11.730791"><ele>592.7142857142857</ele><time>2026-04-04T15:03:56.218Z</time></trkpt><trkpt lat="45.9505175" lon="11.7308132"><ele>591.0</ele><time>2026-04-04T15:03:57.219Z</time></trkpt><trkpt lat="45.950378" lon="11.7308871"><ele>591.0</ele><time>2026-04-04T15:03:59.219Z</time></trkpt><trkpt lat="45.9502849" lon="11.7309673"><ele>591.0</ele><time>2026-04-04T15:04:00.219Z</time></trkpt><trkpt lat="45.9502185" lon="11.7310408"><ele>591.0</ele><time>2026-04-04T15:04:01.219Z</time></trkpt><trkpt lat="45.9501458" lon="11.7310917"><ele>591.0</ele><time>2026-04-04T15:04:02.218Z</time></trkpt><trkpt lat="45.9500516" lon="11.7310714"><ele>591.0</ele><time>2026-04-04T15:04:03.219Z</time></trkpt><trkpt lat="45.9499745" lon="11.7310413"><ele>591.0</ele><time>2026-04-04T15:04:04.218Z</time></trkpt><trkpt lat="45.9499113" lon="11.7310245"><ele>590.5</ele><time>2026-04-04T15:04:05.219Z</time></trkpt><trkpt lat="45.9498514" lon="11.7309816"><ele>590.0</ele><time>2026-04-04T15:04:08.219Z</time></trkpt><trkpt lat="45.9497692" lon="11.7309254"><ele>589.5</ele><time>2026-04-04T15:05:27.218Z</time></trkpt><trkpt lat="45.9496875" lon="11.7308703"><ele>589.0</ele><time>2026-04-04T15:05:29.218Z</time></trkpt><trkpt lat="45.9495989" lon="11.7308308"><ele>588.5</ele><time>2026-04-04T15:05:31.219Z</time></trkpt><trkpt lat="45.94951" lon="11.7308217"><ele>588.0</ele><time>2026-04-04T15:05:33.219Z</time></trkpt><trkpt lat="45.9494445" lon="11.7308508"><ele>588.0</ele><time>2026-04-04T15:05:34.219Z</time></trkpt><trkpt lat="45.9493571" lon="11.7308985"><ele>588.0</ele><time>2026-04-04T15:05:36.219Z</time></trkpt><trkpt lat="45.9493104" lon="11.7310095"><ele>588.0</ele><time>2026-04-04T15:05:38.219Z</time></trkpt><trkpt lat="45.9492768" lon="11.7311182"><ele>588.0</ele><time>2026-04-04T15:05:40.219Z</time></trkpt><trkpt lat="45.9492446" lon="11.7312483"><ele>588.0</ele><time>2026-04-04T15:05:42.219Z</time></trkpt><trkpt lat="45.9491929" lon="11.7314115"><ele>591.1999999999999</ele><time>2026-04-04T15:05:44.219Z</time></trkpt><trkpt lat="45.9491367" lon="11.7315857"><ele>594.4</ele><time>2026-04-04T15:05:46.219Z</time></trkpt><trkpt lat="45.9490912" lon="11.7316808"><ele>597.5999999999999</ele><time>2026-04-04T15:05:47.219Z</time></trkpt><trkpt lat="45.9490504" lon="11.7318341"><ele>600.8</ele><time>2026-04-04T15:05:49.219Z</time></trkpt><trkpt lat="45.9490851" lon="11.7319144"><ele>604.0</ele><time>2026-04-04T15:05:52.218Z</time></trkpt><trkpt lat="45.9491207" lon="11.7318332"><ele>604.0</ele><time>2026-04-04T15:05:53.218Z</time></trkpt><trkpt lat="45.9491747" lon="11.7317287"><ele>604.0</ele><time>2026-04-04T15:05:55.218Z</time></trkpt><trkpt lat="45.949219" lon="11.7316245"><ele>604.0</ele><time>2026-04-04T15:05:57.219Z</time></trkpt><trkpt lat="45.949252" lon="11.7315183"><ele>604.0</ele><time>2026-04-04T15:05:59.218Z</time></trkpt><trkpt lat="45.9492786" lon="11.731434"><ele>604.0</ele><time>2026-04-04T15:06:01.219Z</time></trkpt><trkpt lat="45.9492837" lon="11.7315325"><ele>604.0</ele><time>2026-04-04T15:06:07.219Z</time></trkpt><trkpt lat="45.9492596" lon="11.7316371"><ele>605.5714285714287</ele><time>2026-04-04T15:06:11.219Z</time></trkpt><trkpt lat="45.9492432" lon="11.7317351"><ele>607.1428571428571</ele><time>2026-04-04T15:06:15.219Z</time></trkpt><trkpt lat="45.9492104" lon="11.7318483"><ele>608.7142857142858</ele><time>2026-04-04T15:06:19.219Z</time></trkpt><trkpt lat="45.9491838" lon="11.7319386"><ele>610.2857142857143</ele><time>2026-04-04T15:06:22.218Z</time></trkpt><trkpt lat="45.9491777" lon="11.7320308"><ele>611.8571428571429</ele><time>2026-04-04T15:06:26.219Z</time></trkpt><trkpt lat="45.9491554" lon="11.7321312"><ele>613.4285714285714</ele><time>2026-04-04T15:06:30.218Z</time></trkpt><trkpt lat="45.9491474" lon="11.7322213"><ele>615.0</ele><time>2026-04-04T15:06:34.219Z</time></trkpt><trkpt lat="45.9491019" lon="11.7323002"><ele>617.8333333333334</ele><time>2026-04-04T15:06:39.219Z</time></trkpt><trkpt lat="45.9490532" lon="11.7323607"><ele>620.6666666666666</ele><time>2026-04-04T15:06:43.219Z</time></trkpt><trkpt lat="45.9489926" lon="11.732428"><ele>623.5</ele><time>2026-04-04T15:07:13.219Z</time></trkpt><trkpt lat="45.948909" lon="11.7324413"><ele>626.3333333333333</ele><time>2026-04-04T15:07:15.219Z</time></trkpt><trkpt lat="45.948878" lon="11.7325329"><ele>629.1666666666666</ele><time>2026-04-04T15:07:19.219Z</time></trkpt><trkpt lat="45.9489634" lon="11.732558"><ele>632.0</ele><time>2026-04-04T15:07:23.218Z</time></trkpt><trkpt lat="45.9490386" lon="11.7325342"><ele>632.0</ele><time>2026-04-04T15:07:26.219Z</time></trkpt><trkpt lat="45.9491063" lon="11.7325321"><ele>632.0</ele><time>2026-04-04T15:07:30.219Z</time></trkpt><trkpt lat="45.9491855" lon="11.7325286"><ele>632.0</ele><time>2026-04-04T15:07:34.219Z</time></trkpt><trkpt lat="45.9492652" lon="11.7325459"><ele>632.0</ele><time>2026-04-04T15:07:37.219Z</time></trkpt><trkpt lat="45.9493504" lon="11.7325116"><ele>632.0</ele><time>2026-04-04T15:07:40.219Z</time></trkpt><trkpt lat="45.9494109" lon="11.7324388"><ele>632.0</ele><time>2026-04-04T15:07:43.218Z</time></trkpt><trkpt lat="45.9494709" lon="11.732377"><ele>633.6666666666666</ele><time>2026-04-04T15:07:47.219Z</time></trkpt><trkpt lat="45.9495318" lon="11.7323245"><ele>635.3333333333333</ele><time>2026-04-04T15:07:50.219Z</time></trkpt><trkpt lat="45.9494733" lon="11.732404"><ele>637.0</ele><time>2026-04-04T15:08:00.219Z</time></trkpt><trkpt lat="45.9494231" lon="11.7325311"><ele>638.6666666666666</ele><time>2026-04-04T15:08:02.219Z</time></trkpt><trkpt lat="45.9494072" lon="11.7326264"><ele>640.3333333333334</ele><time>2026-04-04T15:08:04.219Z</time></trkpt><trkpt lat="45.9494184" lon="11.7327521"><ele>642.0</ele><time>2026-04-04T15:08:06.219Z</time></trkpt><trkpt lat="45.9493785" lon="11.7328343"><ele>646.3333333333334</ele><time>2026-04-04T15:08:11.219Z</time></trkpt><trkpt lat="45.9493208" lon="11.7328744"><ele>650.6666666666666</ele><time>2026-04-04T15:08:13.219Z</time></trkpt><trkpt lat="45.9492618" lon="11.7329189"><ele>655.0</ele><time>2026-04-04T15:08:15.219Z</time></trkpt><trkpt lat="45.9491911" lon="11.7330007"><ele>659.3333333333333</ele><time>2026-04-04T15:08:18.219Z</time></trkpt><trkpt lat="45.9491183" lon="11.7330855"><ele>663.6666666666666</ele><time>2026-04-04T15:08:21.219Z</time></trkpt><trkpt lat="45.949049" lon="11.7331751"><ele>668.0</ele><time>2026-04-04T15:08:23.219Z</time></trkpt><trkpt lat="45.9489865" lon="11.7332869"><ele>668.0</ele><time>2026-04-04T15:08:26.218Z</time></trkpt><trkpt lat="45.9489299" lon="11.7333557"><ele>668.0</ele><time>2026-04-04T15:08:28.219Z</time></trkpt><trkpt lat="45.94887" lon="11.7334381"><ele>668.0</ele><time>2026-04-04T15:08:31.219Z</time></trkpt><trkpt lat="45.9488095" lon="11.7335153"><ele>668.0</ele><time>2026-04-04T15:08:34.219Z</time></trkpt><trkpt lat="45.9487657" lon="11.7335828"><ele>668.0</ele><time>2026-04-04T15:08:36.219Z</time></trkpt><trkpt lat="45.948725" lon="11.7336857"><ele>668.0</ele><time>2026-04-04T15:08:39.219Z</time></trkpt><trkpt lat="45.948714" lon="11.7337978"><ele>674.0</ele><time>2026-04-04T15:08:42.219Z</time></trkpt><trkpt lat="45.9486465" lon="11.7339055"><ele>680.0</ele><time>2026-04-04T15:08:45.219Z</time></trkpt><trkpt lat="45.9486012" lon="11.734008"><ele>686.0</ele><time>2026-04-04T15:08:48.219Z</time></trkpt><trkpt lat="45.9485579" lon="11.7340854"><ele>692.0</ele><time>2026-04-04T15:08:51.218Z</time></trkpt><trkpt lat="45.9484904" lon="11.7341727"><ele>698.0</ele><time>2026-04-04T15:08:55.219Z</time></trkpt><trkpt lat="45.9484637" lon="11.73428"><ele>704.0</ele><time>2026-04-04T15:08:58.218Z</time></trkpt><trkpt lat="45.9484455" lon="11.7343806"><ele>710.3333333333333</ele><time>2026-04-04T15:09:01.218Z</time></trkpt><trkpt lat="45.948425" lon="11.7344976"><ele>716.6666666666666</ele><time>2026-04-04T15:09:06.218Z</time></trkpt><trkpt lat="45.9484229" lon="11.7345945"><ele>723.0</ele><time>2026-04-04T15:09:09.219Z</time></trkpt><trkpt lat="45.9484133" lon="11.7347001"><ele>729.3333333333334</ele><time>2026-04-04T15:09:12.218Z</time></trkpt><trkpt lat="45.9484263" lon="11.7348138"><ele>735.6666666666667</ele><time>2026-04-04T15:09:15.219Z</time></trkpt><trkpt lat="45.948439" lon="11.7349295"><ele>742.0</ele><time>2026-04-04T15:09:18.219Z</time></trkpt><trkpt lat="45.9484234" lon="11.7350424"><ele>742.0</ele><time>2026-04-04T15:09:21.219Z</time></trkpt><trkpt lat="45.948416" lon="11.7351725"><ele>742.0</ele><time>2026-04-04T15:09:24.218Z</time></trkpt><trkpt lat="45.9484189" lon="11.7352792"><ele>742.0</ele><time>2026-04-04T15:09:27.219Z</time></trkpt><trkpt lat="45.9484368" lon="11.7353865"><ele>742.0</ele><time>2026-04-04T15:09:30.218Z</time></trkpt><trkpt lat="45.9484607" lon="11.7355194"><ele>742.0</ele><time>2026-04-04T15:09:33.219Z</time></trkpt><trkpt lat="45.9484778" lon="11.7356085"><ele>742.0</ele><time>2026-04-04T15:09:35.219Z</time></trkpt><trkpt lat="45.9485041" lon="11.7357081"><ele>745.3333333333334</ele><time>2026-04-04T15:09:38.219Z</time></trkpt><trkpt lat="45.9485416" lon="11.735799"><ele>748.6666666666667</ele><time>2026-04-04T15:09:41.219Z</time></trkpt><trkpt lat="45.9485748" lon="11.7359017"><ele>752.0</ele><time>2026-04-04T15:09:44.218Z</time></trkpt><trkpt lat="45.9485877" lon="11.7360087"><ele>755.3333333333334</ele><time>2026-04-04T15:09:47.219Z</time></trkpt><trkpt lat="45.9485974" lon="11.7361286"><ele>758.6666666666666</ele><time>2026-04-04T15:09:50.219Z</time></trkpt><trkpt lat="45.9486139" lon="11.7362504"><ele>762.0</ele><time>2026-04-04T15:09:53.219Z</time></trkpt><trkpt lat="45.9486031" lon="11.736366"><ele>762.3333333333334</ele><time>2026-04-04T15:09:56.218Z</time></trkpt><trkpt lat="45.9485654" lon="11.7364789"><ele>762.6666666666666</ele><time>2026-04-04T15:09:59.219Z</time></trkpt><trkpt lat="45.9485057" lon="11.7365778"><ele>763.0</ele><time>2026-04-04T15:10:02.219Z</time></trkpt><trkpt lat="45.9484698" lon="11.7366522"><ele>763.3333333333333</ele><time>2026-04-04T15:10:04.218Z</time></trkpt><trkpt lat="45.9484192" lon="11.7367433"><ele>763.6666666666666</ele><time>2026-04-04T15:10:07.218Z</time></trkpt><trkpt lat="45.9483694" lon="11.7368372"><ele>764.0</ele><time>2026-04-04T15:10:10.218Z</time></trkpt><trkpt lat="45.9483018" lon="11.7369248"><ele>764.0</ele><time>2026-04-04T15:10:13.219Z</time></trkpt><trkpt lat="45.9482466" lon="11.7369806"><ele>764.0</ele><time>2026-04-04T15:10:15.219Z</time></trkpt><trkpt lat="45.9482022" lon="11.7370697"><ele>764.0</ele><time>2026-04-04T15:10:17.219Z</time></trkpt><trkpt lat="45.9481463" lon="11.7371984"><ele>764.0</ele><time>2026-04-04T15:10:19.219Z</time></trkpt><trkpt lat="45.9481245" lon="11.7373319"><ele>764.0</ele><time>2026-04-04T15:10:22.219Z</time></trkpt><trkpt lat="45.9481126" lon="11.7374388"><ele>764.0</ele><time>2026-04-04T15:10:24.219Z</time></trkpt><trkpt lat="45.9480845" lon="11.7375297"><ele>764.0</ele><time>2026-04-04T15:10:26.219Z</time></trkpt><trkpt lat="45.9480472" lon="11.7376218"><ele>764.0</ele><time>2026-04-04T15:10:28.219Z</time></trkpt><trkpt lat="45.9480099" lon="11.7377236"><ele>764.0</ele><time>2026-04-04T15:10:30.219Z</time></trkpt><trkpt lat="45.9479781" lon="11.7378052"><ele>764.0</ele><time>2026-04-04T15:10:32.219Z</time></trkpt><trkpt lat="45.947954" lon="11.7378932"><ele>764.0</ele><time>2026-04-04T15:10:37.219Z</time></trkpt><trkpt lat="45.9478861" lon="11.7379623"><ele>764.0</ele><time>2026-04-04T15:10:52.218Z</time></trkpt><trkpt lat="45.947803" lon="11.7380186"><ele>763.1428571428572</ele><time>2026-04-04T15:10:55.219Z</time></trkpt><trkpt lat="45.9477368" lon="11.7380394"><ele>762.2857142857142</ele><time>2026-04-04T15:10:57.219Z</time></trkpt><trkpt lat="45.9476677" lon="11.7380354"><ele>761.4285714285714</ele><time>2026-04-04T15:10:59.219Z</time></trkpt><trkpt lat="45.9476002" lon="11.7380468"><ele>760.5714285714287</ele><time>2026-04-04T15:11:01.218Z</time></trkpt><trkpt lat="45.9475292" lon="11.7380748"><ele>759.7142857142858</ele><time>2026-04-04T15:11:03.219Z</time></trkpt><trkpt lat="45.9474501" lon="11.7381325"><ele>758.8571428571429</ele><time>2026-04-04T15:11:06.219Z</time></trkpt><trkpt lat="45.9473943" lon="11.7381925"><ele>758.0</ele><time>2026-04-04T15:11:09.219Z</time></trkpt><trkpt lat="45.9473249" lon="11.7382553"><ele>758.0000000000001</ele><time>2026-04-04T15:11:12.218Z</time></trkpt><trkpt lat="45.9472683" lon="11.738319"><ele>758.0</ele><time>2026-04-04T15:11:15.219Z</time></trkpt><trkpt lat="45.9472165" lon="11.7383714"><ele>758.0</ele><time>2026-04-04T15:11:18.219Z</time></trkpt><trkpt lat="45.9471394" lon="11.738414"><ele>758.0</ele><time>2026-04-04T15:11:22.219Z</time></trkpt><trkpt lat="45.947072" lon="11.7384393"><ele>758.0</ele><time>2026-04-04T15:11:25.219Z</time></trkpt><trkpt lat="45.9469934" lon="11.7384739"><ele>758.0000000000001</ele><time>2026-04-04T15:11:27.219Z</time></trkpt><trkpt lat="45.9469218" lon="11.73852"><ele>758.0</ele><time>2026-04-04T15:11:29.218Z</time></trkpt><trkpt lat="45.9468685" lon="11.738575"><ele>755.8571428571429</ele><time>2026-04-04T15:11:31.219Z</time></trkpt><trkpt lat="45.9468099" lon="11.7386212"><ele>753.7142857142858</ele><time>2026-04-04T15:11:34.219Z</time></trkpt><trkpt lat="45.9467424" lon="11.7386112"><ele>751.5714285714287</ele><time>2026-04-04T15:11:45.219Z</time></trkpt><trkpt lat="45.9466587" lon="11.7385694"><ele>749.4285714285714</ele><time>2026-04-04T15:11:48.219Z</time></trkpt><trkpt lat="45.946587" lon="11.7385975"><ele>747.2857142857142</ele><time>2026-04-04T15:11:50.219Z</time></trkpt><trkpt lat="45.9465133" lon="11.7385704"><ele>745.1428571428572</ele><time>2026-04-04T15:11:53.219Z</time></trkpt><trkpt lat="45.9464444" lon="11.7385445"><ele>743.0</ele><time>2026-04-04T15:12:00.218Z</time></trkpt><trkpt lat="45.9463758" lon="11.7384996"><ele>743.0</ele><time>2026-04-04T15:12:08.219Z</time></trkpt><trkpt lat="45.9462965" lon="11.7384568"><ele>743.0</ele><time>2026-04-04T15:12:12.219Z</time></trkpt><trkpt lat="45.9462363" lon="11.7384276"><ele>743.0</ele><time>2026-04-04T15:12:15.219Z</time></trkpt><trkpt lat="45.9461712" lon="11.7383908"><ele>743.0</ele><time>2026-04-04T15:12:18.219Z</time></trkpt><trkpt lat="45.9461008" lon="11.7383393"><ele>743.0</ele><time>2026-04-04T15:12:22.218Z</time></trkpt><trkpt lat="45.9460282" lon="11.7383079"><ele>743.0</ele><time>2026-04-04T15:12:26.219Z</time></trkpt><trkpt lat="45.9459553" lon="11.7382563"><ele>743.0</ele><time>2026-04-04T15:12:30.219Z</time></trkpt><trkpt lat="45.9458888" lon="11.7381952"><ele>743.0</ele><time>2026-04-04T15:12:34.218Z</time></trkpt><trkpt lat="45.9458418" lon="11.7381345"><ele>743.0</ele><time>2026-04-04T15:12:38.219Z</time></trkpt><trkpt lat="45.9457857" lon="11.738055"><ele>743.0</ele><time>2026-04-04T15:12:42.219Z</time></trkpt><trkpt lat="45.9457378" lon="11.7379884"><ele>743.0</ele><time>2026-04-04T15:12:45.219Z</time></trkpt><trkpt lat="45.9456725" lon="11.7379478"><ele>743.0</ele><time>2026-04-04T15:12:48.219Z</time></trkpt><trkpt lat="45.9456045" lon="11.7379694"><ele>743.0</ele><time>2026-04-04T15:12:56.219Z</time></trkpt><trkpt lat="45.945543" lon="11.7379936"><ele>744.8571428571429</ele><time>2026-04-04T15:13:07.219Z</time></trkpt><trkpt lat="45.9454796" lon="11.7379672"><ele>746.7142857142857</ele><time>2026-04-04T15:13:11.219Z</time></trkpt><trkpt lat="45.9454096" lon="11.7379396"><ele>748.5714285714286</ele><time>2026-04-04T15:13:14.219Z</time></trkpt><trkpt lat="45.9453448" lon="11.7379299"><ele>750.4285714285714</ele><time>2026-04-04T15:13:17.219Z</time></trkpt><trkpt lat="45.9452876" lon="11.73788"><ele>752.2857142857142</ele><time>2026-04-04T15:13:21.219Z</time></trkpt><trkpt lat="45.9452374" lon="11.7378093"><ele>754.1428571428571</ele><time>2026-04-04T15:13:25.219Z</time></trkpt><trkpt lat="45.9451929" lon="11.7377444"><ele>756.0</ele><time>2026-04-04T15:13:27.219Z</time></trkpt><trkpt lat="45.9451441" lon="11.7376553"><ele>752.0</ele><time>2026-04-04T15:13:29.219Z</time></trkpt><trkpt lat="45.9451039" lon="11.7375851"><ele>748.0</ele><time>2026-04-04T15:13:31.219Z</time></trkpt><trkpt lat="45.9450592" lon="11.7375135"><ele>744.0</ele><time>2026-04-04T15:13:35.219Z</time></trkpt><trkpt lat="45.9450083" lon="11.7374381"><ele>740.0</ele><time>2026-04-04T15:13:39.219Z</time></trkpt><trkpt lat="45.945002" lon="11.7373474"><ele>736.0</ele><time>2026-04-04T15:14:01.219Z</time></trkpt><trkpt lat="45.944968" lon="11.7372711"><ele>732.0</ele><time>2026-04-04T15:14:03.219Z</time></trkpt><trkpt lat="45.9449264" lon="11.7371982"><ele>728.0</ele><time>2026-04-04T15:14:05.219Z</time></trkpt><trkpt lat="45.9448725" lon="11.7371141"><ele>728.0</ele><time>2026-04-04T15:14:08.219Z</time></trkpt><trkpt lat="45.9448062" lon="11.7370308"><ele>728.0</ele><time>2026-04-04T15:14:12.219Z</time></trkpt><trkpt lat="45.944749" lon="11.73692"><ele>728.0</ele><time>2026-04-04T15:14:15.219Z</time></trkpt><trkpt lat="45.9446944" lon="11.7368525"><ele>728.0</ele><time>2026-04-04T15:14:17.219Z</time></trkpt><trkpt lat="45.9446341" lon="11.7367927"><ele>728.0</ele><time>2026-04-04T15:14:19.219Z</time></trkpt><trkpt lat="45.9445389" lon="11.736796"><ele>728.0</ele><time>2026-04-04T15:14:37.219Z</time></trkpt><trkpt lat="45.9444548" lon="11.7368222"><ele>723.2857142857143</ele><time>2026-04-04T15:14:41.219Z</time></trkpt><trkpt lat="45.9443741" lon="11.7368296"><ele>718.5714285714286</ele><time>2026-04-04T15:14:45.218Z</time></trkpt><trkpt lat="45.944309" lon="11.7368247"><ele>713.8571428571429</ele><time>2026-04-04T15:14:47.219Z</time></trkpt><trkpt lat="45.9442421" lon="11.7368393"><ele>709.1428571428571</ele><time>2026-04-04T15:14:50.218Z</time></trkpt><trkpt lat="45.944176" lon="11.7368449"><ele>704.4285714285714</ele><time>2026-04-04T15:14:53.219Z</time></trkpt><trkpt lat="45.9440981" lon="11.736847"><ele>699.7142857142858</ele><time>2026-04-04T15:14:56.219Z</time></trkpt><trkpt lat="45.9440207" lon="11.736838"><ele>695.0</ele><time>2026-04-04T15:15:00.219Z</time></trkpt><trkpt lat="45.9439508" lon="11.7368111"><ele>695.0000000000001</ele><time>2026-04-04T15:15:05.218Z</time></trkpt><trkpt lat="45.9438886" lon="11.7367746"><ele>695.0</ele><time>2026-04-04T15:15:09.218Z</time></trkpt><trkpt lat="45.9438366" lon="11.7367119"><ele>695.0</ele><time>2026-04-04T15:15:15.219Z</time></trkpt><trkpt lat="45.9437727" lon="11.7366554"><ele>695.0</ele><time>2026-04-04T15:15:19.219Z</time></trkpt><trkpt lat="45.9437152" lon="11.736594"><ele>695.0</ele><time>2026-04-04T15:15:22.219Z</time></trkpt><trkpt lat="45.9436516" lon="11.7365408"><ele>695.0000000000001</ele><time>2026-04-04T15:15:26.219Z</time></trkpt><trkpt lat="45.9435723" lon="11.736499"><ele>695.0</ele><time>2026-04-04T15:15:30.219Z</time></trkpt><trkpt lat="45.9434835" lon="11.7364645"><ele>695.0000000000001</ele><time>2026-04-04T15:15:38.218Z</time></trkpt><trkpt lat="45.9434131" lon="11.7364174"><ele>695.0</ele><time>2026-04-04T15:15:42.219Z</time></trkpt><trkpt lat="45.9433517" lon="11.7363945"><ele>695.0</ele><time>2026-04-04T15:15:45.219Z</time></trkpt><trkpt lat="45.9432758" lon="11.7363765"><ele>695.0</ele><time>2026-04-04T15:15:48.218Z</time></trkpt><trkpt lat="45.943199" lon="11.7363665"><ele>695.0</ele><time>2026-04-04T15:15:50.219Z</time></trkpt><trkpt lat="45.9431314" lon="11.7363145"><ele>695.0000000000001</ele><time>2026-04-04T15:15:52.219Z</time></trkpt><trkpt lat="45.9430758" lon="11.7362634"><ele>695.0</ele><time>2026-04-04T15:15:54.219Z</time></trkpt><trkpt lat="45.9430275" lon="11.7362045"><ele>698.3333333333333</ele><time>2026-04-04T15:15:56.219Z</time></trkpt><trkpt lat="45.9429566" lon="11.7361703"><ele>701.6666666666666</ele><time>2026-04-04T15:15:58.218Z</time></trkpt><trkpt lat="45.9428836" lon="11.7361413"><ele>705.0</ele><time>2026-04-04T15:16:02.219Z</time></trkpt><trkpt lat="45.9427985" lon="11.7361284"><ele>708.3333333333334</ele><time>2026-04-04T15:16:06.219Z</time></trkpt><trkpt lat="45.9427043" lon="11.7360883"><ele>711.6666666666667</ele><time>2026-04-04T15:16:08.219Z</time></trkpt><trkpt lat="45.9426397" lon="11.7360699"><ele>715.0</ele><time>2026-04-04T15:16:10.219Z</time></trkpt><trkpt lat="45.9425569" lon="11.7360497"><ele>711.3333333333334</ele><time>2026-04-04T15:16:12.219Z</time></trkpt><trkpt lat="45.9424634" lon="11.7360185"><ele>707.6666666666667</ele><time>2026-04-04T15:16:14.219Z</time></trkpt><trkpt lat="45.9423806" lon="11.7360131"><ele>704.0</ele><time>2026-04-04T15:16:17.219Z</time></trkpt><trkpt lat="45.9423136" lon="11.7360064"><ele>700.3333333333334</ele><time>2026-04-04T15:16:20.219Z</time></trkpt><trkpt lat="45.9422424" lon="11.7360066"><ele>696.6666666666666</ele><time>2026-04-04T15:16:23.219Z</time></trkpt><trkpt lat="45.9421732" lon="11.7359905"><ele>693.0</ele><time>2026-04-04T15:16:26.219Z</time></trkpt><trkpt lat="45.9420925" lon="11.7359444"><ele>693.0</ele><time>2026-04-04T15:16:29.219Z</time></trkpt><trkpt lat="45.942015" lon="11.7358904"><ele>693.0</ele><time>2026-04-04T15:16:32.218Z</time></trkpt><trkpt lat="45.9419403" lon="11.7358314"><ele>693.0</ele><time>2026-04-04T15:16:35.219Z</time></trkpt><trkpt lat="45.9418648" lon="11.7358113"><ele>693.0</ele><time>2026-04-04T15:16:38.219Z</time></trkpt><trkpt lat="45.9418074" lon="11.7357697"><ele>693.0</ele><time>2026-04-04T15:16:40.219Z</time></trkpt><trkpt lat="45.9417509" lon="11.7357025"><ele>693.0</ele><time>2026-04-04T15:16:42.219Z</time></trkpt><trkpt lat="45.9417039" lon="11.7356346"><ele>695.3333333333334</ele><time>2026-04-04T15:16:45.219Z</time></trkpt><trkpt lat="45.9416393" lon="11.7355887"><ele>697.6666666666666</ele><time>2026-04-04T15:16:48.218Z</time></trkpt><trkpt lat="45.941564" lon="11.7355021"><ele>700.0</ele><time>2026-04-04T15:16:50.219Z</time></trkpt><trkpt lat="45.9415073" lon="11.7354318"><ele>702.3333333333333</ele><time>2026-04-04T15:16:52.219Z</time></trkpt><trkpt lat="45.9414394" lon="11.7353687"><ele>704.6666666666666</ele><time>2026-04-04T15:16:54.219Z</time></trkpt><trkpt lat="45.9413628" lon="11.7353363"><ele>707.0</ele><time>2026-04-04T15:16:57.218Z</time></trkpt><trkpt lat="45.9412821" lon="11.7352835"><ele>707.0</ele><time>2026-04-04T15:17:00.218Z</time></trkpt><trkpt lat="45.9412309" lon="11.7352288"><ele>707.0</ele><time>2026-04-04T15:17:06.218Z</time></trkpt><trkpt lat="45.9411708" lon="11.7351795"><ele>707.0</ele><time>2026-04-04T15:17:12.219Z</time></trkpt><trkpt lat="45.9410962" lon="11.7351236"><ele>707.0</ele><time>2026-04-04T15:17:15.218Z</time></trkpt><trkpt lat="45.9410299" lon="11.7350677"><ele>707.0</ele><time>2026-04-04T15:17:18.219Z</time></trkpt><trkpt lat="45.9409583" lon="11.7349921"><ele>707.0</ele><time>2026-04-04T15:17:21.219Z</time></trkpt><trkpt lat="45.9409079" lon="11.7349377"><ele>707.0</ele><time>2026-04-04T15:17:23.219Z</time></trkpt><trkpt lat="45.9408453" lon="11.7348341"><ele>704.1666666666666</ele><time>2026-04-04T15:17:25.219Z</time></trkpt><trkpt lat="45.9407955" lon="11.7347588"><ele>701.3333333333333</ele><time>2026-04-04T15:17:27.218Z</time></trkpt><trkpt lat="45.9407291" lon="11.7346778"><ele>698.5</ele><time>2026-04-04T15:17:30.219Z</time></trkpt><trkpt lat="45.9406783" lon="11.7346031"><ele>695.6666666666666</ele><time>2026-04-04T15:17:32.218Z</time></trkpt><trkpt lat="45.9406325" lon="11.7345006"><ele>692.8333333333334</ele><time>2026-04-04T15:17:34.218Z</time></trkpt><trkpt lat="45.9405795" lon="11.7343993"><ele>690.0</ele><time>2026-04-04T15:17:36.219Z</time></trkpt><trkpt lat="45.9405272" lon="11.7343027"><ele>684.5</ele><time>2026-04-04T15:17:38.219Z</time></trkpt><trkpt lat="45.9404769" lon="11.7342266"><ele>679.0</ele><time>2026-04-04T15:17:40.219Z</time></trkpt><trkpt lat="45.9404371" lon="11.7341456"><ele>673.5</ele><time>2026-04-04T15:17:42.219Z</time></trkpt><trkpt lat="45.9403815" lon="11.7340405"><ele>668.0</ele><time>2026-04-04T15:17:45.219Z</time></trkpt><trkpt lat="45.9403185" lon="11.7339588"><ele>662.5</ele><time>2026-04-04T15:17:48.219Z</time></trkpt><trkpt lat="45.940261" lon="11.7338871"><ele>657.0</ele><time>2026-04-04T15:17:59.219Z</time></trkpt><trkpt lat="45.9402166" lon="11.7337958"><ele>657.0</ele><time>2026-04-04T15:18:01.219Z</time></trkpt><trkpt lat="45.9401988" lon="11.7336874"><ele>657.0</ele><time>2026-04-04T15:18:03.219Z</time></trkpt><trkpt lat="45.9401789" lon="11.7335875"><ele>657.0</ele><time>2026-04-04T15:18:05.219Z</time></trkpt><trkpt lat="45.9401819" lon="11.7334956"><ele>657.0</ele><time>2026-04-04T15:18:13.219Z</time></trkpt><trkpt lat="45.9401098" lon="11.7335399"><ele>657.0</ele><time>2026-04-04T15:18:16.219Z</time></trkpt><trkpt lat="45.9400692" lon="11.7336246"><ele>657.0</ele><time>2026-04-04T15:18:18.219Z</time></trkpt><trkpt lat="45.9400289" lon="11.7337147"><ele>657.0</ele><time>2026-04-04T15:18:20.219Z</time></trkpt><trkpt lat="45.9399778" lon="11.7337874"><ele>660.5</ele><time>2026-04-04T15:18:23.219Z</time></trkpt><trkpt lat="45.9399076" lon="11.7338183"><ele>664.0</ele><time>2026-04-04T15:18:37.219Z</time></trkpt><trkpt lat="45.9398262" lon="11.7338048"><ele>667.5</ele><time>2026-04-04T15:18:39.219Z</time></trkpt><trkpt lat="45.9397603" lon="11.7338184"><ele>671.0</ele><time>2026-04-04T15:18:40.219Z</time></trkpt><trkpt lat="45.9396502" lon="11.733829"><ele>674.5</ele><time>2026-04-04T15:18:42.219Z</time></trkpt><trkpt lat="45.9395415" lon="11.733803"><ele>678.0</ele><time>2026-04-04T15:18:44.219Z</time></trkpt><trkpt lat="45.9394367" lon="11.7337636"><ele>678.0</ele><time>2026-04-04T15:18:46.219Z</time></trkpt><trkpt lat="45.9393454" lon="11.7337099"><ele>678.0</ele><time>2026-04-04T15:18:48.219Z</time></trkpt><trkpt lat="45.9392334" lon="11.733642"><ele>678.0</ele><time>2026-04-04T15:18:50.219Z</time></trkpt><trkpt lat="45.9391679" lon="11.733603"><ele>678.0</ele><time>2026-04-04T15:18:51.219Z</time></trkpt><trkpt lat="45.9390884" lon="11.7335639"><ele>678.0</ele><time>2026-04-04T15:18:52.219Z</time></trkpt><trkpt lat="45.9390177" lon="11.7335218"><ele>673.0</ele><time>2026-04-04T15:18:53.219Z</time></trkpt><trkpt lat="45.9389456" lon="11.7334896"><ele>668.0</ele><time>2026-04-04T15:18:54.218Z</time></trkpt><trkpt lat="45.9388814" lon="11.7334742"><ele>663.0</ele><time>2026-04-04T15:18:55.219Z</time></trkpt><trkpt lat="45.9387707" lon="11.7334723"><ele>658.0</ele><time>2026-04-04T15:18:57.219Z</time></trkpt><trkpt lat="45.9386735" lon="11.7334557"><ele>653.0</ele><time>2026-04-04T15:18:59.219Z</time></trkpt><trkpt lat="45.9386085" lon="11.7333781"><ele>648.0</ele><time>2026-04-04T15:19:01.219Z</time></trkpt><trkpt lat="45.9385418" lon="11.7333151"><ele>648.0</ele><time>2026-04-04T15:19:03.219Z</time></trkpt><trkpt lat="45.9384557" lon="11.7332838"><ele>648.0</ele><time>2026-04-04T15:19:05.219Z</time></trkpt><trkpt lat="45.9383697" lon="11.7332424"><ele>648.0</ele><time>2026-04-04T15:19:07.219Z</time></trkpt><trkpt lat="45.9382767" lon="11.7332515"><ele>648.0</ele><time>2026-04-04T15:19:09.219Z</time></trkpt><trkpt lat="45.9381793" lon="11.7332776"><ele>648.0</ele><time>2026-04-04T15:19:11.219Z</time></trkpt><trkpt lat="45.9380987" lon="11.7333105"><ele>648.1666666666666</ele><time>2026-04-04T15:19:13.218Z</time></trkpt><trkpt lat="45.9380474" lon="11.733237"><ele>648.3333333333334</ele><time>2026-04-04T15:19:16.219Z</time></trkpt><trkpt lat="45.9380775" lon="11.7331301"><ele>648.5</ele><time>2026-04-04T15:19:19.219Z</time></trkpt><trkpt lat="45.9381157" lon="11.7330199"><ele>648.6666666666667</ele><time>2026-04-04T15:19:21.219Z</time></trkpt><trkpt lat="45.9381315" lon="11.7329185"><ele>648.8333333333334</ele><time>2026-04-04T15:19:23.219Z</time></trkpt><trkpt lat="45.9381311" lon="11.7327553"><ele>649.0</ele><time>2026-04-04T15:19:25.219Z</time></trkpt><trkpt lat="45.9381272" lon="11.7326636"><ele>645.3333333333334</ele><time>2026-04-04T15:19:27.219Z</time></trkpt><trkpt lat="45.9381114" lon="11.7325581"><ele>641.6666666666667</ele><time>2026-04-04T15:19:32.219Z</time></trkpt><trkpt lat="45.9380748" lon="11.7324624"><ele>638.0</ele><time>2026-04-04T15:19:36.219Z</time></trkpt><trkpt lat="45.9380201" lon="11.7323959"><ele>634.3333333333334</ele><time>2026-04-04T15:19:39.218Z</time></trkpt><trkpt lat="45.937942" lon="11.7323041"><ele>630.6666666666666</ele><time>2026-04-04T15:19:42.219Z</time></trkpt><trkpt lat="45.9378683" lon="11.7322289"><ele>627.0</ele><time>2026-04-04T15:19:44.219Z</time></trkpt><trkpt lat="45.9378081" lon="11.7321749"><ele>627.0</ele><time>2026-04-04T15:19:46.219Z</time></trkpt><trkpt lat="45.9377481" lon="11.7320891"><ele>627.0</ele><time>2026-04-04T15:19:49.219Z</time></trkpt><trkpt lat="45.9376861" lon="11.7319872"><ele>627.0</ele><time>2026-04-04T15:19:52.219Z</time></trkpt><trkpt lat="45.9376392" lon="11.7319222"><ele>627.0</ele><time>2026-04-04T15:19:54.218Z</time></trkpt><trkpt lat="45.937588" lon="11.7318366"><ele>627.0</ele><time>2026-04-04T15:19:56.219Z</time></trkpt><trkpt lat="45.9375306" lon="11.7317206"><ele>627.0</ele><time>2026-04-04T15:19:57.218Z</time></trkpt><trkpt lat="45.9374734" lon="11.731614"><ele>626.1666666666666</ele><time>2026-04-04T15:19:59.219Z</time></trkpt><trkpt lat="45.9374354" lon="11.7315218"><ele>625.3333333333334</ele><time>2026-04-04T15:20:02.219Z</time></trkpt><trkpt lat="45.9373918" lon="11.7314132"><ele>624.5</ele><time>2026-04-04T15:20:05.218Z</time></trkpt><trkpt lat="45.9373471" lon="11.7313247"><ele>623.6666666666667</ele><time>2026-04-04T15:20:07.219Z</time></trkpt><trkpt lat="45.9373097" lon="11.7312507"><ele>622.8333333333334</ele><time>2026-04-04T15:20:09.219Z</time></trkpt><trkpt lat="45.9372625" lon="11.7311728"><ele>622.0</ele><time>2026-04-04T15:20:11.219Z</time></trkpt><trkpt lat="45.9372538" lon="11.7310586"><ele>616.5</ele><time>2026-04-04T15:20:13.219Z</time></trkpt><trkpt lat="45.9372475" lon="11.7309207"><ele>611.0</ele><time>2026-04-04T15:20:15.219Z</time></trkpt><trkpt lat="45.9372366" lon="11.730815"><ele>605.5</ele><time>2026-04-04T15:20:17.219Z</time></trkpt><trkpt lat="45.9372183" lon="11.7306853"><ele>600.0</ele><time>2026-04-04T15:20:21.219Z</time></trkpt><trkpt lat="45.9371729" lon="11.7306126"><ele>594.5</ele><time>2026-04-04T15:20:23.219Z</time></trkpt><trkpt lat="45.937134" lon="11.7305194"><ele>589.0</ele><time>2026-04-04T15:20:27.218Z</time></trkpt><trkpt lat="45.9370734" lon="11.7304334"><ele>589.0</ele><time>2026-04-04T15:20:31.219Z</time></trkpt><trkpt lat="45.9370138" lon="11.73039"><ele>589.0</ele><time>2026-04-04T15:20:33.219Z</time></trkpt><trkpt lat="45.936932" lon="11.7303403"><ele>589.0</ele><time>2026-04-04T15:20:35.219Z</time></trkpt><trkpt lat="45.9368339" lon="11.7302803"><ele>589.0</ele><time>2026-04-04T15:20:37.218Z</time></trkpt><trkpt lat="45.9367436" lon="11.7302177"><ele>589.0</ele><time>2026-04-04T15:20:39.219Z</time></trkpt><trkpt lat="45.9366921" lon="11.7301623"><ele>589.0</ele><time>2026-04-04T15:20:41.219Z</time></trkpt><trkpt lat="45.9366386" lon="11.7300999"><ele>585.1666666666667</ele><time>2026-04-04T15:20:46.219Z</time></trkpt><trkpt lat="45.9365899" lon="11.7300161"><ele>581.3333333333334</ele><time>2026-04-04T15:20:50.219Z</time></trkpt><trkpt lat="45.936542" lon="11.72991"><ele>577.5</ele><time>2026-04-04T15:20:54.219Z</time></trkpt><trkpt lat="45.9365471" lon="11.7297992"><ele>573.6666666666666</ele><time>2026-04-04T15:20:58.218Z</time></trkpt><trkpt lat="45.9365699" lon="11.7296744"><ele>569.8333333333333</ele><time>2026-04-04T15:21:01.219Z</time></trkpt><trkpt lat="45.9365699" lon="11.729581"><ele>566.0</ele><time>2026-04-04T15:21:06.219Z</time></trkpt><trkpt lat="45.936515" lon="11.7295344"><ele>566.0</ele><time>2026-04-04T15:21:09.219Z</time></trkpt><trkpt lat="45.9364111" lon="11.7295662"><ele>566.0</ele><time>2026-04-04T15:21:12.219Z</time></trkpt><trkpt lat="45.9363212" lon="11.7295745"><ele>566.0</ele><time>2026-04-04T15:21:15.218Z</time></trkpt><trkpt lat="45.9362509" lon="11.7295848"><ele>566.0</ele><time>2026-04-04T15:26:16.219Z</time></trkpt><trkpt lat="45.9361651" lon="11.7295937"><ele>566.0</ele><time>2026-04-04T15:26:19.219Z</time></trkpt><trkpt lat="45.9360907" lon="11.7295912"><ele>566.0</ele><time>2026-04-04T15:26:23.219Z</time></trkpt><trkpt lat="45.9360201" lon="11.7295897"><ele>566.0</ele><time>2026-04-04T15:26:25.219Z</time></trkpt><trkpt lat="45.9359278" lon="11.7295978"><ele>566.0</ele><time>2026-04-04T15:26:27.218Z</time></trkpt><trkpt lat="45.9358403" lon="11.7296025"><ele>566.0</ele><time>2026-04-04T15:26:28.219Z</time></trkpt><trkpt lat="45.9357134" lon="11.7296344"><ele>566.0</ele><time>2026-04-04T15:26:30.219Z</time></trkpt><trkpt lat="45.9356468" lon="11.7296461"><ele>566.0</ele><time>2026-04-04T15:26:31.219Z</time></trkpt><trkpt lat="45.9355482" lon="11.729662"><ele>563.5</ele><time>2026-04-04T15:26:33.219Z</time></trkpt><trkpt lat="45.9354841" lon="11.7296715"><ele>561.0</ele><time>2026-04-04T15:26:34.219Z</time></trkpt><trkpt lat="45.9353785" lon="11.7297146"><ele>558.5</ele><time>2026-04-04T15:26:35.218Z</time></trkpt><trkpt lat="45.9352978" lon="11.7297999"><ele>556.0</ele><time>2026-04-04T15:26:36.219Z</time></trkpt><trkpt lat="45.9352472" lon="11.7298552"><ele>553.5</ele><time>2026-04-04T15:26:37.219Z</time></trkpt><trkpt lat="45.9351895" lon="11.7298933"><ele>551.0</ele><time>2026-04-04T15:26:38.218Z</time></trkpt><trkpt lat="45.9350837" lon="11.7298768"><ele>547.0</ele><time>2026-04-04T15:26:40.219Z</time></trkpt><trkpt lat="45.9350202" lon="11.7298611"><ele>543.0</ele><time>2026-04-04T15:26:41.219Z</time></trkpt><trkpt lat="45.9349599" lon="11.7297957"><ele>539.0</ele><time>2026-04-04T15:26:43.218Z</time></trkpt><trkpt lat="45.9348969" lon="11.7297688"><ele>535.0</ele><time>2026-04-04T15:26:45.219Z</time></trkpt><trkpt lat="45.934814" lon="11.7297555"><ele>531.0</ele><time>2026-04-04T15:26:47.219Z</time></trkpt><trkpt lat="45.9347285" lon="11.7298316"><ele>527.0</ele><time>2026-04-04T15:26:50.219Z</time></trkpt><trkpt lat="45.9346673" lon="11.7299208"><ele>527.0</ele><time>2026-04-04T15:26:53.219Z</time></trkpt><trkpt lat="45.9346414" lon="11.7300101"><ele>527.0</ele><time>2026-04-04T15:26:55.219Z</time></trkpt><trkpt lat="45.934639" lon="11.7301193"><ele>527.0</ele><time>2026-04-04T15:26:57.219Z</time></trkpt><trkpt lat="45.9346777" lon="11.7302334"><ele>527.0</ele><time>2026-04-04T15:27:00.219Z</time></trkpt><trkpt lat="45.9347306" lon="11.7303008"><ele>527.0</ele><time>2026-04-04T15:27:02.219Z</time></trkpt><trkpt lat="45.9346868" lon="11.7304946"><ele>527.0</ele><time>2026-04-04T15:27:05.219Z</time></trkpt><trkpt lat="45.9346476" lon="11.7305755"><ele>527.2</ele><time>2026-04-04T15:27:06.219Z</time></trkpt><trkpt lat="45.9345866" lon="11.7307064"><ele>527.4000000000001</ele><time>2026-04-04T15:27:08.219Z</time></trkpt><trkpt lat="45.9345459" lon="11.7308116"><ele>527.5999999999999</ele><time>2026-04-04T15:27:09.219Z</time></trkpt><trkpt lat="45.9345197" lon="11.7308942"><ele>527.8</ele><time>2026-04-04T15:27:10.219Z</time></trkpt><trkpt lat="45.9344796" lon="11.7310392"><ele>528.0</ele><time>2026-04-04T15:27:12.218Z</time></trkpt><trkpt lat="45.9344539" lon="11.7312356"><ele>528.5</ele><time>2026-04-04T15:27:14.219Z</time></trkpt><trkpt lat="45.934445" lon="11.7313297"><ele>529.0</ele><time>2026-04-04T15:27:15.218Z</time></trkpt><trkpt lat="45.9344249" lon="11.731417"><ele>529.5</ele><time>2026-04-04T15:27:16.219Z</time></trkpt><trkpt lat="45.934395" lon="11.7316038"><ele>530.0</ele><time>2026-04-04T15:27:18.219Z</time></trkpt><trkpt lat="45.9343845" lon="11.731709"><ele>530.5</ele><time>2026-04-04T15:27:19.219Z</time></trkpt><trkpt lat="45.9343861" lon="11.7318013"><ele>531.0</ele><time>2026-04-04T15:27:20.219Z</time></trkpt><trkpt lat="45.934423" lon="11.7320065"><ele>534.0</ele><time>2026-04-04T15:27:22.219Z</time></trkpt><trkpt lat="45.9344331" lon="11.7321066"><ele>537.0</ele><time>2026-04-04T15:27:23.219Z</time></trkpt><trkpt lat="45.9343317" lon="11.7322039"><ele>540.0</ele><time>2026-04-04T15:27:26.219Z</time></trkpt><trkpt lat="45.9342703" lon="11.7322892"><ele>543.0</ele><time>2026-04-04T15:27:28.219Z</time></trkpt><trkpt lat="45.934227" lon="11.7324377"><ele>546.0</ele><time>2026-04-04T15:27:30.218Z</time></trkpt><trkpt lat="45.9341816" lon="11.7325713"><ele>536.2</ele><time>2026-04-04T15:27:32.219Z</time></trkpt><trkpt lat="45.9341115" lon="11.7326509"><ele>526.4000000000001</ele><time>2026-04-04T15:27:34.219Z</time></trkpt><trkpt lat="45.934027" lon="11.7327325"><ele>516.6</ele><time>2026-04-04T15:27:36.219Z</time></trkpt><trkpt lat="45.9339343" lon="11.7328264"><ele>506.8</ele><time>2026-04-04T15:27:38.219Z</time></trkpt><trkpt lat="45.9338725" lon="11.7329293"><ele>497.0</ele><time>2026-04-04T15:27:40.219Z</time></trkpt><trkpt lat="45.9338336" lon="11.7330672"><ele>497.0</ele><time>2026-04-04T15:27:42.219Z</time></trkpt><trkpt lat="45.9337855" lon="11.7332261"><ele>497.00000000000006</ele><time>2026-04-04T15:27:44.219Z</time></trkpt><trkpt lat="45.9337527" lon="11.7333186"><ele>497.00000000000006</ele><time>2026-04-04T15:27:45.219Z</time></trkpt><trkpt lat="45.9337463" lon="11.7334548"><ele>497.0</ele><time>2026-04-04T15:27:47.219Z</time></trkpt><trkpt lat="45.9337592" lon="11.7335826"><ele>497.0</ele><time>2026-04-04T15:27:49.219Z</time></trkpt><trkpt lat="45.9337725" lon="11.7337111"><ele>494.16666666666663</ele><time>2026-04-04T15:27:51.219Z</time></trkpt><trkpt lat="45.9337801" lon="11.7338379"><ele>491.3333333333333</ele><time>2026-04-04T15:27:53.219Z</time></trkpt><trkpt lat="45.9337961" lon="11.7339531"><ele>488.5</ele><time>2026-04-04T15:27:55.219Z</time></trkpt><trkpt lat="45.9338115" lon="11.7340884"><ele>485.66666666666663</ele><time>2026-04-04T15:27:57.219Z</time></trkpt><trkpt lat="45.9338705" lon="11.7341615"><ele>482.8333333333333</ele><time>2026-04-04T15:27:59.218Z</time></trkpt><trkpt lat="45.9339403" lon="11.7342473"><ele>480.0</ele><time>2026-04-04T15:28:01.219Z</time></trkpt><trkpt lat="45.9339942" lon="11.7343082"><ele>480.0</ele><time>2026-04-04T15:28:02.219Z</time></trkpt><trkpt lat="45.9340413" lon="11.7343758"><ele>480.0</ele><time>2026-04-04T15:28:03.219Z</time></trkpt><trkpt lat="45.9340942" lon="11.7345225"><ele>480.0</ele><time>2026-04-04T15:28:05.219Z</time></trkpt><trkpt lat="45.9341306" lon="11.7346201"><ele>480.0</ele><time>2026-04-04T15:28:06.218Z</time></trkpt><trkpt lat="45.9341793" lon="11.734684"><ele>480.0</ele><time>2026-04-04T15:28:08.219Z</time></trkpt><trkpt lat="45.9342108" lon="11.734794"><ele>480.0</ele><time>2026-04-04T15:28:10.219Z</time></trkpt><trkpt lat="45.9342685" lon="11.7348969"><ele>480.0</ele><time>2026-04-04T15:28:12.219Z</time></trkpt><trkpt lat="45.9343711" lon="11.7349959"><ele>480.0</ele><time>2026-04-04T15:28:14.219Z</time></trkpt><trkpt lat="45.9344199" lon="11.7350698"><ele>480.0</ele><time>2026-04-04T15:28:15.219Z</time></trkpt><trkpt lat="45.9345223" lon="11.7351406"><ele>480.0</ele><time>2026-04-04T15:28:17.219Z</time></trkpt><trkpt lat="45.9345979" lon="11.735246"><ele>480.0</ele><time>2026-04-04T15:28:19.219Z</time></trkpt><trkpt lat="45.9346637" lon="11.7353158"><ele>475.3333333333333</ele><time>2026-04-04T15:28:21.219Z</time></trkpt><trkpt lat="45.9346429" lon="11.7354532"><ele>470.66666666666663</ele><time>2026-04-04T15:28:23.219Z</time></trkpt><trkpt lat="45.9346575" lon="11.7355455"><ele>466.0</ele><time>2026-04-04T15:28:25.219Z</time></trkpt><trkpt lat="45.9346658" lon="11.7356476"><ele>461.3333333333333</ele><time>2026-04-04T15:28:27.219Z</time></trkpt><trkpt lat="45.9347251" lon="11.7357674"><ele>456.66666666666663</ele><time>2026-04-04T15:28:29.219Z</time></trkpt><trkpt lat="45.9347581" lon="11.7358495"><ele>452.0</ele><time>2026-04-04T15:28:30.219Z</time></trkpt><trkpt lat="45.9348412" lon="11.7359477"><ele>452.0</ele><time>2026-04-04T15:28:32.219Z</time></trkpt><trkpt lat="45.9349305" lon="11.7359975"><ele>452.00000000000006</ele><time>2026-04-04T15:28:34.218Z</time></trkpt><trkpt lat="45.9349995" lon="11.7361042"><ele>452.00000000000006</ele><time>2026-04-04T15:28:36.219Z</time></trkpt><trkpt lat="45.9350694" lon="11.7362196"><ele>452.0</ele><time>2026-04-04T15:28:38.219Z</time></trkpt><trkpt lat="45.9350985" lon="11.7363455"><ele>452.0</ele><time>2026-04-04T15:28:40.219Z</time></trkpt><trkpt lat="45.9351352" lon="11.7364193"><ele>450.99999999999994</ele><time>2026-04-04T15:28:42.219Z</time></trkpt><trkpt lat="45.9351774" lon="11.7365333"><ele>450.0</ele><time>2026-04-04T15:28:45.219Z</time></trkpt><trkpt lat="45.9352041" lon="11.7366346"><ele>449.0</ele><time>2026-04-04T15:28:47.218Z</time></trkpt><trkpt lat="45.9352191" lon="11.7367655"><ele>448.0</ele><time>2026-04-04T15:28:49.219Z</time></trkpt><trkpt lat="45.9352467" lon="11.736869"><ele>446.99999999999994</ele><time>2026-04-04T15:28:50.219Z</time></trkpt><trkpt lat="45.9352857" lon="11.7369509"><ele>446.0</ele><time>2026-04-04T15:28:51.219Z</time></trkpt><trkpt lat="45.9352996" lon="11.7370594"><ele>446.0</ele><time>2026-04-04T15:28:53.219Z</time></trkpt><trkpt lat="45.9353399" lon="11.7371851"><ele>446.0</ele><time>2026-04-04T15:28:55.219Z</time></trkpt><trkpt lat="45.9353574" lon="11.7373088"><ele>446.0</ele><time>2026-04-04T15:28:57.218Z</time></trkpt><trkpt lat="45.9353946" lon="11.737417"><ele>446.0</ele><time>2026-04-04T15:28:59.218Z</time></trkpt><trkpt lat="45.9354374" lon="11.7375336"><ele>446.0</ele><time>2026-04-04T15:29:01.219Z</time></trkpt><trkpt lat="45.9354858" lon="11.7376489"><ele>443.4</ele><time>2026-04-04T15:29:03.219Z</time></trkpt><trkpt lat="45.9355282" lon="11.7377869"><ele>440.8</ele><time>2026-04-04T15:29:05.219Z</time></trkpt><trkpt lat="45.9355691" lon="11.7378828"><ele>438.19999999999993</ele><time>2026-04-04T15:29:06.219Z</time></trkpt><trkpt lat="45.9355969" lon="11.7380116"><ele>435.59999999999997</ele><time>2026-04-04T15:29:09.218Z</time></trkpt><trkpt lat="45.9355871" lon="11.7381565"><ele>433.0</ele><time>2026-04-04T15:29:11.219Z</time></trkpt><trkpt lat="45.9355608" lon="11.7383555"><ele>433.00000000000006</ele><time>2026-04-04T15:29:13.219Z</time></trkpt><trkpt lat="45.935514" lon="11.738487"><ele>433.0</ele><time>2026-04-04T15:29:15.219Z</time></trkpt><trkpt lat="45.9354965" lon="11.7385886"><ele>433.0</ele><time>2026-04-04T15:29:16.218Z</time></trkpt><trkpt lat="45.9354618" lon="11.7387017"><ele>433.0</ele><time>2026-04-04T15:29:18.218Z</time></trkpt><trkpt lat="45.9354261" lon="11.7388238"><ele>433.00000000000006</ele><time>2026-04-04T15:29:20.219Z</time></trkpt><trkpt lat="45.9353694" lon="11.7389159"><ele>433.0</ele><time>2026-04-04T15:29:22.219Z</time></trkpt><trkpt lat="45.9353077" lon="11.7390112"><ele>433.79999999999995</ele><time>2026-04-04T15:29:24.219Z</time></trkpt><trkpt lat="45.93529" lon="11.7391155"><ele>434.59999999999997</ele><time>2026-04-04T15:29:25.219Z</time></trkpt><trkpt lat="45.9352612" lon="11.7392381"><ele>435.40000000000003</ele><time>2026-04-04T15:29:27.219Z</time></trkpt><trkpt lat="45.9352046" lon="11.739357"><ele>436.20000000000005</ele><time>2026-04-04T15:29:29.218Z</time></trkpt><trkpt lat="45.9351696" lon="11.7394694"><ele>437.0</ele><time>2026-04-04T15:29:30.219Z</time></trkpt><trkpt lat="45.9351" lon="11.7395922"><ele>431.16666666666663</ele><time>2026-04-04T15:29:32.219Z</time></trkpt><trkpt lat="45.9350118" lon="11.7397116"><ele>425.3333333333333</ele><time>2026-04-04T15:29:34.219Z</time></trkpt><trkpt lat="45.9349486" lon="11.7397778"><ele>419.5</ele><time>2026-04-04T15:29:35.219Z</time></trkpt><trkpt lat="45.9348825" lon="11.7398886"><ele>413.66666666666663</ele><time>2026-04-04T15:29:37.219Z</time></trkpt><trkpt lat="45.9348403" lon="11.7399576"><ele>407.8333333333333</ele><time>2026-04-04T15:29:38.219Z</time></trkpt><trkpt lat="45.9347958" lon="11.7400458"><ele>402.0</ele><time>2026-04-04T15:29:39.219Z</time></trkpt><trkpt lat="45.9347508" lon="11.7401545"><ele>402.0</ele><time>2026-04-04T15:29:41.219Z</time></trkpt><trkpt lat="45.9346945" lon="11.7402319"><ele>402.0</ele><time>2026-04-04T15:29:43.218Z</time></trkpt><trkpt lat="45.9347233" lon="11.7401377"><ele>402.0</ele><time>2026-04-04T15:30:27.218Z</time></trkpt><trkpt lat="45.9347972" lon="11.7401279"><ele>402.0</ele><time>2026-04-04T15:30:31.219Z</time></trkpt><trkpt lat="45.9348368" lon="11.7402083"><ele>402.0</ele><time>2026-04-04T15:30:35.219Z</time></trkpt><trkpt lat="45.9348312" lon="11.7403009"><ele>402.0</ele><time>2026-04-04T15:30:37.219Z</time></trkpt><trkpt lat="45.9348293" lon="11.7404266"><ele>402.0</ele><time>2026-04-04T15:30:40.219Z</time></trkpt><trkpt lat="45.9348336" lon="11.7405444"><ele>403.0</ele><time>2026-04-04T15:30:43.219Z</time></trkpt><trkpt lat="45.9348413" lon="11.7406535"><ele>404.0</ele><time>2026-04-04T15:30:45.219Z</time></trkpt><trkpt lat="45.9348819" lon="11.7407291"><ele>405.0</ele><time>2026-04-04T15:30:48.219Z</time></trkpt><trkpt lat="45.9349387" lon="11.7407761"><ele>406.0</ele><time>2026-04-04T15:30:51.218Z</time></trkpt><trkpt lat="45.9349921" lon="11.7408727"><ele>407.0</ele><time>2026-04-04T15:30:54.219Z</time></trkpt><trkpt lat="45.9350506" lon="11.7409427"><ele>408.0</ele><time>2026-04-04T15:30:56.219Z</time></trkpt><trkpt lat="45.9351104" lon="11.7410094"><ele>409.0</ele><time>2026-04-04T15:30:58.219Z</time></trkpt><trkpt lat="45.935172" lon="11.7410758"><ele>409.4285714285714</ele><time>2026-04-04T15:31:00.218Z</time></trkpt><trkpt lat="45.9352328" lon="11.7411289"><ele>409.8571428571429</ele><time>2026-04-04T15:31:02.219Z</time></trkpt><trkpt lat="45.9353161" lon="11.741159"><ele>410.2857142857143</ele><time>2026-04-04T15:31:05.219Z</time></trkpt><trkpt lat="45.9353753" lon="11.7411209"><ele>410.71428571428567</ele><time>2026-04-04T15:31:09.219Z</time></trkpt><trkpt lat="45.9353457" lon="11.7410215"><ele>411.1428571428571</ele><time>2026-04-04T15:31:13.219Z</time></trkpt><trkpt lat="45.9353008" lon="11.7409571"><ele>411.57142857142856</ele><time>2026-04-04T15:31:15.219Z</time></trkpt><trkpt lat="45.9352548" lon="11.7408935"><ele>412.0</ele><time>2026-04-04T15:31:17.219Z</time></trkpt><trkpt lat="45.935208" lon="11.7407988"><ele>417.85714285714283</ele><time>2026-04-04T15:31:20.219Z</time></trkpt><trkpt lat="45.9351467" lon="11.7407143"><ele>423.71428571428567</ele><time>2026-04-04T15:31:23.219Z</time></trkpt><trkpt lat="45.9351142" lon="11.740621"><ele>429.57142857142856</ele><time>2026-04-04T15:31:26.219Z</time></trkpt><trkpt lat="45.9350792" lon="11.7405211"><ele>435.4285714285714</ele><time>2026-04-04T15:31:29.218Z</time></trkpt><trkpt lat="45.935127" lon="11.740454"><ele>441.2857142857143</ele><time>2026-04-04T15:31:33.219Z</time></trkpt><trkpt lat="45.9351959" lon="11.7404849"><ele>447.14285714285705</ele><time>2026-04-04T15:31:38.219Z</time></trkpt><trkpt lat="45.9352544" lon="11.7405353"><ele>452.99999999999994</ele><time>2026-04-04T15:31:43.219Z</time></trkpt><trkpt lat="45.9353379" lon="11.7405999"><ele>453.0</ele><time>2026-04-04T15:31:46.219Z</time></trkpt><trkpt lat="45.9354056" lon="11.7406765"><ele>453.0</ele><time>2026-04-04T15:31:49.218Z</time></trkpt><trkpt lat="45.935462" lon="11.7407496"><ele>453.0</ele><time>2026-04-04T15:31:52.219Z</time></trkpt><trkpt lat="45.9355295" lon="11.7407965"><ele>453.0</ele><time>2026-04-04T15:31:55.219Z</time></trkpt><trkpt lat="45.9356141" lon="11.7407874"><ele>453.0</ele><time>2026-04-04T15:31:58.219Z</time></trkpt><trkpt lat="45.9357039" lon="11.7407924"><ele>453.0</ele><time>2026-04-04T15:32:01.219Z</time></trkpt><trkpt lat="45.9357652" lon="11.74085"><ele>453.0</ele><time>2026-04-04T15:32:04.218Z</time></trkpt><trkpt lat="45.9358323" lon="11.7408772"><ele>453.0</ele><time>2026-04-04T15:32:07.219Z</time></trkpt><trkpt lat="45.9359092" lon="11.7409054"><ele>453.0</ele><time>2026-04-04T15:32:12.219Z</time></trkpt><trkpt lat="45.9359975" lon="11.7409049"><ele>453.0</ele><time>2026-04-04T15:32:15.218Z</time></trkpt><trkpt lat="45.9360624" lon="11.7409109"><ele>453.0</ele><time>2026-04-04T15:32:18.219Z</time></trkpt><trkpt lat="45.9361309" lon="11.7408641"><ele>453.0</ele><time>2026-04-04T15:32:20.219Z</time></trkpt><trkpt lat="45.9361936" lon="11.740798"><ele>456.2</ele><time>2026-04-04T15:32:22.219Z</time></trkpt><trkpt lat="45.9362815" lon="11.7407384"><ele>459.4</ele><time>2026-04-04T15:32:24.219Z</time></trkpt><trkpt lat="45.9363918" lon="11.7407322"><ele>462.59999999999997</ele><time>2026-04-04T15:32:25.219Z</time></trkpt><trkpt lat="45.9364534" lon="11.7406964"><ele>465.79999999999995</ele><time>2026-04-04T15:32:26.219Z</time></trkpt><trkpt lat="45.9364991" lon="11.7406315"><ele>469.0</ele><time>2026-04-04T15:32:27.219Z</time></trkpt><trkpt lat="45.9366158" lon="11.7406092"><ele>469.00000000000006</ele><time>2026-04-04T15:32:29.219Z</time></trkpt><trkpt lat="45.9366835" lon="11.7405688"><ele>469.0</ele><time>2026-04-04T15:32:31.218Z</time></trkpt><trkpt lat="45.9367564" lon="11.740515"><ele>469.0</ele><time>2026-04-04T15:32:34.219Z</time></trkpt><trkpt lat="45.9368433" lon="11.7405255"><ele>469.0</ele><time>2026-04-04T15:32:37.218Z</time></trkpt><trkpt lat="45.9369093" lon="11.7405249"><ele>469.00000000000006</ele><time>2026-04-04T15:32:40.219Z</time></trkpt><trkpt lat="45.9369839" lon="11.7404921"><ele>469.0</ele><time>2026-04-04T15:32:42.219Z</time></trkpt><trkpt lat="45.9370583" lon="11.7404651"><ele>470.83333333333337</ele><time>2026-04-04T15:32:45.219Z</time></trkpt><trkpt lat="45.9371205" lon="11.7404179"><ele>472.6666666666667</ele><time>2026-04-04T15:33:05.219Z</time></trkpt><trkpt lat="45.9370617" lon="11.7403697"><ele>474.5</ele><time>2026-04-04T15:33:08.218Z</time></trkpt><trkpt lat="45.9369689" lon="11.7403453"><ele>476.33333333333337</ele><time>2026-04-04T15:33:11.219Z</time></trkpt><trkpt lat="45.9368702" lon="11.7402774"><ele>478.1666666666667</ele><time>2026-04-04T15:33:13.219Z</time></trkpt><trkpt lat="45.9367697" lon="11.7402374"><ele>480.0</ele><time>2026-04-04T15:33:15.219Z</time></trkpt><trkpt lat="45.9366809" lon="11.7402029"><ele>484.1666666666667</ele><time>2026-04-04T15:33:17.219Z</time></trkpt><trkpt lat="45.9365964" lon="11.740208"><ele>488.33333333333337</ele><time>2026-04-04T15:33:19.219Z</time></trkpt><trkpt lat="45.9365296" lon="11.7401794"><ele>492.5</ele><time>2026-04-04T15:33:24.218Z</time></trkpt><trkpt lat="45.9366053" lon="11.7401175"><ele>496.6666666666667</ele><time>2026-04-04T15:33:35.219Z</time></trkpt><trkpt lat="45.9366867" lon="11.7400338"><ele>500.83333333333337</ele><time>2026-04-04T15:33:38.219Z</time></trkpt><trkpt lat="45.9367191" lon="11.7399482"><ele>505.0</ele><time>2026-04-04T15:33:48.219Z</time></trkpt><trkpt lat="45.9367543" lon="11.7398725"><ele>509.4</ele><time>2026-04-04T15:33:51.219Z</time></trkpt><trkpt lat="45.9368258" lon="11.7397687"><ele>513.8</ele><time>2026-04-04T15:33:54.218Z</time></trkpt><trkpt lat="45.9369039" lon="11.7396764"><ele>518.2</ele><time>2026-04-04T15:33:56.219Z</time></trkpt><trkpt lat="45.9369953" lon="11.7395674"><ele>522.6</ele><time>2026-04-04T15:33:58.218Z</time></trkpt><trkpt lat="45.9370448" lon="11.7394493"><ele>527.0</ele><time>2026-04-04T15:34:00.219Z</time></trkpt><trkpt lat="45.9370881" lon="11.7393555"><ele>531.1666666666666</ele><time>2026-04-04T15:34:02.218Z</time></trkpt><trkpt lat="45.9371177" lon="11.7392247"><ele>535.3333333333333</ele><time>2026-04-04T15:34:04.219Z</time></trkpt><trkpt lat="45.9371481" lon="11.7391339"><ele>539.5</ele><time>2026-04-04T15:34:06.219Z</time></trkpt><trkpt lat="45.9371932" lon="11.7390466"><ele>543.6666666666666</ele><time>2026-04-04T15:34:09.219Z</time></trkpt><trkpt lat="45.9372199" lon="11.7389604"><ele>547.8333333333334</ele><time>2026-04-04T15:34:11.219Z</time></trkpt><trkpt lat="45.9372447" lon="11.738855"><ele>552.0</ele><time>2026-04-04T15:34:13.219Z</time></trkpt><trkpt lat="45.9372874" lon="11.7387686"><ele>552.0</ele><time>2026-04-04T15:34:14.219Z</time></trkpt><trkpt lat="45.9372991" lon="11.7386054"><ele>552.0</ele><time>2026-04-04T15:34:16.219Z</time></trkpt><trkpt lat="45.937305" lon="11.738513"><ele>552.0</ele><time>2026-04-04T15:34:17.219Z</time></trkpt><trkpt lat="45.9373016" lon="11.738422"><ele>552.0</ele><time>2026-04-04T15:34:18.219Z</time></trkpt><trkpt lat="45.9373109" lon="11.7383114"><ele>552.0</ele><time>2026-04-04T15:34:19.219Z</time></trkpt><trkpt lat="45.9373272" lon="11.7382141"><ele>552.0</ele><time>2026-04-04T15:34:20.219Z</time></trkpt><trkpt lat="45.9373429" lon="11.7381193"><ele>552.0</ele><time>2026-04-04T15:34:21.219Z</time></trkpt><trkpt lat="45.9373536" lon="11.738018"><ele>552.0</ele><time>2026-04-04T15:34:22.219Z</time></trkpt><trkpt lat="45.9373522" lon="11.7379132"><ele>552.0</ele><time>2026-04-04T15:34:23.218Z</time></trkpt><trkpt lat="45.9373534" lon="11.7378167"><ele>552.0</ele><time>2026-04-04T15:34:24.219Z</time></trkpt><trkpt lat="45.9373566" lon="11.7377211"><ele>552.0</ele><time>2026-04-04T15:34:25.219Z</time></trkpt><trkpt lat="45.9373687" lon="11.7375791"><ele>552.0</ele><time>2026-04-04T15:34:27.219Z</time></trkpt><trkpt lat="45.9374097" lon="11.7374848"><ele>551.8333333333334</ele><time>2026-04-04T15:34:29.219Z</time></trkpt><trkpt lat="45.9374832" lon="11.7374136"><ele>551.6666666666666</ele><time>2026-04-04T15:34:31.219Z</time></trkpt><trkpt lat="45.9375407" lon="11.7373335"><ele>551.5</ele><time>2026-04-04T15:34:33.219Z</time></trkpt><trkpt lat="45.9375939" lon="11.7372675"><ele>551.3333333333333</ele><time>2026-04-04T15:34:35.219Z</time></trkpt><trkpt lat="45.9376534" lon="11.7371982"><ele>551.1666666666666</ele><time>2026-04-04T15:34:37.219Z</time></trkpt><trkpt lat="45.9377175" lon="11.7371486"><ele>551.0</ele><time>2026-04-04T15:34:39.218Z</time></trkpt><trkpt lat="45.9377771" lon="11.7370901"><ele>560.1666666666666</ele><time>2026-04-04T15:34:41.219Z</time></trkpt><trkpt lat="45.9378118" lon="11.7369874"><ele>569.3333333333333</ele><time>2026-04-04T15:34:43.219Z</time></trkpt><trkpt lat="45.9378468" lon="11.7368612"><ele>578.5</ele><time>2026-04-04T15:34:45.218Z</time></trkpt><trkpt lat="45.9379027" lon="11.736745"><ele>587.6666666666666</ele><time>2026-04-04T15:34:47.219Z</time></trkpt><trkpt lat="45.9379538" lon="11.7366539"><ele>596.8333333333334</ele><time>2026-04-04T15:34:49.219Z</time></trkpt><trkpt lat="45.9379852" lon="11.7365569"><ele>606.0</ele><time>2026-04-04T15:34:51.219Z</time></trkpt><trkpt lat="45.9379868" lon="11.7364496"><ele>606.0</ele><time>2026-04-04T15:34:54.218Z</time></trkpt><trkpt lat="45.9380579" lon="11.73646"><ele>606.0</ele><time>2026-04-04T15:35:03.218Z</time></trkpt><trkpt lat="45.9380337" lon="11.7363309"><ele>606.0</ele><time>2026-04-04T15:35:08.219Z</time></trkpt><trkpt lat="45.9380345" lon="11.7361643"><ele>606.0</ele><time>2026-04-04T15:35:10.219Z</time></trkpt><trkpt lat="45.9380193" lon="11.7360431"><ele>606.0</ele><time>2026-04-04T15:35:12.219Z</time></trkpt><trkpt lat="45.9379856" lon="11.735908"><ele>607.8333333333334</ele><time>2026-04-04T15:35:14.219Z</time></trkpt><trkpt lat="45.9379793" lon="11.7358177"><ele>609.6666666666666</ele><time>2026-04-04T15:35:17.219Z</time></trkpt><trkpt lat="45.9380803" lon="11.7358521"><ele>611.5</ele><time>2026-04-04T15:35:24.219Z</time></trkpt><trkpt lat="45.9381778" lon="11.735911"><ele>613.3333333333333</ele><time>2026-04-04T15:35:26.219Z</time></trkpt><trkpt lat="45.9382599" lon="11.7359667"><ele>615.1666666666666</ele><time>2026-04-04T15:35:29.219Z</time></trkpt><trkpt lat="45.9383134" lon="11.7360242"><ele>617.0</ele><time>2026-04-04T15:35:31.219Z</time></trkpt><trkpt lat="45.9383917" lon="11.7360033"><ele>617.0</ele><time>2026-04-04T15:35:36.219Z</time></trkpt><trkpt lat="45.9383868" lon="11.7358592"><ele>617.0</ele><time>2026-04-04T15:35:39.219Z</time></trkpt><trkpt lat="45.9383797" lon="11.7357496"><ele>617.0</ele><time>2026-04-04T15:35:41.219Z</time></trkpt><trkpt lat="45.9383654" lon="11.7356542"><ele>617.0</ele><time>2026-04-04T15:35:43.219Z</time></trkpt><trkpt lat="45.9383111" lon="11.7355092"><ele>617.0</ele><time>2026-04-04T15:35:45.219Z</time></trkpt><trkpt lat="45.9382505" lon="11.7353836"><ele>617.0</ele><time>2026-04-04T15:35:47.219Z</time></trkpt><trkpt lat="45.9382055" lon="11.7352559"><ele>617.0</ele><time>2026-04-04T15:35:49.219Z</time></trkpt><trkpt lat="45.9381675" lon="11.7351783"><ele>617.0</ele><time>2026-04-04T15:35:50.218Z</time></trkpt><trkpt lat="45.9381221" lon="11.7350311"><ele>617.0</ele><time>2026-04-04T15:35:52.219Z</time></trkpt><trkpt lat="45.9380893" lon="11.734884"><ele>617.0</ele><time>2026-04-04T15:35:54.219Z</time></trkpt><trkpt lat="45.9380845" lon="11.7347767"><ele>620.8333333333333</ele><time>2026-04-04T15:35:56.218Z</time></trkpt><trkpt lat="45.9381441" lon="11.7348127"><ele>624.6666666666666</ele><time>2026-04-04T15:36:02.219Z</time></trkpt><trkpt lat="45.9382261" lon="11.7348034"><ele>628.5</ele><time>2026-04-04T15:36:05.218Z</time></trkpt><trkpt lat="45.9382941" lon="11.7347803"><ele>632.3333333333334</ele><time>2026-04-04T15:36:08.219Z</time></trkpt><trkpt lat="45.9383263" lon="11.7346566"><ele>636.1666666666667</ele><time>2026-04-04T15:36:16.218Z</time></trkpt><trkpt lat="45.9383599" lon="11.7345728"><ele>640.0</ele><time>2026-04-04T15:36:18.219Z</time></trkpt><trkpt lat="45.9384047" lon="11.7344746"><ele>645.5</ele><time>2026-04-04T15:36:21.219Z</time></trkpt><trkpt lat="45.9384793" lon="11.7344253"><ele>651.0</ele><time>2026-04-04T15:36:24.218Z</time></trkpt><trkpt lat="45.9385461" lon="11.7344252"><ele>656.5</ele><time>2026-04-04T15:36:26.219Z</time></trkpt><trkpt lat="45.9386371" lon="11.7344558"><ele>662.0</ele><time>2026-04-04T15:36:28.219Z</time></trkpt><trkpt lat="45.9387034" lon="11.7344806"><ele>667.5</ele><time>2026-04-04T15:36:29.219Z</time></trkpt><trkpt lat="45.9388034" lon="11.7345885"><ele>673.0</ele><time>2026-04-04T15:36:31.219Z</time></trkpt><trkpt lat="45.9388526" lon="11.734645"><ele>673.0</ele><time>2026-04-04T15:36:32.219Z</time></trkpt><trkpt lat="45.9389417" lon="11.7347106"><ele>673.0</ele><time>2026-04-04T15:36:33.219Z</time></trkpt><trkpt lat="45.9390144" lon="11.7348045"><ele>673.0</ele><time>2026-04-04T15:36:35.218Z</time></trkpt><trkpt lat="45.9390776" lon="11.7348676"><ele>673.0</ele><time>2026-04-04T15:36:37.219Z</time></trkpt><trkpt lat="45.93914" lon="11.7349158"><ele>673.0</ele><time>2026-04-04T15:36:38.219Z</time></trkpt><trkpt lat="45.9392112" lon="11.7349747"><ele>673.0</ele><time>2026-04-04T15:36:40.218Z</time></trkpt><trkpt lat="45.9392778" lon="11.735079"><ele>680.5999999999999</ele><time>2026-04-04T15:36:42.219Z</time></trkpt><trkpt lat="45.939352" lon="11.7352418"><ele>688.1999999999999</ele><time>2026-04-04T15:36:44.219Z</time></trkpt><trkpt lat="45.9394002" lon="11.7353122"><ele>695.8</ele><time>2026-04-04T15:36:45.219Z</time></trkpt><trkpt lat="45.9394715" lon="11.735434"><ele>703.4</ele><time>2026-04-04T15:36:47.219Z</time></trkpt><trkpt lat="45.9395389" lon="11.735582"><ele>711.0</ele><time>2026-04-04T15:36:49.219Z</time></trkpt><trkpt lat="45.9395975" lon="11.7357046"><ele>711.0</ele><time>2026-04-04T15:36:51.219Z</time></trkpt><trkpt lat="45.939663" lon="11.7357963"><ele>711.0</ele><time>2026-04-04T15:36:53.219Z</time></trkpt><trkpt lat="45.9397083" lon="11.735896"><ele>711.0</ele><time>2026-04-04T15:36:55.219Z</time></trkpt><trkpt lat="45.9397293" lon="11.7360349"><ele>711.0</ele><time>2026-04-04T15:36:57.219Z</time></trkpt><trkpt lat="45.9397399" lon="11.7362478"><ele>711.0</ele><time>2026-04-04T15:36:59.219Z</time></trkpt><trkpt lat="45.9397351" lon="11.7364501"><ele>711.1999999999999</ele><time>2026-04-04T15:37:01.219Z</time></trkpt><trkpt lat="45.9397229" lon="11.7366243"><ele>711.4</ele><time>2026-04-04T15:37:03.219Z</time></trkpt><trkpt lat="45.9396885" lon="11.736733"><ele>711.6</ele><time>2026-04-04T15:37:05.219Z</time></trkpt><trkpt lat="45.9396597" lon="11.7368531"><ele>711.8</ele><time>2026-04-04T15:37:07.219Z</time></trkpt><trkpt lat="45.9396141" lon="11.7369704"><ele>712.0</ele><time>2026-04-04T15:37:09.219Z</time></trkpt><trkpt lat="45.9395661" lon="11.7371028"><ele>711.6666666666667</ele><time>2026-04-04T15:37:11.218Z</time></trkpt><trkpt lat="45.939529" lon="11.7371761"><ele>711.3333333333334</ele><time>2026-04-04T15:37:12.219Z</time></trkpt><trkpt lat="45.9394707" lon="11.7373115"><ele>711.0</ele><time>2026-04-04T15:37:14.219Z</time></trkpt><trkpt lat="45.9394577" lon="11.7374079"><ele>710.6666666666666</ele><time>2026-04-04T15:37:17.219Z</time></trkpt><trkpt lat="45.9394605" lon="11.7375027"><ele>710.3333333333333</ele><time>2026-04-04T15:37:20.219Z</time></trkpt><trkpt lat="45.93951" lon="11.7375658"><ele>710.0</ele><time>2026-04-04T15:37:26.219Z</time></trkpt><trkpt lat="45.9395412" lon="11.7374627"><ele>710.0</ele><time>2026-04-04T15:37:29.219Z</time></trkpt><trkpt lat="45.939599" lon="11.7374126"><ele>710.0</ele><time>2026-04-04T15:37:35.219Z</time></trkpt><trkpt lat="45.939667" lon="11.7374315"><ele>710.0</ele><time>2026-04-04T15:37:39.219Z</time></trkpt><trkpt lat="45.9397437" lon="11.7373834"><ele>710.0</ele><time>2026-04-04T15:37:43.218Z</time></trkpt><trkpt lat="45.9398147" lon="11.7372917"><ele>710.0</ele><time>2026-04-04T15:37:46.219Z</time></trkpt><trkpt lat="45.9399015" lon="11.7372269"><ele>710.0</ele><time>2026-04-04T15:37:48.219Z</time></trkpt><trkpt lat="45.9399824" lon="11.7371788"><ele>710.0</ele><time>2026-04-04T15:37:50.219Z</time></trkpt><trkpt lat="45.9400446" lon="11.7371182"><ele>710.0</ele><time>2026-04-04T15:37:52.219Z</time></trkpt><trkpt lat="45.9401209" lon="11.7370271"><ele>710.0</ele><time>2026-04-04T15:37:55.219Z</time></trkpt><trkpt lat="45.9401888" lon="11.7369852"><ele>710.0</ele><time>2026-04-04T15:37:57.218Z</time></trkpt><trkpt lat="45.9402589" lon="11.7369206"><ele>710.0</ele><time>2026-04-04T15:38:00.219Z</time></trkpt><trkpt lat="45.9403377" lon="11.7368373"><ele>710.0</ele><time>2026-04-04T15:38:03.218Z</time></trkpt><trkpt lat="45.9404065" lon="11.7367767"><ele>715.6666666666666</ele><time>2026-04-04T15:38:06.219Z</time></trkpt><trkpt lat="45.9404531" lon="11.7366971"><ele>721.3333333333333</ele><time>2026-04-04T15:38:09.219Z</time></trkpt><trkpt lat="45.9405062" lon="11.7366377"><ele>727.0</ele><time>2026-04-04T15:38:12.218Z</time></trkpt><trkpt lat="45.9405757" lon="11.736581"><ele>732.6666666666666</ele><time>2026-04-04T15:38:15.218Z</time></trkpt><trkpt lat="45.9406482" lon="11.7365754"><ele>738.3333333333334</ele><time>2026-04-04T15:38:18.218Z</time></trkpt><trkpt lat="45.9407162" lon="11.7366311"><ele>744.0</ele><time>2026-04-04T15:38:21.219Z</time></trkpt><trkpt lat="45.9407955" lon="11.7366668"><ele>744.0</ele><time>2026-04-04T15:38:24.219Z</time></trkpt><trkpt lat="45.9408708" lon="11.7367396"><ele>744.0</ele><time>2026-04-04T15:38:27.219Z</time></trkpt><trkpt lat="45.9409216" lon="11.7368119"><ele>744.0</ele><time>2026-04-04T15:38:29.218Z</time></trkpt><trkpt lat="45.9409794" lon="11.7368934"><ele>744.0</ele><time>2026-04-04T15:38:32.218Z</time></trkpt><trkpt lat="45.9410376" lon="11.7369398"><ele>744.0</ele><time>2026-04-04T15:38:35.219Z</time></trkpt><trkpt lat="45.9411049" lon="11.7370102"><ele>744.0</ele><time>2026-04-04T15:38:38.219Z</time></trkpt><trkpt lat="45.9411657" lon="11.7370635"><ele>748.3333333333334</ele><time>2026-04-04T15:38:40.219Z</time></trkpt><trkpt lat="45.9412221" lon="11.7371172"><ele>752.6666666666667</ele><time>2026-04-04T15:38:42.219Z</time></trkpt><trkpt lat="45.9412686" lon="11.7372042"><ele>757.0</ele><time>2026-04-04T15:38:44.219Z</time></trkpt><trkpt lat="45.9413126" lon="11.7372876"><ele>761.3333333333334</ele><time>2026-04-04T15:38:46.219Z</time></trkpt><trkpt lat="45.9413657" lon="11.7373841"><ele>765.6666666666667</ele><time>2026-04-04T15:38:49.218Z</time></trkpt><trkpt lat="45.9414076" lon="11.7374621"><ele>770.0</ele><time>2026-04-04T15:38:52.219Z</time></trkpt><trkpt lat="45.9414757" lon="11.7375196"><ele>770.0</ele><time>2026-04-04T15:38:54.219Z</time></trkpt><trkpt lat="45.9415459" lon="11.7375701"><ele>770.0</ele><time>2026-04-04T15:38:56.219Z</time></trkpt><trkpt lat="45.9416426" lon="11.7376321"><ele>770.0</ele><time>2026-04-04T15:38:58.218Z</time></trkpt><trkpt lat="45.9417423" lon="11.737623"><ele>770.0</ele><time>2026-04-04T15:39:00.219Z</time></trkpt><trkpt lat="45.9418337" lon="11.7376524"><ele>770.0</ele><time>2026-04-04T15:39:02.219Z</time></trkpt><trkpt lat="45.9419224" lon="11.7377195"><ele>773.0</ele><time>2026-04-04T15:39:04.219Z</time></trkpt><trkpt lat="45.9420221" lon="11.7377559"><ele>776.0</ele><time>2026-04-04T15:39:06.219Z</time></trkpt><trkpt lat="45.9421254" lon="11.7377563"><ele>779.0</ele><time>2026-04-04T15:39:08.219Z</time></trkpt><trkpt lat="45.9422091" lon="11.7377561"><ele>782.0</ele><time>2026-04-04T15:39:10.219Z</time></trkpt><trkpt lat="45.9422946" lon="11.7377958"><ele>785.0</ele><time>2026-04-04T15:39:12.219Z</time></trkpt><trkpt lat="45.9423617" lon="11.7378485"><ele>785.0000000000001</ele><time>2026-04-04T15:39:14.219Z</time></trkpt><trkpt lat="45.9424459" lon="11.7378735"><ele>785.0</ele><time>2026-04-04T15:39:16.219Z</time></trkpt><trkpt lat="45.942527" lon="11.7379074"><ele>785.0</ele><time>2026-04-04T15:39:18.219Z</time></trkpt><trkpt lat="45.9426087" lon="11.7379401"><ele>785.0</ele><time>2026-04-04T15:39:20.219Z</time></trkpt><trkpt lat="45.942688" lon="11.7379933"><ele>785.0000000000001</ele><time>2026-04-04T15:39:22.219Z</time></trkpt><trkpt lat="45.9427662" lon="11.7380625"><ele>785.0</ele><time>2026-04-04T15:39:24.218Z</time></trkpt><trkpt lat="45.9428388" lon="11.7381255"><ele>784.6</ele><time>2026-04-04T15:39:26.218Z</time></trkpt><trkpt lat="45.9429169" lon="11.7381952"><ele>784.2</ele><time>2026-04-04T15:39:28.219Z</time></trkpt><trkpt lat="45.9429924" lon="11.7382246"><ele>783.8</ele><time>2026-04-04T15:39:30.219Z</time></trkpt><trkpt lat="45.9430671" lon="11.7382839"><ele>783.4</ele><time>2026-04-04T15:39:32.219Z</time></trkpt><trkpt lat="45.9431721" lon="11.7383363"><ele>783.0</ele><time>2026-04-04T15:39:34.219Z</time></trkpt><trkpt lat="45.9432889" lon="11.738393"><ele>783.0</ele><time>2026-04-04T15:39:36.219Z</time></trkpt><trkpt lat="45.9433666" lon="11.7383703"><ele>783.0</ele><time>2026-04-04T15:39:39.219Z</time></trkpt><trkpt lat="45.9434409" lon="11.7384309"><ele>783.0</ele><time>2026-04-04T15:39:41.219Z</time></trkpt><trkpt lat="45.9435374" lon="11.7384868"><ele>783.0</ele><time>2026-04-04T15:39:43.219Z</time></trkpt><trkpt lat="45.943605" lon="11.7385727"><ele>783.0</ele><time>2026-04-04T15:39:45.219Z</time></trkpt><trkpt lat="45.9436933" lon="11.7386523"><ele>783.5999999999999</ele><time>2026-04-04T15:39:47.219Z</time></trkpt><trkpt lat="45.9437782" lon="11.7387259"><ele>784.1999999999999</ele><time>2026-04-04T15:39:49.219Z</time></trkpt><trkpt lat="45.9438412" lon="11.7387562"><ele>784.8</ele><time>2026-04-04T15:39:50.219Z</time></trkpt><trkpt lat="45.9439376" lon="11.7388034"><ele>785.4</ele><time>2026-04-04T15:39:52.219Z</time></trkpt><trkpt lat="45.9440426" lon="11.7388183"><ele>786.0</ele><time>2026-04-04T15:39:54.219Z</time></trkpt><trkpt lat="45.9441318" lon="11.7388119"><ele>787.1999999999999</ele><time>2026-04-04T15:39:56.219Z</time></trkpt><trkpt lat="45.9442158" lon="11.7388546"><ele>788.4</ele><time>2026-04-04T15:39:58.218Z</time></trkpt><trkpt lat="45.9443157" lon="11.7388872"><ele>789.6</ele><time>2026-04-04T15:40:01.219Z</time></trkpt><trkpt lat="45.9444029" lon="11.7389064"><ele>790.8</ele><time>2026-04-04T15:40:03.219Z</time></trkpt><trkpt lat="45.944497" lon="11.7389853"><ele>792.0</ele><time>2026-04-04T15:40:05.219Z</time></trkpt><trkpt lat="45.9445964" lon="11.7390647"><ele>792.0</ele><time>2026-04-04T15:40:07.219Z</time></trkpt><trkpt lat="45.9446463" lon="11.7391261"><ele>792.0</ele><time>2026-04-04T15:40:08.219Z</time></trkpt><trkpt lat="45.9447344" lon="11.739194"><ele>792.0</ele><time>2026-04-04T15:40:10.219Z</time></trkpt><trkpt lat="45.9448132" lon="11.7392566"><ele>792.0</ele><time>2026-04-04T15:40:12.219Z</time></trkpt><trkpt lat="45.9449091" lon="11.7393107"><ele>792.0</ele><time>2026-04-04T15:40:14.219Z</time></trkpt><trkpt lat="45.9450061" lon="11.7393367"><ele>790.6666666666666</ele><time>2026-04-04T15:40:16.218Z</time></trkpt><trkpt lat="45.9451286" lon="11.7393407"><ele>789.3333333333333</ele><time>2026-04-04T15:40:18.219Z</time></trkpt><trkpt lat="45.9451986" lon="11.7393286"><ele>788.0</ele><time>2026-04-04T15:40:19.219Z</time></trkpt><trkpt lat="45.9452663" lon="11.739326"><ele>786.6666666666666</ele><time>2026-04-04T15:40:20.219Z</time></trkpt><trkpt lat="45.9453383" lon="11.739307"><ele>785.3333333333333</ele><time>2026-04-04T15:40:21.219Z</time></trkpt><trkpt lat="45.9454013" lon="11.7393054"><ele>784.0</ele><time>2026-04-04T15:40:22.219Z</time></trkpt><trkpt lat="45.9455018" lon="11.7392871"><ele>784.0</ele><time>2026-04-04T15:40:24.219Z</time></trkpt><trkpt lat="45.9455734" lon="11.7392505"><ele>784.0</ele><time>2026-04-04T15:40:26.219Z</time></trkpt><trkpt lat="45.945673" lon="11.7392233"><ele>784.0</ele><time>2026-04-04T15:40:28.219Z</time></trkpt><trkpt lat="45.9457669" lon="11.739239"><ele>784.0</ele><time>2026-04-04T15:40:30.219Z</time></trkpt><trkpt lat="45.9458815" lon="11.7392353"><ele>784.0</ele><time>2026-04-04T15:40:32.218Z</time></trkpt><trkpt lat="45.9459995" lon="11.7392764"><ele>783.4999999999999</ele><time>2026-04-04T15:40:34.219Z</time></trkpt><trkpt lat="45.9460462" lon="11.7393658"><ele>783.0</ele><time>2026-04-04T15:40:36.219Z</time></trkpt><trkpt lat="45.9461343" lon="11.7394215"><ele>782.5</ele><time>2026-04-04T15:40:38.219Z</time></trkpt><trkpt lat="45.9462159" lon="11.7394761"><ele>782.0</ele><time>2026-04-04T15:40:40.218Z</time></trkpt><trkpt lat="45.9463013" lon="11.7395062"><ele>781.4999999999999</ele><time>2026-04-04T15:40:42.218Z</time></trkpt><trkpt lat="45.9463812" lon="11.739533"><ele>781.0</ele><time>2026-04-04T15:40:44.219Z</time></trkpt><trkpt lat="45.9464646" lon="11.7395468"><ele>780.9999999999999</ele><time>2026-04-04T15:40:46.218Z</time></trkpt><trkpt lat="45.9465483" lon="11.7395475"><ele>781.0</ele><time>2026-04-04T15:40:48.219Z</time></trkpt><trkpt lat="45.9466478" lon="11.7395638"><ele>781.0</ele><time>2026-04-04T15:40:50.219Z</time></trkpt><trkpt lat="45.9467432" lon="11.7395934"><ele>781.0</ele><time>2026-04-04T15:40:52.219Z</time></trkpt><trkpt lat="45.9468012" lon="11.7396466"><ele>780.9999999999999</ele><time>2026-04-04T15:40:54.218Z</time></trkpt><trkpt lat="45.9468576" lon="11.7397036"><ele>781.0</ele><time>2026-04-04T15:40:56.219Z</time></trkpt><trkpt lat="45.9469263" lon="11.7397973"><ele>784.3333333333333</ele><time>2026-04-04T15:40:58.219Z</time></trkpt><trkpt lat="45.9469843" lon="11.7398398"><ele>787.6666666666666</ele><time>2026-04-04T15:40:59.219Z</time></trkpt><trkpt lat="45.9470913" lon="11.739886"><ele>791.0</ele><time>2026-04-04T15:41:01.218Z</time></trkpt><trkpt lat="45.947176" lon="11.7398961"><ele>794.3333333333333</ele><time>2026-04-04T15:41:03.219Z</time></trkpt><trkpt lat="45.9472412" lon="11.7399444"><ele>797.6666666666666</ele><time>2026-04-04T15:41:05.218Z</time></trkpt><trkpt lat="45.9473047" lon="11.7399536"><ele>801.0</ele><time>2026-04-04T15:41:07.218Z</time></trkpt><trkpt lat="45.9473959" lon="11.7399794"><ele>801.0</ele><time>2026-04-04T15:41:10.219Z</time></trkpt><trkpt lat="45.947474" lon="11.7399628"><ele>801.0</ele><time>2026-04-04T15:41:12.219Z</time></trkpt><trkpt lat="45.9475523" lon="11.7399469"><ele>801.0</ele><time>2026-04-04T15:41:14.219Z</time></trkpt><trkpt lat="45.9476335" lon="11.7399168"><ele>801.0</ele><time>2026-04-04T15:41:16.219Z</time></trkpt><trkpt lat="45.947729" lon="11.7398226"><ele>801.0</ele><time>2026-04-04T15:41:18.219Z</time></trkpt><trkpt lat="45.9477862" lon="11.7397535"><ele>801.0</ele><time>2026-04-04T15:41:19.219Z</time></trkpt><trkpt lat="45.9478526" lon="11.7396981"><ele>803.1999999999999</ele><time>2026-04-04T15:41:20.219Z</time></trkpt><trkpt lat="45.9479679" lon="11.739587"><ele>805.4</ele><time>2026-04-04T15:41:22.219Z</time></trkpt><trkpt lat="45.9480355" lon="11.7395484"><ele>807.6</ele><time>2026-04-04T15:41:23.219Z</time></trkpt><trkpt lat="45.9481274" lon="11.7395234"><ele>809.8</ele><time>2026-04-04T15:41:25.219Z</time></trkpt><trkpt lat="45.9482102" lon="11.7395049"><ele>812.0</ele><time>2026-04-04T15:41:27.218Z</time></trkpt><trkpt lat="45.9482954" lon="11.739491"><ele>812.0</ele><time>2026-04-04T15:41:29.218Z</time></trkpt><trkpt lat="45.9483723" lon="11.7395093"><ele>812.0</ele><time>2026-04-04T15:41:31.219Z</time></trkpt><trkpt lat="45.9484382" lon="11.7395381"><ele>812.0</ele><time>2026-04-04T15:41:33.219Z</time></trkpt><trkpt lat="45.9485023" lon="11.7395426"><ele>812.0</ele><time>2026-04-04T15:42:30.218Z</time></trkpt><trkpt lat="45.9485561" lon="11.7394655"><ele>812.0</ele><time>2026-04-04T15:42:34.219Z</time></trkpt><trkpt lat="45.9486164" lon="11.7394175"><ele>812.0</ele><time>2026-04-04T15:42:41.219Z</time></trkpt><trkpt lat="45.9486825" lon="11.7393846"><ele>812.0</ele><time>2026-04-04T15:42:43.219Z</time></trkpt><trkpt lat="45.948752" lon="11.7394051"><ele>811.0000000000001</ele><time>2026-04-04T15:42:46.218Z</time></trkpt><trkpt lat="45.9488178" lon="11.7394194"><ele>810.0</ele><time>2026-04-04T15:42:53.218Z</time></trkpt><trkpt lat="45.9488969" lon="11.7394212"><ele>809.0</ele><time>2026-04-04T15:42:56.219Z</time></trkpt><trkpt lat="45.9489825" lon="11.7394166"><ele>808.0</ele><time>2026-04-04T15:42:59.219Z</time></trkpt><trkpt lat="45.9490503" lon="11.7393983"><ele>807.0000000000001</ele><time>2026-04-04T15:43:01.219Z</time></trkpt><trkpt lat="45.9491353" lon="11.7393802"><ele>806.0</ele><time>2026-04-04T15:43:04.219Z</time></trkpt><trkpt lat="45.9493" lon="11.7393588"><ele>806.5000000000001</ele><time>2026-04-04T15:43:16.219Z</time></trkpt><trkpt lat="45.9493696" lon="11.7393784"><ele>807.0</ele><time>2026-04-04T15:43:18.218Z</time></trkpt><trkpt lat="45.9494712" lon="11.7393807"><ele>807.5</ele><time>2026-04-04T15:43:20.219Z</time></trkpt><trkpt lat="45.9495699" lon="11.7394048"><ele>808.0</ele><time>2026-04-04T15:43:22.218Z</time></trkpt><trkpt lat="45.9496442" lon="11.7394306"><ele>808.5000000000001</ele><time>2026-04-04T15:43:24.219Z</time></trkpt><trkpt lat="45.9497296" lon="11.7394369"><ele>809.0</ele><time>2026-04-04T15:43:27.219Z</time></trkpt><trkpt lat="45.9498237" lon="11.7394478"><ele>809.0000000000001</ele><time>2026-04-04T15:43:30.218Z</time></trkpt><trkpt lat="45.9498996" lon="11.7394424"><ele>809.0</ele><time>2026-04-04T15:43:33.219Z</time></trkpt><trkpt lat="45.9499724" lon="11.7394263"><ele>809.0</ele><time>2026-04-04T15:43:36.219Z</time></trkpt><trkpt lat="45.950059" lon="11.7394006"><ele>809.0</ele><time>2026-04-04T15:43:39.219Z</time></trkpt><trkpt lat="45.9501363" lon="11.7393976"><ele>809.0000000000001</ele><time>2026-04-04T15:43:41.219Z</time></trkpt><trkpt lat="45.9502185" lon="11.7394183"><ele>809.0</ele><time>2026-04-04T15:43:43.219Z</time></trkpt><trkpt lat="45.9502976" lon="11.7394442"><ele>810.5000000000001</ele><time>2026-04-04T15:43:45.219Z</time></trkpt><trkpt lat="45.950373" lon="11.7394548"><ele>812.0</ele><time>2026-04-04T15:43:49.219Z</time></trkpt><trkpt lat="45.9504531" lon="11.739498"><ele>813.5</ele><time>2026-04-04T15:43:53.219Z</time></trkpt><trkpt lat="45.9505449" lon="11.7395371"><ele>815.0</ele><time>2026-04-04T15:43:56.219Z</time></trkpt><trkpt lat="45.9506214" lon="11.7395492"><ele>816.5000000000001</ele><time>2026-04-04T15:43:58.218Z</time></trkpt><trkpt lat="45.9507078" lon="11.739545"><ele>818.0</ele><time>2026-04-04T15:44:00.218Z</time></trkpt><trkpt lat="45.9507979" lon="11.7395536"><ele>818.0000000000001</ele><time>2026-04-04T15:44:02.219Z</time></trkpt><trkpt lat="45.9508708" lon="11.7395612"><ele>818.0</ele><time>2026-04-04T15:44:04.219Z</time></trkpt><trkpt lat="45.9509406" lon="11.7395498"><ele>818.0</ele><time>2026-04-04T15:44:06.219Z</time></trkpt><trkpt lat="45.9510293" lon="11.7395648"><ele>818.0</ele><time>2026-04-04T15:44:08.219Z</time></trkpt><trkpt lat="45.9511135" lon="11.7395753"><ele>818.0000000000001</ele><time>2026-04-04T15:44:10.219Z</time></trkpt><trkpt lat="45.9511754" lon="11.7395553"><ele>818.0</ele><time>2026-04-04T15:44:12.219Z</time></trkpt><trkpt lat="45.9512543" lon="11.7395816"><ele>818.0000000000001</ele><time>2026-04-04T15:44:16.219Z</time></trkpt><trkpt lat="45.9513302" lon="11.7396138"><ele>818.0</ele><time>2026-04-04T15:44:19.218Z</time></trkpt><trkpt lat="45.9513886" lon="11.7396477"><ele>818.0</ele><time>2026-04-04T15:44:21.219Z</time></trkpt><trkpt lat="45.9514533" lon="11.7397009"><ele>818.0</ele><time>2026-04-04T15:44:24.218Z</time></trkpt><trkpt lat="45.95155" lon="11.739742"><ele>818.0000000000001</ele><time>2026-04-04T15:44:27.219Z</time></trkpt><trkpt lat="45.9516258" lon="11.7397294"><ele>818.0</ele><time>2026-04-04T15:44:30.219Z</time></trkpt><trkpt lat="45.9516989" lon="11.7397429"><ele>819.0</ele><time>2026-04-04T15:44:35.219Z</time></trkpt><trkpt lat="45.9517703" lon="11.7398142"><ele>820.0</ele><time>2026-04-04T15:44:38.219Z</time></trkpt><trkpt lat="45.9518276" lon="11.7398742"><ele>821.0</ele><time>2026-04-04T15:44:42.219Z</time></trkpt><trkpt lat="45.9518873" lon="11.7399116"><ele>822.0</ele><time>2026-04-04T15:44:45.219Z</time></trkpt><trkpt lat="45.9519476" lon="11.7399761"><ele>823.0</ele><time>2026-04-04T15:44:48.219Z</time></trkpt><trkpt lat="45.9520014" lon="11.7400386"><ele>824.0</ele><time>2026-04-04T15:44:51.219Z</time></trkpt><trkpt lat="45.9520635" lon="11.7401008"><ele>825.0</ele><time>2026-04-04T15:44:55.219Z</time></trkpt><trkpt lat="45.9519943" lon="11.7401764"><ele>819.0</ele><time>2026-04-04T15:45:00.218Z</time></trkpt><trkpt lat="45.9520447" lon="11.7402313"><ele>813.0</ele><time>2026-04-04T15:45:07.219Z</time></trkpt><trkpt lat="45.9520901" lon="11.7403428"><ele>807.0</ele><time>2026-04-04T15:45:09.219Z</time></trkpt><trkpt lat="45.9521401" lon="11.7404357"><ele>801.0</ele><time>2026-04-04T15:45:11.219Z</time></trkpt><trkpt lat="45.9521984" lon="11.7404709"><ele>795.0</ele><time>2026-04-04T15:45:14.219Z</time></trkpt><trkpt lat="45.9522765" lon="11.7403934"><ele>789.0</ele><time>2026-04-04T15:45:17.219Z</time></trkpt><trkpt lat="45.9523541" lon="11.740359"><ele>789.0</ele><time>2026-04-04T15:45:25.219Z</time></trkpt><trkpt lat="45.9524306" lon="11.7404096"><ele>789.0</ele><time>2026-04-04T15:45:27.218Z</time></trkpt><trkpt lat="45.9524957" lon="11.7404532"><ele>789.0</ele><time>2026-04-04T15:45:29.218Z</time></trkpt><trkpt lat="45.952565" lon="11.7404601"><ele>789.0</ele><time>2026-04-04T15:45:32.219Z</time></trkpt><trkpt lat="45.9526505" lon="11.7404507"><ele>789.0</ele><time>2026-04-04T15:45:34.219Z</time></trkpt><trkpt lat="45.9527271" lon="11.740445"><ele>789.0</ele><time>2026-04-04T15:45:36.219Z</time></trkpt><trkpt lat="45.9527992" lon="11.7404414"><ele>788.8571428571428</ele><time>2026-04-04T15:45:38.218Z</time></trkpt><trkpt lat="45.9528663" lon="11.740434"><ele>788.7142857142857</ele><time>2026-04-04T15:45:40.219Z</time></trkpt><trkpt lat="45.9529464" lon="11.7404089"><ele>788.5714285714286</ele><time>2026-04-04T15:45:43.219Z</time></trkpt><trkpt lat="45.9530042" lon="11.7403627"><ele>788.4285714285713</ele><time>2026-04-04T15:45:46.219Z</time></trkpt><trkpt lat="45.9530646" lon="11.740322"><ele>788.2857142857143</ele><time>2026-04-04T15:45:48.219Z</time></trkpt><trkpt lat="45.9531311" lon="11.740292"><ele>788.1428571428571</ele><time>2026-04-04T15:45:50.219Z</time></trkpt><trkpt lat="45.9532083" lon="11.7402623"><ele>788.0</ele><time>2026-04-04T15:45:53.218Z</time></trkpt><trkpt lat="45.953296" lon="11.7402725"><ele>788.0</ele><time>2026-04-04T15:45:56.219Z</time></trkpt><trkpt lat="45.9533597" lon="11.7402763"><ele>788.0</ele><time>2026-04-04T15:45:58.219Z</time></trkpt><trkpt lat="45.9534541" lon="11.7403265"><ele>788.0</ele><time>2026-04-04T15:46:01.219Z</time></trkpt><trkpt lat="45.9535456" lon="11.740392"><ele>788.0</ele><time>2026-04-04T15:46:03.219Z</time></trkpt><trkpt lat="45.9536169" lon="11.7404365"><ele>788.0</ele><time>2026-04-04T15:46:04.219Z</time></trkpt><trkpt lat="45.9537324" lon="11.7405019"><ele>788.5000000000001</ele><time>2026-04-04T15:46:06.219Z</time></trkpt><trkpt lat="45.9537971" lon="11.7405286"><ele>789.0</ele><time>2026-04-04T15:46:07.219Z</time></trkpt><trkpt lat="45.9538717" lon="11.740539"><ele>789.5</ele><time>2026-04-04T15:46:08.218Z</time></trkpt><trkpt lat="45.9539895" lon="11.740514"><ele>790.0</ele><time>2026-04-04T15:46:10.219Z</time></trkpt><trkpt lat="45.9540679" lon="11.7404764"><ele>790.5000000000001</ele><time>2026-04-04T15:46:11.219Z</time></trkpt><trkpt lat="45.9541318" lon="11.7404613"><ele>791.0</ele><time>2026-04-04T15:46:13.219Z</time></trkpt><trkpt lat="45.9541439" lon="11.7405557"><ele>791.0000000000001</ele><time>2026-04-04T15:46:15.218Z</time></trkpt><trkpt lat="45.9541758" lon="11.7406417"><ele>791.0</ele><time>2026-04-04T15:46:17.218Z</time></trkpt><trkpt lat="45.9542289" lon="11.740727"><ele>791.0</ele><time>2026-04-04T15:46:20.219Z</time></trkpt><trkpt lat="45.9542912" lon="11.7408329"><ele>791.0</ele><time>2026-04-04T15:46:23.218Z</time></trkpt><trkpt lat="45.9543414" lon="11.7409137"><ele>791.0000000000001</ele><time>2026-04-04T15:46:25.219Z</time></trkpt><trkpt lat="45.954399" lon="11.7409732"><ele>791.0</ele><time>2026-04-04T15:46:28.219Z</time></trkpt><trkpt lat="45.9544608" lon="11.7409432"><ele>789.8571428571429</ele><time>2026-04-04T15:46:30.219Z</time></trkpt><trkpt lat="45.9545239" lon="11.7408868"><ele>788.7142857142858</ele><time>2026-04-04T15:46:32.219Z</time></trkpt><trkpt lat="45.9545914" lon="11.7408847"><ele>787.5714285714286</ele><time>2026-04-04T15:46:35.218Z</time></trkpt><trkpt lat="45.9546279" lon="11.7409639"><ele>786.4285714285714</ele><time>2026-04-04T15:46:38.218Z</time></trkpt><trkpt lat="45.9546765" lon="11.7410611"><ele>785.2857142857143</ele><time>2026-04-04T15:46:41.219Z</time></trkpt><trkpt lat="45.9547366" lon="11.7411275"><ele>784.1428571428571</ele><time>2026-04-04T15:46:43.218Z</time></trkpt><trkpt lat="45.9548105" lon="11.7411782"><ele>783.0</ele><time>2026-04-04T15:46:45.219Z</time></trkpt><trkpt lat="45.9549008" lon="11.7411995"><ele>779.3333333333334</ele><time>2026-04-04T15:46:47.218Z</time></trkpt><trkpt lat="45.9550098" lon="11.741215"><ele>775.6666666666666</ele><time>2026-04-04T15:46:49.219Z</time></trkpt><trkpt lat="45.9551107" lon="11.7412419"><ele>772.0</ele><time>2026-04-04T15:46:52.218Z</time></trkpt><trkpt lat="45.95518" lon="11.741236"><ele>768.3333333333333</ele><time>2026-04-04T15:46:54.219Z</time></trkpt><trkpt lat="45.9552544" lon="11.7412165"><ele>764.6666666666666</ele><time>2026-04-04T15:46:57.219Z</time></trkpt><trkpt lat="45.955345" lon="11.7412261"><ele>761.0</ele><time>2026-04-04T15:46:59.218Z</time></trkpt><trkpt lat="45.9554171" lon="11.7412656"><ele>758.0</ele><time>2026-04-04T15:47:01.219Z</time></trkpt><trkpt lat="45.9555204" lon="11.7412972"><ele>755.0</ele><time>2026-04-04T15:47:03.219Z</time></trkpt><trkpt lat="45.955601" lon="11.7413262"><ele>752.0</ele><time>2026-04-04T15:47:05.219Z</time></trkpt><trkpt lat="45.955694" lon="11.7413564"><ele>749.0</ele><time>2026-04-04T15:47:07.219Z</time></trkpt><trkpt lat="45.9557758" lon="11.7413721"><ele>746.0</ele><time>2026-04-04T15:47:09.219Z</time></trkpt><trkpt lat="45.9558415" lon="11.7413892"><ele>743.0</ele><time>2026-04-04T15:47:11.219Z</time></trkpt><trkpt lat="45.9559039" lon="11.7414248"><ele>739.0</ele><time>2026-04-04T15:47:20.219Z</time></trkpt><trkpt lat="45.9559798" lon="11.7414633"><ele>735.0</ele><time>2026-04-04T15:47:22.219Z</time></trkpt><trkpt lat="45.9560676" lon="11.7415232"><ele>731.0</ele><time>2026-04-04T15:47:24.219Z</time></trkpt><trkpt lat="45.9561388" lon="11.7415784"><ele>727.0</ele><time>2026-04-04T15:47:26.219Z</time></trkpt><trkpt lat="45.9562218" lon="11.7416157"><ele>723.0</ele><time>2026-04-04T15:47:29.219Z</time></trkpt><trkpt lat="45.9562829" lon="11.7416478"><ele>719.0</ele><time>2026-04-04T15:47:31.219Z</time></trkpt><trkpt lat="45.9563503" lon="11.7416663"><ele>719.0</ele><time>2026-04-04T15:47:33.219Z</time></trkpt><trkpt lat="45.9564298" lon="11.7416527"><ele>719.0</ele><time>2026-04-04T15:47:36.219Z</time></trkpt><trkpt lat="45.9564876" lon="11.7416021"><ele>719.0</ele><time>2026-04-04T15:47:38.218Z</time></trkpt><trkpt lat="45.9565364" lon="11.7415123"><ele>719.0</ele><time>2026-04-04T15:47:42.218Z</time></trkpt><trkpt lat="45.9566067" lon="11.7415147"><ele>719.0</ele><time>2026-04-04T15:47:46.219Z</time></trkpt><trkpt lat="45.9566389" lon="11.7416127"><ele>719.0</ele><time>2026-04-04T15:47:49.219Z</time></trkpt><trkpt lat="45.9566649" lon="11.7417204"><ele>719.0</ele><time>2026-04-04T15:47:52.219Z</time></trkpt><trkpt lat="45.9566703" lon="11.74182"><ele>719.0</ele><time>2026-04-04T15:48:04.219Z</time></trkpt><trkpt lat="45.9567029" lon="11.7419369"><ele>719.0</ele><time>2026-04-04T15:48:09.219Z</time></trkpt><trkpt lat="45.9567094" lon="11.7420575"><ele>719.0</ele><time>2026-04-04T15:48:11.219Z</time></trkpt><trkpt lat="45.9567019" lon="11.7422133"><ele>719.0</ele><time>2026-04-04T15:48:13.219Z</time></trkpt><trkpt lat="45.9566782" lon="11.7423362"><ele>719.0</ele><time>2026-04-04T15:48:15.218Z</time></trkpt><trkpt lat="45.9566244" lon="11.7424843"><ele>716.2</ele><time>2026-04-04T15:48:17.218Z</time></trkpt><trkpt lat="45.9565831" lon="11.7425612"><ele>713.4000000000001</ele><time>2026-04-04T15:48:18.219Z</time></trkpt><trkpt lat="45.9564879" lon="11.7426824"><ele>710.6</ele><time>2026-04-04T15:48:19.218Z</time></trkpt><trkpt lat="45.9564345" lon="11.7428001"><ele>707.8</ele><time>2026-04-04T15:48:21.218Z</time></trkpt><trkpt lat="45.9564121" lon="11.7429568"><ele>705.0</ele><time>2026-04-04T15:48:23.219Z</time></trkpt><trkpt lat="45.9563954" lon="11.74306"><ele>703.1666666666666</ele><time>2026-04-04T15:48:24.218Z</time></trkpt><trkpt lat="45.9563911" lon="11.7431815"><ele>701.3333333333334</ele><time>2026-04-04T15:48:27.219Z</time></trkpt><trkpt lat="45.9564545" lon="11.7432694"><ele>699.5</ele><time>2026-04-04T15:48:30.219Z</time></trkpt><trkpt lat="45.95654" lon="11.7432951"><ele>697.6666666666667</ele><time>2026-04-04T15:48:33.218Z</time></trkpt><trkpt lat="45.9566215" lon="11.7432715"><ele>695.8333333333334</ele><time>2026-04-04T15:48:37.219Z</time></trkpt><trkpt lat="45.9566827" lon="11.743182"><ele>694.0</ele><time>2026-04-04T15:48:41.219Z</time></trkpt><trkpt lat="45.9567397" lon="11.7431228"><ele>689.6666666666667</ele><time>2026-04-04T15:48:43.219Z</time></trkpt><trkpt lat="45.9567992" lon="11.7430619"><ele>685.3333333333334</ele><time>2026-04-04T15:48:45.219Z</time></trkpt><trkpt lat="45.9568693" lon="11.7429959"><ele>681.0</ele><time>2026-04-04T15:48:47.219Z</time></trkpt><trkpt lat="45.9569317" lon="11.742911"><ele>676.6666666666666</ele><time>2026-04-04T15:48:49.219Z</time></trkpt><trkpt lat="45.9569909" lon="11.7428307"><ele>672.3333333333333</ele><time>2026-04-04T15:48:51.219Z</time></trkpt><trkpt lat="45.9570526" lon="11.7427358"><ele>668.0</ele><time>2026-04-04T15:48:54.219Z</time></trkpt><trkpt lat="45.9571133" lon="11.742664"><ele>668.0</ele><time>2026-04-04T15:48:56.219Z</time></trkpt><trkpt lat="45.957186" lon="11.7425861"><ele>668.0</ele><time>2026-04-04T15:48:58.218Z</time></trkpt><trkpt lat="45.95726" lon="11.7425063"><ele>668.0</ele><time>2026-04-04T15:49:00.219Z</time></trkpt><trkpt lat="45.9573309" lon="11.7424306"><ele>668.0</ele><time>2026-04-04T15:49:02.219Z</time></trkpt><trkpt lat="45.9574271" lon="11.7423307"><ele>668.0</ele><time>2026-04-04T15:49:04.219Z</time></trkpt><trkpt lat="45.9575011" lon="11.7422411"><ele>663.4</ele><time>2026-04-04T15:49:06.219Z</time></trkpt><trkpt lat="45.9575763" lon="11.7421592"><ele>658.8</ele><time>2026-04-04T15:49:08.219Z</time></trkpt><trkpt lat="45.957656" lon="11.7420725"><ele>654.2</ele><time>2026-04-04T15:49:10.219Z</time></trkpt><trkpt lat="45.9577044" lon="11.7420083"><ele>649.6</ele><time>2026-04-04T15:49:12.219Z</time></trkpt><trkpt lat="45.9577725" lon="11.7419134"><ele>645.0</ele><time>2026-04-04T15:49:14.219Z</time></trkpt><trkpt lat="45.9578774" lon="11.7417906"><ele>645.0</ele><time>2026-04-04T15:49:16.219Z</time></trkpt><trkpt lat="45.9579172" lon="11.7417091"><ele>645.0</ele><time>2026-04-04T15:49:18.219Z</time></trkpt><trkpt lat="45.9579827" lon="11.7416653"><ele>645.0</ele><time>2026-04-04T15:49:20.219Z</time></trkpt><trkpt lat="45.9580809" lon="11.7416556"><ele>645.0</ele><time>2026-04-04T15:49:23.218Z</time></trkpt><trkpt lat="45.9581522" lon="11.7415926"><ele>645.0</ele><time>2026-04-04T15:49:26.219Z</time></trkpt><trkpt lat="45.9582179" lon="11.7415586"><ele>645.0</ele><time>2026-04-04T15:49:28.219Z</time></trkpt><trkpt lat="45.9582784" lon="11.741523"><ele>645.0</ele><time>2026-04-04T15:49:30.219Z</time></trkpt><trkpt lat="45.9583434" lon="11.7414784"><ele>645.0</ele><time>2026-04-04T15:49:32.218Z</time></trkpt><trkpt lat="45.9584273" lon="11.7414303"><ele>645.0</ele><time>2026-04-04T15:49:34.219Z</time></trkpt><trkpt lat="45.9586249" lon="11.7413411"><ele>645.0</ele><time>2026-04-04T15:49:36.219Z</time></trkpt><trkpt lat="45.9587721" lon="11.7413664"><ele>638.0</ele><time>2026-04-04T15:49:38.219Z</time></trkpt><trkpt lat="45.9588942" lon="11.741366"><ele>631.0</ele><time>2026-04-04T15:49:40.218Z</time></trkpt><trkpt lat="45.9590553" lon="11.7413741"><ele>624.0</ele><time>2026-04-04T15:49:44.219Z</time></trkpt><trkpt lat="45.9591372" lon="11.7414449"><ele>617.0</ele><time>2026-04-04T15:49:46.218Z</time></trkpt><trkpt lat="45.9591977" lon="11.741503"><ele>613.1666666666666</ele><time>2026-04-04T15:49:48.219Z</time></trkpt><trkpt lat="45.9592582" lon="11.74156"><ele>609.3333333333333</ele><time>2026-04-04T15:49:52.219Z</time></trkpt><trkpt lat="45.9593155" lon="11.7416314"><ele>605.5</ele><time>2026-04-04T15:49:55.219Z</time></trkpt><trkpt lat="45.9593633" lon="11.7416924"><ele>601.6666666666666</ele><time>2026-04-04T15:49:57.219Z</time></trkpt><trkpt lat="45.9594666" lon="11.741711"><ele>597.8333333333334</ele><time>2026-04-04T15:50:00.218Z</time></trkpt><trkpt lat="45.9595589" lon="11.741687"><ele>594.0</ele><time>2026-04-04T15:50:02.218Z</time></trkpt><trkpt lat="45.9596573" lon="11.7416537"><ele>594.0</ele><time>2026-04-04T15:50:04.219Z</time></trkpt><trkpt lat="45.9597249" lon="11.7415769"><ele>594.0</ele><time>2026-04-04T15:50:06.219Z</time></trkpt><trkpt lat="45.9597641" lon="11.7414957"><ele>594.0</ele><time>2026-04-04T15:50:09.219Z</time></trkpt><trkpt lat="45.9598352" lon="11.7414688"><ele>594.0</ele><time>2026-04-04T15:50:13.218Z</time></trkpt><trkpt lat="45.959879" lon="11.7415374"><ele>594.0</ele><time>2026-04-04T15:50:15.219Z</time></trkpt><trkpt lat="45.9599496" lon="11.7415764"><ele>594.0</ele><time>2026-04-04T15:50:20.219Z</time></trkpt><trkpt lat="45.9600025" lon="11.741642"><ele>594.0</ele><time>2026-04-04T15:50:23.218Z</time></trkpt><trkpt lat="45.9600788" lon="11.741741"><ele>588.8</ele><time>2026-04-04T15:50:26.218Z</time></trkpt><trkpt lat="45.96013" lon="11.7418516"><ele>583.5999999999999</ele><time>2026-04-04T15:50:28.218Z</time></trkpt><trkpt lat="45.9601499" lon="11.7420182"><ele>578.4</ele><time>2026-04-04T15:50:30.218Z</time></trkpt><trkpt lat="45.9601005" lon="11.7421808"><ele>573.1999999999999</ele><time>2026-04-04T15:50:32.219Z</time></trkpt><trkpt lat="45.9600553" lon="11.7422693"><ele>568.0</ele><time>2026-04-04T15:50:34.219Z</time></trkpt><trkpt lat="45.9600833" lon="11.7423726"><ele>566.2857142857142</ele><time>2026-04-04T15:50:54.218Z</time></trkpt><trkpt lat="45.9601499" lon="11.7423624"><ele>564.5714285714286</ele><time>2026-04-04T15:50:59.218Z</time></trkpt><trkpt lat="45.9602074" lon="11.7423223"><ele>562.8571428571429</ele><time>2026-04-04T15:51:01.219Z</time></trkpt><trkpt lat="45.9602776" lon="11.7422767"><ele>561.1428571428571</ele><time>2026-04-04T15:51:05.219Z</time></trkpt><trkpt lat="45.9603331" lon="11.7422312"><ele>559.4285714285714</ele><time>2026-04-04T15:51:08.219Z</time></trkpt><trkpt lat="45.9604004" lon="11.742192"><ele>557.7142857142857</ele><time>2026-04-04T15:51:13.219Z</time></trkpt><trkpt lat="45.9604699" lon="11.7421708"><ele>556.0</ele><time>2026-04-04T15:51:17.219Z</time></trkpt><trkpt lat="45.9605389" lon="11.742159"><ele>556.0</ele><time>2026-04-04T15:51:22.219Z</time></trkpt><trkpt lat="45.960615" lon="11.7421739"><ele>556.0</ele><time>2026-04-04T15:51:25.219Z</time></trkpt><trkpt lat="45.9606928" lon="11.7421625"><ele>556.0</ele><time>2026-04-04T15:51:29.219Z</time></trkpt><trkpt lat="45.9607582" lon="11.7421534"><ele>556.0</ele><time>2026-04-04T15:51:32.218Z</time></trkpt><trkpt lat="45.9608246" lon="11.7421494"><ele>556.0</ele><time>2026-04-04T15:51:36.218Z</time></trkpt><trkpt lat="45.9608992" lon="11.7421199"><ele>556.0</ele><time>2026-04-04T15:51:40.219Z</time></trkpt><trkpt lat="45.9609664" lon="11.7421218"><ele>556.0</ele><time>2026-04-04T15:51:44.219Z</time></trkpt><trkpt lat="45.9610099" lon="11.7422016"><ele>559.2</ele><time>2026-04-04T15:51:47.219Z</time></trkpt><trkpt lat="45.9610387" lon="11.742323"><ele>562.4000000000001</ele><time>2026-04-04T15:51:50.219Z</time></trkpt><trkpt lat="45.9610476" lon="11.7425301"><ele>565.6</ele><time>2026-04-04T15:51:53.219Z</time></trkpt><trkpt lat="45.9610342" lon="11.7426463"><ele>568.8000000000001</ele><time>2026-04-04T15:51:55.219Z</time></trkpt><trkpt lat="45.9610238" lon="11.7427886"><ele>572.0</ele><time>2026-04-04T15:51:57.219Z</time></trkpt><trkpt lat="45.9610384" lon="11.7429015"><ele>572.0</ele><time>2026-04-04T15:51:59.219Z</time></trkpt><trkpt lat="45.9610382" lon="11.7430042"><ele>572.0</ele><time>2026-04-04T15:52:01.219Z</time></trkpt><trkpt lat="45.9610625" lon="11.7431329"><ele>572.0</ele><time>2026-04-04T15:52:05.219Z</time></trkpt><trkpt lat="45.9610687" lon="11.7432374"><ele>572.0</ele><time>2026-04-04T15:52:07.218Z</time></trkpt><trkpt lat="45.9610707" lon="11.7433556"><ele>572.0</ele><time>2026-04-04T15:52:09.219Z</time></trkpt><trkpt lat="45.9610699" lon="11.7434782"><ele>572.0</ele><time>2026-04-04T15:52:11.219Z</time></trkpt><trkpt lat="45.9610675" lon="11.7435972"><ele>571.0</ele><time>2026-04-04T15:52:13.219Z</time></trkpt><trkpt lat="45.9610781" lon="11.7437142"><ele>570.0</ele><time>2026-04-04T15:52:15.219Z</time></trkpt><trkpt lat="45.9610882" lon="11.7438171"><ele>569.0</ele><time>2026-04-04T15:52:17.219Z</time></trkpt><trkpt lat="45.9611049" lon="11.7439439"><ele>568.0</ele><time>2026-04-04T15:52:19.219Z</time></trkpt><trkpt lat="45.961117" lon="11.7440626"><ele>567.0</ele><time>2026-04-04T15:52:21.219Z</time></trkpt><trkpt lat="45.9611067" lon="11.74418"><ele>566.0</ele><time>2026-04-04T15:52:22.219Z</time></trkpt><trkpt lat="45.9610514" lon="11.7443554"><ele>565.1666666666666</ele><time>2026-04-04T15:52:24.219Z</time></trkpt><trkpt lat="45.960997" lon="11.7444924"><ele>564.3333333333333</ele><time>2026-04-04T15:52:26.219Z</time></trkpt><trkpt lat="45.9609629" lon="11.7445839"><ele>563.5</ele><time>2026-04-04T15:52:27.219Z</time></trkpt><trkpt lat="45.9609527" lon="11.744676"><ele>562.6666666666666</ele><time>2026-04-04T15:52:28.218Z</time></trkpt><trkpt lat="45.9609239" lon="11.7447617"><ele>561.8333333333334</ele><time>2026-04-04T15:52:29.219Z</time></trkpt><trkpt lat="45.960891" lon="11.7448455"><ele>561.0</ele><time>2026-04-04T15:52:30.219Z</time></trkpt><trkpt lat="45.9608506" lon="11.7449458"><ele>552.2</ele><time>2026-04-04T15:52:31.219Z</time></trkpt><trkpt lat="45.9608267" lon="11.7450426"><ele>543.4000000000001</ele><time>2026-04-04T15:52:32.219Z</time></trkpt><trkpt lat="45.9608007" lon="11.7451327"><ele>534.6</ele><time>2026-04-04T15:52:33.218Z</time></trkpt><trkpt lat="45.9607574" lon="11.7452872"><ele>525.8000000000001</ele><time>2026-04-04T15:52:35.218Z</time></trkpt><trkpt lat="45.9606913" lon="11.7454573"><ele>517.0</ele><time>2026-04-04T15:52:37.219Z</time></trkpt><trkpt lat="45.9606298" lon="11.7455607"><ele>516.1666666666667</ele><time>2026-04-04T15:52:39.218Z</time></trkpt><trkpt lat="45.960625" lon="11.745662"><ele>515.3333333333334</ele><time>2026-04-04T15:52:41.219Z</time></trkpt><trkpt lat="45.9606155" lon="11.7457671"><ele>514.5</ele><time>2026-04-04T15:52:43.219Z</time></trkpt><trkpt lat="45.9605728" lon="11.7458679"><ele>513.6666666666666</ele><time>2026-04-04T15:52:46.219Z</time></trkpt><trkpt lat="45.9605459" lon="11.7459701"><ele>512.8333333333333</ele><time>2026-04-04T15:52:49.219Z</time></trkpt><trkpt lat="45.960539" lon="11.7460705"><ele>512.0</ele><time>2026-04-04T15:52:51.219Z</time></trkpt><trkpt lat="45.9605197" lon="11.7461804"><ele>511.99999999999994</ele><time>2026-04-04T15:52:53.219Z</time></trkpt><trkpt lat="45.9604958" lon="11.7462831"><ele>512.0</ele><time>2026-04-04T15:52:55.219Z</time></trkpt><trkpt lat="45.960441" lon="11.7463756"><ele>512.0</ele><time>2026-04-04T15:52:58.219Z</time></trkpt><trkpt lat="45.9603914" lon="11.7464794"><ele>512.0</ele><time>2026-04-04T15:53:01.219Z</time></trkpt><trkpt lat="45.9603607" lon="11.7465589"><ele>511.99999999999994</ele><time>2026-04-04T15:53:04.219Z</time></trkpt><trkpt lat="45.9603073" lon="11.7466629"><ele>512.0</ele><time>2026-04-04T15:53:07.219Z</time></trkpt><trkpt lat="45.9602656" lon="11.7467347"><ele>512.0</ele><time>2026-04-04T15:53:09.219Z</time></trkpt><trkpt lat="45.9602353" lon="11.7468395"><ele>511.99999999999994</ele><time>2026-04-04T15:53:11.219Z</time></trkpt><trkpt lat="45.9602224" lon="11.7469311"><ele>512.0</ele><time>2026-04-04T15:53:13.218Z</time></trkpt><trkpt lat="45.9602143" lon="11.7470256"><ele>512.0</ele><time>2026-04-04T15:53:15.218Z</time></trkpt><trkpt lat="45.9602057" lon="11.7471367"><ele>511.99999999999994</ele><time>2026-04-04T15:53:19.219Z</time></trkpt><trkpt lat="45.9601954" lon="11.7472622"><ele>512.0</ele><time>2026-04-04T15:53:22.219Z</time></trkpt><trkpt lat="45.9601761" lon="11.7473583"><ele>512.0</ele><time>2026-04-04T15:53:24.219Z</time></trkpt><trkpt lat="45.9601631" lon="11.7474864"><ele>511.66666666666663</ele><time>2026-04-04T15:53:26.219Z</time></trkpt><trkpt lat="45.9601485" lon="11.7476086"><ele>511.3333333333333</ele><time>2026-04-04T15:53:28.219Z</time></trkpt><trkpt lat="45.9601269" lon="11.7477105"><ele>511.0</ele><time>2026-04-04T15:53:30.219Z</time></trkpt><trkpt lat="45.96012" lon="11.7478219"><ele>510.66666666666663</ele><time>2026-04-04T15:53:32.218Z</time></trkpt><trkpt lat="45.9601081" lon="11.7479279"><ele>510.3333333333333</ele><time>2026-04-04T15:53:35.219Z</time></trkpt><trkpt lat="45.9600743" lon="11.7480336"><ele>510.0</ele><time>2026-04-04T15:53:37.218Z</time></trkpt><trkpt lat="45.9600565" lon="11.7481809"><ele>509.6666666666667</ele><time>2026-04-04T15:53:39.219Z</time></trkpt><trkpt lat="45.9600407" lon="11.7483204"><ele>509.33333333333337</ele><time>2026-04-04T15:53:41.219Z</time></trkpt><trkpt lat="45.9600195" lon="11.7484639"><ele>509.0</ele><time>2026-04-04T15:53:43.218Z</time></trkpt><trkpt lat="45.960003" lon="11.7485834"><ele>508.6666666666667</ele><time>2026-04-04T15:53:45.218Z</time></trkpt><trkpt lat="45.9600014" lon="11.7487042"><ele>508.33333333333337</ele><time>2026-04-04T15:53:48.218Z</time></trkpt><trkpt lat="45.9600122" lon="11.7487948"><ele>508.0</ele><time>2026-04-04T15:53:53.219Z</time></trkpt><trkpt lat="45.9599838" lon="11.748924"><ele>496.4</ele><time>2026-04-04T15:53:56.219Z</time></trkpt><trkpt lat="45.9599362" lon="11.7490675"><ele>484.79999999999995</ele><time>2026-04-04T15:53:58.219Z</time></trkpt><trkpt lat="45.9598882" lon="11.7492094"><ele>473.2</ele><time>2026-04-04T15:54:00.219Z</time></trkpt><trkpt lat="45.9598369" lon="11.7493161"><ele>461.6</ele><time>2026-04-04T15:54:03.219Z</time></trkpt><trkpt lat="45.959799" lon="11.7494116"><ele>450.0</ele><time>2026-04-04T15:54:05.219Z</time></trkpt><trkpt lat="45.9597386" lon="11.7495106"><ele>448.1666666666667</ele><time>2026-04-04T15:54:08.219Z</time></trkpt><trkpt lat="45.9596783" lon="11.7495831"><ele>446.33333333333337</ele><time>2026-04-04T15:54:10.219Z</time></trkpt><trkpt lat="45.9596036" lon="11.7496602"><ele>444.5</ele><time>2026-04-04T15:54:12.219Z</time></trkpt><trkpt lat="45.9595515" lon="11.7497451"><ele>442.6666666666667</ele><time>2026-04-04T15:54:14.218Z</time></trkpt><trkpt lat="45.95954" lon="11.7498365"><ele>440.83333333333337</ele><time>2026-04-04T15:54:16.218Z</time></trkpt><trkpt lat="45.9595603" lon="11.7499409"><ele>439.0</ele><time>2026-04-04T15:54:19.219Z</time></trkpt><trkpt lat="45.9595961" lon="11.7500386"><ele>439.00000000000006</ele><time>2026-04-04T15:54:22.219Z</time></trkpt><trkpt lat="45.9596208" lon="11.7501343"><ele>439.0</ele><time>2026-04-04T15:54:24.219Z</time></trkpt><trkpt lat="45.9596423" lon="11.7502672"><ele>439.0</ele><time>2026-04-04T15:54:27.219Z</time></trkpt><trkpt lat="45.9596509" lon="11.7503679"><ele>439.0</ele><time>2026-04-04T15:54:29.219Z</time></trkpt><trkpt lat="45.9596688" lon="11.7504585"><ele>439.00000000000006</ele><time>2026-04-04T15:54:31.219Z</time></trkpt><trkpt lat="45.9597072" lon="11.7505831"><ele>439.0</ele><time>2026-04-04T15:54:33.219Z</time></trkpt><trkpt lat="45.9597479" lon="11.7507265"><ele>433.2</ele><time>2026-04-04T15:54:35.219Z</time></trkpt><trkpt lat="45.9597674" lon="11.7509041"><ele>427.4</ele><time>2026-04-04T15:54:37.219Z</time></trkpt><trkpt lat="45.9597912" lon="11.7510368"><ele>421.6</ele><time>2026-04-04T15:54:39.219Z</time></trkpt><trkpt lat="45.959809" lon="11.7511608"><ele>415.8</ele><time>2026-04-04T15:54:41.219Z</time></trkpt><trkpt lat="45.9598572" lon="11.7512794"><ele>410.0</ele><time>2026-04-04T15:54:44.219Z</time></trkpt><trkpt lat="45.9599074" lon="11.7513935"><ele>405.8333333333333</ele><time>2026-04-04T15:54:46.219Z</time></trkpt><trkpt lat="45.9599373" lon="11.7515118"><ele>401.66666666666663</ele><time>2026-04-04T15:54:48.219Z</time></trkpt><trkpt lat="45.9599714" lon="11.751629"><ele>397.5</ele><time>2026-04-04T15:54:50.219Z</time></trkpt><trkpt lat="45.9599998" lon="11.7517192"><ele>393.33333333333337</ele><time>2026-04-04T15:54:52.219Z</time></trkpt><trkpt lat="45.9600238" lon="11.7518053"><ele>389.1666666666667</ele><time>2026-04-04T15:54:54.219Z</time></trkpt><trkpt lat="45.9600527" lon="11.7519052"><ele>385.0</ele><time>2026-04-04T15:54:56.219Z</time></trkpt><trkpt lat="45.9600811" lon="11.7520353"><ele>385.0</ele><time>2026-04-04T15:54:58.219Z</time></trkpt><trkpt lat="45.9601269" lon="11.7521731"><ele>385.0</ele><time>2026-04-04T15:55:00.219Z</time></trkpt><trkpt lat="45.960168" lon="11.7523062"><ele>385.0</ele><time>2026-04-04T15:55:01.219Z</time></trkpt><trkpt lat="45.960246" lon="11.7524181"><ele>385.0</ele><time>2026-04-04T15:55:03.219Z</time></trkpt><trkpt lat="45.9602992" lon="11.7525015"><ele>385.0</ele><time>2026-04-04T15:55:05.219Z</time></trkpt><trkpt lat="45.9603611" lon="11.7526306"><ele>377.0</ele><time>2026-04-04T15:55:07.219Z</time></trkpt><trkpt lat="45.9604119" lon="11.7527776"><ele>369.0</ele><time>2026-04-04T15:55:09.219Z</time></trkpt><trkpt lat="45.9604447" lon="11.7529258"><ele>361.0</ele><time>2026-04-04T15:55:11.219Z</time></trkpt><trkpt lat="45.960506" lon="11.7530832"><ele>353.0</ele><time>2026-04-04T15:55:13.218Z</time></trkpt><trkpt lat="45.9605692" lon="11.7531481"><ele>345.0</ele><time>2026-04-04T15:55:14.219Z</time></trkpt><trkpt lat="45.9606483" lon="11.7532839"><ele>345.0</ele><time>2026-04-04T15:55:16.219Z</time></trkpt><trkpt lat="45.960688" lon="11.7533702"><ele>345.0</ele><time>2026-04-04T15:55:17.219Z</time></trkpt><trkpt lat="45.9607074" lon="11.7535273"><ele>345.0</ele><time>2026-04-04T15:55:19.218Z</time></trkpt><trkpt lat="45.9607451" lon="11.7536033"><ele>345.0</ele><time>2026-04-04T15:55:20.219Z</time></trkpt><trkpt lat="45.9607974" lon="11.7536799"><ele>345.0</ele><time>2026-04-04T15:55:22.219Z</time></trkpt><trkpt lat="45.9608615" lon="11.7538324"><ele>345.0</ele><time>2026-04-04T15:55:24.219Z</time></trkpt><trkpt lat="45.9609042" lon="11.753952"><ele>344.2</ele><time>2026-04-04T15:55:26.219Z</time></trkpt><trkpt lat="45.9609667" lon="11.7540667"><ele>343.4</ele><time>2026-04-04T15:55:29.219Z</time></trkpt><trkpt lat="45.9610216" lon="11.7541557"><ele>342.6</ele><time>2026-04-04T15:55:31.218Z</time></trkpt><trkpt lat="45.961093" lon="11.7542593"><ele>341.8</ele><time>2026-04-04T15:55:33.219Z</time></trkpt><trkpt lat="45.9611474" lon="11.754363"><ele>341.0</ele><time>2026-04-04T15:55:34.219Z</time></trkpt><trkpt lat="45.9612091" lon="11.7544882"><ele>333.2</ele><time>2026-04-04T15:55:36.218Z</time></trkpt><trkpt lat="45.9612456" lon="11.7545908"><ele>325.40000000000003</ele><time>2026-04-04T15:55:38.219Z</time></trkpt><trkpt lat="45.9613055" lon="11.7546959"><ele>317.6</ele><time>2026-04-04T15:55:40.219Z</time></trkpt><trkpt lat="45.961373" lon="11.7547592"><ele>309.8</ele><time>2026-04-04T15:55:42.219Z</time></trkpt><trkpt lat="45.9614827" lon="11.7548964"><ele>302.0</ele><time>2026-04-04T15:55:44.219Z</time></trkpt><trkpt lat="45.9615411" lon="11.7549658"><ele>302.0</ele><time>2026-04-04T15:55:45.219Z</time></trkpt><trkpt lat="45.9616084" lon="11.7550039"><ele>302.0</ele><time>2026-04-04T15:55:46.219Z</time></trkpt><trkpt lat="45.9616766" lon="11.75513"><ele>302.0</ele><time>2026-04-04T15:55:48.218Z</time></trkpt><trkpt lat="45.9617439" lon="11.755233"><ele>302.0</ele><time>2026-04-04T15:55:50.219Z</time></trkpt><trkpt lat="45.9617755" lon="11.7553544"><ele>302.0</ele><time>2026-04-04T15:55:52.219Z</time></trkpt><trkpt lat="45.9617886" lon="11.7554711"><ele>299.83333333333337</ele><time>2026-04-04T15:55:54.219Z</time></trkpt><trkpt lat="45.9618373" lon="11.755556"><ele>297.6666666666667</ele><time>2026-04-04T15:55:56.219Z</time></trkpt><trkpt lat="45.9619109" lon="11.7556939"><ele>295.5</ele><time>2026-04-04T15:55:58.219Z</time></trkpt><trkpt lat="45.9619602" lon="11.7557857"><ele>293.3333333333333</ele><time>2026-04-04T15:56:00.219Z</time></trkpt><trkpt lat="45.9620047" lon="11.7558589"><ele>291.16666666666663</ele><time>2026-04-04T15:56:02.219Z</time></trkpt><trkpt lat="45.9620363" lon="11.7559497"><ele>289.0</ele><time>2026-04-04T15:56:05.219Z</time></trkpt><trkpt lat="45.9621154" lon="11.7560376"><ele>285.8333333333333</ele><time>2026-04-04T15:56:08.219Z</time></trkpt><trkpt lat="45.9621685" lon="11.7561139"><ele>282.66666666666663</ele><time>2026-04-04T15:56:10.219Z</time></trkpt><trkpt lat="45.9622375" lon="11.7561481"><ele>279.5</ele><time>2026-04-04T15:56:11.219Z</time></trkpt><trkpt lat="45.9622983" lon="11.7561738"><ele>276.3333333333333</ele><time>2026-04-04T15:56:12.218Z</time></trkpt><trkpt lat="45.9623597" lon="11.7561947"><ele>273.1666666666667</ele><time>2026-04-04T15:56:13.219Z</time></trkpt><trkpt lat="45.9624926" lon="11.7562238"><ele>270.0</ele><time>2026-04-04T15:56:15.219Z</time></trkpt><trkpt lat="45.9625616" lon="11.7562375"><ele>270.0</ele><time>2026-04-04T15:56:16.219Z</time></trkpt><trkpt lat="45.9626447" lon="11.7562335"><ele>270.0</ele><time>2026-04-04T15:56:17.219Z</time></trkpt><trkpt lat="45.962726" lon="11.7562469"><ele>270.0</ele><time>2026-04-04T15:56:18.219Z</time></trkpt><trkpt lat="45.9628017" lon="11.756256"><ele>270.0</ele><time>2026-04-04T15:56:19.219Z</time></trkpt><trkpt lat="45.9628764" lon="11.7562386"><ele>270.0</ele><time>2026-04-04T15:56:20.219Z</time></trkpt><trkpt lat="45.9629563" lon="11.7562448"><ele>270.0</ele><time>2026-04-04T15:56:21.219Z</time></trkpt><trkpt lat="45.9630357" lon="11.7562366"><ele>270.0</ele><time>2026-04-04T15:56:22.219Z</time></trkpt><trkpt lat="45.9631224" lon="11.7562286"><ele>270.0</ele><time>2026-04-04T15:56:23.219Z</time></trkpt><trkpt lat="45.9631877" lon="11.7562305"><ele>270.0</ele><time>2026-04-04T15:56:24.219Z</time></trkpt><trkpt lat="45.9633086" lon="11.7562291"><ele>270.0</ele><time>2026-04-04T15:56:26.219Z</time></trkpt><trkpt lat="45.9633692" lon="11.7562033"><ele>270.0</ele><time>2026-04-04T15:56:27.219Z</time></trkpt><trkpt lat="45.9634448" lon="11.7561996"><ele>270.0</ele><time>2026-04-04T15:56:28.219Z</time></trkpt><trkpt lat="45.9635208" lon="11.7562026"><ele>270.0</ele><time>2026-04-04T15:56:29.219Z</time></trkpt><trkpt lat="45.9636057" lon="11.7562035"><ele>270.0</ele><time>2026-04-04T15:56:30.219Z</time></trkpt><trkpt lat="45.9637172" lon="11.7562008"><ele>270.0</ele><time>2026-04-04T15:56:31.219Z</time></trkpt><trkpt lat="45.9638109" lon="11.7561507"><ele>270.0</ele><time>2026-04-04T15:56:32.219Z</time></trkpt><trkpt lat="45.9639216" lon="11.7561515"><ele>270.0</ele><time>2026-04-04T15:56:33.218Z</time></trkpt><trkpt lat="45.9640498" lon="11.7561182"><ele>270.0</ele><time>2026-04-04T15:56:34.219Z</time></trkpt><trkpt lat="45.9641442" lon="11.7561041"><ele>270.0</ele><time>2026-04-04T15:56:35.218Z</time></trkpt><trkpt lat="45.9642297" lon="11.7560932"><ele>270.0</ele><time>2026-04-04T15:56:36.219Z</time></trkpt><trkpt lat="45.9643107" lon="11.7560671"><ele>270.0</ele><time>2026-04-04T15:56:37.219Z</time></trkpt><trkpt lat="45.9643953" lon="11.7560495"><ele>270.0</ele><time>2026-04-04T15:56:38.218Z</time></trkpt><trkpt lat="45.9644802" lon="11.7560595"><ele>270.0</ele><time>2026-04-04T15:56:39.219Z</time></trkpt><trkpt lat="45.9645602" lon="11.7560754"><ele>272.2</ele><time>2026-04-04T15:56:40.218Z</time></trkpt><trkpt lat="45.9646359" lon="11.7561473"><ele>274.4</ele><time>2026-04-04T15:56:41.219Z</time></trkpt><trkpt lat="45.9647065" lon="11.7562236"><ele>276.6</ele><time>2026-04-04T15:56:42.219Z</time></trkpt><trkpt lat="45.9647497" lon="11.7563393"><ele>278.8</ele><time>2026-04-04T15:56:43.219Z</time></trkpt><trkpt lat="45.9647946" lon="11.7564803"><ele>281.0</ele><time>2026-04-04T15:56:44.219Z</time></trkpt><trkpt lat="45.964835" lon="11.7566343"><ele>281.0</ele><time>2026-04-04T15:56:45.219Z</time></trkpt><trkpt lat="45.964895" lon="11.7567868"><ele>281.0</ele><time>2026-04-04T15:56:46.219Z</time></trkpt><trkpt lat="45.9650033" lon="11.7570292"><ele>281.0</ele><time>2026-04-04T15:56:48.218Z</time></trkpt><trkpt lat="45.9650371" lon="11.7571507"><ele>281.0</ele><time>2026-04-04T15:56:49.219Z</time></trkpt><trkpt lat="45.9650621" lon="11.7572749"><ele>280.83333333333337</ele><time>2026-04-04T15:56:50.219Z</time></trkpt><trkpt lat="45.965058" lon="11.7574043"><ele>280.6666666666667</ele><time>2026-04-04T15:56:51.219Z</time></trkpt><trkpt lat="45.965051" lon="11.7575166"><ele>280.5</ele><time>2026-04-04T15:56:52.219Z</time></trkpt><trkpt lat="45.9650354" lon="11.7576204"><ele>280.3333333333333</ele><time>2026-04-04T15:56:53.219Z</time></trkpt><trkpt lat="45.9650251" lon="11.7577193"><ele>280.16666666666663</ele><time>2026-04-04T15:56:54.219Z</time></trkpt><trkpt lat="45.9650367" lon="11.7578196"><ele>280.0</ele><time>2026-04-04T15:56:55.218Z</time></trkpt><trkpt lat="45.9650669" lon="11.7579181"><ele>280.0</ele><time>2026-04-04T15:56:56.218Z</time></trkpt><trkpt lat="45.9651338" lon="11.7579972"><ele>280.0</ele><time>2026-04-04T15:56:57.219Z</time></trkpt><trkpt lat="45.9651818" lon="11.7580832"><ele>280.0</ele><time>2026-04-04T15:56:58.218Z</time></trkpt><trkpt lat="45.9652293" lon="11.7581608"><ele>280.0</ele><time>2026-04-04T15:56:59.219Z</time></trkpt><trkpt lat="45.965334" lon="11.7583265"><ele>280.0</ele><time>2026-04-04T15:57:01.219Z</time></trkpt><trkpt lat="45.9653844" lon="11.7584175"><ele>280.0</ele><time>2026-04-04T15:57:02.219Z</time></trkpt><trkpt lat="45.9654295" lon="11.7585076"><ele>280.0</ele><time>2026-04-04T15:57:03.219Z</time></trkpt><trkpt lat="45.9654591" lon="11.7586397"><ele>280.0</ele><time>2026-04-04T15:57:05.219Z</time></trkpt><trkpt lat="45.9654423" lon="11.7587695"><ele>280.0</ele><time>2026-04-04T15:57:07.219Z</time></trkpt><trkpt lat="45.9653579" lon="11.7588572"><ele>280.0</ele><time>2026-04-04T15:57:09.219Z</time></trkpt><trkpt lat="45.9652308" lon="11.7589736"><ele>279.3333333333333</ele><time>2026-04-04T15:57:11.219Z</time></trkpt><trkpt lat="45.9651627" lon="11.7590469"><ele>278.66666666666663</ele><time>2026-04-04T15:57:12.219Z</time></trkpt><trkpt lat="45.9650992" lon="11.7591177"><ele>278.0</ele><time>2026-04-04T15:57:13.218Z</time></trkpt><trkpt lat="45.9650412" lon="11.7591889"><ele>277.3333333333333</ele><time>2026-04-04T15:57:14.218Z</time></trkpt><trkpt lat="45.9649867" lon="11.7592454"><ele>276.6666666666667</ele><time>2026-04-04T15:57:15.219Z</time></trkpt><trkpt lat="45.9649286" lon="11.7592947"><ele>276.0</ele><time>2026-04-04T15:57:16.219Z</time></trkpt><trkpt lat="45.9648336" lon="11.759363"><ele>276.0</ele><time>2026-04-04T15:57:18.219Z</time></trkpt><trkpt lat="45.9647657" lon="11.7594651"><ele>276.0</ele><time>2026-04-04T15:57:20.219Z</time></trkpt><trkpt lat="45.9646908" lon="11.7595385"><ele>276.0</ele><time>2026-04-04T15:57:22.219Z</time></trkpt><trkpt lat="45.9646209" lon="11.7594869"><ele>276.0</ele><time>2026-04-04T15:57:24.219Z</time></trkpt><trkpt lat="45.9645427" lon="11.7593855"><ele>276.0</ele><time>2026-04-04T15:57:26.219Z</time></trkpt><trkpt lat="45.9644732" lon="11.759254"><ele>276.0</ele><time>2026-04-04T15:57:28.218Z</time></trkpt><trkpt lat="45.9644085" lon="11.7591637"><ele>276.0</ele><time>2026-04-04T15:57:30.219Z</time></trkpt><trkpt lat="45.9642967" lon="11.7591168"><ele>276.0</ele><time>2026-04-04T15:57:32.218Z</time></trkpt><trkpt lat="45.9642121" lon="11.7591388"><ele>276.0</ele><time>2026-04-04T15:57:34.219Z</time></trkpt><trkpt lat="45.9641291" lon="11.7591562"><ele>276.0</ele><time>2026-04-04T15:57:36.219Z</time></trkpt><trkpt lat="45.9640631" lon="11.7591667"><ele>276.0</ele><time>2026-04-04T15:57:38.219Z</time></trkpt><trkpt lat="45.9639869" lon="11.7592157"><ele>270.0</ele><time>2026-04-04T15:57:41.219Z</time></trkpt></trkseg></trk></gpx>